<?xml version="1.0" encoding="UTF-8" standalone="no" ?>
<gpx xmlns="http://www.topografix.com/GPX/1/1" xmlns:xsi="http://www.w3.org/2001/XMLSchema-instance" xsi:schemaLocation="http://www.topografix.com/GPX/1/1 http://www.topografix.com/GPX/1/1/gpx.xsd" version="1.1" creator="VisuGPX - https://www.visugpx.com">
  <metadata>
    <name>Montagne de Mairola</name>
    <desc><![CDATA[Montagne de Mairola]]></desc>
  </metadata>
  <trk>
    <name><![CDATA[Tracé actuel: 19 SEP 2015 09:09]]></name>
    <trkseg>
      <trkpt lat="43.9739" lon="6.91981">
        <ele>716.8</ele>
        <time>2015-09-19T07:09:02Z</time>
      </trkpt>
      <trkpt lat="43.9739" lon="6.91981">
        <ele>716.8</ele>
        <time>2015-09-19T07:09:03Z</time>
      </trkpt>
      <trkpt lat="43.9739" lon="6.91981">
        <ele>717.28</ele>
        <time>2015-09-19T07:09:04Z</time>
      </trkpt>
      <trkpt lat="43.97389" lon="6.91982">
        <ele>716.32</ele>
        <time>2015-09-19T07:09:15Z</time>
      </trkpt>
      <trkpt lat="43.9739" lon="6.91982">
        <ele>716.32</ele>
        <time>2015-09-19T07:09:27Z</time>
      </trkpt>
      <trkpt lat="43.9739" lon="6.91982">
        <ele>717.28</ele>
        <time>2015-09-19T07:09:32Z</time>
      </trkpt>
      <trkpt lat="43.9739" lon="6.91981">
        <ele>716.8</ele>
        <time>2015-09-19T07:09:40Z</time>
      </trkpt>
      <trkpt lat="43.97389" lon="6.91981">
        <ele>717.28</ele>
        <time>2015-09-19T07:09:57Z</time>
      </trkpt>
      <trkpt lat="43.97389" lon="6.91981">
        <ele>716.8</ele>
        <time>2015-09-19T07:09:58Z</time>
      </trkpt>
      <trkpt lat="43.9739" lon="6.91981">
        <ele>715.84</ele>
        <time>2015-09-19T07:10:04Z</time>
      </trkpt>
      <trkpt lat="43.9739" lon="6.91981">
        <ele>715.84</ele>
        <time>2015-09-19T07:10:21Z</time>
      </trkpt>
      <trkpt lat="43.9739" lon="6.91983">
        <ele>716.32</ele>
        <time>2015-09-19T07:10:34Z</time>
      </trkpt>
      <trkpt lat="43.9739" lon="6.91983">
        <ele>715.84</ele>
        <time>2015-09-19T07:10:44Z</time>
      </trkpt>
      <trkpt lat="43.9739" lon="6.91983">
        <ele>716.8</ele>
        <time>2015-09-19T07:10:52Z</time>
      </trkpt>
      <trkpt lat="43.97391" lon="6.91977">
        <ele>716.8</ele>
        <time>2015-09-19T07:10:59Z</time>
      </trkpt>
      <trkpt lat="43.97391" lon="6.91975">
        <ele>716.8</ele>
        <time>2015-09-19T07:11:05Z</time>
      </trkpt>
      <trkpt lat="43.97394" lon="6.9197">
        <ele>716.8</ele>
        <time>2015-09-19T07:11:11Z</time>
      </trkpt>
      <trkpt lat="43.97396" lon="6.91963">
        <ele>716.8</ele>
        <time>2015-09-19T07:11:18Z</time>
      </trkpt>
      <trkpt lat="43.97396" lon="6.91958">
        <ele>716.32</ele>
        <time>2015-09-19T07:11:23Z</time>
      </trkpt>
      <trkpt lat="43.97395" lon="6.91955">
        <ele>716.8</ele>
        <time>2015-09-19T07:11:25Z</time>
      </trkpt>
      <trkpt lat="43.97396" lon="6.91945">
        <ele>717.76</ele>
        <time>2015-09-19T07:11:32Z</time>
      </trkpt>
      <trkpt lat="43.97396" lon="6.91936">
        <ele>719.2</ele>
        <time>2015-09-19T07:11:40Z</time>
      </trkpt>
      <trkpt lat="43.97395" lon="6.91928">
        <ele>720.16</ele>
        <time>2015-09-19T07:11:47Z</time>
      </trkpt>
      <trkpt lat="43.97395" lon="6.91919">
        <ele>721.61</ele>
        <time>2015-09-19T07:11:55Z</time>
      </trkpt>
      <trkpt lat="43.97395" lon="6.91913">
        <ele>722.09</ele>
        <time>2015-09-19T07:12:01Z</time>
      </trkpt>
      <trkpt lat="43.97393" lon="6.91908">
        <ele>722.57</ele>
        <time>2015-09-19T07:12:08Z</time>
      </trkpt>
      <trkpt lat="43.97393" lon="6.91903">
        <ele>722.09</ele>
        <time>2015-09-19T07:12:13Z</time>
      </trkpt>
      <trkpt lat="43.97395" lon="6.919">
        <ele>722.57</ele>
        <time>2015-09-19T07:12:20Z</time>
      </trkpt>
      <trkpt lat="43.97395" lon="6.91901">
        <ele>722.57</ele>
        <time>2015-09-19T07:12:27Z</time>
      </trkpt>
      <trkpt lat="43.97394" lon="6.91893">
        <ele>722.57</ele>
        <time>2015-09-19T07:12:34Z</time>
      </trkpt>
      <trkpt lat="43.97394" lon="6.91892">
        <ele>722.57</ele>
        <time>2015-09-19T07:12:42Z</time>
      </trkpt>
      <trkpt lat="43.97396" lon="6.91891">
        <ele>722.57</ele>
        <time>2015-09-19T07:12:50Z</time>
      </trkpt>
      <trkpt lat="43.97393" lon="6.91889">
        <ele>723.53</ele>
        <time>2015-09-19T07:12:53Z</time>
      </trkpt>
      <trkpt lat="43.9739" lon="6.91886">
        <ele>725.45</ele>
        <time>2015-09-19T07:13:02Z</time>
      </trkpt>
      <trkpt lat="43.97392" lon="6.91884">
        <ele>726.41</ele>
        <time>2015-09-19T07:13:09Z</time>
      </trkpt>
      <trkpt lat="43.97396" lon="6.91882">
        <ele>727.37</ele>
        <time>2015-09-19T07:13:15Z</time>
      </trkpt>
      <trkpt lat="43.97399" lon="6.91881">
        <ele>727.86</ele>
        <time>2015-09-19T07:13:16Z</time>
      </trkpt>
      <trkpt lat="43.97411" lon="6.91879">
        <ele>728.34</ele>
        <time>2015-09-19T07:13:22Z</time>
      </trkpt>
      <trkpt lat="43.97415" lon="6.91881">
        <ele>728.82</ele>
        <time>2015-09-19T07:13:27Z</time>
      </trkpt>
      <trkpt lat="43.97416" lon="6.9188">
        <ele>728.34</ele>
        <time>2015-09-19T07:13:36Z</time>
      </trkpt>
      <trkpt lat="43.97417" lon="6.9188">
        <ele>728.82</ele>
        <time>2015-09-19T07:13:50Z</time>
      </trkpt>
      <trkpt lat="43.97417" lon="6.91878">
        <ele>729.3</ele>
        <time>2015-09-19T07:13:56Z</time>
      </trkpt>
      <trkpt lat="43.97418" lon="6.91876">
        <ele>730.74</ele>
        <time>2015-09-19T07:14:04Z</time>
      </trkpt>
      <trkpt lat="43.9742" lon="6.91873">
        <ele>733.14</ele>
        <time>2015-09-19T07:14:15Z</time>
      </trkpt>
      <trkpt lat="43.97426" lon="6.91877">
        <ele>734.58</ele>
        <time>2015-09-19T07:14:22Z</time>
      </trkpt>
      <trkpt lat="43.97432" lon="6.9188">
        <ele>735.55</ele>
        <time>2015-09-19T07:14:29Z</time>
      </trkpt>
      <trkpt lat="43.9744" lon="6.91881">
        <ele>737.47</ele>
        <time>2015-09-19T07:14:36Z</time>
      </trkpt>
      <trkpt lat="43.97442" lon="6.91874">
        <ele>737.47</ele>
        <time>2015-09-19T07:14:43Z</time>
      </trkpt>
      <trkpt lat="43.97443" lon="6.91865">
        <ele>737.47</ele>
        <time>2015-09-19T07:14:51Z</time>
      </trkpt>
      <trkpt lat="43.97446" lon="6.91859">
        <ele>737.47</ele>
        <time>2015-09-19T07:14:58Z</time>
      </trkpt>
      <trkpt lat="43.97452" lon="6.91861">
        <ele>737.47</ele>
        <time>2015-09-19T07:15:05Z</time>
      </trkpt>
      <trkpt lat="43.9746" lon="6.91863">
        <ele>737.47</ele>
        <time>2015-09-19T07:15:12Z</time>
      </trkpt>
      <trkpt lat="43.97465" lon="6.91865">
        <ele>738.91</ele>
        <time>2015-09-19T07:15:19Z</time>
      </trkpt>
      <trkpt lat="43.97469" lon="6.91868">
        <ele>739.87</ele>
        <time>2015-09-19T07:15:25Z</time>
      </trkpt>
      <trkpt lat="43.97471" lon="6.91871">
        <ele>740.83</ele>
        <time>2015-09-19T07:15:33Z</time>
      </trkpt>
      <trkpt lat="43.97476" lon="6.91876">
        <ele>741.79</ele>
        <time>2015-09-19T07:15:40Z</time>
      </trkpt>
      <trkpt lat="43.9748" lon="6.9188">
        <ele>742.76</ele>
        <time>2015-09-19T07:15:47Z</time>
      </trkpt>
      <trkpt lat="43.97481" lon="6.91885">
        <ele>744.2</ele>
        <time>2015-09-19T07:15:55Z</time>
      </trkpt>
      <trkpt lat="43.97485" lon="6.91889">
        <ele>745.16</ele>
        <time>2015-09-19T07:16:00Z</time>
      </trkpt>
      <trkpt lat="43.97487" lon="6.91894">
        <ele>746.12</ele>
        <time>2015-09-19T07:16:08Z</time>
      </trkpt>
      <trkpt lat="43.97489" lon="6.91898">
        <ele>747.56</ele>
        <time>2015-09-19T07:16:15Z</time>
      </trkpt>
      <trkpt lat="43.97492" lon="6.91901">
        <ele>748.04</ele>
        <time>2015-09-19T07:16:23Z</time>
      </trkpt>
      <trkpt lat="43.97494" lon="6.91904">
        <ele>749.49</ele>
        <time>2015-09-19T07:16:30Z</time>
      </trkpt>
      <trkpt lat="43.97497" lon="6.91906">
        <ele>749</ele>
        <time>2015-09-19T07:16:37Z</time>
      </trkpt>
      <trkpt lat="43.97501" lon="6.91908">
        <ele>748.52</ele>
        <time>2015-09-19T07:16:43Z</time>
      </trkpt>
      <trkpt lat="43.97502" lon="6.91909">
        <ele>748.52</ele>
        <time>2015-09-19T07:16:51Z</time>
      </trkpt>
      <trkpt lat="43.97503" lon="6.91911">
        <ele>749</ele>
        <time>2015-09-19T07:17:00Z</time>
      </trkpt>
      <trkpt lat="43.97505" lon="6.91913">
        <ele>750.45</ele>
        <time>2015-09-19T07:17:07Z</time>
      </trkpt>
      <trkpt lat="43.97505" lon="6.91917">
        <ele>751.89</ele>
        <time>2015-09-19T07:17:14Z</time>
      </trkpt>
      <trkpt lat="43.97509" lon="6.91921">
        <ele>752.85</ele>
        <time>2015-09-19T07:17:20Z</time>
      </trkpt>
      <trkpt lat="43.9751" lon="6.91926">
        <ele>754.29</ele>
        <time>2015-09-19T07:17:27Z</time>
      </trkpt>
      <trkpt lat="43.97512" lon="6.9193">
        <ele>755.25</ele>
        <time>2015-09-19T07:17:33Z</time>
      </trkpt>
      <trkpt lat="43.97516" lon="6.91936">
        <ele>755.73</ele>
        <time>2015-09-19T07:17:41Z</time>
      </trkpt>
      <trkpt lat="43.9752" lon="6.9194">
        <ele>756.69</ele>
        <time>2015-09-19T07:17:49Z</time>
      </trkpt>
      <trkpt lat="43.97522" lon="6.91943">
        <ele>757.18</ele>
        <time>2015-09-19T07:17:54Z</time>
      </trkpt>
      <trkpt lat="43.97525" lon="6.91949">
        <ele>758.62</ele>
        <time>2015-09-19T07:18:02Z</time>
      </trkpt>
      <trkpt lat="43.97527" lon="6.91953">
        <ele>759.1</ele>
        <time>2015-09-19T07:18:08Z</time>
      </trkpt>
      <trkpt lat="43.9753" lon="6.91956">
        <ele>760.06</ele>
        <time>2015-09-19T07:18:16Z</time>
      </trkpt>
      <trkpt lat="43.97533" lon="6.91959">
        <ele>761.5</ele>
        <time>2015-09-19T07:18:25Z</time>
      </trkpt>
      <trkpt lat="43.97534" lon="6.91964">
        <ele>762.46</ele>
        <time>2015-09-19T07:18:32Z</time>
      </trkpt>
      <trkpt lat="43.97536" lon="6.91968">
        <ele>763.42</ele>
        <time>2015-09-19T07:18:37Z</time>
      </trkpt>
      <trkpt lat="43.97538" lon="6.91971">
        <ele>764.39</ele>
        <time>2015-09-19T07:18:45Z</time>
      </trkpt>
      <trkpt lat="43.97541" lon="6.91975">
        <ele>764.87</ele>
        <time>2015-09-19T07:18:52Z</time>
      </trkpt>
      <trkpt lat="43.97542" lon="6.91979">
        <ele>765.83</ele>
        <time>2015-09-19T07:19:00Z</time>
      </trkpt>
      <trkpt lat="43.97544" lon="6.91981">
        <ele>766.31</ele>
        <time>2015-09-19T07:19:08Z</time>
      </trkpt>
      <trkpt lat="43.9755" lon="6.91979">
        <ele>765.83</ele>
        <time>2015-09-19T07:19:16Z</time>
      </trkpt>
      <trkpt lat="43.97551" lon="6.9198">
        <ele>765.83</ele>
        <time>2015-09-19T07:19:17Z</time>
      </trkpt>
      <trkpt lat="43.97552" lon="6.91982">
        <ele>766.79</ele>
        <time>2015-09-19T07:19:22Z</time>
      </trkpt>
      <trkpt lat="43.97549" lon="6.91986">
        <ele>767.27</ele>
        <time>2015-09-19T07:19:27Z</time>
      </trkpt>
      <trkpt lat="43.97545" lon="6.91989">
        <ele>768.23</ele>
        <time>2015-09-19T07:19:34Z</time>
      </trkpt>
      <trkpt lat="43.97543" lon="6.91993">
        <ele>768.71</ele>
        <time>2015-09-19T07:19:42Z</time>
      </trkpt>
      <trkpt lat="43.97545" lon="6.91995">
        <ele>768.71</ele>
        <time>2015-09-19T07:19:45Z</time>
      </trkpt>
      <trkpt lat="43.97549" lon="6.91998">
        <ele>769.67</ele>
        <time>2015-09-19T07:19:53Z</time>
      </trkpt>
      <trkpt lat="43.97554" lon="6.91999">
        <ele>771.11</ele>
        <time>2015-09-19T07:20:01Z</time>
      </trkpt>
      <trkpt lat="43.97558" lon="6.91999">
        <ele>772.08</ele>
        <time>2015-09-19T07:20:07Z</time>
      </trkpt>
      <trkpt lat="43.97559" lon="6.92">
        <ele>772.56</ele>
        <time>2015-09-19T07:20:13Z</time>
      </trkpt>
      <trkpt lat="43.97564" lon="6.92001">
        <ele>774</ele>
        <time>2015-09-19T07:20:22Z</time>
      </trkpt>
      <trkpt lat="43.97567" lon="6.92004">
        <ele>774.96</ele>
        <time>2015-09-19T07:20:29Z</time>
      </trkpt>
      <trkpt lat="43.97569" lon="6.92006">
        <ele>776.4</ele>
        <time>2015-09-19T07:20:37Z</time>
      </trkpt>
      <trkpt lat="43.97574" lon="6.92005">
        <ele>776.88</ele>
        <time>2015-09-19T07:20:45Z</time>
      </trkpt>
      <trkpt lat="43.97577" lon="6.92005">
        <ele>778.32</ele>
        <time>2015-09-19T07:20:52Z</time>
      </trkpt>
      <trkpt lat="43.97582" lon="6.92006">
        <ele>779.29</ele>
        <time>2015-09-19T07:21:00Z</time>
      </trkpt>
      <trkpt lat="43.97586" lon="6.92007">
        <ele>779.77</ele>
        <time>2015-09-19T07:21:06Z</time>
      </trkpt>
      <trkpt lat="43.97587" lon="6.92009">
        <ele>780.73</ele>
        <time>2015-09-19T07:21:14Z</time>
      </trkpt>
      <trkpt lat="43.9759" lon="6.92009">
        <ele>781.69</ele>
        <time>2015-09-19T07:21:20Z</time>
      </trkpt>
      <trkpt lat="43.97592" lon="6.92009">
        <ele>782.17</ele>
        <time>2015-09-19T07:21:26Z</time>
      </trkpt>
      <trkpt lat="43.97595" lon="6.92009">
        <ele>783.61</ele>
        <time>2015-09-19T07:21:33Z</time>
      </trkpt>
      <trkpt lat="43.97599" lon="6.92011">
        <ele>784.09</ele>
        <time>2015-09-19T07:21:40Z</time>
      </trkpt>
      <trkpt lat="43.976" lon="6.92012">
        <ele>784.57</ele>
        <time>2015-09-19T07:21:45Z</time>
      </trkpt>
      <trkpt lat="43.97601" lon="6.92013">
        <ele>785.53</ele>
        <time>2015-09-19T07:21:52Z</time>
      </trkpt>
      <trkpt lat="43.976" lon="6.92013">
        <ele>785.05</ele>
        <time>2015-09-19T07:22:06Z</time>
      </trkpt>
      <trkpt lat="43.976" lon="6.92014">
        <ele>785.53</ele>
        <time>2015-09-19T07:22:16Z</time>
      </trkpt>
      <trkpt lat="43.97599" lon="6.92015">
        <ele>786.98</ele>
        <time>2015-09-19T07:22:23Z</time>
      </trkpt>
      <trkpt lat="43.97597" lon="6.9202">
        <ele>788.42</ele>
        <time>2015-09-19T07:22:31Z</time>
      </trkpt>
      <trkpt lat="43.97597" lon="6.92022">
        <ele>789.38</ele>
        <time>2015-09-19T07:22:37Z</time>
      </trkpt>
      <trkpt lat="43.97594" lon="6.92028">
        <ele>790.34</ele>
        <time>2015-09-19T07:22:45Z</time>
      </trkpt>
      <trkpt lat="43.97594" lon="6.92031">
        <ele>791.3</ele>
        <time>2015-09-19T07:22:51Z</time>
      </trkpt>
      <trkpt lat="43.97593" lon="6.92034">
        <ele>791.78</ele>
        <time>2015-09-19T07:22:57Z</time>
      </trkpt>
      <trkpt lat="43.97591" lon="6.92037">
        <ele>792.74</ele>
        <time>2015-09-19T07:23:04Z</time>
      </trkpt>
      <trkpt lat="43.9759" lon="6.92039">
        <ele>793.71</ele>
        <time>2015-09-19T07:23:11Z</time>
      </trkpt>
      <trkpt lat="43.9759" lon="6.92041">
        <ele>794.67</ele>
        <time>2015-09-19T07:23:19Z</time>
      </trkpt>
      <trkpt lat="43.97589" lon="6.92042">
        <ele>794.67</ele>
        <time>2015-09-19T07:23:32Z</time>
      </trkpt>
      <trkpt lat="43.97589" lon="6.92042">
        <ele>794.67</ele>
        <time>2015-09-19T07:23:45Z</time>
      </trkpt>
      <trkpt lat="43.97589" lon="6.92042">
        <ele>794.67</ele>
        <time>2015-09-19T07:23:54Z</time>
      </trkpt>
      <trkpt lat="43.97589" lon="6.92042">
        <ele>794.67</ele>
        <time>2015-09-19T07:24:04Z</time>
      </trkpt>
      <trkpt lat="43.97589" lon="6.92042">
        <ele>794.67</ele>
        <time>2015-09-19T07:24:15Z</time>
      </trkpt>
      <trkpt lat="43.97589" lon="6.92043">
        <ele>794.67</ele>
        <time>2015-09-19T07:24:24Z</time>
      </trkpt>
      <trkpt lat="43.97589" lon="6.92043">
        <ele>794.67</ele>
        <time>2015-09-19T07:24:35Z</time>
      </trkpt>
      <trkpt lat="43.97587" lon="6.92046">
        <ele>795.15</ele>
        <time>2015-09-19T07:24:42Z</time>
      </trkpt>
      <trkpt lat="43.97586" lon="6.92053">
        <ele>796.59</ele>
        <time>2015-09-19T07:24:51Z</time>
      </trkpt>
      <trkpt lat="43.97584" lon="6.92059">
        <ele>797.55</ele>
        <time>2015-09-19T07:24:59Z</time>
      </trkpt>
      <trkpt lat="43.97583" lon="6.92062">
        <ele>798.51</ele>
        <time>2015-09-19T07:25:05Z</time>
      </trkpt>
      <trkpt lat="43.97582" lon="6.92068">
        <ele>798.99</ele>
        <time>2015-09-19T07:25:11Z</time>
      </trkpt>
      <trkpt lat="43.97582" lon="6.92072">
        <ele>800.44</ele>
        <time>2015-09-19T07:25:18Z</time>
      </trkpt>
      <trkpt lat="43.97581" lon="6.92076">
        <ele>801.4</ele>
        <time>2015-09-19T07:25:25Z</time>
      </trkpt>
      <trkpt lat="43.97579" lon="6.92081">
        <ele>802.84</ele>
        <time>2015-09-19T07:25:34Z</time>
      </trkpt>
      <trkpt lat="43.97578" lon="6.92085">
        <ele>803.8</ele>
        <time>2015-09-19T07:25:42Z</time>
      </trkpt>
      <trkpt lat="43.97579" lon="6.9209">
        <ele>805.24</ele>
        <time>2015-09-19T07:25:49Z</time>
      </trkpt>
      <trkpt lat="43.97582" lon="6.92093">
        <ele>805.72</ele>
        <time>2015-09-19T07:25:56Z</time>
      </trkpt>
      <trkpt lat="43.97585" lon="6.92093">
        <ele>806.68</ele>
        <time>2015-09-19T07:26:02Z</time>
      </trkpt>
      <trkpt lat="43.97588" lon="6.92092">
        <ele>807.64</ele>
        <time>2015-09-19T07:26:11Z</time>
      </trkpt>
      <trkpt lat="43.97591" lon="6.92092">
        <ele>808.61</ele>
        <time>2015-09-19T07:26:17Z</time>
      </trkpt>
      <trkpt lat="43.97591" lon="6.92096">
        <ele>809.57</ele>
        <time>2015-09-19T07:26:23Z</time>
      </trkpt>
      <trkpt lat="43.9759" lon="6.92099">
        <ele>810.53</ele>
        <time>2015-09-19T07:26:31Z</time>
      </trkpt>
      <trkpt lat="43.97588" lon="6.92103">
        <ele>811.97</ele>
        <time>2015-09-19T07:26:41Z</time>
      </trkpt>
      <trkpt lat="43.97587" lon="6.92107">
        <ele>813.41</ele>
        <time>2015-09-19T07:26:49Z</time>
      </trkpt>
      <trkpt lat="43.97586" lon="6.92113">
        <ele>814.85</ele>
        <time>2015-09-19T07:27:00Z</time>
      </trkpt>
      <trkpt lat="43.97585" lon="6.92119">
        <ele>815.82</ele>
        <time>2015-09-19T07:27:07Z</time>
      </trkpt>
      <trkpt lat="43.97583" lon="6.92123">
        <ele>816.78</ele>
        <time>2015-09-19T07:27:16Z</time>
      </trkpt>
      <trkpt lat="43.97584" lon="6.92129">
        <ele>817.74</ele>
        <time>2015-09-19T07:27:23Z</time>
      </trkpt>
      <trkpt lat="43.97585" lon="6.92132">
        <ele>818.7</ele>
        <time>2015-09-19T07:27:28Z</time>
      </trkpt>
      <trkpt lat="43.97585" lon="6.92138">
        <ele>819.66</ele>
        <time>2015-09-19T07:27:36Z</time>
      </trkpt>
      <trkpt lat="43.97583" lon="6.92142">
        <ele>821.1</ele>
        <time>2015-09-19T07:27:44Z</time>
      </trkpt>
      <trkpt lat="43.97579" lon="6.92146">
        <ele>821.1</ele>
        <time>2015-09-19T07:27:51Z</time>
      </trkpt>
      <trkpt lat="43.97576" lon="6.9215">
        <ele>822.06</ele>
        <time>2015-09-19T07:27:59Z</time>
      </trkpt>
      <trkpt lat="43.97576" lon="6.92151">
        <ele>822.06</ele>
        <time>2015-09-19T07:28:09Z</time>
      </trkpt>
      <trkpt lat="43.97576" lon="6.92152">
        <ele>822.06</ele>
        <time>2015-09-19T07:28:15Z</time>
      </trkpt>
      <trkpt lat="43.97574" lon="6.92159">
        <ele>822.55</ele>
        <time>2015-09-19T07:28:23Z</time>
      </trkpt>
      <trkpt lat="43.97571" lon="6.92165">
        <ele>823.99</ele>
        <time>2015-09-19T07:28:31Z</time>
      </trkpt>
      <trkpt lat="43.97571" lon="6.9217">
        <ele>824.95</ele>
        <time>2015-09-19T07:28:38Z</time>
      </trkpt>
      <trkpt lat="43.9757" lon="6.92175">
        <ele>825.91</ele>
        <time>2015-09-19T07:28:45Z</time>
      </trkpt>
      <trkpt lat="43.97571" lon="6.92179">
        <ele>826.39</ele>
        <time>2015-09-19T07:28:48Z</time>
      </trkpt>
      <trkpt lat="43.97572" lon="6.92183">
        <ele>827.35</ele>
        <time>2015-09-19T07:28:53Z</time>
      </trkpt>
      <trkpt lat="43.97575" lon="6.92191">
        <ele>828.31</ele>
        <time>2015-09-19T07:29:02Z</time>
      </trkpt>
      <trkpt lat="43.97579" lon="6.92191">
        <ele>829.76</ele>
        <time>2015-09-19T07:29:09Z</time>
      </trkpt>
      <trkpt lat="43.9758" lon="6.92183">
        <ele>830.72</ele>
        <time>2015-09-19T07:29:18Z</time>
      </trkpt>
      <trkpt lat="43.97581" lon="6.92184">
        <ele>831.2</ele>
        <time>2015-09-19T07:29:24Z</time>
      </trkpt>
      <trkpt lat="43.97581" lon="6.92184">
        <ele>831.2</ele>
        <time>2015-09-19T07:29:31Z</time>
      </trkpt>
      <trkpt lat="43.97584" lon="6.92188">
        <ele>832.64</ele>
        <time>2015-09-19T07:29:37Z</time>
      </trkpt>
      <trkpt lat="43.97586" lon="6.92189">
        <ele>833.12</ele>
        <time>2015-09-19T07:29:44Z</time>
      </trkpt>
      <trkpt lat="43.97589" lon="6.92185">
        <ele>834.56</ele>
        <time>2015-09-19T07:29:52Z</time>
      </trkpt>
      <trkpt lat="43.97594" lon="6.92183">
        <ele>835.52</ele>
        <time>2015-09-19T07:30:00Z</time>
      </trkpt>
      <trkpt lat="43.97597" lon="6.92182">
        <ele>836.48</ele>
        <time>2015-09-19T07:30:07Z</time>
      </trkpt>
      <trkpt lat="43.976" lon="6.9218">
        <ele>837.93</ele>
        <time>2015-09-19T07:30:13Z</time>
      </trkpt>
      <trkpt lat="43.97603" lon="6.92176">
        <ele>838.89</ele>
        <time>2015-09-19T07:30:20Z</time>
      </trkpt>
      <trkpt lat="43.97605" lon="6.92175">
        <ele>839.85</ele>
        <time>2015-09-19T07:30:30Z</time>
      </trkpt>
      <trkpt lat="43.9761" lon="6.92172">
        <ele>841.77</ele>
        <time>2015-09-19T07:30:40Z</time>
      </trkpt>
      <trkpt lat="43.97612" lon="6.9217">
        <ele>842.25</ele>
        <time>2015-09-19T07:30:47Z</time>
      </trkpt>
      <trkpt lat="43.97616" lon="6.92168">
        <ele>843.21</ele>
        <time>2015-09-19T07:30:54Z</time>
      </trkpt>
      <trkpt lat="43.97621" lon="6.92165">
        <ele>844.18</ele>
        <time>2015-09-19T07:31:01Z</time>
      </trkpt>
      <trkpt lat="43.97626" lon="6.92162">
        <ele>845.14</ele>
        <time>2015-09-19T07:31:09Z</time>
      </trkpt>
      <trkpt lat="43.97629" lon="6.92158">
        <ele>845.62</ele>
        <time>2015-09-19T07:31:16Z</time>
      </trkpt>
      <trkpt lat="43.97632" lon="6.92153">
        <ele>846.58</ele>
        <time>2015-09-19T07:31:23Z</time>
      </trkpt>
      <trkpt lat="43.97634" lon="6.92152">
        <ele>847.54</ele>
        <time>2015-09-19T07:31:31Z</time>
      </trkpt>
      <trkpt lat="43.97635" lon="6.92153">
        <ele>848.5</ele>
        <time>2015-09-19T07:31:38Z</time>
      </trkpt>
      <trkpt lat="43.97635" lon="6.92153">
        <ele>848.98</ele>
        <time>2015-09-19T07:31:45Z</time>
      </trkpt>
      <trkpt lat="43.97635" lon="6.92154">
        <ele>848.5</ele>
        <time>2015-09-19T07:31:53Z</time>
      </trkpt>
      <trkpt lat="43.97635" lon="6.92154">
        <ele>848.5</ele>
        <time>2015-09-19T07:32:12Z</time>
      </trkpt>
      <trkpt lat="43.97636" lon="6.92155">
        <ele>848.98</ele>
        <time>2015-09-19T07:32:21Z</time>
      </trkpt>
      <trkpt lat="43.97635" lon="6.92157">
        <ele>849.94</ele>
        <time>2015-09-19T07:32:26Z</time>
      </trkpt>
      <trkpt lat="43.97636" lon="6.92159">
        <ele>850.42</ele>
        <time>2015-09-19T07:32:33Z</time>
      </trkpt>
      <trkpt lat="43.97636" lon="6.92162">
        <ele>851.87</ele>
        <time>2015-09-19T07:32:41Z</time>
      </trkpt>
      <trkpt lat="43.97635" lon="6.92165">
        <ele>852.83</ele>
        <time>2015-09-19T07:32:50Z</time>
      </trkpt>
      <trkpt lat="43.97636" lon="6.9217">
        <ele>853.79</ele>
        <time>2015-09-19T07:32:58Z</time>
      </trkpt>
      <trkpt lat="43.97638" lon="6.92172">
        <ele>854.75</ele>
        <time>2015-09-19T07:33:04Z</time>
      </trkpt>
      <trkpt lat="43.97641" lon="6.92173">
        <ele>856.19</ele>
        <time>2015-09-19T07:33:13Z</time>
      </trkpt>
      <trkpt lat="43.97646" lon="6.9217">
        <ele>857.15</ele>
        <time>2015-09-19T07:33:20Z</time>
      </trkpt>
      <trkpt lat="43.97647" lon="6.9217">
        <ele>857.63</ele>
        <time>2015-09-19T07:33:27Z</time>
      </trkpt>
      <trkpt lat="43.97647" lon="6.9217">
        <ele>858.11</ele>
        <time>2015-09-19T07:33:40Z</time>
      </trkpt>
      <trkpt lat="43.97648" lon="6.9217">
        <ele>858.11</ele>
        <time>2015-09-19T07:33:48Z</time>
      </trkpt>
      <trkpt lat="43.97646" lon="6.92175">
        <ele>858.59</ele>
        <time>2015-09-19T07:33:56Z</time>
      </trkpt>
      <trkpt lat="43.97646" lon="6.92183">
        <ele>860.04</ele>
        <time>2015-09-19T07:34:04Z</time>
      </trkpt>
      <trkpt lat="43.97642" lon="6.9219">
        <ele>861.48</ele>
        <time>2015-09-19T07:34:14Z</time>
      </trkpt>
      <trkpt lat="43.9764" lon="6.92194">
        <ele>861.96</ele>
        <time>2015-09-19T07:34:21Z</time>
      </trkpt>
      <trkpt lat="43.97638" lon="6.92201">
        <ele>862.92</ele>
        <time>2015-09-19T07:34:29Z</time>
      </trkpt>
      <trkpt lat="43.97636" lon="6.92212">
        <ele>863.88</ele>
        <time>2015-09-19T07:34:36Z</time>
      </trkpt>
      <trkpt lat="43.97637" lon="6.92218">
        <ele>865.32</ele>
        <time>2015-09-19T07:34:43Z</time>
      </trkpt>
      <trkpt lat="43.97639" lon="6.92226">
        <ele>866.29</ele>
        <time>2015-09-19T07:34:49Z</time>
      </trkpt>
      <trkpt lat="43.97643" lon="6.92227">
        <ele>866.29</ele>
        <time>2015-09-19T07:34:56Z</time>
      </trkpt>
      <trkpt lat="43.97647" lon="6.92222">
        <ele>867.25</ele>
        <time>2015-09-19T07:35:04Z</time>
      </trkpt>
      <trkpt lat="43.97653" lon="6.92215">
        <ele>868.21</ele>
        <time>2015-09-19T07:35:14Z</time>
      </trkpt>
      <trkpt lat="43.97657" lon="6.92213">
        <ele>868.69</ele>
        <time>2015-09-19T07:35:22Z</time>
      </trkpt>
      <trkpt lat="43.97663" lon="6.92209">
        <ele>869.65</ele>
        <time>2015-09-19T07:35:30Z</time>
      </trkpt>
      <trkpt lat="43.97667" lon="6.92207">
        <ele>870.13</ele>
        <time>2015-09-19T07:35:37Z</time>
      </trkpt>
      <trkpt lat="43.97673" lon="6.92205">
        <ele>871.09</ele>
        <time>2015-09-19T07:35:44Z</time>
      </trkpt>
      <trkpt lat="43.97673" lon="6.92215">
        <ele>872.05</ele>
        <time>2015-09-19T07:35:53Z</time>
      </trkpt>
      <trkpt lat="43.97669" lon="6.92223">
        <ele>873.01</ele>
        <time>2015-09-19T07:36:03Z</time>
      </trkpt>
      <trkpt lat="43.97666" lon="6.92234">
        <ele>873.98</ele>
        <time>2015-09-19T07:36:11Z</time>
      </trkpt>
      <trkpt lat="43.97664" lon="6.9224">
        <ele>874.94</ele>
        <time>2015-09-19T07:36:20Z</time>
      </trkpt>
      <trkpt lat="43.97664" lon="6.92242">
        <ele>875.9</ele>
        <time>2015-09-19T07:36:26Z</time>
      </trkpt>
      <trkpt lat="43.97666" lon="6.92241">
        <ele>876.38</ele>
        <time>2015-09-19T07:36:33Z</time>
      </trkpt>
      <trkpt lat="43.97668" lon="6.92242">
        <ele>877.34</ele>
        <time>2015-09-19T07:36:40Z</time>
      </trkpt>
      <trkpt lat="43.97671" lon="6.9224">
        <ele>877.34</ele>
        <time>2015-09-19T07:36:48Z</time>
      </trkpt>
      <trkpt lat="43.97676" lon="6.92236">
        <ele>878.3</ele>
        <time>2015-09-19T07:36:56Z</time>
      </trkpt>
      <trkpt lat="43.97681" lon="6.92233">
        <ele>878.78</ele>
        <time>2015-09-19T07:37:03Z</time>
      </trkpt>
      <trkpt lat="43.97682" lon="6.92235">
        <ele>880.22</ele>
        <time>2015-09-19T07:37:09Z</time>
      </trkpt>
      <trkpt lat="43.97685" lon="6.92237">
        <ele>880.71</ele>
        <time>2015-09-19T07:37:15Z</time>
      </trkpt>
      <trkpt lat="43.97685" lon="6.92241">
        <ele>881.67</ele>
        <time>2015-09-19T07:37:21Z</time>
      </trkpt>
      <trkpt lat="43.97684" lon="6.92244">
        <ele>882.63</ele>
        <time>2015-09-19T07:37:28Z</time>
      </trkpt>
      <trkpt lat="43.97685" lon="6.92251">
        <ele>883.11</ele>
        <time>2015-09-19T07:37:36Z</time>
      </trkpt>
      <trkpt lat="43.97686" lon="6.92258">
        <ele>884.55</ele>
        <time>2015-09-19T07:37:43Z</time>
      </trkpt>
      <trkpt lat="43.97688" lon="6.9226">
        <ele>885.51</ele>
        <time>2015-09-19T07:37:49Z</time>
      </trkpt>
      <trkpt lat="43.97691" lon="6.92263">
        <ele>885.99</ele>
        <time>2015-09-19T07:37:56Z</time>
      </trkpt>
      <trkpt lat="43.97694" lon="6.92261">
        <ele>886.95</ele>
        <time>2015-09-19T07:38:03Z</time>
      </trkpt>
      <trkpt lat="43.97698" lon="6.92261">
        <ele>888.4</ele>
        <time>2015-09-19T07:38:10Z</time>
      </trkpt>
      <trkpt lat="43.97702" lon="6.92265">
        <ele>888.88</ele>
        <time>2015-09-19T07:38:16Z</time>
      </trkpt>
      <trkpt lat="43.97707" lon="6.92267">
        <ele>889.36</ele>
        <time>2015-09-19T07:38:23Z</time>
      </trkpt>
      <trkpt lat="43.97712" lon="6.92267">
        <ele>889.84</ele>
        <time>2015-09-19T07:38:30Z</time>
      </trkpt>
      <trkpt lat="43.9772" lon="6.92268">
        <ele>890.8</ele>
        <time>2015-09-19T07:38:40Z</time>
      </trkpt>
      <trkpt lat="43.97725" lon="6.92267">
        <ele>891.76</ele>
        <time>2015-09-19T07:38:48Z</time>
      </trkpt>
      <trkpt lat="43.97729" lon="6.92267">
        <ele>892.24</ele>
        <time>2015-09-19T07:38:55Z</time>
      </trkpt>
      <trkpt lat="43.97734" lon="6.92266">
        <ele>892.72</ele>
        <time>2015-09-19T07:39:02Z</time>
      </trkpt>
      <trkpt lat="43.97741" lon="6.92263">
        <ele>893.68</ele>
        <time>2015-09-19T07:39:11Z</time>
      </trkpt>
      <trkpt lat="43.97744" lon="6.92262">
        <ele>894.64</ele>
        <time>2015-09-19T07:39:18Z</time>
      </trkpt>
      <trkpt lat="43.97746" lon="6.92267">
        <ele>896.57</ele>
        <time>2015-09-19T07:39:26Z</time>
      </trkpt>
      <trkpt lat="43.97748" lon="6.92272">
        <ele>897.53</ele>
        <time>2015-09-19T07:39:34Z</time>
      </trkpt>
      <trkpt lat="43.97749" lon="6.92274">
        <ele>897.53</ele>
        <time>2015-09-19T07:39:40Z</time>
      </trkpt>
      <trkpt lat="43.97749" lon="6.92271">
        <ele>897.53</ele>
        <time>2015-09-19T07:39:47Z</time>
      </trkpt>
      <trkpt lat="43.97749" lon="6.92274">
        <ele>897.53</ele>
        <time>2015-09-19T07:39:55Z</time>
      </trkpt>
      <trkpt lat="43.9775" lon="6.92276">
        <ele>897.53</ele>
        <time>2015-09-19T07:40:07Z</time>
      </trkpt>
      <trkpt lat="43.9775" lon="6.92277">
        <ele>897.53</ele>
        <time>2015-09-19T07:40:23Z</time>
      </trkpt>
      <trkpt lat="43.9775" lon="6.92277">
        <ele>897.53</ele>
        <time>2015-09-19T07:40:34Z</time>
      </trkpt>
      <trkpt lat="43.97752" lon="6.9228">
        <ele>897.53</ele>
        <time>2015-09-19T07:40:41Z</time>
      </trkpt>
      <trkpt lat="43.97753" lon="6.92285">
        <ele>898.49</ele>
        <time>2015-09-19T07:40:47Z</time>
      </trkpt>
      <trkpt lat="43.97754" lon="6.92287">
        <ele>899.45</ele>
        <time>2015-09-19T07:40:55Z</time>
      </trkpt>
      <trkpt lat="43.97755" lon="6.92291">
        <ele>900.41</ele>
        <time>2015-09-19T07:41:01Z</time>
      </trkpt>
      <trkpt lat="43.97757" lon="6.92297">
        <ele>900.89</ele>
        <time>2015-09-19T07:41:08Z</time>
      </trkpt>
      <trkpt lat="43.97757" lon="6.92305">
        <ele>901.37</ele>
        <time>2015-09-19T07:41:15Z</time>
      </trkpt>
      <trkpt lat="43.9776" lon="6.92316">
        <ele>902.33</ele>
        <time>2015-09-19T07:41:25Z</time>
      </trkpt>
      <trkpt lat="43.97761" lon="6.92323">
        <ele>902.82</ele>
        <time>2015-09-19T07:41:33Z</time>
      </trkpt>
      <trkpt lat="43.97762" lon="6.92328">
        <ele>903.78</ele>
        <time>2015-09-19T07:41:40Z</time>
      </trkpt>
      <trkpt lat="43.97762" lon="6.92335">
        <ele>904.74</ele>
        <time>2015-09-19T07:41:47Z</time>
      </trkpt>
      <trkpt lat="43.97764" lon="6.92342">
        <ele>905.7</ele>
        <time>2015-09-19T07:41:54Z</time>
      </trkpt>
      <trkpt lat="43.97763" lon="6.92351">
        <ele>906.66</ele>
        <time>2015-09-19T07:42:03Z</time>
      </trkpt>
      <trkpt lat="43.97763" lon="6.92357">
        <ele>907.62</ele>
        <time>2015-09-19T07:42:11Z</time>
      </trkpt>
      <trkpt lat="43.97763" lon="6.92363">
        <ele>908.58</ele>
        <time>2015-09-19T07:42:17Z</time>
      </trkpt>
      <trkpt lat="43.97762" lon="6.92367">
        <ele>909.54</ele>
        <time>2015-09-19T07:42:23Z</time>
      </trkpt>
      <trkpt lat="43.97761" lon="6.92371">
        <ele>910.03</ele>
        <time>2015-09-19T07:42:29Z</time>
      </trkpt>
      <trkpt lat="43.97759" lon="6.9238">
        <ele>910.99</ele>
        <time>2015-09-19T07:42:38Z</time>
      </trkpt>
      <trkpt lat="43.97758" lon="6.92388">
        <ele>911.95</ele>
        <time>2015-09-19T07:42:45Z</time>
      </trkpt>
      <trkpt lat="43.97758" lon="6.92392">
        <ele>912.91</ele>
        <time>2015-09-19T07:42:51Z</time>
      </trkpt>
      <trkpt lat="43.97758" lon="6.92395">
        <ele>913.39</ele>
        <time>2015-09-19T07:42:57Z</time>
      </trkpt>
      <trkpt lat="43.97758" lon="6.92399">
        <ele>914.35</ele>
        <time>2015-09-19T07:43:05Z</time>
      </trkpt>
      <trkpt lat="43.97758" lon="6.92412">
        <ele>915.31</ele>
        <time>2015-09-19T07:43:14Z</time>
      </trkpt>
      <trkpt lat="43.97756" lon="6.92416">
        <ele>915.79</ele>
        <time>2015-09-19T07:43:21Z</time>
      </trkpt>
      <trkpt lat="43.97754" lon="6.92421">
        <ele>916.75</ele>
        <time>2015-09-19T07:43:28Z</time>
      </trkpt>
      <trkpt lat="43.97753" lon="6.92427">
        <ele>917.72</ele>
        <time>2015-09-19T07:43:36Z</time>
      </trkpt>
      <trkpt lat="43.97752" lon="6.92434">
        <ele>918.68</ele>
        <time>2015-09-19T07:43:44Z</time>
      </trkpt>
      <trkpt lat="43.97753" lon="6.9244">
        <ele>919.64</ele>
        <time>2015-09-19T07:43:52Z</time>
      </trkpt>
      <trkpt lat="43.97753" lon="6.9245">
        <ele>920.12</ele>
        <time>2015-09-19T07:44:01Z</time>
      </trkpt>
      <trkpt lat="43.97755" lon="6.92456">
        <ele>921.08</ele>
        <time>2015-09-19T07:44:10Z</time>
      </trkpt>
      <trkpt lat="43.97759" lon="6.92467">
        <ele>922.04</ele>
        <time>2015-09-19T07:44:18Z</time>
      </trkpt>
      <trkpt lat="43.9776" lon="6.92474">
        <ele>922.52</ele>
        <time>2015-09-19T07:44:26Z</time>
      </trkpt>
      <trkpt lat="43.97763" lon="6.92478">
        <ele>923</ele>
        <time>2015-09-19T07:44:34Z</time>
      </trkpt>
      <trkpt lat="43.97766" lon="6.92486">
        <ele>923.48</ele>
        <time>2015-09-19T07:44:42Z</time>
      </trkpt>
      <trkpt lat="43.97768" lon="6.92491">
        <ele>924.45</ele>
        <time>2015-09-19T07:44:52Z</time>
      </trkpt>
      <trkpt lat="43.97771" lon="6.92501">
        <ele>925.41</ele>
        <time>2015-09-19T07:45:00Z</time>
      </trkpt>
      <trkpt lat="43.97773" lon="6.92509">
        <ele>926.37</ele>
        <time>2015-09-19T07:45:06Z</time>
      </trkpt>
      <trkpt lat="43.97776" lon="6.92515">
        <ele>927.33</ele>
        <time>2015-09-19T07:45:14Z</time>
      </trkpt>
      <trkpt lat="43.97778" lon="6.92518">
        <ele>928.29</ele>
        <time>2015-09-19T07:45:21Z</time>
      </trkpt>
      <trkpt lat="43.97779" lon="6.9252">
        <ele>929.73</ele>
        <time>2015-09-19T07:45:27Z</time>
      </trkpt>
      <trkpt lat="43.97781" lon="6.92525">
        <ele>931.17</ele>
        <time>2015-09-19T07:45:34Z</time>
      </trkpt>
      <trkpt lat="43.97784" lon="6.92529">
        <ele>932.14</ele>
        <time>2015-09-19T07:45:41Z</time>
      </trkpt>
      <trkpt lat="43.97785" lon="6.92531">
        <ele>932.62</ele>
        <time>2015-09-19T07:45:46Z</time>
      </trkpt>
      <trkpt lat="43.97791" lon="6.92534">
        <ele>934.54</ele>
        <time>2015-09-19T07:45:54Z</time>
      </trkpt>
      <trkpt lat="43.97797" lon="6.92534">
        <ele>935.02</ele>
        <time>2015-09-19T07:46:00Z</time>
      </trkpt>
      <trkpt lat="43.978" lon="6.92536">
        <ele>936.46</ele>
        <time>2015-09-19T07:46:10Z</time>
      </trkpt>
      <trkpt lat="43.97804" lon="6.92538">
        <ele>937.9</ele>
        <time>2015-09-19T07:46:19Z</time>
      </trkpt>
      <trkpt lat="43.97808" lon="6.92542">
        <ele>938.86</ele>
        <time>2015-09-19T07:46:26Z</time>
      </trkpt>
      <trkpt lat="43.97814" lon="6.92546">
        <ele>939.83</ele>
        <time>2015-09-19T07:46:32Z</time>
      </trkpt>
      <trkpt lat="43.97819" lon="6.9255">
        <ele>940.79</ele>
        <time>2015-09-19T07:46:38Z</time>
      </trkpt>
      <trkpt lat="43.97823" lon="6.92554">
        <ele>940.31</ele>
        <time>2015-09-19T07:46:44Z</time>
      </trkpt>
      <trkpt lat="43.97826" lon="6.92559">
        <ele>941.27</ele>
        <time>2015-09-19T07:46:53Z</time>
      </trkpt>
      <trkpt lat="43.97828" lon="6.92561">
        <ele>941.75</ele>
        <time>2015-09-19T07:47:00Z</time>
      </trkpt>
      <trkpt lat="43.97832" lon="6.92571">
        <ele>943.19</ele>
        <time>2015-09-19T07:47:09Z</time>
      </trkpt>
      <trkpt lat="43.97837" lon="6.92579">
        <ele>944.15</ele>
        <time>2015-09-19T07:47:17Z</time>
      </trkpt>
      <trkpt lat="43.9784" lon="6.92581">
        <ele>945.11</ele>
        <time>2015-09-19T07:47:24Z</time>
      </trkpt>
      <trkpt lat="43.97842" lon="6.92587">
        <ele>946.07</ele>
        <time>2015-09-19T07:47:32Z</time>
      </trkpt>
      <trkpt lat="43.97843" lon="6.92591">
        <ele>947.04</ele>
        <time>2015-09-19T07:47:38Z</time>
      </trkpt>
      <trkpt lat="43.97844" lon="6.92595">
        <ele>948</ele>
        <time>2015-09-19T07:47:46Z</time>
      </trkpt>
      <trkpt lat="43.97844" lon="6.92598">
        <ele>948</ele>
        <time>2015-09-19T07:47:54Z</time>
      </trkpt>
      <trkpt lat="43.97847" lon="6.92604">
        <ele>949.44</ele>
        <time>2015-09-19T07:48:01Z</time>
      </trkpt>
      <trkpt lat="43.97849" lon="6.92607">
        <ele>949.92</ele>
        <time>2015-09-19T07:48:07Z</time>
      </trkpt>
      <trkpt lat="43.97849" lon="6.92608">
        <ele>949.92</ele>
        <time>2015-09-19T07:48:16Z</time>
      </trkpt>
      <trkpt lat="43.97853" lon="6.92613">
        <ele>949.92</ele>
        <time>2015-09-19T07:48:23Z</time>
      </trkpt>
      <trkpt lat="43.97858" lon="6.92619">
        <ele>949.92</ele>
        <time>2015-09-19T07:48:31Z</time>
      </trkpt>
      <trkpt lat="43.97863" lon="6.92625">
        <ele>949.92</ele>
        <time>2015-09-19T07:48:38Z</time>
      </trkpt>
      <trkpt lat="43.97865" lon="6.9263">
        <ele>949.44</ele>
        <time>2015-09-19T07:48:45Z</time>
      </trkpt>
      <trkpt lat="43.97872" lon="6.92637">
        <ele>949.44</ele>
        <time>2015-09-19T07:48:54Z</time>
      </trkpt>
      <trkpt lat="43.97879" lon="6.92641">
        <ele>949.44</ele>
        <time>2015-09-19T07:49:02Z</time>
      </trkpt>
      <trkpt lat="43.97881" lon="6.92643">
        <ele>949.44</ele>
        <time>2015-09-19T07:49:04Z</time>
      </trkpt>
      <trkpt lat="43.97888" lon="6.9265">
        <ele>948.96</ele>
        <time>2015-09-19T07:49:13Z</time>
      </trkpt>
      <trkpt lat="43.97894" lon="6.92652">
        <ele>948.48</ele>
        <time>2015-09-19T07:49:21Z</time>
      </trkpt>
      <trkpt lat="43.97896" lon="6.92652">
        <ele>948</ele>
        <time>2015-09-19T07:49:27Z</time>
      </trkpt>
      <trkpt lat="43.97903" lon="6.92653">
        <ele>947.52</ele>
        <time>2015-09-19T07:49:35Z</time>
      </trkpt>
      <trkpt lat="43.97905" lon="6.92652">
        <ele>947.04</ele>
        <time>2015-09-19T07:49:43Z</time>
      </trkpt>
      <trkpt lat="43.97906" lon="6.92653">
        <ele>947.04</ele>
        <time>2015-09-19T07:49:57Z</time>
      </trkpt>
      <trkpt lat="43.97906" lon="6.92652">
        <ele>947.04</ele>
        <time>2015-09-19T07:50:09Z</time>
      </trkpt>
      <trkpt lat="43.97907" lon="6.92652">
        <ele>947.04</ele>
        <time>2015-09-19T07:50:16Z</time>
      </trkpt>
      <trkpt lat="43.97909" lon="6.92651">
        <ele>946.07</ele>
        <time>2015-09-19T07:50:22Z</time>
      </trkpt>
      <trkpt lat="43.97911" lon="6.92649">
        <ele>944.15</ele>
        <time>2015-09-19T07:50:30Z</time>
      </trkpt>
      <trkpt lat="43.97916" lon="6.92646">
        <ele>942.71</ele>
        <time>2015-09-19T07:50:39Z</time>
      </trkpt>
      <trkpt lat="43.9792" lon="6.92642">
        <ele>941.75</ele>
        <time>2015-09-19T07:50:47Z</time>
      </trkpt>
      <trkpt lat="43.97925" lon="6.92639">
        <ele>940.79</ele>
        <time>2015-09-19T07:50:55Z</time>
      </trkpt>
      <trkpt lat="43.97929" lon="6.92637">
        <ele>940.79</ele>
        <time>2015-09-19T07:50:59Z</time>
      </trkpt>
      <trkpt lat="43.97936" lon="6.92633">
        <ele>940.79</ele>
        <time>2015-09-19T07:51:07Z</time>
      </trkpt>
      <trkpt lat="43.97939" lon="6.92633">
        <ele>940.31</ele>
        <time>2015-09-19T07:51:15Z</time>
      </trkpt>
      <trkpt lat="43.97948" lon="6.92632">
        <ele>939.83</ele>
        <time>2015-09-19T07:51:25Z</time>
      </trkpt>
      <trkpt lat="43.97954" lon="6.92633">
        <ele>939.83</ele>
        <time>2015-09-19T07:51:32Z</time>
      </trkpt>
      <trkpt lat="43.97961" lon="6.92632">
        <ele>939.83</ele>
        <time>2015-09-19T07:51:41Z</time>
      </trkpt>
      <trkpt lat="43.97969" lon="6.92631">
        <ele>938.86</ele>
        <time>2015-09-19T07:51:49Z</time>
      </trkpt>
      <trkpt lat="43.97976" lon="6.92634">
        <ele>938.86</ele>
        <time>2015-09-19T07:51:57Z</time>
      </trkpt>
      <trkpt lat="43.97984" lon="6.92632">
        <ele>939.35</ele>
        <time>2015-09-19T07:52:05Z</time>
      </trkpt>
      <trkpt lat="43.97991" lon="6.92635">
        <ele>939.35</ele>
        <time>2015-09-19T07:52:14Z</time>
      </trkpt>
      <trkpt lat="43.97996" lon="6.92637">
        <ele>938.86</ele>
        <time>2015-09-19T07:52:20Z</time>
      </trkpt>
      <trkpt lat="43.97998" lon="6.92637">
        <ele>938.86</ele>
        <time>2015-09-19T07:52:22Z</time>
      </trkpt>
      <trkpt lat="43.98006" lon="6.92639">
        <ele>939.35</ele>
        <time>2015-09-19T07:52:31Z</time>
      </trkpt>
      <trkpt lat="43.98009" lon="6.92639">
        <ele>939.35</ele>
        <time>2015-09-19T07:52:36Z</time>
      </trkpt>
      <trkpt lat="43.98016" lon="6.92639">
        <ele>939.83</ele>
        <time>2015-09-19T07:52:43Z</time>
      </trkpt>
      <trkpt lat="43.98021" lon="6.92641">
        <ele>940.79</ele>
        <time>2015-09-19T07:52:51Z</time>
      </trkpt>
      <trkpt lat="43.98025" lon="6.92639">
        <ele>941.75</ele>
        <time>2015-09-19T07:52:59Z</time>
      </trkpt>
      <trkpt lat="43.98031" lon="6.92637">
        <ele>942.23</ele>
        <time>2015-09-19T07:53:07Z</time>
      </trkpt>
      <trkpt lat="43.98036" lon="6.92638">
        <ele>942.23</ele>
        <time>2015-09-19T07:53:14Z</time>
      </trkpt>
      <trkpt lat="43.98038" lon="6.92645">
        <ele>942.23</ele>
        <time>2015-09-19T07:53:24Z</time>
      </trkpt>
      <trkpt lat="43.98036" lon="6.9265">
        <ele>942.23</ele>
        <time>2015-09-19T07:53:32Z</time>
      </trkpt>
      <trkpt lat="43.98033" lon="6.92656">
        <ele>942.23</ele>
        <time>2015-09-19T07:53:42Z</time>
      </trkpt>
      <trkpt lat="43.98033" lon="6.92653">
        <ele>942.23</ele>
        <time>2015-09-19T07:53:50Z</time>
      </trkpt>
      <trkpt lat="43.98037" lon="6.92654">
        <ele>943.67</ele>
        <time>2015-09-19T07:53:57Z</time>
      </trkpt>
      <trkpt lat="43.98038" lon="6.92655">
        <ele>944.63</ele>
        <time>2015-09-19T07:54:03Z</time>
      </trkpt>
      <trkpt lat="43.98041" lon="6.9266">
        <ele>945.59</ele>
        <time>2015-09-19T07:54:09Z</time>
      </trkpt>
      <trkpt lat="43.98044" lon="6.92661">
        <ele>947.04</ele>
        <time>2015-09-19T07:54:18Z</time>
      </trkpt>
      <trkpt lat="43.98048" lon="6.92665">
        <ele>948</ele>
        <time>2015-09-19T07:54:26Z</time>
      </trkpt>
      <trkpt lat="43.98051" lon="6.92671">
        <ele>948.48</ele>
        <time>2015-09-19T07:54:33Z</time>
      </trkpt>
      <trkpt lat="43.98054" lon="6.92678">
        <ele>948.96</ele>
        <time>2015-09-19T07:54:40Z</time>
      </trkpt>
      <trkpt lat="43.98054" lon="6.92687">
        <ele>949.92</ele>
        <time>2015-09-19T07:54:49Z</time>
      </trkpt>
      <trkpt lat="43.98054" lon="6.92692">
        <ele>949.92</ele>
        <time>2015-09-19T07:54:53Z</time>
      </trkpt>
      <trkpt lat="43.98055" lon="6.92702">
        <ele>949.44</ele>
        <time>2015-09-19T07:55:02Z</time>
      </trkpt>
      <trkpt lat="43.98055" lon="6.92711">
        <ele>949.92</ele>
        <time>2015-09-19T07:55:10Z</time>
      </trkpt>
      <trkpt lat="43.98057" lon="6.92719">
        <ele>949.44</ele>
        <time>2015-09-19T07:55:17Z</time>
      </trkpt>
      <trkpt lat="43.98056" lon="6.92727">
        <ele>950.4</ele>
        <time>2015-09-19T07:55:24Z</time>
      </trkpt>
      <trkpt lat="43.98056" lon="6.92737">
        <ele>950.88</ele>
        <time>2015-09-19T07:55:33Z</time>
      </trkpt>
      <trkpt lat="43.98055" lon="6.92744">
        <ele>951.84</ele>
        <time>2015-09-19T07:55:41Z</time>
      </trkpt>
      <trkpt lat="43.98054" lon="6.92749">
        <ele>952.32</ele>
        <time>2015-09-19T07:55:48Z</time>
      </trkpt>
      <trkpt lat="43.98056" lon="6.92753">
        <ele>953.28</ele>
        <time>2015-09-19T07:55:54Z</time>
      </trkpt>
      <trkpt lat="43.98061" lon="6.92757">
        <ele>954.25</ele>
        <time>2015-09-19T07:56:01Z</time>
      </trkpt>
      <trkpt lat="43.98062" lon="6.92758">
        <ele>955.69</ele>
        <time>2015-09-19T07:56:08Z</time>
      </trkpt>
      <trkpt lat="43.98067" lon="6.92759">
        <ele>956.65</ele>
        <time>2015-09-19T07:56:17Z</time>
      </trkpt>
      <trkpt lat="43.98071" lon="6.92759">
        <ele>958.09</ele>
        <time>2015-09-19T07:56:24Z</time>
      </trkpt>
      <trkpt lat="43.98074" lon="6.92761">
        <ele>959.05</ele>
        <time>2015-09-19T07:56:32Z</time>
      </trkpt>
      <trkpt lat="43.98079" lon="6.92762">
        <ele>960.49</ele>
        <time>2015-09-19T07:56:40Z</time>
      </trkpt>
      <trkpt lat="43.98083" lon="6.92762">
        <ele>961.46</ele>
        <time>2015-09-19T07:56:47Z</time>
      </trkpt>
      <trkpt lat="43.98085" lon="6.92763">
        <ele>962.9</ele>
        <time>2015-09-19T07:56:54Z</time>
      </trkpt>
      <trkpt lat="43.98087" lon="6.92767">
        <ele>963.86</ele>
        <time>2015-09-19T07:57:00Z</time>
      </trkpt>
      <trkpt lat="43.98088" lon="6.92768">
        <ele>963.86</ele>
        <time>2015-09-19T07:57:02Z</time>
      </trkpt>
      <trkpt lat="43.98092" lon="6.92774">
        <ele>965.3</ele>
        <time>2015-09-19T07:57:10Z</time>
      </trkpt>
      <trkpt lat="43.98095" lon="6.92776">
        <ele>965.78</ele>
        <time>2015-09-19T07:57:16Z</time>
      </trkpt>
      <trkpt lat="43.98099" lon="6.92776">
        <ele>967.7</ele>
        <time>2015-09-19T07:57:24Z</time>
      </trkpt>
      <trkpt lat="43.981" lon="6.92777">
        <ele>967.7</ele>
        <time>2015-09-19T07:57:26Z</time>
      </trkpt>
      <trkpt lat="43.98104" lon="6.92782">
        <ele>968.67</ele>
        <time>2015-09-19T07:57:34Z</time>
      </trkpt>
      <trkpt lat="43.98107" lon="6.92785">
        <ele>970.11</ele>
        <time>2015-09-19T07:57:43Z</time>
      </trkpt>
      <trkpt lat="43.98108" lon="6.92786">
        <ele>970.11</ele>
        <time>2015-09-19T07:57:51Z</time>
      </trkpt>
      <trkpt lat="43.98108" lon="6.92786">
        <ele>970.11</ele>
        <time>2015-09-19T07:58:03Z</time>
      </trkpt>
      <trkpt lat="43.98108" lon="6.92788">
        <ele>970.11</ele>
        <time>2015-09-19T07:58:17Z</time>
      </trkpt>
      <trkpt lat="43.98111" lon="6.92788">
        <ele>971.07</ele>
        <time>2015-09-19T07:58:25Z</time>
      </trkpt>
      <trkpt lat="43.98114" lon="6.92792">
        <ele>972.51</ele>
        <time>2015-09-19T07:58:31Z</time>
      </trkpt>
      <trkpt lat="43.98118" lon="6.92796">
        <ele>973.47</ele>
        <time>2015-09-19T07:58:37Z</time>
      </trkpt>
      <trkpt lat="43.9812" lon="6.92797">
        <ele>974.43</ele>
        <time>2015-09-19T07:58:44Z</time>
      </trkpt>
      <trkpt lat="43.98124" lon="6.928">
        <ele>975.39</ele>
        <time>2015-09-19T07:58:50Z</time>
      </trkpt>
      <trkpt lat="43.98128" lon="6.92802">
        <ele>976.36</ele>
        <time>2015-09-19T07:58:58Z</time>
      </trkpt>
      <trkpt lat="43.98132" lon="6.92804">
        <ele>977.32</ele>
        <time>2015-09-19T07:59:04Z</time>
      </trkpt>
      <trkpt lat="43.98136" lon="6.92807">
        <ele>978.28</ele>
        <time>2015-09-19T07:59:12Z</time>
      </trkpt>
      <trkpt lat="43.9814" lon="6.9281">
        <ele>979.24</ele>
        <time>2015-09-19T07:59:19Z</time>
      </trkpt>
      <trkpt lat="43.98145" lon="6.92816">
        <ele>979.72</ele>
        <time>2015-09-19T07:59:27Z</time>
      </trkpt>
      <trkpt lat="43.9815" lon="6.9282">
        <ele>981.16</ele>
        <time>2015-09-19T07:59:36Z</time>
      </trkpt>
      <trkpt lat="43.98154" lon="6.92825">
        <ele>981.64</ele>
        <time>2015-09-19T07:59:43Z</time>
      </trkpt>
      <trkpt lat="43.98159" lon="6.92829">
        <ele>982.6</ele>
        <time>2015-09-19T07:59:51Z</time>
      </trkpt>
      <trkpt lat="43.98162" lon="6.92834">
        <ele>983.57</ele>
        <time>2015-09-19T07:59:59Z</time>
      </trkpt>
      <trkpt lat="43.98167" lon="6.92837">
        <ele>984.53</ele>
        <time>2015-09-19T08:00:06Z</time>
      </trkpt>
      <trkpt lat="43.9817" lon="6.92842">
        <ele>985.49</ele>
        <time>2015-09-19T08:00:13Z</time>
      </trkpt>
      <trkpt lat="43.98173" lon="6.92844">
        <ele>985.97</ele>
        <time>2015-09-19T08:00:20Z</time>
      </trkpt>
      <trkpt lat="43.98175" lon="6.92846">
        <ele>986.93</ele>
        <time>2015-09-19T08:00:26Z</time>
      </trkpt>
      <trkpt lat="43.98179" lon="6.92847">
        <ele>988.37</ele>
        <time>2015-09-19T08:00:34Z</time>
      </trkpt>
      <trkpt lat="43.98183" lon="6.9285">
        <ele>990.3</ele>
        <time>2015-09-19T08:00:41Z</time>
      </trkpt>
      <trkpt lat="43.98186" lon="6.92852">
        <ele>990.78</ele>
        <time>2015-09-19T08:00:50Z</time>
      </trkpt>
      <trkpt lat="43.98188" lon="6.92853">
        <ele>991.74</ele>
        <time>2015-09-19T08:00:56Z</time>
      </trkpt>
      <trkpt lat="43.98191" lon="6.92855">
        <ele>993.18</ele>
        <time>2015-09-19T08:01:04Z</time>
      </trkpt>
      <trkpt lat="43.98193" lon="6.92859">
        <ele>994.14</ele>
        <time>2015-09-19T08:01:13Z</time>
      </trkpt>
      <trkpt lat="43.98197" lon="6.92864">
        <ele>994.62</ele>
        <time>2015-09-19T08:01:20Z</time>
      </trkpt>
      <trkpt lat="43.982" lon="6.92869">
        <ele>995.58</ele>
        <time>2015-09-19T08:01:27Z</time>
      </trkpt>
      <trkpt lat="43.98203" lon="6.92872">
        <ele>996.54</ele>
        <time>2015-09-19T08:01:33Z</time>
      </trkpt>
      <trkpt lat="43.98206" lon="6.92872">
        <ele>997.02</ele>
        <time>2015-09-19T08:01:39Z</time>
      </trkpt>
      <trkpt lat="43.98207" lon="6.92872">
        <ele>997.99</ele>
        <time>2015-09-19T08:01:45Z</time>
      </trkpt>
      <trkpt lat="43.98208" lon="6.9287">
        <ele>999.43</ele>
        <time>2015-09-19T08:01:52Z</time>
      </trkpt>
      <trkpt lat="43.98207" lon="6.92869">
        <ele>999.43</ele>
        <time>2015-09-19T08:01:58Z</time>
      </trkpt>
      <trkpt lat="43.98208" lon="6.92869">
        <ele>998.95</ele>
        <time>2015-09-19T08:02:09Z</time>
      </trkpt>
      <trkpt lat="43.98207" lon="6.92868">
        <ele>998.95</ele>
        <time>2015-09-19T08:02:19Z</time>
      </trkpt>
      <trkpt lat="43.98208" lon="6.92869">
        <ele>998.95</ele>
        <time>2015-09-19T08:02:39Z</time>
      </trkpt>
      <trkpt lat="43.98208" lon="6.92869">
        <ele>998.95</ele>
        <time>2015-09-19T08:02:56Z</time>
      </trkpt>
      <trkpt lat="43.98207" lon="6.92869">
        <ele>997.02</ele>
        <time>2015-09-19T08:03:10Z</time>
      </trkpt>
      <trkpt lat="43.98207" lon="6.92869">
        <ele>998.47</ele>
        <time>2015-09-19T08:03:12Z</time>
      </trkpt>
      <trkpt lat="43.98207" lon="6.92869">
        <ele>998.47</ele>
        <time>2015-09-19T08:03:21Z</time>
      </trkpt>
      <trkpt lat="43.98208" lon="6.92868">
        <ele>998.47</ele>
        <time>2015-09-19T08:03:32Z</time>
      </trkpt>
      <trkpt lat="43.98208" lon="6.92869">
        <ele>998.95</ele>
        <time>2015-09-19T08:03:43Z</time>
      </trkpt>
      <trkpt lat="43.98208" lon="6.92869">
        <ele>999.43</ele>
        <time>2015-09-19T08:03:50Z</time>
      </trkpt>
      <trkpt lat="43.98208" lon="6.9287">
        <ele>999.91</ele>
        <time>2015-09-19T08:03:57Z</time>
      </trkpt>
      <trkpt lat="43.98207" lon="6.9287">
        <ele>999.91</ele>
        <time>2015-09-19T08:04:04Z</time>
      </trkpt>
      <trkpt lat="43.98207" lon="6.92871">
        <ele>999.43</ele>
        <time>2015-09-19T08:04:14Z</time>
      </trkpt>
      <trkpt lat="43.98207" lon="6.9287">
        <ele>999.43</ele>
        <time>2015-09-19T08:04:25Z</time>
      </trkpt>
      <trkpt lat="43.98206" lon="6.92871">
        <ele>999.43</ele>
        <time>2015-09-19T08:04:39Z</time>
      </trkpt>
      <trkpt lat="43.98206" lon="6.92871">
        <ele>999.43</ele>
        <time>2015-09-19T08:04:56Z</time>
      </trkpt>
      <trkpt lat="43.98205" lon="6.92869">
        <ele>999.43</ele>
        <time>2015-09-19T08:05:15Z</time>
      </trkpt>
      <trkpt lat="43.98204" lon="6.92869">
        <ele>999.43</ele>
        <time>2015-09-19T08:05:24Z</time>
      </trkpt>
      <trkpt lat="43.98204" lon="6.9287">
        <ele>999.43</ele>
        <time>2015-09-19T08:05:36Z</time>
      </trkpt>
      <trkpt lat="43.98204" lon="6.92871">
        <ele>999.43</ele>
        <time>2015-09-19T08:05:41Z</time>
      </trkpt>
      <trkpt lat="43.98206" lon="6.92872">
        <ele>999.43</ele>
        <time>2015-09-19T08:05:53Z</time>
      </trkpt>
      <trkpt lat="43.98208" lon="6.9287">
        <ele>999.43</ele>
        <time>2015-09-19T08:06:00Z</time>
      </trkpt>
      <trkpt lat="43.98211" lon="6.92868">
        <ele>999.43</ele>
        <time>2015-09-19T08:06:03Z</time>
      </trkpt>
      <trkpt lat="43.98214" lon="6.92865">
        <ele>999.91</ele>
        <time>2015-09-19T08:06:07Z</time>
      </trkpt>
      <trkpt lat="43.98218" lon="6.92854">
        <ele>1001.83</ele>
        <time>2015-09-19T08:06:11Z</time>
      </trkpt>
      <trkpt lat="43.98221" lon="6.92847">
        <ele>1001.35</ele>
        <time>2015-09-19T08:06:15Z</time>
      </trkpt>
      <trkpt lat="43.98221" lon="6.92845">
        <ele>1001.35</ele>
        <time>2015-09-19T08:06:16Z</time>
      </trkpt>
      <trkpt lat="43.98223" lon="6.92842">
        <ele>1001.35</ele>
        <time>2015-09-19T08:06:18Z</time>
      </trkpt>
      <trkpt lat="43.98224" lon="6.92838">
        <ele>1001.35</ele>
        <time>2015-09-19T08:06:23Z</time>
      </trkpt>
      <trkpt lat="43.98227" lon="6.92829">
        <ele>1002.31</ele>
        <time>2015-09-19T08:06:31Z</time>
      </trkpt>
      <trkpt lat="43.98229" lon="6.92827">
        <ele>1002.31</ele>
        <time>2015-09-19T08:06:37Z</time>
      </trkpt>
      <trkpt lat="43.98229" lon="6.92825">
        <ele>1001.83</ele>
        <time>2015-09-19T08:06:41Z</time>
      </trkpt>
      <trkpt lat="43.9823" lon="6.92817">
        <ele>1002.31</ele>
        <time>2015-09-19T08:06:48Z</time>
      </trkpt>
      <trkpt lat="43.98232" lon="6.92811">
        <ele>1003.75</ele>
        <time>2015-09-19T08:06:56Z</time>
      </trkpt>
      <trkpt lat="43.98234" lon="6.92807">
        <ele>1003.27</ele>
        <time>2015-09-19T08:07:02Z</time>
      </trkpt>
      <trkpt lat="43.98238" lon="6.92797">
        <ele>1003.75</ele>
        <time>2015-09-19T08:07:11Z</time>
      </trkpt>
      <trkpt lat="43.98239" lon="6.92796">
        <ele>1003.75</ele>
        <time>2015-09-19T08:07:12Z</time>
      </trkpt>
      <trkpt lat="43.98244" lon="6.92783">
        <ele>1004.23</ele>
        <time>2015-09-19T08:07:23Z</time>
      </trkpt>
      <trkpt lat="43.98247" lon="6.92776">
        <ele>1004.23</ele>
        <time>2015-09-19T08:07:29Z</time>
      </trkpt>
      <trkpt lat="43.98248" lon="6.92773">
        <ele>1004.72</ele>
        <time>2015-09-19T08:07:31Z</time>
      </trkpt>
      <trkpt lat="43.98248" lon="6.92772">
        <ele>1004.23</ele>
        <time>2015-09-19T08:07:33Z</time>
      </trkpt>
      <trkpt lat="43.98249" lon="6.9277">
        <ele>1004.72</ele>
        <time>2015-09-19T08:07:35Z</time>
      </trkpt>
      <trkpt lat="43.98253" lon="6.92761">
        <ele>1004.72</ele>
        <time>2015-09-19T08:07:43Z</time>
      </trkpt>
      <trkpt lat="43.98254" lon="6.92757">
        <ele>1005.2</ele>
        <time>2015-09-19T08:07:46Z</time>
      </trkpt>
      <trkpt lat="43.98259" lon="6.92748">
        <ele>1006.16</ele>
        <time>2015-09-19T08:07:54Z</time>
      </trkpt>
      <trkpt lat="43.98259" lon="6.92747">
        <ele>1006.16</ele>
        <time>2015-09-19T08:07:55Z</time>
      </trkpt>
      <trkpt lat="43.98264" lon="6.92738">
        <ele>1006.64</ele>
        <time>2015-09-19T08:08:03Z</time>
      </trkpt>
      <trkpt lat="43.98267" lon="6.92732">
        <ele>1006.64</ele>
        <time>2015-09-19T08:08:11Z</time>
      </trkpt>
      <trkpt lat="43.98267" lon="6.92733">
        <ele>1007.12</ele>
        <time>2015-09-19T08:08:13Z</time>
      </trkpt>
      <trkpt lat="43.98267" lon="6.92737">
        <ele>1006.64</ele>
        <time>2015-09-19T08:08:19Z</time>
      </trkpt>
      <trkpt lat="43.98268" lon="6.92735">
        <ele>1006.64</ele>
        <time>2015-09-19T08:08:25Z</time>
      </trkpt>
      <trkpt lat="43.9827" lon="6.92728">
        <ele>1007.12</ele>
        <time>2015-09-19T08:08:31Z</time>
      </trkpt>
      <trkpt lat="43.9827" lon="6.92724">
        <ele>1007.6</ele>
        <time>2015-09-19T08:08:35Z</time>
      </trkpt>
      <trkpt lat="43.98269" lon="6.9272">
        <ele>1009.04</ele>
        <time>2015-09-19T08:08:42Z</time>
      </trkpt>
      <trkpt lat="43.98271" lon="6.9272">
        <ele>1007.6</ele>
        <time>2015-09-19T08:08:53Z</time>
      </trkpt>
      <trkpt lat="43.98271" lon="6.92719">
        <ele>1007.12</ele>
        <time>2015-09-19T08:09:03Z</time>
      </trkpt>
      <trkpt lat="43.98271" lon="6.92719">
        <ele>1006.64</ele>
        <time>2015-09-19T08:09:11Z</time>
      </trkpt>
      <trkpt lat="43.98271" lon="6.92719">
        <ele>1006.64</ele>
        <time>2015-09-19T08:09:28Z</time>
      </trkpt>
      <trkpt lat="43.98271" lon="6.92719">
        <ele>1006.64</ele>
        <time>2015-09-19T08:09:43Z</time>
      </trkpt>
      <trkpt lat="43.98271" lon="6.92719">
        <ele>1006.64</ele>
        <time>2015-09-19T08:10:00Z</time>
      </trkpt>
      <trkpt lat="43.98271" lon="6.92719">
        <ele>1006.64</ele>
        <time>2015-09-19T08:10:15Z</time>
      </trkpt>
      <trkpt lat="43.98272" lon="6.92719">
        <ele>1006.64</ele>
        <time>2015-09-19T08:10:30Z</time>
      </trkpt>
      <trkpt lat="43.98271" lon="6.9272">
        <ele>1007.6</ele>
        <time>2015-09-19T08:10:43Z</time>
      </trkpt>
      <trkpt lat="43.98272" lon="6.92719">
        <ele>1007.12</ele>
        <time>2015-09-19T08:10:48Z</time>
      </trkpt>
      <trkpt lat="43.98274" lon="6.92716">
        <ele>1008.08</ele>
        <time>2015-09-19T08:10:54Z</time>
      </trkpt>
      <trkpt lat="43.98278" lon="6.92707">
        <ele>1009.04</ele>
        <time>2015-09-19T08:11:03Z</time>
      </trkpt>
      <trkpt lat="43.9828" lon="6.92699">
        <ele>1009.52</ele>
        <time>2015-09-19T08:11:10Z</time>
      </trkpt>
      <trkpt lat="43.98281" lon="6.92695">
        <ele>1010</ele>
        <time>2015-09-19T08:11:14Z</time>
      </trkpt>
      <trkpt lat="43.98285" lon="6.92685">
        <ele>1010.48</ele>
        <time>2015-09-19T08:11:23Z</time>
      </trkpt>
      <trkpt lat="43.98289" lon="6.92679">
        <ele>1010.96</ele>
        <time>2015-09-19T08:11:29Z</time>
      </trkpt>
      <trkpt lat="43.98292" lon="6.92671">
        <ele>1011.93</ele>
        <time>2015-09-19T08:11:37Z</time>
      </trkpt>
      <trkpt lat="43.98296" lon="6.92664">
        <ele>1012.41</ele>
        <time>2015-09-19T08:11:44Z</time>
      </trkpt>
      <trkpt lat="43.98301" lon="6.92658">
        <ele>1012.89</ele>
        <time>2015-09-19T08:11:51Z</time>
      </trkpt>
      <trkpt lat="43.98308" lon="6.92654">
        <ele>1013.85</ele>
        <time>2015-09-19T08:11:58Z</time>
      </trkpt>
      <trkpt lat="43.98313" lon="6.92657">
        <ele>1014.33</ele>
        <time>2015-09-19T08:12:06Z</time>
      </trkpt>
      <trkpt lat="43.98314" lon="6.9266">
        <ele>1014.33</ele>
        <time>2015-09-19T08:12:08Z</time>
      </trkpt>
      <trkpt lat="43.98316" lon="6.9267">
        <ele>1015.29</ele>
        <time>2015-09-19T08:12:16Z</time>
      </trkpt>
      <trkpt lat="43.98316" lon="6.92672">
        <ele>1015.29</ele>
        <time>2015-09-19T08:12:18Z</time>
      </trkpt>
      <trkpt lat="43.98316" lon="6.92681">
        <ele>1015.77</ele>
        <time>2015-09-19T08:12:25Z</time>
      </trkpt>
      <trkpt lat="43.98319" lon="6.92692">
        <ele>1016.73</ele>
        <time>2015-09-19T08:12:34Z</time>
      </trkpt>
      <trkpt lat="43.98321" lon="6.92703">
        <ele>1017.21</ele>
        <time>2015-09-19T08:12:42Z</time>
      </trkpt>
      <trkpt lat="43.98323" lon="6.92711">
        <ele>1017.69</ele>
        <time>2015-09-19T08:12:49Z</time>
      </trkpt>
      <trkpt lat="43.98324" lon="6.92721">
        <ele>1018.17</ele>
        <time>2015-09-19T08:12:57Z</time>
      </trkpt>
      <trkpt lat="43.98325" lon="6.9273">
        <ele>1018.65</ele>
        <time>2015-09-19T08:13:05Z</time>
      </trkpt>
      <trkpt lat="43.98326" lon="6.92741">
        <ele>1019.13</ele>
        <time>2015-09-19T08:13:13Z</time>
      </trkpt>
      <trkpt lat="43.98327" lon="6.92747">
        <ele>1020.1</ele>
        <time>2015-09-19T08:13:19Z</time>
      </trkpt>
      <trkpt lat="43.98328" lon="6.92757">
        <ele>1020.58</ele>
        <time>2015-09-19T08:13:27Z</time>
      </trkpt>
      <trkpt lat="43.98329" lon="6.92767">
        <ele>1021.54</ele>
        <time>2015-09-19T08:13:36Z</time>
      </trkpt>
      <trkpt lat="43.9833" lon="6.9277">
        <ele>1022.02</ele>
        <time>2015-09-19T08:13:40Z</time>
      </trkpt>
      <trkpt lat="43.98329" lon="6.9278">
        <ele>1022.98</ele>
        <time>2015-09-19T08:13:48Z</time>
      </trkpt>
      <trkpt lat="43.98329" lon="6.92788">
        <ele>1023.94</ele>
        <time>2015-09-19T08:13:56Z</time>
      </trkpt>
      <trkpt lat="43.98329" lon="6.9279">
        <ele>1023.94</ele>
        <time>2015-09-19T08:13:57Z</time>
      </trkpt>
      <trkpt lat="43.98329" lon="6.928">
        <ele>1024.9</ele>
        <time>2015-09-19T08:14:05Z</time>
      </trkpt>
      <trkpt lat="43.98328" lon="6.92812">
        <ele>1025.86</ele>
        <time>2015-09-19T08:14:14Z</time>
      </trkpt>
      <trkpt lat="43.98328" lon="6.92825">
        <ele>1026.83</ele>
        <time>2015-09-19T08:14:23Z</time>
      </trkpt>
      <trkpt lat="43.98327" lon="6.92831">
        <ele>1027.31</ele>
        <time>2015-09-19T08:14:30Z</time>
      </trkpt>
      <trkpt lat="43.98328" lon="6.92832">
        <ele>1027.31</ele>
        <time>2015-09-19T08:14:45Z</time>
      </trkpt>
      <trkpt lat="43.98329" lon="6.92841">
        <ele>1028.27</ele>
        <time>2015-09-19T08:14:53Z</time>
      </trkpt>
      <trkpt lat="43.9833" lon="6.92843">
        <ele>1028.27</ele>
        <time>2015-09-19T08:15:00Z</time>
      </trkpt>
      <trkpt lat="43.98331" lon="6.92853">
        <ele>1029.23</ele>
        <time>2015-09-19T08:15:08Z</time>
      </trkpt>
      <trkpt lat="43.98331" lon="6.92862">
        <ele>1030.19</ele>
        <time>2015-09-19T08:15:16Z</time>
      </trkpt>
      <trkpt lat="43.98329" lon="6.92871">
        <ele>1031.15</ele>
        <time>2015-09-19T08:15:24Z</time>
      </trkpt>
      <trkpt lat="43.98327" lon="6.92879">
        <ele>1031.63</ele>
        <time>2015-09-19T08:15:30Z</time>
      </trkpt>
      <trkpt lat="43.98325" lon="6.92887">
        <ele>1032.11</ele>
        <time>2015-09-19T08:15:37Z</time>
      </trkpt>
      <trkpt lat="43.98321" lon="6.92896">
        <ele>1033.07</ele>
        <time>2015-09-19T08:15:46Z</time>
      </trkpt>
      <trkpt lat="43.98318" lon="6.92906">
        <ele>1034.04</ele>
        <time>2015-09-19T08:15:54Z</time>
      </trkpt>
      <trkpt lat="43.98316" lon="6.92913">
        <ele>1034.52</ele>
        <time>2015-09-19T08:16:01Z</time>
      </trkpt>
      <trkpt lat="43.98315" lon="6.92916">
        <ele>1035</ele>
        <time>2015-09-19T08:16:03Z</time>
      </trkpt>
      <trkpt lat="43.98316" lon="6.92924">
        <ele>1035.48</ele>
        <time>2015-09-19T08:16:10Z</time>
      </trkpt>
      <trkpt lat="43.98316" lon="6.92927">
        <ele>1035.96</ele>
        <time>2015-09-19T08:16:13Z</time>
      </trkpt>
      <trkpt lat="43.98319" lon="6.9294">
        <ele>1036.44</ele>
        <time>2015-09-19T08:16:23Z</time>
      </trkpt>
      <trkpt lat="43.9832" lon="6.92948">
        <ele>1036.92</ele>
        <time>2015-09-19T08:16:30Z</time>
      </trkpt>
      <trkpt lat="43.98321" lon="6.92956">
        <ele>1037.4</ele>
        <time>2015-09-19T08:16:36Z</time>
      </trkpt>
      <trkpt lat="43.98323" lon="6.92969">
        <ele>1037.88</ele>
        <time>2015-09-19T08:16:46Z</time>
      </trkpt>
      <trkpt lat="43.98324" lon="6.92974">
        <ele>1038.36</ele>
        <time>2015-09-19T08:16:50Z</time>
      </trkpt>
      <trkpt lat="43.98324" lon="6.92978">
        <ele>1038.36</ele>
        <time>2015-09-19T08:16:53Z</time>
      </trkpt>
      <trkpt lat="43.98324" lon="6.92992">
        <ele>1039.32</ele>
        <time>2015-09-19T08:17:03Z</time>
      </trkpt>
      <trkpt lat="43.98324" lon="6.93005">
        <ele>1039.32</ele>
        <time>2015-09-19T08:17:12Z</time>
      </trkpt>
      <trkpt lat="43.98322" lon="6.93016">
        <ele>1039.8</ele>
        <time>2015-09-19T08:17:20Z</time>
      </trkpt>
      <trkpt lat="43.98318" lon="6.93024">
        <ele>1040.76</ele>
        <time>2015-09-19T08:17:28Z</time>
      </trkpt>
      <trkpt lat="43.98318" lon="6.93025">
        <ele>1040.76</ele>
        <time>2015-09-19T08:17:29Z</time>
      </trkpt>
      <trkpt lat="43.98312" lon="6.93033">
        <ele>1041.73</ele>
        <time>2015-09-19T08:17:38Z</time>
      </trkpt>
      <trkpt lat="43.98309" lon="6.9304">
        <ele>1041.73</ele>
        <time>2015-09-19T08:17:44Z</time>
      </trkpt>
      <trkpt lat="43.98308" lon="6.93046">
        <ele>1042.21</ele>
        <time>2015-09-19T08:17:49Z</time>
      </trkpt>
      <trkpt lat="43.98306" lon="6.93054">
        <ele>1042.69</ele>
        <time>2015-09-19T08:17:57Z</time>
      </trkpt>
      <trkpt lat="43.98304" lon="6.93063">
        <ele>1043.17</ele>
        <time>2015-09-19T08:18:05Z</time>
      </trkpt>
      <trkpt lat="43.98303" lon="6.93064">
        <ele>1043.65</ele>
        <time>2015-09-19T08:18:12Z</time>
      </trkpt>
      <trkpt lat="43.98303" lon="6.93067">
        <ele>1043.65</ele>
        <time>2015-09-19T08:18:17Z</time>
      </trkpt>
      <trkpt lat="43.98301" lon="6.93075">
        <ele>1044.61</ele>
        <time>2015-09-19T08:18:25Z</time>
      </trkpt>
      <trkpt lat="43.983" lon="6.93083">
        <ele>1045.09</ele>
        <time>2015-09-19T08:18:33Z</time>
      </trkpt>
      <trkpt lat="43.98298" lon="6.9309">
        <ele>1045.57</ele>
        <time>2015-09-19T08:18:39Z</time>
      </trkpt>
      <trkpt lat="43.98297" lon="6.93095">
        <ele>1046.05</ele>
        <time>2015-09-19T08:18:44Z</time>
      </trkpt>
      <trkpt lat="43.98296" lon="6.93101">
        <ele>1046.53</ele>
        <time>2015-09-19T08:18:49Z</time>
      </trkpt>
      <trkpt lat="43.98293" lon="6.93111">
        <ele>1047.49</ele>
        <time>2015-09-19T08:18:57Z</time>
      </trkpt>
      <trkpt lat="43.98291" lon="6.93118">
        <ele>1047.97</ele>
        <time>2015-09-19T08:19:04Z</time>
      </trkpt>
      <trkpt lat="43.98287" lon="6.93127">
        <ele>1048.45</ele>
        <time>2015-09-19T08:19:12Z</time>
      </trkpt>
      <trkpt lat="43.98286" lon="6.93129">
        <ele>1048.94</ele>
        <time>2015-09-19T08:19:13Z</time>
      </trkpt>
      <trkpt lat="43.98284" lon="6.93131">
        <ele>1048.94</ele>
        <time>2015-09-19T08:19:19Z</time>
      </trkpt>
      <trkpt lat="43.98284" lon="6.93132">
        <ele>1048.94</ele>
        <time>2015-09-19T08:19:28Z</time>
      </trkpt>
      <trkpt lat="43.98283" lon="6.93135">
        <ele>1049.42</ele>
        <time>2015-09-19T08:19:31Z</time>
      </trkpt>
      <trkpt lat="43.9828" lon="6.93144">
        <ele>1050.38</ele>
        <time>2015-09-19T08:19:39Z</time>
      </trkpt>
      <trkpt lat="43.98278" lon="6.93148">
        <ele>1050.38</ele>
        <time>2015-09-19T08:19:43Z</time>
      </trkpt>
      <trkpt lat="43.98276" lon="6.93157">
        <ele>1050.86</ele>
        <time>2015-09-19T08:19:50Z</time>
      </trkpt>
      <trkpt lat="43.98274" lon="6.93165">
        <ele>1051.82</ele>
        <time>2015-09-19T08:19:58Z</time>
      </trkpt>
      <trkpt lat="43.98274" lon="6.93168">
        <ele>1051.82</ele>
        <time>2015-09-19T08:20:01Z</time>
      </trkpt>
      <trkpt lat="43.98272" lon="6.93179">
        <ele>1052.3</ele>
        <time>2015-09-19T08:20:10Z</time>
      </trkpt>
      <trkpt lat="43.98271" lon="6.93184">
        <ele>1052.78</ele>
        <time>2015-09-19T08:20:14Z</time>
      </trkpt>
      <trkpt lat="43.9827" lon="6.93193">
        <ele>1053.26</ele>
        <time>2015-09-19T08:20:21Z</time>
      </trkpt>
      <trkpt lat="43.98269" lon="6.93202">
        <ele>1053.74</ele>
        <time>2015-09-19T08:20:28Z</time>
      </trkpt>
      <trkpt lat="43.98266" lon="6.9321">
        <ele>1055.18</ele>
        <time>2015-09-19T08:20:35Z</time>
      </trkpt>
      <trkpt lat="43.98266" lon="6.93213">
        <ele>1054.22</ele>
        <time>2015-09-19T08:20:41Z</time>
      </trkpt>
      <trkpt lat="43.98266" lon="6.93216">
        <ele>1054.7</ele>
        <time>2015-09-19T08:20:48Z</time>
      </trkpt>
      <trkpt lat="43.98266" lon="6.93218">
        <ele>1054.7</ele>
        <time>2015-09-19T08:20:57Z</time>
      </trkpt>
      <trkpt lat="43.98267" lon="6.93219">
        <ele>1054.7</ele>
        <time>2015-09-19T08:21:04Z</time>
      </trkpt>
      <trkpt lat="43.98268" lon="6.93222">
        <ele>1055.18</ele>
        <time>2015-09-19T08:21:12Z</time>
      </trkpt>
      <trkpt lat="43.98268" lon="6.93227">
        <ele>1055.67</ele>
        <time>2015-09-19T08:21:19Z</time>
      </trkpt>
      <trkpt lat="43.98267" lon="6.93236">
        <ele>1056.15</ele>
        <time>2015-09-19T08:21:27Z</time>
      </trkpt>
      <trkpt lat="43.98268" lon="6.93238">
        <ele>1056.63</ele>
        <time>2015-09-19T08:21:29Z</time>
      </trkpt>
      <trkpt lat="43.98268" lon="6.93249">
        <ele>1057.11</ele>
        <time>2015-09-19T08:21:37Z</time>
      </trkpt>
      <trkpt lat="43.98267" lon="6.93254">
        <ele>1057.59</ele>
        <time>2015-09-19T08:21:44Z</time>
      </trkpt>
      <trkpt lat="43.98268" lon="6.93256">
        <ele>1057.59</ele>
        <time>2015-09-19T08:22:01Z</time>
      </trkpt>
      <trkpt lat="43.98268" lon="6.93257">
        <ele>1057.59</ele>
        <time>2015-09-19T08:22:16Z</time>
      </trkpt>
      <trkpt lat="43.98268" lon="6.93259">
        <ele>1057.59</ele>
        <time>2015-09-19T08:22:27Z</time>
      </trkpt>
      <trkpt lat="43.98268" lon="6.93262">
        <ele>1057.59</ele>
        <time>2015-09-19T08:22:30Z</time>
      </trkpt>
      <trkpt lat="43.9827" lon="6.93279">
        <ele>1058.55</ele>
        <time>2015-09-19T08:22:42Z</time>
      </trkpt>
      <trkpt lat="43.98271" lon="6.93291">
        <ele>1059.03</ele>
        <time>2015-09-19T08:22:50Z</time>
      </trkpt>
      <trkpt lat="43.98271" lon="6.93302">
        <ele>1059.99</ele>
        <time>2015-09-19T08:22:57Z</time>
      </trkpt>
      <trkpt lat="43.98273" lon="6.93312">
        <ele>1060.47</ele>
        <time>2015-09-19T08:23:04Z</time>
      </trkpt>
      <trkpt lat="43.98275" lon="6.93323">
        <ele>1060.95</ele>
        <time>2015-09-19T08:23:13Z</time>
      </trkpt>
      <trkpt lat="43.98275" lon="6.93327">
        <ele>1061.43</ele>
        <time>2015-09-19T08:23:16Z</time>
      </trkpt>
      <trkpt lat="43.98275" lon="6.9333">
        <ele>1061.43</ele>
        <time>2015-09-19T08:23:18Z</time>
      </trkpt>
      <trkpt lat="43.98277" lon="6.93343">
        <ele>1062.39</ele>
        <time>2015-09-19T08:23:28Z</time>
      </trkpt>
      <trkpt lat="43.9828" lon="6.93357">
        <ele>1062.87</ele>
        <time>2015-09-19T08:23:38Z</time>
      </trkpt>
      <trkpt lat="43.98281" lon="6.93368">
        <ele>1063.36</ele>
        <time>2015-09-19T08:23:46Z</time>
      </trkpt>
      <trkpt lat="43.98282" lon="6.93378">
        <ele>1063.84</ele>
        <time>2015-09-19T08:23:53Z</time>
      </trkpt>
      <trkpt lat="43.98282" lon="6.93386">
        <ele>1064.32</ele>
        <time>2015-09-19T08:24:00Z</time>
      </trkpt>
      <trkpt lat="43.98283" lon="6.93397">
        <ele>1065.28</ele>
        <time>2015-09-19T08:24:08Z</time>
      </trkpt>
      <trkpt lat="43.98285" lon="6.93406">
        <ele>1066.24</ele>
        <time>2015-09-19T08:24:15Z</time>
      </trkpt>
      <trkpt lat="43.98287" lon="6.93416">
        <ele>1066.72</ele>
        <time>2015-09-19T08:24:23Z</time>
      </trkpt>
      <trkpt lat="43.9829" lon="6.93424">
        <ele>1067.2</ele>
        <time>2015-09-19T08:24:31Z</time>
      </trkpt>
      <trkpt lat="43.98295" lon="6.93432">
        <ele>1067.68</ele>
        <time>2015-09-19T08:24:38Z</time>
      </trkpt>
      <trkpt lat="43.983" lon="6.9344">
        <ele>1068.64</ele>
        <time>2015-09-19T08:24:47Z</time>
      </trkpt>
      <trkpt lat="43.98307" lon="6.93448">
        <ele>1069.12</ele>
        <time>2015-09-19T08:24:56Z</time>
      </trkpt>
      <trkpt lat="43.98313" lon="6.93457">
        <ele>1069.12</ele>
        <time>2015-09-19T08:25:05Z</time>
      </trkpt>
      <trkpt lat="43.9832" lon="6.93468">
        <ele>1069.6</ele>
        <time>2015-09-19T08:25:15Z</time>
      </trkpt>
      <trkpt lat="43.98324" lon="6.93479">
        <ele>1070.08</ele>
        <time>2015-09-19T08:25:23Z</time>
      </trkpt>
      <trkpt lat="43.98328" lon="6.9349">
        <ele>1070.57</ele>
        <time>2015-09-19T08:25:31Z</time>
      </trkpt>
      <trkpt lat="43.98328" lon="6.93493">
        <ele>1070.57</ele>
        <time>2015-09-19T08:25:34Z</time>
      </trkpt>
      <trkpt lat="43.98332" lon="6.93507">
        <ele>1071.53</ele>
        <time>2015-09-19T08:25:44Z</time>
      </trkpt>
      <trkpt lat="43.98334" lon="6.93516">
        <ele>1072.01</ele>
        <time>2015-09-19T08:25:51Z</time>
      </trkpt>
      <trkpt lat="43.98335" lon="6.93526">
        <ele>1072.49</ele>
        <time>2015-09-19T08:25:58Z</time>
      </trkpt>
      <trkpt lat="43.98337" lon="6.93537">
        <ele>1073.45</ele>
        <time>2015-09-19T08:26:07Z</time>
      </trkpt>
      <trkpt lat="43.98339" lon="6.93549">
        <ele>1074.89</ele>
        <time>2015-09-19T08:26:16Z</time>
      </trkpt>
      <trkpt lat="43.98338" lon="6.93554">
        <ele>1074.89</ele>
        <time>2015-09-19T08:26:20Z</time>
      </trkpt>
      <trkpt lat="43.98338" lon="6.93561">
        <ele>1075.85</ele>
        <time>2015-09-19T08:26:25Z</time>
      </trkpt>
      <trkpt lat="43.98337" lon="6.93566">
        <ele>1076.33</ele>
        <time>2015-09-19T08:26:29Z</time>
      </trkpt>
      <trkpt lat="43.98336" lon="6.93579">
        <ele>1077.29</ele>
        <time>2015-09-19T08:26:38Z</time>
      </trkpt>
      <trkpt lat="43.98334" lon="6.93586">
        <ele>1078.26</ele>
        <time>2015-09-19T08:26:44Z</time>
      </trkpt>
      <trkpt lat="43.98332" lon="6.93596">
        <ele>1078.26</ele>
        <time>2015-09-19T08:26:53Z</time>
      </trkpt>
      <trkpt lat="43.9833" lon="6.93604">
        <ele>1078.74</ele>
        <time>2015-09-19T08:27:01Z</time>
      </trkpt>
      <trkpt lat="43.9833" lon="6.93605">
        <ele>1078.26</ele>
        <time>2015-09-19T08:27:03Z</time>
      </trkpt>
      <trkpt lat="43.9833" lon="6.93612">
        <ele>1078.74</ele>
        <time>2015-09-19T08:27:11Z</time>
      </trkpt>
      <trkpt lat="43.98328" lon="6.93614">
        <ele>1078.74</ele>
        <time>2015-09-19T08:27:21Z</time>
      </trkpt>
      <trkpt lat="43.98327" lon="6.93618">
        <ele>1079.22</ele>
        <time>2015-09-19T08:27:28Z</time>
      </trkpt>
      <trkpt lat="43.98326" lon="6.93619">
        <ele>1079.22</ele>
        <time>2015-09-19T08:27:42Z</time>
      </trkpt>
      <trkpt lat="43.98326" lon="6.93621">
        <ele>1079.22</ele>
        <time>2015-09-19T08:27:51Z</time>
      </trkpt>
      <trkpt lat="43.98326" lon="6.9363">
        <ele>1079.7</ele>
        <time>2015-09-19T08:27:58Z</time>
      </trkpt>
      <trkpt lat="43.98324" lon="6.93638">
        <ele>1080.18</ele>
        <time>2015-09-19T08:28:06Z</time>
      </trkpt>
      <trkpt lat="43.98324" lon="6.93647">
        <ele>1081.14</ele>
        <time>2015-09-19T08:28:13Z</time>
      </trkpt>
      <trkpt lat="43.98324" lon="6.93652">
        <ele>1081.14</ele>
        <time>2015-09-19T08:28:17Z</time>
      </trkpt>
      <trkpt lat="43.98325" lon="6.93658">
        <ele>1081.62</ele>
        <time>2015-09-19T08:28:22Z</time>
      </trkpt>
      <trkpt lat="43.98326" lon="6.93666">
        <ele>1082.58</ele>
        <time>2015-09-19T08:28:28Z</time>
      </trkpt>
      <trkpt lat="43.98328" lon="6.93674">
        <ele>1083.54</ele>
        <time>2015-09-19T08:28:35Z</time>
      </trkpt>
      <trkpt lat="43.98329" lon="6.93683">
        <ele>1084.02</ele>
        <time>2015-09-19T08:28:43Z</time>
      </trkpt>
      <trkpt lat="43.98333" lon="6.93695">
        <ele>1084.99</ele>
        <time>2015-09-19T08:28:53Z</time>
      </trkpt>
      <trkpt lat="43.98336" lon="6.93706">
        <ele>1085.47</ele>
        <time>2015-09-19T08:29:03Z</time>
      </trkpt>
      <trkpt lat="43.98337" lon="6.93718">
        <ele>1086.43</ele>
        <time>2015-09-19T08:29:12Z</time>
      </trkpt>
      <trkpt lat="43.98336" lon="6.93732">
        <ele>1087.39</ele>
        <time>2015-09-19T08:29:22Z</time>
      </trkpt>
      <trkpt lat="43.98337" lon="6.93744">
        <ele>1088.35</ele>
        <time>2015-09-19T08:29:31Z</time>
      </trkpt>
      <trkpt lat="43.98338" lon="6.93752">
        <ele>1089.31</ele>
        <time>2015-09-19T08:29:38Z</time>
      </trkpt>
      <trkpt lat="43.98341" lon="6.93763">
        <ele>1089.79</ele>
        <time>2015-09-19T08:29:47Z</time>
      </trkpt>
      <trkpt lat="43.98342" lon="6.93772">
        <ele>1090.75</ele>
        <time>2015-09-19T08:29:55Z</time>
      </trkpt>
      <trkpt lat="43.98345" lon="6.93778">
        <ele>1091.71</ele>
        <time>2015-09-19T08:30:01Z</time>
      </trkpt>
      <trkpt lat="43.98349" lon="6.93787">
        <ele>1092.2</ele>
        <time>2015-09-19T08:30:10Z</time>
      </trkpt>
      <trkpt lat="43.98351" lon="6.93795">
        <ele>1093.16</ele>
        <time>2015-09-19T08:30:17Z</time>
      </trkpt>
      <trkpt lat="43.98354" lon="6.93802">
        <ele>1093.64</ele>
        <time>2015-09-19T08:30:23Z</time>
      </trkpt>
      <trkpt lat="43.98358" lon="6.9381">
        <ele>1094.6</ele>
        <time>2015-09-19T08:30:31Z</time>
      </trkpt>
      <trkpt lat="43.98362" lon="6.93816">
        <ele>1095.08</ele>
        <time>2015-09-19T08:30:39Z</time>
      </trkpt>
      <trkpt lat="43.98366" lon="6.93818">
        <ele>1095.56</ele>
        <time>2015-09-19T08:30:44Z</time>
      </trkpt>
      <trkpt lat="43.98368" lon="6.93814">
        <ele>1097</ele>
        <time>2015-09-19T08:30:52Z</time>
      </trkpt>
      <trkpt lat="43.98368" lon="6.93807">
        <ele>1097.48</ele>
        <time>2015-09-19T08:31:00Z</time>
      </trkpt>
      <trkpt lat="43.98367" lon="6.93801">
        <ele>1097.96</ele>
        <time>2015-09-19T08:31:07Z</time>
      </trkpt>
      <trkpt lat="43.98366" lon="6.93797">
        <ele>1097.96</ele>
        <time>2015-09-19T08:31:11Z</time>
      </trkpt>
      <trkpt lat="43.98365" lon="6.93788">
        <ele>1098.92</ele>
        <time>2015-09-19T08:31:20Z</time>
      </trkpt>
      <trkpt lat="43.98365" lon="6.93781">
        <ele>1099.4</ele>
        <time>2015-09-19T08:31:26Z</time>
      </trkpt>
      <trkpt lat="43.98367" lon="6.93771">
        <ele>1099.89</ele>
        <time>2015-09-19T08:31:34Z</time>
      </trkpt>
      <trkpt lat="43.98368" lon="6.93762">
        <ele>1100.37</ele>
        <time>2015-09-19T08:31:41Z</time>
      </trkpt>
      <trkpt lat="43.98369" lon="6.93761">
        <ele>1100.37</ele>
        <time>2015-09-19T08:31:42Z</time>
      </trkpt>
      <trkpt lat="43.98371" lon="6.93756">
        <ele>1100.85</ele>
        <time>2015-09-19T08:31:47Z</time>
      </trkpt>
      <trkpt lat="43.98373" lon="6.93747">
        <ele>1100.85</ele>
        <time>2015-09-19T08:31:54Z</time>
      </trkpt>
      <trkpt lat="43.98374" lon="6.9374">
        <ele>1101.33</ele>
        <time>2015-09-19T08:32:00Z</time>
      </trkpt>
      <trkpt lat="43.98376" lon="6.93731">
        <ele>1102.29</ele>
        <time>2015-09-19T08:32:07Z</time>
      </trkpt>
      <trkpt lat="43.98376" lon="6.93729">
        <ele>1102.29</ele>
        <time>2015-09-19T08:32:09Z</time>
      </trkpt>
      <trkpt lat="43.98378" lon="6.93716">
        <ele>1102.77</ele>
        <time>2015-09-19T08:32:18Z</time>
      </trkpt>
      <trkpt lat="43.9838" lon="6.93706">
        <ele>1103.25</ele>
        <time>2015-09-19T08:32:25Z</time>
      </trkpt>
      <trkpt lat="43.98382" lon="6.93696">
        <ele>1103.73</ele>
        <time>2015-09-19T08:32:33Z</time>
      </trkpt>
      <trkpt lat="43.98385" lon="6.93686">
        <ele>1104.69</ele>
        <time>2015-09-19T08:32:41Z</time>
      </trkpt>
      <trkpt lat="43.98388" lon="6.93678">
        <ele>1105.17</ele>
        <time>2015-09-19T08:32:48Z</time>
      </trkpt>
      <trkpt lat="43.9839" lon="6.9367">
        <ele>1105.65</ele>
        <time>2015-09-19T08:32:54Z</time>
      </trkpt>
      <trkpt lat="43.98391" lon="6.93668">
        <ele>1106.13</ele>
        <time>2015-09-19T08:32:56Z</time>
      </trkpt>
      <trkpt lat="43.98392" lon="6.93658">
        <ele>1106.61</ele>
        <time>2015-09-19T08:33:04Z</time>
      </trkpt>
      <trkpt lat="43.98392" lon="6.93656">
        <ele>1106.61</ele>
        <time>2015-09-19T08:33:10Z</time>
      </trkpt>
      <trkpt lat="43.98393" lon="6.93656">
        <ele>1106.61</ele>
        <time>2015-09-19T08:33:28Z</time>
      </trkpt>
      <trkpt lat="43.98397" lon="6.93647">
        <ele>1107.58</ele>
        <time>2015-09-19T08:33:37Z</time>
      </trkpt>
      <trkpt lat="43.98399" lon="6.93642">
        <ele>1108.06</ele>
        <time>2015-09-19T08:33:42Z</time>
      </trkpt>
      <trkpt lat="43.984" lon="6.93633">
        <ele>1109.02</ele>
        <time>2015-09-19T08:33:50Z</time>
      </trkpt>
      <trkpt lat="43.98402" lon="6.93625">
        <ele>1109.5</ele>
        <time>2015-09-19T08:33:58Z</time>
      </trkpt>
      <trkpt lat="43.98406" lon="6.93614">
        <ele>1110.94</ele>
        <time>2015-09-19T08:34:07Z</time>
      </trkpt>
      <trkpt lat="43.98407" lon="6.93611">
        <ele>1110.94</ele>
        <time>2015-09-19T08:34:10Z</time>
      </trkpt>
      <trkpt lat="43.98413" lon="6.93603">
        <ele>1112.38</ele>
        <time>2015-09-19T08:34:20Z</time>
      </trkpt>
      <trkpt lat="43.9842" lon="6.93599">
        <ele>1112.86</ele>
        <time>2015-09-19T08:34:28Z</time>
      </trkpt>
      <trkpt lat="43.98428" lon="6.93593">
        <ele>1114.31</ele>
        <time>2015-09-19T08:34:37Z</time>
      </trkpt>
      <trkpt lat="43.98431" lon="6.93586">
        <ele>1114.79</ele>
        <time>2015-09-19T08:34:44Z</time>
      </trkpt>
      <trkpt lat="43.98434" lon="6.93576">
        <ele>1115.27</ele>
        <time>2015-09-19T08:34:52Z</time>
      </trkpt>
      <trkpt lat="43.98434" lon="6.93574">
        <ele>1115.75</ele>
        <time>2015-09-19T08:34:54Z</time>
      </trkpt>
      <trkpt lat="43.98434" lon="6.93566">
        <ele>1116.71</ele>
        <time>2015-09-19T08:35:01Z</time>
      </trkpt>
      <trkpt lat="43.98434" lon="6.93562">
        <ele>1116.71</ele>
        <time>2015-09-19T08:35:05Z</time>
      </trkpt>
      <trkpt lat="43.98433" lon="6.93551">
        <ele>1117.67</ele>
        <time>2015-09-19T08:35:14Z</time>
      </trkpt>
      <trkpt lat="43.98431" lon="6.93541">
        <ele>1118.15</ele>
        <time>2015-09-19T08:35:22Z</time>
      </trkpt>
      <trkpt lat="43.98429" lon="6.93535">
        <ele>1118.63</ele>
        <time>2015-09-19T08:35:28Z</time>
      </trkpt>
      <trkpt lat="43.98428" lon="6.93524">
        <ele>1119.59</ele>
        <time>2015-09-19T08:35:37Z</time>
      </trkpt>
      <trkpt lat="43.98426" lon="6.93513">
        <ele>1120.07</ele>
        <time>2015-09-19T08:35:45Z</time>
      </trkpt>
      <trkpt lat="43.98425" lon="6.93502">
        <ele>1120.55</ele>
        <time>2015-09-19T08:35:53Z</time>
      </trkpt>
      <trkpt lat="43.98425" lon="6.935">
        <ele>1121.03</ele>
        <time>2015-09-19T08:35:55Z</time>
      </trkpt>
      <trkpt lat="43.98425" lon="6.93493">
        <ele>1121.52</ele>
        <time>2015-09-19T08:36:00Z</time>
      </trkpt>
      <trkpt lat="43.98424" lon="6.93482">
        <ele>1122</ele>
        <time>2015-09-19T08:36:09Z</time>
      </trkpt>
      <trkpt lat="43.98424" lon="6.9348">
        <ele>1122</ele>
        <time>2015-09-19T08:36:10Z</time>
      </trkpt>
      <trkpt lat="43.98423" lon="6.93469">
        <ele>1122.96</ele>
        <time>2015-09-19T08:36:19Z</time>
      </trkpt>
      <trkpt lat="43.98423" lon="6.93465">
        <ele>1123.92</ele>
        <time>2015-09-19T08:36:24Z</time>
      </trkpt>
      <trkpt lat="43.98422" lon="6.93458">
        <ele>1124.4</ele>
        <time>2015-09-19T08:36:33Z</time>
      </trkpt>
      <trkpt lat="43.98423" lon="6.93458">
        <ele>1124.4</ele>
        <time>2015-09-19T08:36:34Z</time>
      </trkpt>
      <trkpt lat="43.98426" lon="6.93456">
        <ele>1125.36</ele>
        <time>2015-09-19T08:36:41Z</time>
      </trkpt>
      <trkpt lat="43.98428" lon="6.93452">
        <ele>1126.8</ele>
        <time>2015-09-19T08:36:47Z</time>
      </trkpt>
      <trkpt lat="43.98432" lon="6.93457">
        <ele>1126.8</ele>
        <time>2015-09-19T08:36:53Z</time>
      </trkpt>
      <trkpt lat="43.98433" lon="6.93457">
        <ele>1126.8</ele>
        <time>2015-09-19T08:36:54Z</time>
      </trkpt>
      <trkpt lat="43.98438" lon="6.93457">
        <ele>1127.76</ele>
        <time>2015-09-19T08:37:02Z</time>
      </trkpt>
      <trkpt lat="43.9844" lon="6.93457">
        <ele>1128.24</ele>
        <time>2015-09-19T08:37:09Z</time>
      </trkpt>
      <trkpt lat="43.98443" lon="6.93455">
        <ele>1128.73</ele>
        <time>2015-09-19T08:37:16Z</time>
      </trkpt>
      <trkpt lat="43.98444" lon="6.93455">
        <ele>1129.21</ele>
        <time>2015-09-19T08:37:23Z</time>
      </trkpt>
      <trkpt lat="43.98445" lon="6.93454">
        <ele>1131.13</ele>
        <time>2015-09-19T08:37:30Z</time>
      </trkpt>
      <trkpt lat="43.98447" lon="6.93453">
        <ele>1131.61</ele>
        <time>2015-09-19T08:37:36Z</time>
      </trkpt>
      <trkpt lat="43.98451" lon="6.93455">
        <ele>1132.57</ele>
        <time>2015-09-19T08:37:43Z</time>
      </trkpt>
      <trkpt lat="43.98453" lon="6.93455">
        <ele>1133.05</ele>
        <time>2015-09-19T08:37:48Z</time>
      </trkpt>
      <trkpt lat="43.98454" lon="6.93455">
        <ele>1134.49</ele>
        <time>2015-09-19T08:37:55Z</time>
      </trkpt>
      <trkpt lat="43.98455" lon="6.93454">
        <ele>1135.45</ele>
        <time>2015-09-19T08:38:01Z</time>
      </trkpt>
      <trkpt lat="43.98459" lon="6.93455">
        <ele>1135.94</ele>
        <time>2015-09-19T08:38:08Z</time>
      </trkpt>
      <trkpt lat="43.98461" lon="6.93457">
        <ele>1136.9</ele>
        <time>2015-09-19T08:38:15Z</time>
      </trkpt>
      <trkpt lat="43.98463" lon="6.93453">
        <ele>1137.86</ele>
        <time>2015-09-19T08:38:21Z</time>
      </trkpt>
      <trkpt lat="43.98464" lon="6.93455">
        <ele>1139.3</ele>
        <time>2015-09-19T08:38:26Z</time>
      </trkpt>
      <trkpt lat="43.98468" lon="6.93455">
        <ele>1139.78</ele>
        <time>2015-09-19T08:38:31Z</time>
      </trkpt>
      <trkpt lat="43.9847" lon="6.93455">
        <ele>1140.74</ele>
        <time>2015-09-19T08:38:37Z</time>
      </trkpt>
      <trkpt lat="43.98471" lon="6.93456">
        <ele>1141.7</ele>
        <time>2015-09-19T08:38:45Z</time>
      </trkpt>
      <trkpt lat="43.98474" lon="6.93457">
        <ele>1143.14</ele>
        <time>2015-09-19T08:38:52Z</time>
      </trkpt>
      <trkpt lat="43.98474" lon="6.93453">
        <ele>1143.63</ele>
        <time>2015-09-19T08:39:00Z</time>
      </trkpt>
      <trkpt lat="43.98478" lon="6.93449">
        <ele>1145.07</ele>
        <time>2015-09-19T08:39:07Z</time>
      </trkpt>
      <trkpt lat="43.98479" lon="6.93444">
        <ele>1146.51</ele>
        <time>2015-09-19T08:39:13Z</time>
      </trkpt>
      <trkpt lat="43.9848" lon="6.93445">
        <ele>1146.51</ele>
        <time>2015-09-19T08:39:20Z</time>
      </trkpt>
      <trkpt lat="43.98483" lon="6.93448">
        <ele>1146.99</ele>
        <time>2015-09-19T08:39:27Z</time>
      </trkpt>
      <trkpt lat="43.98484" lon="6.93451">
        <ele>1147.47</ele>
        <time>2015-09-19T08:39:36Z</time>
      </trkpt>
      <trkpt lat="43.98484" lon="6.93451">
        <ele>1146.99</ele>
        <time>2015-09-19T08:39:49Z</time>
      </trkpt>
      <trkpt lat="43.98485" lon="6.93452">
        <ele>1146.99</ele>
        <time>2015-09-19T08:40:02Z</time>
      </trkpt>
      <trkpt lat="43.98485" lon="6.93452">
        <ele>1146.51</ele>
        <time>2015-09-19T08:40:15Z</time>
      </trkpt>
      <trkpt lat="43.98486" lon="6.93452">
        <ele>1146.51</ele>
        <time>2015-09-19T08:40:27Z</time>
      </trkpt>
      <trkpt lat="43.98486" lon="6.93452">
        <ele>1146.99</ele>
        <time>2015-09-19T08:40:34Z</time>
      </trkpt>
      <trkpt lat="43.98486" lon="6.93452">
        <ele>1146.99</ele>
        <time>2015-09-19T08:40:50Z</time>
      </trkpt>
      <trkpt lat="43.98488" lon="6.93456">
        <ele>1146.99</ele>
        <time>2015-09-19T08:40:58Z</time>
      </trkpt>
      <trkpt lat="43.98489" lon="6.93458">
        <ele>1147.47</ele>
        <time>2015-09-19T08:41:00Z</time>
      </trkpt>
      <trkpt lat="43.98491" lon="6.93463">
        <ele>1147.95</ele>
        <time>2015-09-19T08:41:05Z</time>
      </trkpt>
      <trkpt lat="43.98492" lon="6.93466">
        <ele>1147.95</ele>
        <time>2015-09-19T08:41:07Z</time>
      </trkpt>
      <trkpt lat="43.98493" lon="6.93467">
        <ele>1148.43</ele>
        <time>2015-09-19T08:41:09Z</time>
      </trkpt>
      <trkpt lat="43.98493" lon="6.9347">
        <ele>1148.43</ele>
        <time>2015-09-19T08:41:11Z</time>
      </trkpt>
      <trkpt lat="43.98497" lon="6.93478">
        <ele>1148.91</ele>
        <time>2015-09-19T08:41:19Z</time>
      </trkpt>
      <trkpt lat="43.98498" lon="6.93479">
        <ele>1148.91</ele>
        <time>2015-09-19T08:41:20Z</time>
      </trkpt>
      <trkpt lat="43.98501" lon="6.93486">
        <ele>1149.39</ele>
        <time>2015-09-19T08:41:27Z</time>
      </trkpt>
      <trkpt lat="43.98504" lon="6.93491">
        <ele>1150.35</ele>
        <time>2015-09-19T08:41:34Z</time>
      </trkpt>
      <trkpt lat="43.98506" lon="6.93497">
        <ele>1150.35</ele>
        <time>2015-09-19T08:41:39Z</time>
      </trkpt>
      <trkpt lat="43.9851" lon="6.93503">
        <ele>1150.84</ele>
        <time>2015-09-19T08:41:46Z</time>
      </trkpt>
      <trkpt lat="43.98512" lon="6.93511">
        <ele>1151.8</ele>
        <time>2015-09-19T08:41:53Z</time>
      </trkpt>
      <trkpt lat="43.98514" lon="6.93521">
        <ele>1152.28</ele>
        <time>2015-09-19T08:42:02Z</time>
      </trkpt>
      <trkpt lat="43.98515" lon="6.93529">
        <ele>1153.24</ele>
        <time>2015-09-19T08:42:09Z</time>
      </trkpt>
      <trkpt lat="43.98517" lon="6.93533">
        <ele>1153.72</ele>
        <time>2015-09-19T08:42:13Z</time>
      </trkpt>
      <trkpt lat="43.98521" lon="6.93543">
        <ele>1154.68</ele>
        <time>2015-09-19T08:42:21Z</time>
      </trkpt>
      <trkpt lat="43.98521" lon="6.93545">
        <ele>1154.68</ele>
        <time>2015-09-19T08:42:23Z</time>
      </trkpt>
      <trkpt lat="43.98526" lon="6.93544">
        <ele>1155.64</ele>
        <time>2015-09-19T08:42:30Z</time>
      </trkpt>
      <trkpt lat="43.98526" lon="6.93543">
        <ele>1155.64</ele>
        <time>2015-09-19T08:42:31Z</time>
      </trkpt>
      <trkpt lat="43.98526" lon="6.93542">
        <ele>1156.12</ele>
        <time>2015-09-19T08:42:33Z</time>
      </trkpt>
      <trkpt lat="43.98526" lon="6.93535">
        <ele>1157.08</ele>
        <time>2015-09-19T08:42:40Z</time>
      </trkpt>
      <trkpt lat="43.98525" lon="6.93533">
        <ele>1157.08</ele>
        <time>2015-09-19T08:42:42Z</time>
      </trkpt>
      <trkpt lat="43.98526" lon="6.93522">
        <ele>1157.56</ele>
        <time>2015-09-19T08:42:51Z</time>
      </trkpt>
      <trkpt lat="43.98525" lon="6.93514">
        <ele>1158.53</ele>
        <time>2015-09-19T08:42:59Z</time>
      </trkpt>
      <trkpt lat="43.98524" lon="6.93504">
        <ele>1159.01</ele>
        <time>2015-09-19T08:43:07Z</time>
      </trkpt>
      <trkpt lat="43.98523" lon="6.935">
        <ele>1159.49</ele>
        <time>2015-09-19T08:43:12Z</time>
      </trkpt>
      <trkpt lat="43.98523" lon="6.93498">
        <ele>1159.49</ele>
        <time>2015-09-19T08:43:14Z</time>
      </trkpt>
      <trkpt lat="43.98521" lon="6.93489">
        <ele>1159.97</ele>
        <time>2015-09-19T08:43:22Z</time>
      </trkpt>
      <trkpt lat="43.9852" lon="6.93486">
        <ele>1160.45</ele>
        <time>2015-09-19T08:43:29Z</time>
      </trkpt>
      <trkpt lat="43.98519" lon="6.93484">
        <ele>1160.45</ele>
        <time>2015-09-19T08:43:35Z</time>
      </trkpt>
      <trkpt lat="43.98517" lon="6.93478">
        <ele>1160.93</ele>
        <time>2015-09-19T08:43:44Z</time>
      </trkpt>
      <trkpt lat="43.98516" lon="6.93475">
        <ele>1161.41</ele>
        <time>2015-09-19T08:43:56Z</time>
      </trkpt>
      <trkpt lat="43.98516" lon="6.93473">
        <ele>1161.41</ele>
        <time>2015-09-19T08:44:08Z</time>
      </trkpt>
      <trkpt lat="43.98515" lon="6.93472">
        <ele>1161.89</ele>
        <time>2015-09-19T08:44:16Z</time>
      </trkpt>
      <trkpt lat="43.98515" lon="6.93472">
        <ele>1161.41</ele>
        <time>2015-09-19T08:44:35Z</time>
      </trkpt>
      <trkpt lat="43.98514" lon="6.93471">
        <ele>1161.89</ele>
        <time>2015-09-19T08:44:51Z</time>
      </trkpt>
      <trkpt lat="43.98511" lon="6.93463">
        <ele>1162.85</ele>
        <time>2015-09-19T08:44:59Z</time>
      </trkpt>
      <trkpt lat="43.98512" lon="6.93461">
        <ele>1162.85</ele>
        <time>2015-09-19T08:45:08Z</time>
      </trkpt>
      <trkpt lat="43.98511" lon="6.93454">
        <ele>1163.33</ele>
        <time>2015-09-19T08:45:16Z</time>
      </trkpt>
      <trkpt lat="43.98511" lon="6.93445">
        <ele>1163.81</ele>
        <time>2015-09-19T08:45:23Z</time>
      </trkpt>
      <trkpt lat="43.98513" lon="6.93436">
        <ele>1164.77</ele>
        <time>2015-09-19T08:45:31Z</time>
      </trkpt>
      <trkpt lat="43.98513" lon="6.93435">
        <ele>1164.77</ele>
        <time>2015-09-19T08:45:32Z</time>
      </trkpt>
      <trkpt lat="43.98515" lon="6.93426">
        <ele>1165.74</ele>
        <time>2015-09-19T08:45:40Z</time>
      </trkpt>
      <trkpt lat="43.98517" lon="6.93419">
        <ele>1166.7</ele>
        <time>2015-09-19T08:45:47Z</time>
      </trkpt>
      <trkpt lat="43.98517" lon="6.93417">
        <ele>1167.18</ele>
        <time>2015-09-19T08:45:49Z</time>
      </trkpt>
      <trkpt lat="43.9852" lon="6.93407">
        <ele>1168.14</ele>
        <time>2015-09-19T08:45:58Z</time>
      </trkpt>
      <trkpt lat="43.98522" lon="6.934">
        <ele>1169.1</ele>
        <time>2015-09-19T08:46:05Z</time>
      </trkpt>
      <trkpt lat="43.98523" lon="6.93394">
        <ele>1170.06</ele>
        <time>2015-09-19T08:46:12Z</time>
      </trkpt>
      <trkpt lat="43.98525" lon="6.93386">
        <ele>1170.54</ele>
        <time>2015-09-19T08:46:19Z</time>
      </trkpt>
      <trkpt lat="43.98526" lon="6.93379">
        <ele>1171.5</ele>
        <time>2015-09-19T08:46:26Z</time>
      </trkpt>
      <trkpt lat="43.98527" lon="6.93369">
        <ele>1172.47</ele>
        <time>2015-09-19T08:46:34Z</time>
      </trkpt>
      <trkpt lat="43.98528" lon="6.9336">
        <ele>1172.95</ele>
        <time>2015-09-19T08:46:42Z</time>
      </trkpt>
      <trkpt lat="43.98529" lon="6.93353">
        <ele>1173.91</ele>
        <time>2015-09-19T08:46:48Z</time>
      </trkpt>
      <trkpt lat="43.98529" lon="6.93345">
        <ele>1174.87</ele>
        <time>2015-09-19T08:46:55Z</time>
      </trkpt>
      <trkpt lat="43.9853" lon="6.93338">
        <ele>1175.35</ele>
        <time>2015-09-19T08:47:02Z</time>
      </trkpt>
      <trkpt lat="43.98531" lon="6.93328">
        <ele>1175.83</ele>
        <time>2015-09-19T08:47:09Z</time>
      </trkpt>
      <trkpt lat="43.98532" lon="6.93319">
        <ele>1176.79</ele>
        <time>2015-09-19T08:47:17Z</time>
      </trkpt>
      <trkpt lat="43.98532" lon="6.93316">
        <ele>1176.79</ele>
        <time>2015-09-19T08:47:19Z</time>
      </trkpt>
      <trkpt lat="43.98533" lon="6.93313">
        <ele>1176.79</ele>
        <time>2015-09-19T08:47:21Z</time>
      </trkpt>
      <trkpt lat="43.98533" lon="6.93311">
        <ele>1177.27</ele>
        <time>2015-09-19T08:47:23Z</time>
      </trkpt>
      <trkpt lat="43.98534" lon="6.93308">
        <ele>1177.27</ele>
        <time>2015-09-19T08:47:25Z</time>
      </trkpt>
      <trkpt lat="43.98537" lon="6.93299">
        <ele>1177.75</ele>
        <time>2015-09-19T08:47:33Z</time>
      </trkpt>
      <trkpt lat="43.98541" lon="6.9329">
        <ele>1178.71</ele>
        <time>2015-09-19T08:47:41Z</time>
      </trkpt>
      <trkpt lat="43.98543" lon="6.9328">
        <ele>1179.19</ele>
        <time>2015-09-19T08:47:49Z</time>
      </trkpt>
      <trkpt lat="43.98545" lon="6.93271">
        <ele>1179.67</ele>
        <time>2015-09-19T08:47:56Z</time>
      </trkpt>
      <trkpt lat="43.98546" lon="6.93269">
        <ele>1180.16</ele>
        <time>2015-09-19T08:47:58Z</time>
      </trkpt>
      <trkpt lat="43.98546" lon="6.93267">
        <ele>1180.16</ele>
        <time>2015-09-19T08:48:00Z</time>
      </trkpt>
      <trkpt lat="43.98548" lon="6.93256">
        <ele>1181.12</ele>
        <time>2015-09-19T08:48:09Z</time>
      </trkpt>
      <trkpt lat="43.98549" lon="6.93243">
        <ele>1182.08</ele>
        <time>2015-09-19T08:48:19Z</time>
      </trkpt>
      <trkpt lat="43.9855" lon="6.93234">
        <ele>1182.56</ele>
        <time>2015-09-19T08:48:27Z</time>
      </trkpt>
      <trkpt lat="43.98551" lon="6.9323">
        <ele>1183.04</ele>
        <time>2015-09-19T08:48:30Z</time>
      </trkpt>
      <trkpt lat="43.98552" lon="6.93223">
        <ele>1184</ele>
        <time>2015-09-19T08:48:36Z</time>
      </trkpt>
      <trkpt lat="43.98555" lon="6.93212">
        <ele>1184.48</ele>
        <time>2015-09-19T08:48:45Z</time>
      </trkpt>
      <trkpt lat="43.98556" lon="6.93202">
        <ele>1185.44</ele>
        <time>2015-09-19T08:48:53Z</time>
      </trkpt>
      <trkpt lat="43.98557" lon="6.93201">
        <ele>1185.44</ele>
        <time>2015-09-19T08:48:54Z</time>
      </trkpt>
      <trkpt lat="43.98557" lon="6.93198">
        <ele>1185.44</ele>
        <time>2015-09-19T08:48:56Z</time>
      </trkpt>
      <trkpt lat="43.98557" lon="6.93196">
        <ele>1185.92</ele>
        <time>2015-09-19T08:48:58Z</time>
      </trkpt>
      <trkpt lat="43.98557" lon="6.93191">
        <ele>1186.4</ele>
        <time>2015-09-19T08:49:02Z</time>
      </trkpt>
      <trkpt lat="43.98559" lon="6.93182">
        <ele>1186.88</ele>
        <time>2015-09-19T08:49:10Z</time>
      </trkpt>
      <trkpt lat="43.9856" lon="6.93173">
        <ele>1187.37</ele>
        <time>2015-09-19T08:49:16Z</time>
      </trkpt>
      <trkpt lat="43.98563" lon="6.93165">
        <ele>1187.37</ele>
        <time>2015-09-19T08:49:24Z</time>
      </trkpt>
      <trkpt lat="43.98563" lon="6.93164">
        <ele>1188.33</ele>
        <time>2015-09-19T08:49:25Z</time>
      </trkpt>
      <trkpt lat="43.98565" lon="6.93155">
        <ele>1188.81</ele>
        <time>2015-09-19T08:49:32Z</time>
      </trkpt>
      <trkpt lat="43.98569" lon="6.93146">
        <ele>1189.29</ele>
        <time>2015-09-19T08:49:40Z</time>
      </trkpt>
      <trkpt lat="43.9857" lon="6.93145">
        <ele>1189.29</ele>
        <time>2015-09-19T08:49:41Z</time>
      </trkpt>
      <trkpt lat="43.9857" lon="6.93143">
        <ele>1189.29</ele>
        <time>2015-09-19T08:49:43Z</time>
      </trkpt>
      <trkpt lat="43.98573" lon="6.93136">
        <ele>1189.77</ele>
        <time>2015-09-19T08:49:49Z</time>
      </trkpt>
      <trkpt lat="43.98576" lon="6.93127">
        <ele>1190.25</ele>
        <time>2015-09-19T08:49:58Z</time>
      </trkpt>
      <trkpt lat="43.98578" lon="6.93122">
        <ele>1190.73</ele>
        <time>2015-09-19T08:50:05Z</time>
      </trkpt>
      <trkpt lat="43.98582" lon="6.93119">
        <ele>1190.73</ele>
        <time>2015-09-19T08:50:12Z</time>
      </trkpt>
      <trkpt lat="43.98584" lon="6.93119">
        <ele>1191.21</ele>
        <time>2015-09-19T08:50:18Z</time>
      </trkpt>
      <trkpt lat="43.98584" lon="6.93118">
        <ele>1191.21</ele>
        <time>2015-09-19T08:50:28Z</time>
      </trkpt>
      <trkpt lat="43.98584" lon="6.93118">
        <ele>1191.21</ele>
        <time>2015-09-19T08:50:40Z</time>
      </trkpt>
      <trkpt lat="43.98585" lon="6.93118">
        <ele>1191.21</ele>
        <time>2015-09-19T08:50:48Z</time>
      </trkpt>
      <trkpt lat="43.98586" lon="6.93122">
        <ele>1191.69</ele>
        <time>2015-09-19T08:50:54Z</time>
      </trkpt>
      <trkpt lat="43.98587" lon="6.9312">
        <ele>1191.69</ele>
        <time>2015-09-19T08:50:57Z</time>
      </trkpt>
      <trkpt lat="43.9859" lon="6.93114">
        <ele>1192.17</ele>
        <time>2015-09-19T08:51:06Z</time>
      </trkpt>
      <trkpt lat="43.98593" lon="6.93111">
        <ele>1193.13</ele>
        <time>2015-09-19T08:51:14Z</time>
      </trkpt>
      <trkpt lat="43.98594" lon="6.93111">
        <ele>1192.65</ele>
        <time>2015-09-19T08:51:22Z</time>
      </trkpt>
      <trkpt lat="43.98595" lon="6.93111">
        <ele>1192.17</ele>
        <time>2015-09-19T08:51:27Z</time>
      </trkpt>
      <trkpt lat="43.98595" lon="6.93112">
        <ele>1192.65</ele>
        <time>2015-09-19T08:51:38Z</time>
      </trkpt>
      <trkpt lat="43.98594" lon="6.93112">
        <ele>1192.65</ele>
        <time>2015-09-19T08:51:54Z</time>
      </trkpt>
      <trkpt lat="43.98594" lon="6.93112">
        <ele>1192.65</ele>
        <time>2015-09-19T08:52:11Z</time>
      </trkpt>
      <trkpt lat="43.98594" lon="6.93112">
        <ele>1192.65</ele>
        <time>2015-09-19T08:52:26Z</time>
      </trkpt>
      <trkpt lat="43.98594" lon="6.93112">
        <ele>1192.65</ele>
        <time>2015-09-19T08:52:40Z</time>
      </trkpt>
      <trkpt lat="43.98594" lon="6.93112">
        <ele>1192.65</ele>
        <time>2015-09-19T08:52:56Z</time>
      </trkpt>
      <trkpt lat="43.98594" lon="6.93111">
        <ele>1192.65</ele>
        <time>2015-09-19T08:53:19Z</time>
      </trkpt>
      <trkpt lat="43.98594" lon="6.93111">
        <ele>1192.65</ele>
        <time>2015-09-19T08:53:40Z</time>
      </trkpt>
      <trkpt lat="43.98595" lon="6.93111">
        <ele>1192.65</ele>
        <time>2015-09-19T08:54:02Z</time>
      </trkpt>
      <trkpt lat="43.98594" lon="6.93112">
        <ele>1192.65</ele>
        <time>2015-09-19T08:54:22Z</time>
      </trkpt>
      <trkpt lat="43.98594" lon="6.93112">
        <ele>1192.65</ele>
        <time>2015-09-19T08:54:42Z</time>
      </trkpt>
      <trkpt lat="43.98594" lon="6.93112">
        <ele>1192.65</ele>
        <time>2015-09-19T08:55:01Z</time>
      </trkpt>
      <trkpt lat="43.98594" lon="6.93112">
        <ele>1192.65</ele>
        <time>2015-09-19T08:55:20Z</time>
      </trkpt>
      <trkpt lat="43.98594" lon="6.93112">
        <ele>1193.13</ele>
        <time>2015-09-19T08:55:38Z</time>
      </trkpt>
      <trkpt lat="43.98594" lon="6.93112">
        <ele>1193.13</ele>
        <time>2015-09-19T08:55:56Z</time>
      </trkpt>
      <trkpt lat="43.98594" lon="6.93112">
        <ele>1193.13</ele>
        <time>2015-09-19T08:56:15Z</time>
      </trkpt>
      <trkpt lat="43.98594" lon="6.93112">
        <ele>1193.13</ele>
        <time>2015-09-19T08:56:35Z</time>
      </trkpt>
      <trkpt lat="43.98595" lon="6.93111">
        <ele>1193.13</ele>
        <time>2015-09-19T08:56:53Z</time>
      </trkpt>
      <trkpt lat="43.98595" lon="6.93112">
        <ele>1193.13</ele>
        <time>2015-09-19T08:57:11Z</time>
      </trkpt>
      <trkpt lat="43.98595" lon="6.93112">
        <ele>1193.13</ele>
        <time>2015-09-19T08:57:27Z</time>
      </trkpt>
      <trkpt lat="43.98595" lon="6.93112">
        <ele>1193.13</ele>
        <time>2015-09-19T08:57:44Z</time>
      </trkpt>
      <trkpt lat="43.98595" lon="6.93112">
        <ele>1193.13</ele>
        <time>2015-09-19T08:58:03Z</time>
      </trkpt>
      <trkpt lat="43.98595" lon="6.93113">
        <ele>1193.61</ele>
        <time>2015-09-19T08:58:22Z</time>
      </trkpt>
      <trkpt lat="43.98595" lon="6.93113">
        <ele>1193.61</ele>
        <time>2015-09-19T08:58:34Z</time>
      </trkpt>
      <trkpt lat="43.98595" lon="6.93113">
        <ele>1193.13</ele>
        <time>2015-09-19T08:58:50Z</time>
      </trkpt>
      <trkpt lat="43.98595" lon="6.93113">
        <ele>1193.61</ele>
        <time>2015-09-19T08:59:07Z</time>
      </trkpt>
      <trkpt lat="43.98595" lon="6.93112">
        <ele>1193.13</ele>
        <time>2015-09-19T08:59:21Z</time>
      </trkpt>
      <trkpt lat="43.98595" lon="6.93112">
        <ele>1194.09</ele>
        <time>2015-09-19T08:59:32Z</time>
      </trkpt>
      <trkpt lat="43.98595" lon="6.93111">
        <ele>1194.09</ele>
        <time>2015-09-19T08:59:37Z</time>
      </trkpt>
      <trkpt lat="43.98595" lon="6.93111">
        <ele>1193.61</ele>
        <time>2015-09-19T08:59:44Z</time>
      </trkpt>
      <trkpt lat="43.98595" lon="6.93111">
        <ele>1194.09</ele>
        <time>2015-09-19T08:59:49Z</time>
      </trkpt>
      <trkpt lat="43.98595" lon="6.93111">
        <ele>1194.09</ele>
        <time>2015-09-19T08:59:53Z</time>
      </trkpt>
      <trkpt lat="43.98595" lon="6.9311">
        <ele>1194.58</ele>
        <time>2015-09-19T08:59:58Z</time>
      </trkpt>
      <trkpt lat="43.98593" lon="6.93114">
        <ele>1193.61</ele>
        <time>2015-09-19T09:00:05Z</time>
      </trkpt>
      <trkpt lat="43.98592" lon="6.93117">
        <ele>1193.13</ele>
        <time>2015-09-19T09:00:08Z</time>
      </trkpt>
      <trkpt lat="43.98588" lon="6.93129">
        <ele>1193.13</ele>
        <time>2015-09-19T09:00:17Z</time>
      </trkpt>
      <trkpt lat="43.98587" lon="6.93136">
        <ele>1193.61</ele>
        <time>2015-09-19T09:00:24Z</time>
      </trkpt>
      <trkpt lat="43.98583" lon="6.93147">
        <ele>1194.09</ele>
        <time>2015-09-19T09:00:33Z</time>
      </trkpt>
      <trkpt lat="43.98582" lon="6.93158">
        <ele>1194.58</ele>
        <time>2015-09-19T09:00:40Z</time>
      </trkpt>
      <trkpt lat="43.98581" lon="6.93165">
        <ele>1195.54</ele>
        <time>2015-09-19T09:00:47Z</time>
      </trkpt>
      <trkpt lat="43.98581" lon="6.93176">
        <ele>1196.02</ele>
        <time>2015-09-19T09:00:55Z</time>
      </trkpt>
      <trkpt lat="43.98582" lon="6.93186">
        <ele>1196.5</ele>
        <time>2015-09-19T09:01:03Z</time>
      </trkpt>
      <trkpt lat="43.98584" lon="6.93196">
        <ele>1196.98</ele>
        <time>2015-09-19T09:01:11Z</time>
      </trkpt>
      <trkpt lat="43.98585" lon="6.93203">
        <ele>1197.46</ele>
        <time>2015-09-19T09:01:17Z</time>
      </trkpt>
      <trkpt lat="43.98586" lon="6.93214">
        <ele>1197.94</ele>
        <time>2015-09-19T09:01:25Z</time>
      </trkpt>
      <trkpt lat="43.98587" lon="6.93223">
        <ele>1198.9</ele>
        <time>2015-09-19T09:01:32Z</time>
      </trkpt>
      <trkpt lat="43.98588" lon="6.93227">
        <ele>1199.38</ele>
        <time>2015-09-19T09:01:36Z</time>
      </trkpt>
      <trkpt lat="43.9859" lon="6.93235">
        <ele>1199.86</ele>
        <time>2015-09-19T09:01:42Z</time>
      </trkpt>
      <trkpt lat="43.98593" lon="6.93247">
        <ele>1200.82</ele>
        <time>2015-09-19T09:01:52Z</time>
      </trkpt>
      <trkpt lat="43.98593" lon="6.93255">
        <ele>1201.3</ele>
        <time>2015-09-19T09:01:59Z</time>
      </trkpt>
      <trkpt lat="43.98594" lon="6.93267">
        <ele>1201.79</ele>
        <time>2015-09-19T09:02:08Z</time>
      </trkpt>
      <trkpt lat="43.98594" lon="6.93282">
        <ele>1202.75</ele>
        <time>2015-09-19T09:02:18Z</time>
      </trkpt>
      <trkpt lat="43.98594" lon="6.93292">
        <ele>1203.23</ele>
        <time>2015-09-19T09:02:25Z</time>
      </trkpt>
      <trkpt lat="43.98594" lon="6.93302">
        <ele>1203.71</ele>
        <time>2015-09-19T09:02:33Z</time>
      </trkpt>
      <trkpt lat="43.98593" lon="6.93312">
        <ele>1204.67</ele>
        <time>2015-09-19T09:02:41Z</time>
      </trkpt>
      <trkpt lat="43.98594" lon="6.93324">
        <ele>1205.63</ele>
        <time>2015-09-19T09:02:49Z</time>
      </trkpt>
      <trkpt lat="43.98594" lon="6.9333">
        <ele>1205.15</ele>
        <time>2015-09-19T09:02:54Z</time>
      </trkpt>
      <trkpt lat="43.98594" lon="6.93344">
        <ele>1206.11</ele>
        <time>2015-09-19T09:03:04Z</time>
      </trkpt>
      <trkpt lat="43.98593" lon="6.93356">
        <ele>1206.59</ele>
        <time>2015-09-19T09:03:13Z</time>
      </trkpt>
      <trkpt lat="43.98593" lon="6.93361">
        <ele>1207.07</ele>
        <time>2015-09-19T09:03:17Z</time>
      </trkpt>
      <trkpt lat="43.98593" lon="6.93364">
        <ele>1207.07</ele>
        <time>2015-09-19T09:03:19Z</time>
      </trkpt>
      <trkpt lat="43.98594" lon="6.93376">
        <ele>1208.03</ele>
        <time>2015-09-19T09:03:29Z</time>
      </trkpt>
      <trkpt lat="43.98595" lon="6.93383">
        <ele>1208.03</ele>
        <time>2015-09-19T09:03:34Z</time>
      </trkpt>
      <trkpt lat="43.98595" lon="6.93396">
        <ele>1209</ele>
        <time>2015-09-19T09:03:42Z</time>
      </trkpt>
      <trkpt lat="43.98595" lon="6.93402">
        <ele>1209.48</ele>
        <time>2015-09-19T09:03:47Z</time>
      </trkpt>
      <trkpt lat="43.98596" lon="6.93405">
        <ele>1209.48</ele>
        <time>2015-09-19T09:03:49Z</time>
      </trkpt>
      <trkpt lat="43.98596" lon="6.93411">
        <ele>1209.48</ele>
        <time>2015-09-19T09:03:54Z</time>
      </trkpt>
      <trkpt lat="43.98596" lon="6.93424">
        <ele>1210.44</ele>
        <time>2015-09-19T09:04:03Z</time>
      </trkpt>
      <trkpt lat="43.98596" lon="6.93434">
        <ele>1210.44</ele>
        <time>2015-09-19T09:04:10Z</time>
      </trkpt>
      <trkpt lat="43.98597" lon="6.93445">
        <ele>1211.4</ele>
        <time>2015-09-19T09:04:18Z</time>
      </trkpt>
      <trkpt lat="43.98597" lon="6.93448">
        <ele>1211.4</ele>
        <time>2015-09-19T09:04:24Z</time>
      </trkpt>
      <trkpt lat="43.98597" lon="6.93449">
        <ele>1210.92</ele>
        <time>2015-09-19T09:04:31Z</time>
      </trkpt>
      <trkpt lat="43.98597" lon="6.93452">
        <ele>1211.4</ele>
        <time>2015-09-19T09:04:33Z</time>
      </trkpt>
      <trkpt lat="43.98597" lon="6.93464">
        <ele>1211.88</ele>
        <time>2015-09-19T09:04:41Z</time>
      </trkpt>
      <trkpt lat="43.98599" lon="6.93476">
        <ele>1212.36</ele>
        <time>2015-09-19T09:04:50Z</time>
      </trkpt>
      <trkpt lat="43.986" lon="6.93483">
        <ele>1212.36</ele>
        <time>2015-09-19T09:04:56Z</time>
      </trkpt>
      <trkpt lat="43.98601" lon="6.93486">
        <ele>1212.36</ele>
        <time>2015-09-19T09:04:58Z</time>
      </trkpt>
      <trkpt lat="43.98605" lon="6.93499">
        <ele>1212.84</ele>
        <time>2015-09-19T09:05:08Z</time>
      </trkpt>
      <trkpt lat="43.98608" lon="6.9351">
        <ele>1213.32</ele>
        <time>2015-09-19T09:05:16Z</time>
      </trkpt>
      <trkpt lat="43.98609" lon="6.93516">
        <ele>1213.32</ele>
        <time>2015-09-19T09:05:20Z</time>
      </trkpt>
      <trkpt lat="43.98612" lon="6.93527">
        <ele>1213.8</ele>
        <time>2015-09-19T09:05:28Z</time>
      </trkpt>
      <trkpt lat="43.98614" lon="6.93534">
        <ele>1214.28</ele>
        <time>2015-09-19T09:05:33Z</time>
      </trkpt>
      <trkpt lat="43.98614" lon="6.93538">
        <ele>1214.76</ele>
        <time>2015-09-19T09:05:36Z</time>
      </trkpt>
      <trkpt lat="43.98617" lon="6.93554">
        <ele>1215.72</ele>
        <time>2015-09-19T09:05:47Z</time>
      </trkpt>
      <trkpt lat="43.98618" lon="6.93564">
        <ele>1215.72</ele>
        <time>2015-09-19T09:05:54Z</time>
      </trkpt>
      <trkpt lat="43.98618" lon="6.93568">
        <ele>1216.21</ele>
        <time>2015-09-19T09:05:57Z</time>
      </trkpt>
      <trkpt lat="43.98618" lon="6.93572">
        <ele>1216.21</ele>
        <time>2015-09-19T09:06:00Z</time>
      </trkpt>
      <trkpt lat="43.9862" lon="6.93579">
        <ele>1216.69</ele>
        <time>2015-09-19T09:06:05Z</time>
      </trkpt>
      <trkpt lat="43.98621" lon="6.93589">
        <ele>1217.17</ele>
        <time>2015-09-19T09:06:12Z</time>
      </trkpt>
      <trkpt lat="43.98622" lon="6.93602">
        <ele>1217.65</ele>
        <time>2015-09-19T09:06:21Z</time>
      </trkpt>
      <trkpt lat="43.9862" lon="6.93618">
        <ele>1218.13</ele>
        <time>2015-09-19T09:06:32Z</time>
      </trkpt>
      <trkpt lat="43.98618" lon="6.9362">
        <ele>1218.61</ele>
        <time>2015-09-19T09:06:34Z</time>
      </trkpt>
      <trkpt lat="43.98614" lon="6.93628">
        <ele>1219.09</ele>
        <time>2015-09-19T09:06:42Z</time>
      </trkpt>
      <trkpt lat="43.98609" lon="6.9364">
        <ele>1219.57</ele>
        <time>2015-09-19T09:06:52Z</time>
      </trkpt>
      <trkpt lat="43.98607" lon="6.93647">
        <ele>1220.05</ele>
        <time>2015-09-19T09:06:58Z</time>
      </trkpt>
      <trkpt lat="43.98603" lon="6.93659">
        <ele>1221.01</ele>
        <time>2015-09-19T09:07:07Z</time>
      </trkpt>
      <trkpt lat="43.98602" lon="6.93661">
        <ele>1221.49</ele>
        <time>2015-09-19T09:07:09Z</time>
      </trkpt>
      <trkpt lat="43.98602" lon="6.93664">
        <ele>1221.49</ele>
        <time>2015-09-19T09:07:11Z</time>
      </trkpt>
      <trkpt lat="43.98601" lon="6.93666">
        <ele>1221.49</ele>
        <time>2015-09-19T09:07:13Z</time>
      </trkpt>
      <trkpt lat="43.98601" lon="6.93672">
        <ele>1221.97</ele>
        <time>2015-09-19T09:07:17Z</time>
      </trkpt>
      <trkpt lat="43.98601" lon="6.93675">
        <ele>1222.45</ele>
        <time>2015-09-19T09:07:19Z</time>
      </trkpt>
      <trkpt lat="43.986" lon="6.93685">
        <ele>1222.93</ele>
        <time>2015-09-19T09:07:27Z</time>
      </trkpt>
      <trkpt lat="43.986" lon="6.93694">
        <ele>1223.42</ele>
        <time>2015-09-19T09:07:34Z</time>
      </trkpt>
      <trkpt lat="43.98598" lon="6.93703">
        <ele>1224.38</ele>
        <time>2015-09-19T09:07:41Z</time>
      </trkpt>
      <trkpt lat="43.98599" lon="6.93713">
        <ele>1225.34</ele>
        <time>2015-09-19T09:07:50Z</time>
      </trkpt>
      <trkpt lat="43.98598" lon="6.93723">
        <ele>1225.82</ele>
        <time>2015-09-19T09:07:57Z</time>
      </trkpt>
      <trkpt lat="43.98597" lon="6.93731">
        <ele>1226.3</ele>
        <time>2015-09-19T09:08:03Z</time>
      </trkpt>
      <trkpt lat="43.98597" lon="6.9374">
        <ele>1227.26</ele>
        <time>2015-09-19T09:08:10Z</time>
      </trkpt>
      <trkpt lat="43.98597" lon="6.93743">
        <ele>1227.26</ele>
        <time>2015-09-19T09:08:12Z</time>
      </trkpt>
      <trkpt lat="43.98596" lon="6.9375">
        <ele>1227.74</ele>
        <time>2015-09-19T09:08:17Z</time>
      </trkpt>
      <trkpt lat="43.98597" lon="6.93754">
        <ele>1227.74</ele>
        <time>2015-09-19T09:08:20Z</time>
      </trkpt>
      <trkpt lat="43.98597" lon="6.93769">
        <ele>1228.22</ele>
        <time>2015-09-19T09:08:30Z</time>
      </trkpt>
      <trkpt lat="43.98599" lon="6.93779">
        <ele>1228.7</ele>
        <time>2015-09-19T09:08:38Z</time>
      </trkpt>
      <trkpt lat="43.98601" lon="6.93789">
        <ele>1229.66</ele>
        <time>2015-09-19T09:08:46Z</time>
      </trkpt>
      <trkpt lat="43.98602" lon="6.93795">
        <ele>1230.14</ele>
        <time>2015-09-19T09:08:51Z</time>
      </trkpt>
      <trkpt lat="43.98605" lon="6.93803">
        <ele>1230.62</ele>
        <time>2015-09-19T09:08:58Z</time>
      </trkpt>
      <trkpt lat="43.98608" lon="6.93813">
        <ele>1231.11</ele>
        <time>2015-09-19T09:09:07Z</time>
      </trkpt>
      <trkpt lat="43.98612" lon="6.93821">
        <ele>1231.11</ele>
        <time>2015-09-19T09:09:14Z</time>
      </trkpt>
      <trkpt lat="43.98617" lon="6.9383">
        <ele>1232.07</ele>
        <time>2015-09-19T09:09:23Z</time>
      </trkpt>
      <trkpt lat="43.9862" lon="6.93833">
        <ele>1232.07</ele>
        <time>2015-09-19T09:09:30Z</time>
      </trkpt>
      <trkpt lat="43.98621" lon="6.93834">
        <ele>1232.07</ele>
        <time>2015-09-19T09:09:47Z</time>
      </trkpt>
      <trkpt lat="43.98625" lon="6.9384">
        <ele>1232.55</ele>
        <time>2015-09-19T09:09:54Z</time>
      </trkpt>
      <trkpt lat="43.98631" lon="6.93851">
        <ele>1232.55</ele>
        <time>2015-09-19T09:10:02Z</time>
      </trkpt>
      <trkpt lat="43.98635" lon="6.9386">
        <ele>1233.03</ele>
        <time>2015-09-19T09:10:09Z</time>
      </trkpt>
      <trkpt lat="43.98636" lon="6.93864">
        <ele>1233.03</ele>
        <time>2015-09-19T09:10:12Z</time>
      </trkpt>
      <trkpt lat="43.98637" lon="6.93867">
        <ele>1233.51</ele>
        <time>2015-09-19T09:10:14Z</time>
      </trkpt>
      <trkpt lat="43.98639" lon="6.93872">
        <ele>1233.51</ele>
        <time>2015-09-19T09:10:18Z</time>
      </trkpt>
      <trkpt lat="43.98642" lon="6.93885">
        <ele>1234.47</ele>
        <time>2015-09-19T09:10:27Z</time>
      </trkpt>
      <trkpt lat="43.98643" lon="6.93896">
        <ele>1234.95</ele>
        <time>2015-09-19T09:10:35Z</time>
      </trkpt>
      <trkpt lat="43.98643" lon="6.93904">
        <ele>1234.95</ele>
        <time>2015-09-19T09:10:40Z</time>
      </trkpt>
      <trkpt lat="43.98644" lon="6.93909">
        <ele>1235.43</ele>
        <time>2015-09-19T09:10:48Z</time>
      </trkpt>
      <trkpt lat="43.98644" lon="6.93909">
        <ele>1235.43</ele>
        <time>2015-09-19T09:10:59Z</time>
      </trkpt>
      <trkpt lat="43.98645" lon="6.93914">
        <ele>1235.43</ele>
        <time>2015-09-19T09:11:03Z</time>
      </trkpt>
      <trkpt lat="43.98647" lon="6.93929">
        <ele>1235.91</ele>
        <time>2015-09-19T09:11:14Z</time>
      </trkpt>
      <trkpt lat="43.98648" lon="6.93943">
        <ele>1236.87</ele>
        <time>2015-09-19T09:11:24Z</time>
      </trkpt>
      <trkpt lat="43.98649" lon="6.93947">
        <ele>1237.35</ele>
        <time>2015-09-19T09:11:31Z</time>
      </trkpt>
      <trkpt lat="43.9865" lon="6.93949">
        <ele>1237.35</ele>
        <time>2015-09-19T09:11:42Z</time>
      </trkpt>
      <trkpt lat="43.9865" lon="6.93952">
        <ele>1237.35</ele>
        <time>2015-09-19T09:11:44Z</time>
      </trkpt>
      <trkpt lat="43.98652" lon="6.93959">
        <ele>1238.32</ele>
        <time>2015-09-19T09:11:50Z</time>
      </trkpt>
      <trkpt lat="43.98654" lon="6.93963">
        <ele>1238.32</ele>
        <time>2015-09-19T09:11:53Z</time>
      </trkpt>
      <trkpt lat="43.98657" lon="6.93973">
        <ele>1238.8</ele>
        <time>2015-09-19T09:12:01Z</time>
      </trkpt>
      <trkpt lat="43.98658" lon="6.93977">
        <ele>1239.28</ele>
        <time>2015-09-19T09:12:04Z</time>
      </trkpt>
      <trkpt lat="43.98658" lon="6.93986">
        <ele>1239.76</ele>
        <time>2015-09-19T09:12:10Z</time>
      </trkpt>
      <trkpt lat="43.98656" lon="6.93998">
        <ele>1240.72</ele>
        <time>2015-09-19T09:12:19Z</time>
      </trkpt>
      <trkpt lat="43.98651" lon="6.94007">
        <ele>1242.16</ele>
        <time>2015-09-19T09:12:28Z</time>
      </trkpt>
      <trkpt lat="43.9865" lon="6.9401">
        <ele>1242.64</ele>
        <time>2015-09-19T09:12:31Z</time>
      </trkpt>
      <trkpt lat="43.98647" lon="6.9402">
        <ele>1243.12</ele>
        <time>2015-09-19T09:12:39Z</time>
      </trkpt>
      <trkpt lat="43.98647" lon="6.94029">
        <ele>1244.08</ele>
        <time>2015-09-19T09:12:46Z</time>
      </trkpt>
      <trkpt lat="43.98649" lon="6.94033">
        <ele>1244.56</ele>
        <time>2015-09-19T09:12:51Z</time>
      </trkpt>
      <trkpt lat="43.98652" lon="6.94043">
        <ele>1245.53</ele>
        <time>2015-09-19T09:12:59Z</time>
      </trkpt>
      <trkpt lat="43.98655" lon="6.9405">
        <ele>1246.01</ele>
        <time>2015-09-19T09:13:06Z</time>
      </trkpt>
      <trkpt lat="43.98657" lon="6.94057">
        <ele>1246.97</ele>
        <time>2015-09-19T09:13:13Z</time>
      </trkpt>
      <trkpt lat="43.98658" lon="6.94065">
        <ele>1247.93</ele>
        <time>2015-09-19T09:13:20Z</time>
      </trkpt>
      <trkpt lat="43.98659" lon="6.94072">
        <ele>1248.89</ele>
        <time>2015-09-19T09:13:27Z</time>
      </trkpt>
      <trkpt lat="43.9866" lon="6.9408">
        <ele>1249.37</ele>
        <time>2015-09-19T09:13:34Z</time>
      </trkpt>
      <trkpt lat="43.98662" lon="6.94087">
        <ele>1250.33</ele>
        <time>2015-09-19T09:13:42Z</time>
      </trkpt>
      <trkpt lat="43.98662" lon="6.94087">
        <ele>1250.33</ele>
        <time>2015-09-19T09:13:50Z</time>
      </trkpt>
      <trkpt lat="43.98662" lon="6.9409">
        <ele>1250.33</ele>
        <time>2015-09-19T09:13:58Z</time>
      </trkpt>
      <trkpt lat="43.98661" lon="6.9409">
        <ele>1249.85</ele>
        <time>2015-09-19T09:14:14Z</time>
      </trkpt>
      <trkpt lat="43.98658" lon="6.9409">
        <ele>1249.37</ele>
        <time>2015-09-19T09:14:21Z</time>
      </trkpt>
      <trkpt lat="43.98653" lon="6.94098">
        <ele>1248.41</ele>
        <time>2015-09-19T09:14:29Z</time>
      </trkpt>
      <trkpt lat="43.9865" lon="6.94103">
        <ele>1248.41</ele>
        <time>2015-09-19T09:14:37Z</time>
      </trkpt>
      <trkpt lat="43.98648" lon="6.94104">
        <ele>1248.41</ele>
        <time>2015-09-19T09:14:48Z</time>
      </trkpt>
      <trkpt lat="43.98647" lon="6.94106">
        <ele>1248.41</ele>
        <time>2015-09-19T09:14:50Z</time>
      </trkpt>
      <trkpt lat="43.98643" lon="6.94112">
        <ele>1246.97</ele>
        <time>2015-09-19T09:14:55Z</time>
      </trkpt>
      <trkpt lat="43.98641" lon="6.94116">
        <ele>1246.49</ele>
        <time>2015-09-19T09:14:58Z</time>
      </trkpt>
      <trkpt lat="43.98639" lon="6.94122">
        <ele>1246.01</ele>
        <time>2015-09-19T09:15:03Z</time>
      </trkpt>
      <trkpt lat="43.98638" lon="6.94129">
        <ele>1245.53</ele>
        <time>2015-09-19T09:15:07Z</time>
      </trkpt>
      <trkpt lat="43.98635" lon="6.94144">
        <ele>1245.04</ele>
        <time>2015-09-19T09:15:17Z</time>
      </trkpt>
      <trkpt lat="43.98634" lon="6.94149">
        <ele>1245.04</ele>
        <time>2015-09-19T09:15:20Z</time>
      </trkpt>
      <trkpt lat="43.98635" lon="6.94166">
        <ele>1245.04</ele>
        <time>2015-09-19T09:15:32Z</time>
      </trkpt>
      <trkpt lat="43.98639" lon="6.94179">
        <ele>1244.56</ele>
        <time>2015-09-19T09:15:41Z</time>
      </trkpt>
      <trkpt lat="43.98642" lon="6.94194">
        <ele>1244.56</ele>
        <time>2015-09-19T09:15:51Z</time>
      </trkpt>
      <trkpt lat="43.98644" lon="6.94206">
        <ele>1244.56</ele>
        <time>2015-09-19T09:15:59Z</time>
      </trkpt>
      <trkpt lat="43.98642" lon="6.94219">
        <ele>1244.56</ele>
        <time>2015-09-19T09:16:07Z</time>
      </trkpt>
      <trkpt lat="43.98637" lon="6.94232">
        <ele>1243.6</ele>
        <time>2015-09-19T09:16:17Z</time>
      </trkpt>
      <trkpt lat="43.98635" lon="6.94238">
        <ele>1243.12</ele>
        <time>2015-09-19T09:16:22Z</time>
      </trkpt>
      <trkpt lat="43.98631" lon="6.94251">
        <ele>1242.16</ele>
        <time>2015-09-19T09:16:31Z</time>
      </trkpt>
      <trkpt lat="43.9863" lon="6.94259">
        <ele>1241.68</ele>
        <time>2015-09-19T09:16:36Z</time>
      </trkpt>
      <trkpt lat="43.98627" lon="6.9427">
        <ele>1240.72</ele>
        <time>2015-09-19T09:16:45Z</time>
      </trkpt>
      <trkpt lat="43.98627" lon="6.9427">
        <ele>1240.72</ele>
        <time>2015-09-19T09:16:47Z</time>
      </trkpt>
      <trkpt lat="43.98626" lon="6.94284">
        <ele>1240.24</ele>
        <time>2015-09-19T09:16:56Z</time>
      </trkpt>
      <trkpt lat="43.98623" lon="6.94298">
        <ele>1240.24</ele>
        <time>2015-09-19T09:17:06Z</time>
      </trkpt>
      <trkpt lat="43.98622" lon="6.94306">
        <ele>1239.76</ele>
        <time>2015-09-19T09:17:12Z</time>
      </trkpt>
      <trkpt lat="43.98621" lon="6.94319">
        <ele>1239.28</ele>
        <time>2015-09-19T09:17:22Z</time>
      </trkpt>
      <trkpt lat="43.98621" lon="6.94324">
        <ele>1238.8</ele>
        <time>2015-09-19T09:17:29Z</time>
      </trkpt>
      <trkpt lat="43.98621" lon="6.94324">
        <ele>1238.8</ele>
        <time>2015-09-19T09:17:41Z</time>
      </trkpt>
      <trkpt lat="43.98621" lon="6.94327">
        <ele>1238.8</ele>
        <time>2015-09-19T09:17:46Z</time>
      </trkpt>
      <trkpt lat="43.98622" lon="6.9433">
        <ele>1238.8</ele>
        <time>2015-09-19T09:17:48Z</time>
      </trkpt>
      <trkpt lat="43.98628" lon="6.94341">
        <ele>1238.8</ele>
        <time>2015-09-19T09:17:58Z</time>
      </trkpt>
      <trkpt lat="43.98628" lon="6.94342">
        <ele>1238.8</ele>
        <time>2015-09-19T09:17:59Z</time>
      </trkpt>
      <trkpt lat="43.98633" lon="6.94351">
        <ele>1239.28</ele>
        <time>2015-09-19T09:18:08Z</time>
      </trkpt>
      <trkpt lat="43.98636" lon="6.94356">
        <ele>1239.28</ele>
        <time>2015-09-19T09:18:12Z</time>
      </trkpt>
      <trkpt lat="43.98637" lon="6.9436">
        <ele>1239.76</ele>
        <time>2015-09-19T09:18:15Z</time>
      </trkpt>
      <trkpt lat="43.98644" lon="6.94372">
        <ele>1239.76</ele>
        <time>2015-09-19T09:18:25Z</time>
      </trkpt>
      <trkpt lat="43.98648" lon="6.94382">
        <ele>1240.24</ele>
        <time>2015-09-19T09:18:33Z</time>
      </trkpt>
      <trkpt lat="43.98652" lon="6.94393">
        <ele>1240.72</ele>
        <time>2015-09-19T09:18:42Z</time>
      </trkpt>
      <trkpt lat="43.98655" lon="6.94406">
        <ele>1241.2</ele>
        <time>2015-09-19T09:18:52Z</time>
      </trkpt>
      <trkpt lat="43.98655" lon="6.94412">
        <ele>1241.2</ele>
        <time>2015-09-19T09:18:56Z</time>
      </trkpt>
      <trkpt lat="43.98658" lon="6.94427">
        <ele>1241.68</ele>
        <time>2015-09-19T09:19:06Z</time>
      </trkpt>
      <trkpt lat="43.98659" lon="6.94433">
        <ele>1242.16</ele>
        <time>2015-09-19T09:19:10Z</time>
      </trkpt>
      <trkpt lat="43.9866" lon="6.94441">
        <ele>1242.64</ele>
        <time>2015-09-19T09:19:18Z</time>
      </trkpt>
      <trkpt lat="43.9866" lon="6.94448">
        <ele>1243.12</ele>
        <time>2015-09-19T09:19:25Z</time>
      </trkpt>
      <trkpt lat="43.98661" lon="6.94451">
        <ele>1243.12</ele>
        <time>2015-09-19T09:19:27Z</time>
      </trkpt>
      <trkpt lat="43.98663" lon="6.94465">
        <ele>1243.6</ele>
        <time>2015-09-19T09:19:37Z</time>
      </trkpt>
      <trkpt lat="43.98665" lon="6.94478">
        <ele>1243.6</ele>
        <time>2015-09-19T09:19:46Z</time>
      </trkpt>
      <trkpt lat="43.98665" lon="6.94492">
        <ele>1243.6</ele>
        <time>2015-09-19T09:19:55Z</time>
      </trkpt>
      <trkpt lat="43.98664" lon="6.94504">
        <ele>1242.64</ele>
        <time>2015-09-19T09:20:03Z</time>
      </trkpt>
      <trkpt lat="43.98663" lon="6.94509">
        <ele>1242.16</ele>
        <time>2015-09-19T09:20:07Z</time>
      </trkpt>
      <trkpt lat="43.98663" lon="6.94519">
        <ele>1242.16</ele>
        <time>2015-09-19T09:20:13Z</time>
      </trkpt>
      <trkpt lat="43.98663" lon="6.94532">
        <ele>1241.2</ele>
        <time>2015-09-19T09:20:22Z</time>
      </trkpt>
      <trkpt lat="43.98662" lon="6.94536">
        <ele>1241.2</ele>
        <time>2015-09-19T09:20:25Z</time>
      </trkpt>
      <trkpt lat="43.98663" lon="6.94548">
        <ele>1240.72</ele>
        <time>2015-09-19T09:20:35Z</time>
      </trkpt>
      <trkpt lat="43.98661" lon="6.9455">
        <ele>1240.72</ele>
        <time>2015-09-19T09:20:40Z</time>
      </trkpt>
      <trkpt lat="43.9866" lon="6.94555">
        <ele>1240.24</ele>
        <time>2015-09-19T09:20:46Z</time>
      </trkpt>
      <trkpt lat="43.9866" lon="6.94556">
        <ele>1240.24</ele>
        <time>2015-09-19T09:20:54Z</time>
      </trkpt>
      <trkpt lat="43.9866" lon="6.94561">
        <ele>1240.24</ele>
        <time>2015-09-19T09:21:02Z</time>
      </trkpt>
      <trkpt lat="43.9866" lon="6.94563">
        <ele>1240.24</ele>
        <time>2015-09-19T09:21:03Z</time>
      </trkpt>
      <trkpt lat="43.9866" lon="6.94576">
        <ele>1240.24</ele>
        <time>2015-09-19T09:21:12Z</time>
      </trkpt>
      <trkpt lat="43.98661" lon="6.94588">
        <ele>1239.76</ele>
        <time>2015-09-19T09:21:20Z</time>
      </trkpt>
      <trkpt lat="43.98661" lon="6.94601">
        <ele>1238.8</ele>
        <time>2015-09-19T09:21:29Z</time>
      </trkpt>
      <trkpt lat="43.9866" lon="6.94616">
        <ele>1237.83</ele>
        <time>2015-09-19T09:21:38Z</time>
      </trkpt>
      <trkpt lat="43.9866" lon="6.94631">
        <ele>1237.35</ele>
        <time>2015-09-19T09:21:47Z</time>
      </trkpt>
      <trkpt lat="43.98662" lon="6.94644">
        <ele>1237.35</ele>
        <time>2015-09-19T09:21:56Z</time>
      </trkpt>
      <trkpt lat="43.98662" lon="6.94647">
        <ele>1236.87</ele>
        <time>2015-09-19T09:21:58Z</time>
      </trkpt>
      <trkpt lat="43.98662" lon="6.94654">
        <ele>1237.35</ele>
        <time>2015-09-19T09:22:03Z</time>
      </trkpt>
      <trkpt lat="43.98664" lon="6.94659">
        <ele>1236.87</ele>
        <time>2015-09-19T09:22:06Z</time>
      </trkpt>
      <trkpt lat="43.98665" lon="6.94664">
        <ele>1236.87</ele>
        <time>2015-09-19T09:22:10Z</time>
      </trkpt>
      <trkpt lat="43.98669" lon="6.94675">
        <ele>1236.87</ele>
        <time>2015-09-19T09:22:18Z</time>
      </trkpt>
      <trkpt lat="43.98674" lon="6.94683">
        <ele>1236.87</ele>
        <time>2015-09-19T09:22:26Z</time>
      </trkpt>
      <trkpt lat="43.98676" lon="6.94687">
        <ele>1236.39</ele>
        <time>2015-09-19T09:22:29Z</time>
      </trkpt>
      <trkpt lat="43.9868" lon="6.947">
        <ele>1235.91</ele>
        <time>2015-09-19T09:22:38Z</time>
      </trkpt>
      <trkpt lat="43.98681" lon="6.94715">
        <ele>1235.91</ele>
        <time>2015-09-19T09:22:47Z</time>
      </trkpt>
      <trkpt lat="43.98682" lon="6.94722">
        <ele>1235.43</ele>
        <time>2015-09-19T09:22:52Z</time>
      </trkpt>
      <trkpt lat="43.98682" lon="6.94735">
        <ele>1234.47</ele>
        <time>2015-09-19T09:23:01Z</time>
      </trkpt>
      <trkpt lat="43.98682" lon="6.94737">
        <ele>1234.47</ele>
        <time>2015-09-19T09:23:03Z</time>
      </trkpt>
      <trkpt lat="43.98686" lon="6.94747">
        <ele>1234.47</ele>
        <time>2015-09-19T09:23:12Z</time>
      </trkpt>
      <trkpt lat="43.98687" lon="6.94751">
        <ele>1233.99</ele>
        <time>2015-09-19T09:23:18Z</time>
      </trkpt>
      <trkpt lat="43.98687" lon="6.94752">
        <ele>1234.47</ele>
        <time>2015-09-19T09:23:27Z</time>
      </trkpt>
      <trkpt lat="43.98687" lon="6.94752">
        <ele>1234.47</ele>
        <time>2015-09-19T09:23:42Z</time>
      </trkpt>
      <trkpt lat="43.98688" lon="6.94751">
        <ele>1234.47</ele>
        <time>2015-09-19T09:23:49Z</time>
      </trkpt>
      <trkpt lat="43.98688" lon="6.94751">
        <ele>1233.99</ele>
        <time>2015-09-19T09:24:03Z</time>
      </trkpt>
      <trkpt lat="43.98688" lon="6.94752">
        <ele>1234.47</ele>
        <time>2015-09-19T09:24:14Z</time>
      </trkpt>
      <trkpt lat="43.98688" lon="6.94752">
        <ele>1233.99</ele>
        <time>2015-09-19T09:24:27Z</time>
      </trkpt>
      <trkpt lat="43.98688" lon="6.94752">
        <ele>1234.47</ele>
        <time>2015-09-19T09:24:34Z</time>
      </trkpt>
      <trkpt lat="43.98687" lon="6.94751">
        <ele>1234.47</ele>
        <time>2015-09-19T09:24:39Z</time>
      </trkpt>
      <trkpt lat="43.98689" lon="6.94753">
        <ele>1233.99</ele>
        <time>2015-09-19T09:24:45Z</time>
      </trkpt>
      <trkpt lat="43.98689" lon="6.94759">
        <ele>1235.43</ele>
        <time>2015-09-19T09:24:51Z</time>
      </trkpt>
      <trkpt lat="43.98691" lon="6.94764">
        <ele>1233.99</ele>
        <time>2015-09-19T09:24:57Z</time>
      </trkpt>
      <trkpt lat="43.98691" lon="6.94766">
        <ele>1233.99</ele>
        <time>2015-09-19T09:25:03Z</time>
      </trkpt>
      <trkpt lat="43.98691" lon="6.94767">
        <ele>1233.99</ele>
        <time>2015-09-19T09:25:11Z</time>
      </trkpt>
      <trkpt lat="43.98691" lon="6.94769">
        <ele>1233.99</ele>
        <time>2015-09-19T09:25:15Z</time>
      </trkpt>
      <trkpt lat="43.98693" lon="6.94773">
        <ele>1234.47</ele>
        <time>2015-09-19T09:25:22Z</time>
      </trkpt>
      <trkpt lat="43.98693" lon="6.94781">
        <ele>1233.99</ele>
        <time>2015-09-19T09:25:28Z</time>
      </trkpt>
      <trkpt lat="43.98694" lon="6.94785">
        <ele>1233.51</ele>
        <time>2015-09-19T09:25:35Z</time>
      </trkpt>
      <trkpt lat="43.98694" lon="6.94789">
        <ele>1233.51</ele>
        <time>2015-09-19T09:25:43Z</time>
      </trkpt>
      <trkpt lat="43.98694" lon="6.94794">
        <ele>1232.55</ele>
        <time>2015-09-19T09:25:49Z</time>
      </trkpt>
      <trkpt lat="43.98695" lon="6.94799">
        <ele>1231.59</ele>
        <time>2015-09-19T09:25:56Z</time>
      </trkpt>
      <trkpt lat="43.98697" lon="6.94808">
        <ele>1231.11</ele>
        <time>2015-09-19T09:26:04Z</time>
      </trkpt>
      <trkpt lat="43.987" lon="6.94812">
        <ele>1231.11</ele>
        <time>2015-09-19T09:26:10Z</time>
      </trkpt>
      <trkpt lat="43.98702" lon="6.94814">
        <ele>1230.62</ele>
        <time>2015-09-19T09:26:13Z</time>
      </trkpt>
      <trkpt lat="43.98708" lon="6.94823">
        <ele>1230.62</ele>
        <time>2015-09-19T09:26:21Z</time>
      </trkpt>
      <trkpt lat="43.9871" lon="6.94829">
        <ele>1230.62</ele>
        <time>2015-09-19T09:26:27Z</time>
      </trkpt>
      <trkpt lat="43.98711" lon="6.94831">
        <ele>1230.62</ele>
        <time>2015-09-19T09:26:29Z</time>
      </trkpt>
      <trkpt lat="43.98716" lon="6.94838">
        <ele>1232.07</ele>
        <time>2015-09-19T09:26:38Z</time>
      </trkpt>
      <trkpt lat="43.98719" lon="6.94846">
        <ele>1232.07</ele>
        <time>2015-09-19T09:26:45Z</time>
      </trkpt>
      <trkpt lat="43.98723" lon="6.94855">
        <ele>1232.55</ele>
        <time>2015-09-19T09:26:53Z</time>
      </trkpt>
      <trkpt lat="43.98723" lon="6.94859">
        <ele>1233.03</ele>
        <time>2015-09-19T09:26:55Z</time>
      </trkpt>
      <trkpt lat="43.98723" lon="6.94863">
        <ele>1233.03</ele>
        <time>2015-09-19T09:26:57Z</time>
      </trkpt>
      <trkpt lat="43.9872" lon="6.94872">
        <ele>1233.99</ele>
        <time>2015-09-19T09:27:04Z</time>
      </trkpt>
      <trkpt lat="43.98715" lon="6.94878">
        <ele>1235.43</ele>
        <time>2015-09-19T09:27:10Z</time>
      </trkpt>
      <trkpt lat="43.98714" lon="6.94882">
        <ele>1236.39</ele>
        <time>2015-09-19T09:27:15Z</time>
      </trkpt>
      <trkpt lat="43.98713" lon="6.94885">
        <ele>1236.87</ele>
        <time>2015-09-19T09:27:19Z</time>
      </trkpt>
      <trkpt lat="43.98709" lon="6.94893">
        <ele>1237.83</ele>
        <time>2015-09-19T09:27:27Z</time>
      </trkpt>
      <trkpt lat="43.98707" lon="6.94902">
        <ele>1238.8</ele>
        <time>2015-09-19T09:27:34Z</time>
      </trkpt>
      <trkpt lat="43.98705" lon="6.94909">
        <ele>1239.28</ele>
        <time>2015-09-19T09:27:41Z</time>
      </trkpt>
      <trkpt lat="43.98705" lon="6.94916">
        <ele>1239.76</ele>
        <time>2015-09-19T09:27:48Z</time>
      </trkpt>
      <trkpt lat="43.98702" lon="6.94924">
        <ele>1240.72</ele>
        <time>2015-09-19T09:27:56Z</time>
      </trkpt>
      <trkpt lat="43.98701" lon="6.94927">
        <ele>1241.2</ele>
        <time>2015-09-19T09:27:59Z</time>
      </trkpt>
      <trkpt lat="43.987" lon="6.94933">
        <ele>1242.16</ele>
        <time>2015-09-19T09:28:06Z</time>
      </trkpt>
      <trkpt lat="43.98699" lon="6.94941">
        <ele>1242.64</ele>
        <time>2015-09-19T09:28:13Z</time>
      </trkpt>
      <trkpt lat="43.98698" lon="6.94944">
        <ele>1243.12</ele>
        <time>2015-09-19T09:28:16Z</time>
      </trkpt>
      <trkpt lat="43.98697" lon="6.94947">
        <ele>1243.6</ele>
        <time>2015-09-19T09:28:19Z</time>
      </trkpt>
      <trkpt lat="43.98698" lon="6.94955">
        <ele>1244.56</ele>
        <time>2015-09-19T09:28:26Z</time>
      </trkpt>
      <trkpt lat="43.98698" lon="6.94961">
        <ele>1245.04</ele>
        <time>2015-09-19T09:28:32Z</time>
      </trkpt>
      <trkpt lat="43.98698" lon="6.94964">
        <ele>1246.01</ele>
        <time>2015-09-19T09:28:35Z</time>
      </trkpt>
      <trkpt lat="43.98699" lon="6.94969">
        <ele>1246.49</ele>
        <time>2015-09-19T09:28:42Z</time>
      </trkpt>
      <trkpt lat="43.98699" lon="6.94972">
        <ele>1247.45</ele>
        <time>2015-09-19T09:28:48Z</time>
      </trkpt>
      <trkpt lat="43.987" lon="6.94974">
        <ele>1247.93</ele>
        <time>2015-09-19T09:28:54Z</time>
      </trkpt>
      <trkpt lat="43.987" lon="6.94981">
        <ele>1248.41</ele>
        <time>2015-09-19T09:28:59Z</time>
      </trkpt>
      <trkpt lat="43.98701" lon="6.94986">
        <ele>1249.37</ele>
        <time>2015-09-19T09:29:05Z</time>
      </trkpt>
      <trkpt lat="43.98702" lon="6.94992">
        <ele>1249.85</ele>
        <time>2015-09-19T09:29:12Z</time>
      </trkpt>
      <trkpt lat="43.98704" lon="6.94997">
        <ele>1250.81</ele>
        <time>2015-09-19T09:29:19Z</time>
      </trkpt>
      <trkpt lat="43.98705" lon="6.95004">
        <ele>1251.77</ele>
        <time>2015-09-19T09:29:25Z</time>
      </trkpt>
      <trkpt lat="43.98704" lon="6.9501">
        <ele>1252.25</ele>
        <time>2015-09-19T09:29:31Z</time>
      </trkpt>
      <trkpt lat="43.98702" lon="6.95015">
        <ele>1252.74</ele>
        <time>2015-09-19T09:29:37Z</time>
      </trkpt>
      <trkpt lat="43.98701" lon="6.95023">
        <ele>1254.18</ele>
        <time>2015-09-19T09:29:44Z</time>
      </trkpt>
      <trkpt lat="43.987" lon="6.95029">
        <ele>1254.66</ele>
        <time>2015-09-19T09:29:50Z</time>
      </trkpt>
      <trkpt lat="43.98699" lon="6.95036">
        <ele>1255.62</ele>
        <time>2015-09-19T09:29:56Z</time>
      </trkpt>
      <trkpt lat="43.98698" lon="6.9504">
        <ele>1256.58</ele>
        <time>2015-09-19T09:30:03Z</time>
      </trkpt>
      <trkpt lat="43.98699" lon="6.95044">
        <ele>1257.06</ele>
        <time>2015-09-19T09:30:06Z</time>
      </trkpt>
      <trkpt lat="43.98698" lon="6.95049">
        <ele>1258.02</ele>
        <time>2015-09-19T09:30:12Z</time>
      </trkpt>
      <trkpt lat="43.98698" lon="6.95053">
        <ele>1258.5</ele>
        <time>2015-09-19T09:30:17Z</time>
      </trkpt>
      <trkpt lat="43.98698" lon="6.95055">
        <ele>1258.5</ele>
        <time>2015-09-19T09:30:23Z</time>
      </trkpt>
      <trkpt lat="43.98698" lon="6.95061">
        <ele>1258.98</ele>
        <time>2015-09-19T09:30:29Z</time>
      </trkpt>
      <trkpt lat="43.98698" lon="6.95069">
        <ele>1260.43</ele>
        <time>2015-09-19T09:30:36Z</time>
      </trkpt>
      <trkpt lat="43.98699" lon="6.95075">
        <ele>1261.39</ele>
        <time>2015-09-19T09:30:42Z</time>
      </trkpt>
      <trkpt lat="43.987" lon="6.95079">
        <ele>1262.35</ele>
        <time>2015-09-19T09:30:49Z</time>
      </trkpt>
      <trkpt lat="43.98702" lon="6.95081">
        <ele>1263.31</ele>
        <time>2015-09-19T09:30:55Z</time>
      </trkpt>
      <trkpt lat="43.98704" lon="6.95083">
        <ele>1264.75</ele>
        <time>2015-09-19T09:31:02Z</time>
      </trkpt>
      <trkpt lat="43.98707" lon="6.9509">
        <ele>1265.71</ele>
        <time>2015-09-19T09:31:09Z</time>
      </trkpt>
      <trkpt lat="43.98708" lon="6.95094">
        <ele>1266.67</ele>
        <time>2015-09-19T09:31:15Z</time>
      </trkpt>
      <trkpt lat="43.98709" lon="6.95103">
        <ele>1268.12</ele>
        <time>2015-09-19T09:31:23Z</time>
      </trkpt>
      <trkpt lat="43.98711" lon="6.95109">
        <ele>1269.08</ele>
        <time>2015-09-19T09:31:30Z</time>
      </trkpt>
      <trkpt lat="43.98716" lon="6.95115">
        <ele>1269.56</ele>
        <time>2015-09-19T09:31:38Z</time>
      </trkpt>
      <trkpt lat="43.98721" lon="6.95121">
        <ele>1270.04</ele>
        <time>2015-09-19T09:31:46Z</time>
      </trkpt>
      <trkpt lat="43.98725" lon="6.95126">
        <ele>1271</ele>
        <time>2015-09-19T09:31:52Z</time>
      </trkpt>
      <trkpt lat="43.98729" lon="6.95131">
        <ele>1271.96</ele>
        <time>2015-09-19T09:32:00Z</time>
      </trkpt>
      <trkpt lat="43.98733" lon="6.95136">
        <ele>1272.92</ele>
        <time>2015-09-19T09:32:08Z</time>
      </trkpt>
      <trkpt lat="43.98737" lon="6.95141">
        <ele>1273.88</ele>
        <time>2015-09-19T09:32:15Z</time>
      </trkpt>
      <trkpt lat="43.98739" lon="6.95145">
        <ele>1274.85</ele>
        <time>2015-09-19T09:32:20Z</time>
      </trkpt>
      <trkpt lat="43.98741" lon="6.95152">
        <ele>1275.81</ele>
        <time>2015-09-19T09:32:28Z</time>
      </trkpt>
      <trkpt lat="43.98743" lon="6.95158">
        <ele>1276.29</ele>
        <time>2015-09-19T09:32:35Z</time>
      </trkpt>
      <trkpt lat="43.98744" lon="6.95162">
        <ele>1277.25</ele>
        <time>2015-09-19T09:32:41Z</time>
      </trkpt>
      <trkpt lat="43.98745" lon="6.95166">
        <ele>1277.73</ele>
        <time>2015-09-19T09:32:45Z</time>
      </trkpt>
      <trkpt lat="43.98747" lon="6.95173">
        <ele>1279.17</ele>
        <time>2015-09-19T09:32:52Z</time>
      </trkpt>
      <trkpt lat="43.98748" lon="6.95176">
        <ele>1278.69</ele>
        <time>2015-09-19T09:32:58Z</time>
      </trkpt>
      <trkpt lat="43.98749" lon="6.95184">
        <ele>1279.17</ele>
        <time>2015-09-19T09:33:05Z</time>
      </trkpt>
      <trkpt lat="43.98751" lon="6.95192">
        <ele>1280.61</ele>
        <time>2015-09-19T09:33:13Z</time>
      </trkpt>
      <trkpt lat="43.98751" lon="6.952">
        <ele>1281.09</ele>
        <time>2015-09-19T09:33:19Z</time>
      </trkpt>
      <trkpt lat="43.98752" lon="6.95206">
        <ele>1282.06</ele>
        <time>2015-09-19T09:33:26Z</time>
      </trkpt>
      <trkpt lat="43.98752" lon="6.95213">
        <ele>1283.02</ele>
        <time>2015-09-19T09:33:33Z</time>
      </trkpt>
      <trkpt lat="43.98754" lon="6.95218">
        <ele>1283.5</ele>
        <time>2015-09-19T09:33:40Z</time>
      </trkpt>
      <trkpt lat="43.98754" lon="6.95225">
        <ele>1283.98</ele>
        <time>2015-09-19T09:33:47Z</time>
      </trkpt>
      <trkpt lat="43.98756" lon="6.95231">
        <ele>1284.94</ele>
        <time>2015-09-19T09:33:54Z</time>
      </trkpt>
      <trkpt lat="43.98757" lon="6.95237">
        <ele>1285.9</ele>
        <time>2015-09-19T09:34:01Z</time>
      </trkpt>
      <trkpt lat="43.98761" lon="6.95241">
        <ele>1286.86</ele>
        <time>2015-09-19T09:34:09Z</time>
      </trkpt>
      <trkpt lat="43.98764" lon="6.95247">
        <ele>1286.86</ele>
        <time>2015-09-19T09:34:15Z</time>
      </trkpt>
      <trkpt lat="43.98766" lon="6.95251">
        <ele>1287.34</ele>
        <time>2015-09-19T09:34:22Z</time>
      </trkpt>
      <trkpt lat="43.98766" lon="6.95252">
        <ele>1287.34</ele>
        <time>2015-09-19T09:34:33Z</time>
      </trkpt>
      <trkpt lat="43.98767" lon="6.95252">
        <ele>1287.34</ele>
        <time>2015-09-19T09:34:48Z</time>
      </trkpt>
      <trkpt lat="43.98767" lon="6.95253">
        <ele>1287.34</ele>
        <time>2015-09-19T09:34:56Z</time>
      </trkpt>
      <trkpt lat="43.98768" lon="6.95253">
        <ele>1287.34</ele>
        <time>2015-09-19T09:35:03Z</time>
      </trkpt>
      <trkpt lat="43.98768" lon="6.95253">
        <ele>1287.34</ele>
        <time>2015-09-19T09:35:18Z</time>
      </trkpt>
      <trkpt lat="43.98769" lon="6.95256">
        <ele>1287.82</ele>
        <time>2015-09-19T09:35:31Z</time>
      </trkpt>
      <trkpt lat="43.9877" lon="6.95256">
        <ele>1287.34</ele>
        <time>2015-09-19T09:35:39Z</time>
      </trkpt>
      <trkpt lat="43.9877" lon="6.95256">
        <ele>1287.34</ele>
        <time>2015-09-19T09:35:46Z</time>
      </trkpt>
      <trkpt lat="43.98771" lon="6.95257">
        <ele>1287.34</ele>
        <time>2015-09-19T09:35:56Z</time>
      </trkpt>
      <trkpt lat="43.98771" lon="6.95256">
        <ele>1287.34</ele>
        <time>2015-09-19T09:36:12Z</time>
      </trkpt>
      <trkpt lat="43.98771" lon="6.95256">
        <ele>1287.34</ele>
        <time>2015-09-19T09:36:28Z</time>
      </trkpt>
      <trkpt lat="43.98771" lon="6.95255">
        <ele>1287.34</ele>
        <time>2015-09-19T09:36:39Z</time>
      </trkpt>
      <trkpt lat="43.98771" lon="6.95256">
        <ele>1287.34</ele>
        <time>2015-09-19T09:36:52Z</time>
      </trkpt>
      <trkpt lat="43.9877" lon="6.95257">
        <ele>1287.34</ele>
        <time>2015-09-19T09:36:57Z</time>
      </trkpt>
      <trkpt lat="43.98764" lon="6.9526">
        <ele>1287.82</ele>
        <time>2015-09-19T09:37:05Z</time>
      </trkpt>
      <trkpt lat="43.98764" lon="6.95261">
        <ele>1287.82</ele>
        <time>2015-09-19T09:37:14Z</time>
      </trkpt>
      <trkpt lat="43.98764" lon="6.95261">
        <ele>1287.82</ele>
        <time>2015-09-19T09:37:28Z</time>
      </trkpt>
      <trkpt lat="43.98764" lon="6.95261">
        <ele>1287.82</ele>
        <time>2015-09-19T09:37:34Z</time>
      </trkpt>
      <trkpt lat="43.98761" lon="6.95264">
        <ele>1288.3</ele>
        <time>2015-09-19T09:37:40Z</time>
      </trkpt>
      <trkpt lat="43.98754" lon="6.95268">
        <ele>1288.78</ele>
        <time>2015-09-19T09:37:47Z</time>
      </trkpt>
      <trkpt lat="43.98751" lon="6.9527">
        <ele>1290.23</ele>
        <time>2015-09-19T09:37:53Z</time>
      </trkpt>
      <trkpt lat="43.98747" lon="6.9527">
        <ele>1290.71</ele>
        <time>2015-09-19T09:38:00Z</time>
      </trkpt>
      <trkpt lat="43.98747" lon="6.9527">
        <ele>1291.19</ele>
        <time>2015-09-19T09:38:10Z</time>
      </trkpt>
      <trkpt lat="43.98747" lon="6.9527">
        <ele>1290.71</ele>
        <time>2015-09-19T09:38:21Z</time>
      </trkpt>
      <trkpt lat="43.98747" lon="6.9527">
        <ele>1290.71</ele>
        <time>2015-09-19T09:38:36Z</time>
      </trkpt>
      <trkpt lat="43.98746" lon="6.95269">
        <ele>1290.71</ele>
        <time>2015-09-19T09:38:54Z</time>
      </trkpt>
      <trkpt lat="43.98746" lon="6.95269">
        <ele>1291.19</ele>
        <time>2015-09-19T09:39:12Z</time>
      </trkpt>
      <trkpt lat="43.98744" lon="6.95269">
        <ele>1291.19</ele>
        <time>2015-09-19T09:39:20Z</time>
      </trkpt>
      <trkpt lat="43.98742" lon="6.95268">
        <ele>1292.63</ele>
        <time>2015-09-19T09:39:27Z</time>
      </trkpt>
      <trkpt lat="43.98739" lon="6.95268">
        <ele>1293.11</ele>
        <time>2015-09-19T09:39:32Z</time>
      </trkpt>
      <trkpt lat="43.98736" lon="6.95268">
        <ele>1294.55</ele>
        <time>2015-09-19T09:39:40Z</time>
      </trkpt>
      <trkpt lat="43.98733" lon="6.95267">
        <ele>1295.51</ele>
        <time>2015-09-19T09:39:47Z</time>
      </trkpt>
      <trkpt lat="43.98729" lon="6.95264">
        <ele>1296.96</ele>
        <time>2015-09-19T09:39:55Z</time>
      </trkpt>
      <trkpt lat="43.98725" lon="6.95263">
        <ele>1297.92</ele>
        <time>2015-09-19T09:40:01Z</time>
      </trkpt>
      <trkpt lat="43.98722" lon="6.95262">
        <ele>1298.88</ele>
        <time>2015-09-19T09:40:08Z</time>
      </trkpt>
      <trkpt lat="43.98719" lon="6.9526">
        <ele>1300.32</ele>
        <time>2015-09-19T09:40:14Z</time>
      </trkpt>
      <trkpt lat="43.98717" lon="6.9526">
        <ele>1300.8</ele>
        <time>2015-09-19T09:40:20Z</time>
      </trkpt>
      <trkpt lat="43.98715" lon="6.95259">
        <ele>1302.24</ele>
        <time>2015-09-19T09:40:29Z</time>
      </trkpt>
      <trkpt lat="43.98711" lon="6.95258">
        <ele>1302.72</ele>
        <time>2015-09-19T09:40:35Z</time>
      </trkpt>
      <trkpt lat="43.98711" lon="6.95257">
        <ele>1303.2</ele>
        <time>2015-09-19T09:40:45Z</time>
      </trkpt>
      <trkpt lat="43.98709" lon="6.95256">
        <ele>1303.69</ele>
        <time>2015-09-19T09:40:52Z</time>
      </trkpt>
      <trkpt lat="43.98704" lon="6.95255">
        <ele>1305.13</ele>
        <time>2015-09-19T09:41:00Z</time>
      </trkpt>
      <trkpt lat="43.98701" lon="6.95254">
        <ele>1306.09</ele>
        <time>2015-09-19T09:41:09Z</time>
      </trkpt>
      <trkpt lat="43.98697" lon="6.95255">
        <ele>1306.57</ele>
        <time>2015-09-19T09:41:14Z</time>
      </trkpt>
      <trkpt lat="43.98695" lon="6.95255">
        <ele>1307.53</ele>
        <time>2015-09-19T09:41:20Z</time>
      </trkpt>
      <trkpt lat="43.98694" lon="6.95255">
        <ele>1308.01</ele>
        <time>2015-09-19T09:41:32Z</time>
      </trkpt>
      <trkpt lat="43.98694" lon="6.95254">
        <ele>1308.01</ele>
        <time>2015-09-19T09:41:49Z</time>
      </trkpt>
      <trkpt lat="43.9869" lon="6.95254">
        <ele>1309.45</ele>
        <time>2015-09-19T09:42:01Z</time>
      </trkpt>
      <trkpt lat="43.98684" lon="6.95254">
        <ele>1310.41</ele>
        <time>2015-09-19T09:42:08Z</time>
      </trkpt>
      <trkpt lat="43.9868" lon="6.95254">
        <ele>1311.86</ele>
        <time>2015-09-19T09:42:17Z</time>
      </trkpt>
      <trkpt lat="43.98677" lon="6.95253">
        <ele>1313.3</ele>
        <time>2015-09-19T09:42:25Z</time>
      </trkpt>
      <trkpt lat="43.98671" lon="6.95252">
        <ele>1314.26</ele>
        <time>2015-09-19T09:42:33Z</time>
      </trkpt>
      <trkpt lat="43.98668" lon="6.9525">
        <ele>1315.7</ele>
        <time>2015-09-19T09:42:40Z</time>
      </trkpt>
      <trkpt lat="43.98665" lon="6.9525">
        <ele>1316.66</ele>
        <time>2015-09-19T09:42:47Z</time>
      </trkpt>
      <trkpt lat="43.98659" lon="6.9525">
        <ele>1318.1</ele>
        <time>2015-09-19T09:42:55Z</time>
      </trkpt>
      <trkpt lat="43.98656" lon="6.95249">
        <ele>1319.07</ele>
        <time>2015-09-19T09:43:03Z</time>
      </trkpt>
      <trkpt lat="43.98651" lon="6.95249">
        <ele>1320.99</ele>
        <time>2015-09-19T09:43:12Z</time>
      </trkpt>
      <trkpt lat="43.98645" lon="6.95247">
        <ele>1321.95</ele>
        <time>2015-09-19T09:43:18Z</time>
      </trkpt>
      <trkpt lat="43.98641" lon="6.95247">
        <ele>1322.91</ele>
        <time>2015-09-19T09:43:24Z</time>
      </trkpt>
      <trkpt lat="43.98637" lon="6.95245">
        <ele>1324.35</ele>
        <time>2015-09-19T09:43:33Z</time>
      </trkpt>
      <trkpt lat="43.98628" lon="6.95242">
        <ele>1325.31</ele>
        <time>2015-09-19T09:43:40Z</time>
      </trkpt>
      <trkpt lat="43.98624" lon="6.95241">
        <ele>1326.28</ele>
        <time>2015-09-19T09:43:47Z</time>
      </trkpt>
      <trkpt lat="43.98621" lon="6.95239">
        <ele>1326.76</ele>
        <time>2015-09-19T09:43:53Z</time>
      </trkpt>
      <trkpt lat="43.98616" lon="6.95236">
        <ele>1328.2</ele>
        <time>2015-09-19T09:44:02Z</time>
      </trkpt>
      <trkpt lat="43.98611" lon="6.95234">
        <ele>1329.16</ele>
        <time>2015-09-19T09:44:09Z</time>
      </trkpt>
      <trkpt lat="43.98603" lon="6.95231">
        <ele>1330.12</ele>
        <time>2015-09-19T09:44:18Z</time>
      </trkpt>
      <trkpt lat="43.98598" lon="6.95231">
        <ele>1332.04</ele>
        <time>2015-09-19T09:44:27Z</time>
      </trkpt>
      <trkpt lat="43.98592" lon="6.95229">
        <ele>1333.01</ele>
        <time>2015-09-19T09:44:36Z</time>
      </trkpt>
      <trkpt lat="43.98588" lon="6.9523">
        <ele>1333.97</ele>
        <time>2015-09-19T09:44:43Z</time>
      </trkpt>
      <trkpt lat="43.98589" lon="6.95234">
        <ele>1334.93</ele>
        <time>2015-09-19T09:44:49Z</time>
      </trkpt>
      <trkpt lat="43.98589" lon="6.95235">
        <ele>1335.89</ele>
        <time>2015-09-19T09:44:57Z</time>
      </trkpt>
      <trkpt lat="43.98587" lon="6.95237">
        <ele>1336.85</ele>
        <time>2015-09-19T09:45:06Z</time>
      </trkpt>
      <trkpt lat="43.98584" lon="6.9524">
        <ele>1337.33</ele>
        <time>2015-09-19T09:45:12Z</time>
      </trkpt>
      <trkpt lat="43.98582" lon="6.9524">
        <ele>1338.77</ele>
        <time>2015-09-19T09:45:18Z</time>
      </trkpt>
      <trkpt lat="43.98579" lon="6.95241">
        <ele>1340.22</ele>
        <time>2015-09-19T09:45:28Z</time>
      </trkpt>
      <trkpt lat="43.98579" lon="6.95243">
        <ele>1340.7</ele>
        <time>2015-09-19T09:45:34Z</time>
      </trkpt>
      <trkpt lat="43.98579" lon="6.95243">
        <ele>1341.66</ele>
        <time>2015-09-19T09:45:41Z</time>
      </trkpt>
      <trkpt lat="43.98578" lon="6.95244">
        <ele>1343.1</ele>
        <time>2015-09-19T09:45:49Z</time>
      </trkpt>
      <trkpt lat="43.98576" lon="6.95245">
        <ele>1344.06</ele>
        <time>2015-09-19T09:45:56Z</time>
      </trkpt>
      <trkpt lat="43.98574" lon="6.95248">
        <ele>1345.02</ele>
        <time>2015-09-19T09:46:03Z</time>
      </trkpt>
      <trkpt lat="43.98574" lon="6.95249">
        <ele>1345.98</ele>
        <time>2015-09-19T09:46:10Z</time>
      </trkpt>
      <trkpt lat="43.98572" lon="6.95251">
        <ele>1346.94</ele>
        <time>2015-09-19T09:46:16Z</time>
      </trkpt>
      <trkpt lat="43.9857" lon="6.95252">
        <ele>1348.39</ele>
        <time>2015-09-19T09:46:24Z</time>
      </trkpt>
      <trkpt lat="43.98565" lon="6.95253">
        <ele>1349.83</ele>
        <time>2015-09-19T09:46:35Z</time>
      </trkpt>
      <trkpt lat="43.98561" lon="6.95253">
        <ele>1350.79</ele>
        <time>2015-09-19T09:46:44Z</time>
      </trkpt>
      <trkpt lat="43.98556" lon="6.95251">
        <ele>1351.75</ele>
        <time>2015-09-19T09:46:51Z</time>
      </trkpt>
      <trkpt lat="43.98553" lon="6.95249">
        <ele>1353.19</ele>
        <time>2015-09-19T09:46:58Z</time>
      </trkpt>
      <trkpt lat="43.98548" lon="6.95247">
        <ele>1352.71</ele>
        <time>2015-09-19T09:47:07Z</time>
      </trkpt>
      <trkpt lat="43.98543" lon="6.95243">
        <ele>1352.71</ele>
        <time>2015-09-19T09:47:15Z</time>
      </trkpt>
      <trkpt lat="43.98539" lon="6.95242">
        <ele>1354.15</ele>
        <time>2015-09-19T09:47:22Z</time>
      </trkpt>
      <trkpt lat="43.98535" lon="6.95239">
        <ele>1355.12</ele>
        <time>2015-09-19T09:47:31Z</time>
      </trkpt>
      <trkpt lat="43.98531" lon="6.95234">
        <ele>1355.12</ele>
        <time>2015-09-19T09:47:39Z</time>
      </trkpt>
      <trkpt lat="43.98526" lon="6.95232">
        <ele>1355.6</ele>
        <time>2015-09-19T09:47:47Z</time>
      </trkpt>
      <trkpt lat="43.98522" lon="6.95232">
        <ele>1356.56</ele>
        <time>2015-09-19T09:47:54Z</time>
      </trkpt>
      <trkpt lat="43.98519" lon="6.95229">
        <ele>1357.52</ele>
        <time>2015-09-19T09:48:01Z</time>
      </trkpt>
      <trkpt lat="43.98513" lon="6.9523">
        <ele>1358.48</ele>
        <time>2015-09-19T09:48:09Z</time>
      </trkpt>
      <trkpt lat="43.98507" lon="6.95228">
        <ele>1358.96</ele>
        <time>2015-09-19T09:48:17Z</time>
      </trkpt>
      <trkpt lat="43.98502" lon="6.95226">
        <ele>1357.04</ele>
        <time>2015-09-19T09:48:25Z</time>
      </trkpt>
      <trkpt lat="43.985" lon="6.95222">
        <ele>1356.56</ele>
        <time>2015-09-19T09:48:32Z</time>
      </trkpt>
      <trkpt lat="43.98497" lon="6.95219">
        <ele>1357.04</ele>
        <time>2015-09-19T09:48:38Z</time>
      </trkpt>
      <trkpt lat="43.98495" lon="6.95214">
        <ele>1356.08</ele>
        <time>2015-09-19T09:48:43Z</time>
      </trkpt>
      <trkpt lat="43.9849" lon="6.95207">
        <ele>1356.08</ele>
        <time>2015-09-19T09:48:49Z</time>
      </trkpt>
      <trkpt lat="43.98484" lon="6.95197">
        <ele>1354.63</ele>
        <time>2015-09-19T09:48:55Z</time>
      </trkpt>
      <trkpt lat="43.98478" lon="6.95194">
        <ele>1355.6</ele>
        <time>2015-09-19T09:49:03Z</time>
      </trkpt>
      <trkpt lat="43.98476" lon="6.9519">
        <ele>1355.12</ele>
        <time>2015-09-19T09:49:10Z</time>
      </trkpt>
      <trkpt lat="43.98475" lon="6.95189">
        <ele>1355.6</ele>
        <time>2015-09-19T09:49:21Z</time>
      </trkpt>
      <trkpt lat="43.98475" lon="6.95188">
        <ele>1355.6</ele>
        <time>2015-09-19T09:49:34Z</time>
      </trkpt>
      <trkpt lat="43.98475" lon="6.95188">
        <ele>1355.6</ele>
        <time>2015-09-19T09:49:48Z</time>
      </trkpt>
      <trkpt lat="43.98473" lon="6.95187">
        <ele>1355.6</ele>
        <time>2015-09-19T09:49:51Z</time>
      </trkpt>
      <trkpt lat="43.98468" lon="6.95184">
        <ele>1355.6</ele>
        <time>2015-09-19T09:49:59Z</time>
      </trkpt>
      <trkpt lat="43.98464" lon="6.9518">
        <ele>1356.56</ele>
        <time>2015-09-19T09:50:05Z</time>
      </trkpt>
      <trkpt lat="43.98463" lon="6.95177">
        <ele>1356.56</ele>
        <time>2015-09-19T09:50:09Z</time>
      </trkpt>
      <trkpt lat="43.98457" lon="6.95176">
        <ele>1357.52</ele>
        <time>2015-09-19T09:50:16Z</time>
      </trkpt>
      <trkpt lat="43.98452" lon="6.95173">
        <ele>1357.52</ele>
        <time>2015-09-19T09:50:24Z</time>
      </trkpt>
      <trkpt lat="43.98449" lon="6.9517">
        <ele>1358</ele>
        <time>2015-09-19T09:50:30Z</time>
      </trkpt>
      <trkpt lat="43.98445" lon="6.95167">
        <ele>1358.48</ele>
        <time>2015-09-19T09:50:37Z</time>
      </trkpt>
      <trkpt lat="43.98439" lon="6.95166">
        <ele>1359.44</ele>
        <time>2015-09-19T09:50:45Z</time>
      </trkpt>
      <trkpt lat="43.98436" lon="6.95164">
        <ele>1360.4</ele>
        <time>2015-09-19T09:50:50Z</time>
      </trkpt>
      <trkpt lat="43.98431" lon="6.95161">
        <ele>1360.4</ele>
        <time>2015-09-19T09:50:58Z</time>
      </trkpt>
      <trkpt lat="43.98426" lon="6.95159">
        <ele>1360.4</ele>
        <time>2015-09-19T09:51:04Z</time>
      </trkpt>
      <trkpt lat="43.98422" lon="6.95158">
        <ele>1360.88</ele>
        <time>2015-09-19T09:51:09Z</time>
      </trkpt>
      <trkpt lat="43.9841" lon="6.95153">
        <ele>1361.84</ele>
        <time>2015-09-19T09:51:19Z</time>
      </trkpt>
      <trkpt lat="43.98404" lon="6.95145">
        <ele>1362.33</ele>
        <time>2015-09-19T09:51:27Z</time>
      </trkpt>
      <trkpt lat="43.98399" lon="6.95142">
        <ele>1362.81</ele>
        <time>2015-09-19T09:51:34Z</time>
      </trkpt>
      <trkpt lat="43.98394" lon="6.9514">
        <ele>1363.77</ele>
        <time>2015-09-19T09:51:40Z</time>
      </trkpt>
      <trkpt lat="43.98388" lon="6.9514">
        <ele>1364.25</ele>
        <time>2015-09-19T09:51:46Z</time>
      </trkpt>
      <trkpt lat="43.98383" lon="6.95139">
        <ele>1365.69</ele>
        <time>2015-09-19T09:51:53Z</time>
      </trkpt>
      <trkpt lat="43.98381" lon="6.95144">
        <ele>1367.13</ele>
        <time>2015-09-19T09:52:01Z</time>
      </trkpt>
      <trkpt lat="43.98375" lon="6.95145">
        <ele>1367.61</ele>
        <time>2015-09-19T09:52:08Z</time>
      </trkpt>
      <trkpt lat="43.98373" lon="6.95145">
        <ele>1368.57</ele>
        <time>2015-09-19T09:52:15Z</time>
      </trkpt>
      <trkpt lat="43.9837" lon="6.95145">
        <ele>1369.54</ele>
        <time>2015-09-19T09:52:21Z</time>
      </trkpt>
      <trkpt lat="43.98367" lon="6.95142">
        <ele>1370.5</ele>
        <time>2015-09-19T09:52:28Z</time>
      </trkpt>
      <trkpt lat="43.98361" lon="6.95137">
        <ele>1370.98</ele>
        <time>2015-09-19T09:52:35Z</time>
      </trkpt>
      <trkpt lat="43.98358" lon="6.95134">
        <ele>1371.94</ele>
        <time>2015-09-19T09:52:41Z</time>
      </trkpt>
      <trkpt lat="43.98354" lon="6.95134">
        <ele>1372.9</ele>
        <time>2015-09-19T09:52:49Z</time>
      </trkpt>
      <trkpt lat="43.98348" lon="6.95131">
        <ele>1373.86</ele>
        <time>2015-09-19T09:52:55Z</time>
      </trkpt>
      <trkpt lat="43.98343" lon="6.95128">
        <ele>1374.34</ele>
        <time>2015-09-19T09:53:02Z</time>
      </trkpt>
      <trkpt lat="43.98341" lon="6.95127">
        <ele>1375.78</ele>
        <time>2015-09-19T09:53:12Z</time>
      </trkpt>
      <trkpt lat="43.98333" lon="6.95124">
        <ele>1376.75</ele>
        <time>2015-09-19T09:53:19Z</time>
      </trkpt>
      <trkpt lat="43.98329" lon="6.95122">
        <ele>1377.71</ele>
        <time>2015-09-19T09:53:27Z</time>
      </trkpt>
      <trkpt lat="43.98327" lon="6.9512">
        <ele>1379.15</ele>
        <time>2015-09-19T09:53:34Z</time>
      </trkpt>
      <trkpt lat="43.98324" lon="6.95118">
        <ele>1380.11</ele>
        <time>2015-09-19T09:53:40Z</time>
      </trkpt>
      <trkpt lat="43.98315" lon="6.95117">
        <ele>1381.07</ele>
        <time>2015-09-19T09:53:50Z</time>
      </trkpt>
      <trkpt lat="43.98313" lon="6.95117">
        <ele>1381.55</ele>
        <time>2015-09-19T09:53:55Z</time>
      </trkpt>
      <trkpt lat="43.98308" lon="6.95115">
        <ele>1382.51</ele>
        <time>2015-09-19T09:54:03Z</time>
      </trkpt>
      <trkpt lat="43.98306" lon="6.95113">
        <ele>1382.51</ele>
        <time>2015-09-19T09:54:13Z</time>
      </trkpt>
      <trkpt lat="43.98303" lon="6.95113">
        <ele>1382.99</ele>
        <time>2015-09-19T09:54:22Z</time>
      </trkpt>
      <trkpt lat="43.983" lon="6.95113">
        <ele>1383.96</ele>
        <time>2015-09-19T09:54:28Z</time>
      </trkpt>
      <trkpt lat="43.98296" lon="6.95112">
        <ele>1384.92</ele>
        <time>2015-09-19T09:54:34Z</time>
      </trkpt>
      <trkpt lat="43.98293" lon="6.95111">
        <ele>1385.88</ele>
        <time>2015-09-19T09:54:40Z</time>
      </trkpt>
      <trkpt lat="43.98291" lon="6.95112">
        <ele>1386.84</ele>
        <time>2015-09-19T09:54:48Z</time>
      </trkpt>
      <trkpt lat="43.98289" lon="6.95112">
        <ele>1387.8</ele>
        <time>2015-09-19T09:54:54Z</time>
      </trkpt>
      <trkpt lat="43.98284" lon="6.95113">
        <ele>1389.24</ele>
        <time>2015-09-19T09:55:01Z</time>
      </trkpt>
      <trkpt lat="43.98283" lon="6.95114">
        <ele>1390.2</ele>
        <time>2015-09-19T09:55:07Z</time>
      </trkpt>
      <trkpt lat="43.98282" lon="6.95114">
        <ele>1391.17</ele>
        <time>2015-09-19T09:55:16Z</time>
      </trkpt>
      <trkpt lat="43.98281" lon="6.95116">
        <ele>1392.13</ele>
        <time>2015-09-19T09:55:22Z</time>
      </trkpt>
      <trkpt lat="43.98278" lon="6.95118">
        <ele>1392.61</ele>
        <time>2015-09-19T09:55:28Z</time>
      </trkpt>
      <trkpt lat="43.98275" lon="6.95118">
        <ele>1392.61</ele>
        <time>2015-09-19T09:55:36Z</time>
      </trkpt>
      <trkpt lat="43.98274" lon="6.95116">
        <ele>1392.61</ele>
        <time>2015-09-19T09:55:44Z</time>
      </trkpt>
      <trkpt lat="43.98275" lon="6.95116">
        <ele>1392.61</ele>
        <time>2015-09-19T09:55:48Z</time>
      </trkpt>
      <trkpt lat="43.98275" lon="6.95114">
        <ele>1392.61</ele>
        <time>2015-09-19T09:55:52Z</time>
      </trkpt>
      <trkpt lat="43.98274" lon="6.95113">
        <ele>1392.61</ele>
        <time>2015-09-19T09:55:58Z</time>
      </trkpt>
      <trkpt lat="43.98273" lon="6.95113">
        <ele>1392.61</ele>
        <time>2015-09-19T09:56:04Z</time>
      </trkpt>
      <trkpt lat="43.98273" lon="6.95112">
        <ele>1393.09</ele>
        <time>2015-09-19T09:56:11Z</time>
      </trkpt>
      <trkpt lat="43.98274" lon="6.95112">
        <ele>1393.09</ele>
        <time>2015-09-19T09:56:27Z</time>
      </trkpt>
      <trkpt lat="43.98273" lon="6.95111">
        <ele>1393.09</ele>
        <time>2015-09-19T09:56:35Z</time>
      </trkpt>
      <trkpt lat="43.98267" lon="6.95106">
        <ele>1393.57</ele>
        <time>2015-09-19T09:56:43Z</time>
      </trkpt>
      <trkpt lat="43.98261" lon="6.95105">
        <ele>1394.53</ele>
        <time>2015-09-19T09:56:51Z</time>
      </trkpt>
      <trkpt lat="43.98258" lon="6.95102">
        <ele>1395.01</ele>
        <time>2015-09-19T09:56:55Z</time>
      </trkpt>
      <trkpt lat="43.9825" lon="6.95098">
        <ele>1396.45</ele>
        <time>2015-09-19T09:57:03Z</time>
      </trkpt>
      <trkpt lat="43.98243" lon="6.95095">
        <ele>1397.41</ele>
        <time>2015-09-19T09:57:12Z</time>
      </trkpt>
      <trkpt lat="43.98243" lon="6.95095">
        <ele>1397.89</ele>
        <time>2015-09-19T09:57:13Z</time>
      </trkpt>
      <trkpt lat="43.9824" lon="6.95094">
        <ele>1398.37</ele>
        <time>2015-09-19T09:57:20Z</time>
      </trkpt>
      <trkpt lat="43.98237" lon="6.95093">
        <ele>1399.34</ele>
        <time>2015-09-19T09:57:27Z</time>
      </trkpt>
      <trkpt lat="43.98235" lon="6.95092">
        <ele>1400.3</ele>
        <time>2015-09-19T09:57:33Z</time>
      </trkpt>
      <trkpt lat="43.98233" lon="6.95091">
        <ele>1401.26</ele>
        <time>2015-09-19T09:57:39Z</time>
      </trkpt>
      <trkpt lat="43.9823" lon="6.95089">
        <ele>1402.22</ele>
        <time>2015-09-19T09:57:45Z</time>
      </trkpt>
      <trkpt lat="43.98229" lon="6.95088">
        <ele>1402.22</ele>
        <time>2015-09-19T09:57:47Z</time>
      </trkpt>
      <trkpt lat="43.98227" lon="6.95087">
        <ele>1403.18</ele>
        <time>2015-09-19T09:57:53Z</time>
      </trkpt>
      <trkpt lat="43.98223" lon="6.95085">
        <ele>1404.62</ele>
        <time>2015-09-19T09:58:01Z</time>
      </trkpt>
      <trkpt lat="43.9822" lon="6.95084">
        <ele>1405.58</ele>
        <time>2015-09-19T09:58:08Z</time>
      </trkpt>
      <trkpt lat="43.9822" lon="6.95084">
        <ele>1406.55</ele>
        <time>2015-09-19T09:58:14Z</time>
      </trkpt>
      <trkpt lat="43.98214" lon="6.95082">
        <ele>1407.51</ele>
        <time>2015-09-19T09:58:21Z</time>
      </trkpt>
      <trkpt lat="43.9821" lon="6.9508">
        <ele>1408.47</ele>
        <time>2015-09-19T09:58:28Z</time>
      </trkpt>
      <trkpt lat="43.98207" lon="6.95077">
        <ele>1409.43</ele>
        <time>2015-09-19T09:58:36Z</time>
      </trkpt>
      <trkpt lat="43.982" lon="6.95073">
        <ele>1410.39</ele>
        <time>2015-09-19T09:58:45Z</time>
      </trkpt>
      <trkpt lat="43.98193" lon="6.9507">
        <ele>1411.35</ele>
        <time>2015-09-19T09:58:52Z</time>
      </trkpt>
      <trkpt lat="43.9819" lon="6.95069">
        <ele>1412.79</ele>
        <time>2015-09-19T09:59:01Z</time>
      </trkpt>
      <trkpt lat="43.98187" lon="6.95066">
        <ele>1413.76</ele>
        <time>2015-09-19T09:59:08Z</time>
      </trkpt>
      <trkpt lat="43.98183" lon="6.95064">
        <ele>1414.72</ele>
        <time>2015-09-19T09:59:15Z</time>
      </trkpt>
      <trkpt lat="43.9818" lon="6.95064">
        <ele>1415.68</ele>
        <time>2015-09-19T09:59:21Z</time>
      </trkpt>
      <trkpt lat="43.98176" lon="6.95062">
        <ele>1417.12</ele>
        <time>2015-09-19T09:59:29Z</time>
      </trkpt>
      <trkpt lat="43.98171" lon="6.9506">
        <ele>1418.08</ele>
        <time>2015-09-19T09:59:35Z</time>
      </trkpt>
      <trkpt lat="43.98169" lon="6.9506">
        <ele>1419.04</ele>
        <time>2015-09-19T09:59:40Z</time>
      </trkpt>
      <trkpt lat="43.98167" lon="6.95059">
        <ele>1420</ele>
        <time>2015-09-19T09:59:48Z</time>
      </trkpt>
      <trkpt lat="43.98162" lon="6.95059">
        <ele>1420.97</ele>
        <time>2015-09-19T09:59:55Z</time>
      </trkpt>
      <trkpt lat="43.98161" lon="6.95058">
        <ele>1421.93</ele>
        <time>2015-09-19T10:00:03Z</time>
      </trkpt>
      <trkpt lat="43.98158" lon="6.95055">
        <ele>1422.89</ele>
        <time>2015-09-19T10:00:08Z</time>
      </trkpt>
      <trkpt lat="43.98155" lon="6.95052">
        <ele>1423.37</ele>
        <time>2015-09-19T10:00:14Z</time>
      </trkpt>
      <trkpt lat="43.98149" lon="6.95049">
        <ele>1424.33</ele>
        <time>2015-09-19T10:00:21Z</time>
      </trkpt>
      <trkpt lat="43.98142" lon="6.95047">
        <ele>1424.81</ele>
        <time>2015-09-19T10:00:29Z</time>
      </trkpt>
      <trkpt lat="43.98141" lon="6.95046">
        <ele>1426.25</ele>
        <time>2015-09-19T10:00:35Z</time>
      </trkpt>
      <trkpt lat="43.98136" lon="6.95044">
        <ele>1426.73</ele>
        <time>2015-09-19T10:00:40Z</time>
      </trkpt>
      <trkpt lat="43.98134" lon="6.95042">
        <ele>1428.18</ele>
        <time>2015-09-19T10:00:47Z</time>
      </trkpt>
      <trkpt lat="43.98132" lon="6.95041">
        <ele>1428.66</ele>
        <time>2015-09-19T10:00:53Z</time>
      </trkpt>
      <trkpt lat="43.9813" lon="6.95038">
        <ele>1429.62</ele>
        <time>2015-09-19T10:01:01Z</time>
      </trkpt>
      <trkpt lat="43.98128" lon="6.95034">
        <ele>1430.1</ele>
        <time>2015-09-19T10:01:07Z</time>
      </trkpt>
      <trkpt lat="43.98126" lon="6.95032">
        <ele>1431.06</ele>
        <time>2015-09-19T10:01:12Z</time>
      </trkpt>
      <trkpt lat="43.98116" lon="6.95025">
        <ele>1431.06</ele>
        <time>2015-09-19T10:01:19Z</time>
      </trkpt>
      <trkpt lat="43.98111" lon="6.95021">
        <ele>1432.5</ele>
        <time>2015-09-19T10:01:26Z</time>
      </trkpt>
      <trkpt lat="43.98108" lon="6.95018">
        <ele>1433.46</ele>
        <time>2015-09-19T10:01:34Z</time>
      </trkpt>
      <trkpt lat="43.98105" lon="6.95017">
        <ele>1434.42</ele>
        <time>2015-09-19T10:01:41Z</time>
      </trkpt>
      <trkpt lat="43.98102" lon="6.95017">
        <ele>1435.39</ele>
        <time>2015-09-19T10:01:47Z</time>
      </trkpt>
      <trkpt lat="43.98097" lon="6.95013">
        <ele>1436.35</ele>
        <time>2015-09-19T10:01:55Z</time>
      </trkpt>
      <trkpt lat="43.98092" lon="6.95009">
        <ele>1437.79</ele>
        <time>2015-09-19T10:02:04Z</time>
      </trkpt>
      <trkpt lat="43.9809" lon="6.95008">
        <ele>1437.79</ele>
        <time>2015-09-19T10:02:12Z</time>
      </trkpt>
      <trkpt lat="43.98089" lon="6.95005">
        <ele>1438.27</ele>
        <time>2015-09-19T10:02:27Z</time>
      </trkpt>
      <trkpt lat="43.9809" lon="6.95003">
        <ele>1438.27</ele>
        <time>2015-09-19T10:02:41Z</time>
      </trkpt>
      <trkpt lat="43.9809" lon="6.95002">
        <ele>1438.27</ele>
        <time>2015-09-19T10:02:56Z</time>
      </trkpt>
      <trkpt lat="43.9809" lon="6.95003">
        <ele>1438.27</ele>
        <time>2015-09-19T10:03:05Z</time>
      </trkpt>
      <trkpt lat="43.9809" lon="6.95003">
        <ele>1438.27</ele>
        <time>2015-09-19T10:03:23Z</time>
      </trkpt>
      <trkpt lat="43.98091" lon="6.95003">
        <ele>1438.27</ele>
        <time>2015-09-19T10:03:43Z</time>
      </trkpt>
      <trkpt lat="43.98088" lon="6.95003">
        <ele>1439.71</ele>
        <time>2015-09-19T10:03:51Z</time>
      </trkpt>
      <trkpt lat="43.98086" lon="6.95003">
        <ele>1440.67</ele>
        <time>2015-09-19T10:03:58Z</time>
      </trkpt>
      <trkpt lat="43.98085" lon="6.95003">
        <ele>1441.15</ele>
        <time>2015-09-19T10:04:01Z</time>
      </trkpt>
      <trkpt lat="43.98082" lon="6.95004">
        <ele>1442.11</ele>
        <time>2015-09-19T10:04:08Z</time>
      </trkpt>
      <trkpt lat="43.98078" lon="6.95003">
        <ele>1443.56</ele>
        <time>2015-09-19T10:04:14Z</time>
      </trkpt>
      <trkpt lat="43.98076" lon="6.95001">
        <ele>1444.52</ele>
        <time>2015-09-19T10:04:20Z</time>
      </trkpt>
      <trkpt lat="43.98072" lon="6.95">
        <ele>1445.48</ele>
        <time>2015-09-19T10:04:26Z</time>
      </trkpt>
      <trkpt lat="43.9807" lon="6.94999">
        <ele>1446.44</ele>
        <time>2015-09-19T10:04:33Z</time>
      </trkpt>
      <trkpt lat="43.98066" lon="6.94999">
        <ele>1447.4</ele>
        <time>2015-09-19T10:04:40Z</time>
      </trkpt>
      <trkpt lat="43.98061" lon="6.94995">
        <ele>1448.84</ele>
        <time>2015-09-19T10:04:47Z</time>
      </trkpt>
      <trkpt lat="43.98058" lon="6.94994">
        <ele>1449.32</ele>
        <time>2015-09-19T10:04:54Z</time>
      </trkpt>
      <trkpt lat="43.98055" lon="6.94994">
        <ele>1450.29</ele>
        <time>2015-09-19T10:05:00Z</time>
      </trkpt>
      <trkpt lat="43.98052" lon="6.94993">
        <ele>1451.25</ele>
        <time>2015-09-19T10:05:03Z</time>
      </trkpt>
      <trkpt lat="43.9805" lon="6.94993">
        <ele>1452.21</ele>
        <time>2015-09-19T10:05:09Z</time>
      </trkpt>
      <trkpt lat="43.98048" lon="6.94991">
        <ele>1452.69</ele>
        <time>2015-09-19T10:05:16Z</time>
      </trkpt>
      <trkpt lat="43.98047" lon="6.94991">
        <ele>1453.65</ele>
        <time>2015-09-19T10:05:22Z</time>
      </trkpt>
      <trkpt lat="43.98044" lon="6.94991">
        <ele>1454.61</ele>
        <time>2015-09-19T10:05:28Z</time>
      </trkpt>
      <trkpt lat="43.98041" lon="6.9499">
        <ele>1455.57</ele>
        <time>2015-09-19T10:05:36Z</time>
      </trkpt>
      <trkpt lat="43.98036" lon="6.94989">
        <ele>1456.05</ele>
        <time>2015-09-19T10:05:43Z</time>
      </trkpt>
      <trkpt lat="43.98034" lon="6.94987">
        <ele>1457.02</ele>
        <time>2015-09-19T10:05:50Z</time>
      </trkpt>
      <trkpt lat="43.98031" lon="6.94984">
        <ele>1457.98</ele>
        <time>2015-09-19T10:05:57Z</time>
      </trkpt>
      <trkpt lat="43.98026" lon="6.94979">
        <ele>1458.46</ele>
        <time>2015-09-19T10:06:04Z</time>
      </trkpt>
      <trkpt lat="43.98022" lon="6.94976">
        <ele>1459.9</ele>
        <time>2015-09-19T10:06:11Z</time>
      </trkpt>
      <trkpt lat="43.98019" lon="6.94976">
        <ele>1461.34</ele>
        <time>2015-09-19T10:06:20Z</time>
      </trkpt>
      <trkpt lat="43.98017" lon="6.94974">
        <ele>1461.82</ele>
        <time>2015-09-19T10:06:26Z</time>
      </trkpt>
      <trkpt lat="43.98014" lon="6.94973">
        <ele>1462.78</ele>
        <time>2015-09-19T10:06:33Z</time>
      </trkpt>
      <trkpt lat="43.98011" lon="6.94972">
        <ele>1463.74</ele>
        <time>2015-09-19T10:06:40Z</time>
      </trkpt>
      <trkpt lat="43.98006" lon="6.94971">
        <ele>1465.19</ele>
        <time>2015-09-19T10:06:49Z</time>
      </trkpt>
      <trkpt lat="43.98003" lon="6.94967">
        <ele>1466.15</ele>
        <time>2015-09-19T10:06:57Z</time>
      </trkpt>
      <trkpt lat="43.97999" lon="6.94967">
        <ele>1467.59</ele>
        <time>2015-09-19T10:07:05Z</time>
      </trkpt>
      <trkpt lat="43.97997" lon="6.94967">
        <ele>1468.55</ele>
        <time>2015-09-19T10:07:12Z</time>
      </trkpt>
      <trkpt lat="43.97994" lon="6.94969">
        <ele>1469.99</ele>
        <time>2015-09-19T10:07:20Z</time>
      </trkpt>
      <trkpt lat="43.97992" lon="6.94971">
        <ele>1470.95</ele>
        <time>2015-09-19T10:07:28Z</time>
      </trkpt>
      <trkpt lat="43.97988" lon="6.94973">
        <ele>1471.92</ele>
        <time>2015-09-19T10:07:36Z</time>
      </trkpt>
      <trkpt lat="43.97984" lon="6.94975">
        <ele>1472.88</ele>
        <time>2015-09-19T10:07:42Z</time>
      </trkpt>
      <trkpt lat="43.97978" lon="6.94978">
        <ele>1473.36</ele>
        <time>2015-09-19T10:07:50Z</time>
      </trkpt>
      <trkpt lat="43.97973" lon="6.94979">
        <ele>1474.32</ele>
        <time>2015-09-19T10:07:59Z</time>
      </trkpt>
      <trkpt lat="43.9797" lon="6.94982">
        <ele>1475.28</ele>
        <time>2015-09-19T10:08:07Z</time>
      </trkpt>
      <trkpt lat="43.97967" lon="6.94987">
        <ele>1476.24</ele>
        <time>2015-09-19T10:08:14Z</time>
      </trkpt>
      <trkpt lat="43.97964" lon="6.94989">
        <ele>1477.2</ele>
        <time>2015-09-19T10:08:20Z</time>
      </trkpt>
      <trkpt lat="43.97961" lon="6.94992">
        <ele>1478.16</ele>
        <time>2015-09-19T10:08:28Z</time>
      </trkpt>
      <trkpt lat="43.97959" lon="6.94996">
        <ele>1478.65</ele>
        <time>2015-09-19T10:08:34Z</time>
      </trkpt>
      <trkpt lat="43.97957" lon="6.94997">
        <ele>1479.13</ele>
        <time>2015-09-19T10:08:39Z</time>
      </trkpt>
      <trkpt lat="43.97956" lon="6.94998">
        <ele>1479.13</ele>
        <time>2015-09-19T10:08:45Z</time>
      </trkpt>
      <trkpt lat="43.97956" lon="6.95001">
        <ele>1478.65</ele>
        <time>2015-09-19T10:08:54Z</time>
      </trkpt>
      <trkpt lat="43.97956" lon="6.95006">
        <ele>1478.65</ele>
        <time>2015-09-19T10:09:00Z</time>
      </trkpt>
      <trkpt lat="43.97958" lon="6.95007">
        <ele>1478.65</ele>
        <time>2015-09-19T10:09:06Z</time>
      </trkpt>
      <trkpt lat="43.97958" lon="6.95007">
        <ele>1478.65</ele>
        <time>2015-09-19T10:09:17Z</time>
      </trkpt>
      <trkpt lat="43.97958" lon="6.95007">
        <ele>1478.65</ele>
        <time>2015-09-19T10:09:23Z</time>
      </trkpt>
      <trkpt lat="43.97958" lon="6.95007">
        <ele>1478.65</ele>
        <time>2015-09-19T10:09:34Z</time>
      </trkpt>
      <trkpt lat="43.97958" lon="6.95007">
        <ele>1478.65</ele>
        <time>2015-09-19T10:09:41Z</time>
      </trkpt>
      <trkpt lat="43.97958" lon="6.95008">
        <ele>1478.65</ele>
        <time>2015-09-19T10:09:49Z</time>
      </trkpt>
      <trkpt lat="43.97958" lon="6.95008">
        <ele>1478.65</ele>
        <time>2015-09-19T10:10:00Z</time>
      </trkpt>
      <trkpt lat="43.97957" lon="6.95008">
        <ele>1478.65</ele>
        <time>2015-09-19T10:10:14Z</time>
      </trkpt>
      <trkpt lat="43.97957" lon="6.95008">
        <ele>1478.65</ele>
        <time>2015-09-19T10:10:22Z</time>
      </trkpt>
      <trkpt lat="43.97958" lon="6.95009">
        <ele>1479.13</ele>
        <time>2015-09-19T10:10:30Z</time>
      </trkpt>
      <trkpt lat="43.97958" lon="6.95009">
        <ele>1479.13</ele>
        <time>2015-09-19T10:10:39Z</time>
      </trkpt>
      <trkpt lat="43.97958" lon="6.95008">
        <ele>1479.13</ele>
        <time>2015-09-19T10:10:49Z</time>
      </trkpt>
      <trkpt lat="43.97959" lon="6.95009">
        <ele>1479.13</ele>
        <time>2015-09-19T10:10:58Z</time>
      </trkpt>
      <trkpt lat="43.97959" lon="6.9501">
        <ele>1479.13</ele>
        <time>2015-09-19T10:11:05Z</time>
      </trkpt>
      <trkpt lat="43.9796" lon="6.95011">
        <ele>1479.13</ele>
        <time>2015-09-19T10:11:21Z</time>
      </trkpt>
      <trkpt lat="43.97959" lon="6.95011">
        <ele>1479.13</ele>
        <time>2015-09-19T10:11:38Z</time>
      </trkpt>
      <trkpt lat="43.97959" lon="6.95011">
        <ele>1479.13</ele>
        <time>2015-09-19T10:11:46Z</time>
      </trkpt>
      <trkpt lat="43.97959" lon="6.95011">
        <ele>1479.13</ele>
        <time>2015-09-19T10:12:04Z</time>
      </trkpt>
      <trkpt lat="43.97959" lon="6.95011">
        <ele>1479.13</ele>
        <time>2015-09-19T10:12:14Z</time>
      </trkpt>
      <trkpt lat="43.97957" lon="6.9501">
        <ele>1479.13</ele>
        <time>2015-09-19T10:12:20Z</time>
      </trkpt>
      <trkpt lat="43.97956" lon="6.9501">
        <ele>1479.13</ele>
        <time>2015-09-19T10:12:30Z</time>
      </trkpt>
      <trkpt lat="43.97956" lon="6.95009">
        <ele>1479.13</ele>
        <time>2015-09-19T10:12:46Z</time>
      </trkpt>
      <trkpt lat="43.97955" lon="6.9501">
        <ele>1479.13</ele>
        <time>2015-09-19T10:13:02Z</time>
      </trkpt>
      <trkpt lat="43.97954" lon="6.9501">
        <ele>1479.13</ele>
        <time>2015-09-19T10:13:22Z</time>
      </trkpt>
      <trkpt lat="43.97954" lon="6.9501">
        <ele>1479.13</ele>
        <time>2015-09-19T10:13:32Z</time>
      </trkpt>
      <trkpt lat="43.97954" lon="6.95011">
        <ele>1479.13</ele>
        <time>2015-09-19T10:13:44Z</time>
      </trkpt>
      <trkpt lat="43.97954" lon="6.95009">
        <ele>1479.13</ele>
        <time>2015-09-19T10:13:49Z</time>
      </trkpt>
      <trkpt lat="43.97954" lon="6.95007">
        <ele>1479.13</ele>
        <time>2015-09-19T10:13:56Z</time>
      </trkpt>
      <trkpt lat="43.97954" lon="6.95007">
        <ele>1479.13</ele>
        <time>2015-09-19T10:14:11Z</time>
      </trkpt>
      <trkpt lat="43.97954" lon="6.95007">
        <ele>1479.13</ele>
        <time>2015-09-19T10:14:30Z</time>
      </trkpt>
      <trkpt lat="43.97954" lon="6.95007">
        <ele>1479.13</ele>
        <time>2015-09-19T10:14:36Z</time>
      </trkpt>
      <trkpt lat="43.97955" lon="6.95007">
        <ele>1479.13</ele>
        <time>2015-09-19T10:14:46Z</time>
      </trkpt>
      <trkpt lat="43.97956" lon="6.95009">
        <ele>1479.13</ele>
        <time>2015-09-19T10:15:02Z</time>
      </trkpt>
      <trkpt lat="43.97959" lon="6.95012">
        <ele>1479.13</ele>
        <time>2015-09-19T10:15:10Z</time>
      </trkpt>
      <trkpt lat="43.9796" lon="6.95013">
        <ele>1480.09</ele>
        <time>2015-09-19T10:15:19Z</time>
      </trkpt>
      <trkpt lat="43.97959" lon="6.95012">
        <ele>1479.13</ele>
        <time>2015-09-19T10:15:25Z</time>
      </trkpt>
      <trkpt lat="43.97958" lon="6.95012">
        <ele>1479.13</ele>
        <time>2015-09-19T10:15:31Z</time>
      </trkpt>
      <trkpt lat="43.97957" lon="6.95011">
        <ele>1479.13</ele>
        <time>2015-09-19T10:15:42Z</time>
      </trkpt>
      <trkpt lat="43.97956" lon="6.9501">
        <ele>1479.13</ele>
        <time>2015-09-19T10:15:59Z</time>
      </trkpt>
      <trkpt lat="43.97956" lon="6.9501">
        <ele>1479.13</ele>
        <time>2015-09-19T10:16:06Z</time>
      </trkpt>
      <trkpt lat="43.97956" lon="6.9501">
        <ele>1478.65</ele>
        <time>2015-09-19T10:16:15Z</time>
      </trkpt>
      <trkpt lat="43.97956" lon="6.95009">
        <ele>1479.13</ele>
        <time>2015-09-19T10:16:26Z</time>
      </trkpt>
      <trkpt lat="43.97956" lon="6.95009">
        <ele>1479.13</ele>
        <time>2015-09-19T10:16:28Z</time>
      </trkpt>
      <trkpt lat="43.97956" lon="6.9501">
        <ele>1479.13</ele>
        <time>2015-09-19T10:16:34Z</time>
      </trkpt>
      <trkpt lat="43.97956" lon="6.9501">
        <ele>1479.13</ele>
        <time>2015-09-19T10:16:40Z</time>
      </trkpt>
      <trkpt lat="43.97956" lon="6.9501">
        <ele>1479.13</ele>
        <time>2015-09-19T10:16:53Z</time>
      </trkpt>
      <trkpt lat="43.97956" lon="6.9501">
        <ele>1479.13</ele>
        <time>2015-09-19T10:17:04Z</time>
      </trkpt>
      <trkpt lat="43.97956" lon="6.95011">
        <ele>1479.13</ele>
        <time>2015-09-19T10:17:21Z</time>
      </trkpt>
      <trkpt lat="43.97956" lon="6.9501">
        <ele>1479.13</ele>
        <time>2015-09-19T10:17:33Z</time>
      </trkpt>
      <trkpt lat="43.97959" lon="6.95012">
        <ele>1479.13</ele>
        <time>2015-09-19T10:17:40Z</time>
      </trkpt>
      <trkpt lat="43.9796" lon="6.95013">
        <ele>1479.13</ele>
        <time>2015-09-19T10:17:42Z</time>
      </trkpt>
      <trkpt lat="43.97963" lon="6.95015">
        <ele>1479.61</ele>
        <time>2015-09-19T10:17:47Z</time>
      </trkpt>
      <trkpt lat="43.97967" lon="6.95024">
        <ele>1480.57</ele>
        <time>2015-09-19T10:17:56Z</time>
      </trkpt>
      <trkpt lat="43.9797" lon="6.95028">
        <ele>1481.53</ele>
        <time>2015-09-19T10:18:03Z</time>
      </trkpt>
      <trkpt lat="43.97972" lon="6.95033">
        <ele>1482.01</ele>
        <time>2015-09-19T10:18:09Z</time>
      </trkpt>
      <trkpt lat="43.97973" lon="6.95034">
        <ele>1482.01</ele>
        <time>2015-09-19T10:18:11Z</time>
      </trkpt>
      <trkpt lat="43.97977" lon="6.95039">
        <ele>1482.97</ele>
        <time>2015-09-19T10:18:18Z</time>
      </trkpt>
      <trkpt lat="43.97982" lon="6.95043">
        <ele>1483.45</ele>
        <time>2015-09-19T10:18:25Z</time>
      </trkpt>
      <trkpt lat="43.97988" lon="6.95046">
        <ele>1483.93</ele>
        <time>2015-09-19T10:18:34Z</time>
      </trkpt>
      <trkpt lat="43.97993" lon="6.95051">
        <ele>1484.41</ele>
        <time>2015-09-19T10:18:41Z</time>
      </trkpt>
      <trkpt lat="43.97998" lon="6.95055">
        <ele>1485.37</ele>
        <time>2015-09-19T10:18:48Z</time>
      </trkpt>
      <trkpt lat="43.98001" lon="6.95056">
        <ele>1485.37</ele>
        <time>2015-09-19T10:18:52Z</time>
      </trkpt>
      <trkpt lat="43.98006" lon="6.95061">
        <ele>1486.34</ele>
        <time>2015-09-19T10:19:00Z</time>
      </trkpt>
      <trkpt lat="43.9801" lon="6.95067">
        <ele>1487.3</ele>
        <time>2015-09-19T10:19:07Z</time>
      </trkpt>
      <trkpt lat="43.98012" lon="6.95073">
        <ele>1488.26</ele>
        <time>2015-09-19T10:19:13Z</time>
      </trkpt>
      <trkpt lat="43.98015" lon="6.95079">
        <ele>1489.22</ele>
        <time>2015-09-19T10:19:21Z</time>
      </trkpt>
      <trkpt lat="43.98016" lon="6.9508">
        <ele>1489.22</ele>
        <time>2015-09-19T10:19:37Z</time>
      </trkpt>
      <trkpt lat="43.98015" lon="6.95081">
        <ele>1489.22</ele>
        <time>2015-09-19T10:19:52Z</time>
      </trkpt>
      <trkpt lat="43.98016" lon="6.95081">
        <ele>1489.22</ele>
        <time>2015-09-19T10:20:04Z</time>
      </trkpt>
      <trkpt lat="43.98018" lon="6.95088">
        <ele>1490.18</ele>
        <time>2015-09-19T10:20:12Z</time>
      </trkpt>
      <trkpt lat="43.98019" lon="6.95092">
        <ele>1490.66</ele>
        <time>2015-09-19T10:20:17Z</time>
      </trkpt>
      <trkpt lat="43.9802" lon="6.95097">
        <ele>1491.14</ele>
        <time>2015-09-19T10:20:22Z</time>
      </trkpt>
      <trkpt lat="43.98021" lon="6.95101">
        <ele>1491.14</ele>
        <time>2015-09-19T10:20:25Z</time>
      </trkpt>
      <trkpt lat="43.98022" lon="6.95108">
        <ele>1492.1</ele>
        <time>2015-09-19T10:20:31Z</time>
      </trkpt>
      <trkpt lat="43.98022" lon="6.95114">
        <ele>1492.58</ele>
        <time>2015-09-19T10:20:36Z</time>
      </trkpt>
      <trkpt lat="43.98025" lon="6.95121">
        <ele>1493.06</ele>
        <time>2015-09-19T10:20:43Z</time>
      </trkpt>
      <trkpt lat="43.98027" lon="6.95126">
        <ele>1493.55</ele>
        <time>2015-09-19T10:20:49Z</time>
      </trkpt>
      <trkpt lat="43.98028" lon="6.95132">
        <ele>1494.51</ele>
        <time>2015-09-19T10:20:56Z</time>
      </trkpt>
      <trkpt lat="43.98033" lon="6.95138">
        <ele>1495.47</ele>
        <time>2015-09-19T10:21:04Z</time>
      </trkpt>
      <trkpt lat="43.98034" lon="6.95141">
        <ele>1495.47</ele>
        <time>2015-09-19T10:21:07Z</time>
      </trkpt>
      <trkpt lat="43.98037" lon="6.95147">
        <ele>1496.43</ele>
        <time>2015-09-19T10:21:15Z</time>
      </trkpt>
      <trkpt lat="43.9804" lon="6.95151">
        <ele>1497.39</ele>
        <time>2015-09-19T10:21:22Z</time>
      </trkpt>
      <trkpt lat="43.98041" lon="6.95153">
        <ele>1497.87</ele>
        <time>2015-09-19T10:21:24Z</time>
      </trkpt>
      <trkpt lat="43.98045" lon="6.95156">
        <ele>1498.35</ele>
        <time>2015-09-19T10:21:31Z</time>
      </trkpt>
      <trkpt lat="43.98048" lon="6.95162">
        <ele>1499.31</ele>
        <time>2015-09-19T10:21:39Z</time>
      </trkpt>
      <trkpt lat="43.98051" lon="6.95166">
        <ele>1500.27</ele>
        <time>2015-09-19T10:21:45Z</time>
      </trkpt>
      <trkpt lat="43.98056" lon="6.95174">
        <ele>1500.76</ele>
        <time>2015-09-19T10:21:52Z</time>
      </trkpt>
      <trkpt lat="43.9806" lon="6.95182">
        <ele>1501.72</ele>
        <time>2015-09-19T10:22:00Z</time>
      </trkpt>
      <trkpt lat="43.98063" lon="6.95186">
        <ele>1502.68</ele>
        <time>2015-09-19T10:22:07Z</time>
      </trkpt>
      <trkpt lat="43.98065" lon="6.95189">
        <ele>1504.12</ele>
        <time>2015-09-19T10:22:15Z</time>
      </trkpt>
      <trkpt lat="43.98069" lon="6.95196">
        <ele>1504.6</ele>
        <time>2015-09-19T10:22:22Z</time>
      </trkpt>
      <trkpt lat="43.9807" lon="6.95198">
        <ele>1504.6</ele>
        <time>2015-09-19T10:22:24Z</time>
      </trkpt>
      <trkpt lat="43.98074" lon="6.95202">
        <ele>1506.04</ele>
        <time>2015-09-19T10:22:32Z</time>
      </trkpt>
      <trkpt lat="43.98077" lon="6.95207">
        <ele>1506.52</ele>
        <time>2015-09-19T10:22:39Z</time>
      </trkpt>
      <trkpt lat="43.9808" lon="6.95213">
        <ele>1507.48</ele>
        <time>2015-09-19T10:22:47Z</time>
      </trkpt>
      <trkpt lat="43.98082" lon="6.95216">
        <ele>1508.45</ele>
        <time>2015-09-19T10:22:54Z</time>
      </trkpt>
      <trkpt lat="43.98085" lon="6.95221">
        <ele>1509.41</ele>
        <time>2015-09-19T10:23:01Z</time>
      </trkpt>
      <trkpt lat="43.98086" lon="6.95223">
        <ele>1510.37</ele>
        <time>2015-09-19T10:23:07Z</time>
      </trkpt>
      <trkpt lat="43.98089" lon="6.95228">
        <ele>1511.33</ele>
        <time>2015-09-19T10:23:14Z</time>
      </trkpt>
      <trkpt lat="43.98093" lon="6.95235">
        <ele>1512.29</ele>
        <time>2015-09-19T10:23:22Z</time>
      </trkpt>
      <trkpt lat="43.98096" lon="6.95242">
        <ele>1513.25</ele>
        <time>2015-09-19T10:23:30Z</time>
      </trkpt>
      <trkpt lat="43.98099" lon="6.95248">
        <ele>1514.21</ele>
        <time>2015-09-19T10:23:37Z</time>
      </trkpt>
      <trkpt lat="43.98102" lon="6.95256">
        <ele>1515.18</ele>
        <time>2015-09-19T10:23:45Z</time>
      </trkpt>
      <trkpt lat="43.98104" lon="6.95259">
        <ele>1516.14</ele>
        <time>2015-09-19T10:23:51Z</time>
      </trkpt>
      <trkpt lat="43.98107" lon="6.95263">
        <ele>1517.1</ele>
        <time>2015-09-19T10:23:59Z</time>
      </trkpt>
      <trkpt lat="43.98109" lon="6.9527">
        <ele>1518.06</ele>
        <time>2015-09-19T10:24:06Z</time>
      </trkpt>
      <trkpt lat="43.98111" lon="6.95273">
        <ele>1518.54</ele>
        <time>2015-09-19T10:24:12Z</time>
      </trkpt>
      <trkpt lat="43.98111" lon="6.95276">
        <ele>1519.5</ele>
        <time>2015-09-19T10:24:19Z</time>
      </trkpt>
      <trkpt lat="43.98111" lon="6.95278">
        <ele>1520.46</ele>
        <time>2015-09-19T10:24:25Z</time>
      </trkpt>
      <trkpt lat="43.98112" lon="6.95283">
        <ele>1521.9</ele>
        <time>2015-09-19T10:24:35Z</time>
      </trkpt>
      <trkpt lat="43.98113" lon="6.95289">
        <ele>1522.39</ele>
        <time>2015-09-19T10:24:41Z</time>
      </trkpt>
      <trkpt lat="43.98113" lon="6.95295">
        <ele>1523.83</ele>
        <time>2015-09-19T10:24:47Z</time>
      </trkpt>
      <trkpt lat="43.98114" lon="6.95299">
        <ele>1524.31</ele>
        <time>2015-09-19T10:24:53Z</time>
      </trkpt>
      <trkpt lat="43.98114" lon="6.95302">
        <ele>1525.27</ele>
        <time>2015-09-19T10:25:01Z</time>
      </trkpt>
      <trkpt lat="43.98115" lon="6.95308">
        <ele>1526.71</ele>
        <time>2015-09-19T10:25:08Z</time>
      </trkpt>
      <trkpt lat="43.98116" lon="6.95311">
        <ele>1527.19</ele>
        <time>2015-09-19T10:25:14Z</time>
      </trkpt>
      <trkpt lat="43.98118" lon="6.95317">
        <ele>1528.15</ele>
        <time>2015-09-19T10:25:22Z</time>
      </trkpt>
      <trkpt lat="43.98118" lon="6.95321">
        <ele>1528.63</ele>
        <time>2015-09-19T10:25:30Z</time>
      </trkpt>
      <trkpt lat="43.98117" lon="6.95321">
        <ele>1529.59</ele>
        <time>2015-09-19T10:25:38Z</time>
      </trkpt>
      <trkpt lat="43.98118" lon="6.95321">
        <ele>1530.08</ele>
        <time>2015-09-19T10:25:45Z</time>
      </trkpt>
      <trkpt lat="43.9812" lon="6.95325">
        <ele>1531.04</ele>
        <time>2015-09-19T10:25:53Z</time>
      </trkpt>
      <trkpt lat="43.98122" lon="6.95329">
        <ele>1532</ele>
        <time>2015-09-19T10:25:59Z</time>
      </trkpt>
      <trkpt lat="43.98124" lon="6.95333">
        <ele>1532.48</ele>
        <time>2015-09-19T10:26:05Z</time>
      </trkpt>
      <trkpt lat="43.98124" lon="6.95335">
        <ele>1533.44</ele>
        <time>2015-09-19T10:26:13Z</time>
      </trkpt>
      <trkpt lat="43.98125" lon="6.95336">
        <ele>1533.92</ele>
        <time>2015-09-19T10:26:18Z</time>
      </trkpt>
      <trkpt lat="43.98125" lon="6.95338">
        <ele>1535.84</ele>
        <time>2015-09-19T10:26:27Z</time>
      </trkpt>
      <trkpt lat="43.98126" lon="6.95341">
        <ele>1536.32</ele>
        <time>2015-09-19T10:26:33Z</time>
      </trkpt>
      <trkpt lat="43.98128" lon="6.95345">
        <ele>1537.29</ele>
        <time>2015-09-19T10:26:39Z</time>
      </trkpt>
      <trkpt lat="43.98129" lon="6.95351">
        <ele>1537.29</ele>
        <time>2015-09-19T10:26:45Z</time>
      </trkpt>
      <trkpt lat="43.98131" lon="6.95357">
        <ele>1538.73</ele>
        <time>2015-09-19T10:26:52Z</time>
      </trkpt>
      <trkpt lat="43.9813" lon="6.9536">
        <ele>1538.73</ele>
        <time>2015-09-19T10:27:00Z</time>
      </trkpt>
      <trkpt lat="43.98131" lon="6.95362">
        <ele>1539.69</ele>
        <time>2015-09-19T10:27:06Z</time>
      </trkpt>
      <trkpt lat="43.98132" lon="6.95368">
        <ele>1540.65</ele>
        <time>2015-09-19T10:27:14Z</time>
      </trkpt>
      <trkpt lat="43.98133" lon="6.95372">
        <ele>1541.61</ele>
        <time>2015-09-19T10:27:22Z</time>
      </trkpt>
      <trkpt lat="43.98134" lon="6.95375">
        <ele>1542.57</ele>
        <time>2015-09-19T10:27:29Z</time>
      </trkpt>
      <trkpt lat="43.98135" lon="6.95378">
        <ele>1543.53</ele>
        <time>2015-09-19T10:27:36Z</time>
      </trkpt>
      <trkpt lat="43.98136" lon="6.95383">
        <ele>1544.5</ele>
        <time>2015-09-19T10:27:42Z</time>
      </trkpt>
      <trkpt lat="43.98139" lon="6.95385">
        <ele>1545.46</ele>
        <time>2015-09-19T10:27:48Z</time>
      </trkpt>
      <trkpt lat="43.9814" lon="6.95388">
        <ele>1545.94</ele>
        <time>2015-09-19T10:27:54Z</time>
      </trkpt>
      <trkpt lat="43.98141" lon="6.9539">
        <ele>1546.9</ele>
        <time>2015-09-19T10:27:59Z</time>
      </trkpt>
      <trkpt lat="43.98142" lon="6.95393">
        <ele>1547.38</ele>
        <time>2015-09-19T10:28:05Z</time>
      </trkpt>
      <trkpt lat="43.98143" lon="6.95397">
        <ele>1548.34</ele>
        <time>2015-09-19T10:28:12Z</time>
      </trkpt>
      <trkpt lat="43.98143" lon="6.95399">
        <ele>1548.82</ele>
        <time>2015-09-19T10:28:18Z</time>
      </trkpt>
      <trkpt lat="43.98144" lon="6.954">
        <ele>1549.78</ele>
        <time>2015-09-19T10:28:26Z</time>
      </trkpt>
      <trkpt lat="43.98143" lon="6.95401">
        <ele>1549.78</ele>
        <time>2015-09-19T10:28:42Z</time>
      </trkpt>
      <trkpt lat="43.98143" lon="6.95401">
        <ele>1549.78</ele>
        <time>2015-09-19T10:29:04Z</time>
      </trkpt>
      <trkpt lat="43.98144" lon="6.95401">
        <ele>1550.74</ele>
        <time>2015-09-19T10:29:21Z</time>
      </trkpt>
      <trkpt lat="43.98144" lon="6.95401">
        <ele>1549.78</ele>
        <time>2015-09-19T10:29:39Z</time>
      </trkpt>
      <trkpt lat="43.98144" lon="6.95401">
        <ele>1549.78</ele>
        <time>2015-09-19T10:29:58Z</time>
      </trkpt>
      <trkpt lat="43.98144" lon="6.95401">
        <ele>1549.78</ele>
        <time>2015-09-19T10:30:14Z</time>
      </trkpt>
      <trkpt lat="43.98145" lon="6.95401">
        <ele>1549.3</ele>
        <time>2015-09-19T10:30:33Z</time>
      </trkpt>
      <trkpt lat="43.98145" lon="6.95402">
        <ele>1549.3</ele>
        <time>2015-09-19T10:30:49Z</time>
      </trkpt>
      <trkpt lat="43.98145" lon="6.95402">
        <ele>1549.78</ele>
        <time>2015-09-19T10:31:06Z</time>
      </trkpt>
      <trkpt lat="43.98145" lon="6.95404">
        <ele>1549.78</ele>
        <time>2015-09-19T10:31:18Z</time>
      </trkpt>
      <trkpt lat="43.98147" lon="6.95408">
        <ele>1551.22</ele>
        <time>2015-09-19T10:31:25Z</time>
      </trkpt>
      <trkpt lat="43.98149" lon="6.95412">
        <ele>1552.67</ele>
        <time>2015-09-19T10:31:31Z</time>
      </trkpt>
      <trkpt lat="43.98149" lon="6.95417">
        <ele>1553.15</ele>
        <time>2015-09-19T10:31:37Z</time>
      </trkpt>
      <trkpt lat="43.98151" lon="6.95421">
        <ele>1554.11</ele>
        <time>2015-09-19T10:31:44Z</time>
      </trkpt>
      <trkpt lat="43.98151" lon="6.95425">
        <ele>1555.55</ele>
        <time>2015-09-19T10:31:51Z</time>
      </trkpt>
      <trkpt lat="43.98151" lon="6.9543">
        <ele>1556.51</ele>
        <time>2015-09-19T10:31:58Z</time>
      </trkpt>
      <trkpt lat="43.98153" lon="6.95434">
        <ele>1557.47</ele>
        <time>2015-09-19T10:32:04Z</time>
      </trkpt>
      <trkpt lat="43.98154" lon="6.95438">
        <ele>1558.43</ele>
        <time>2015-09-19T10:32:10Z</time>
      </trkpt>
      <trkpt lat="43.98156" lon="6.95444">
        <ele>1559.4</ele>
        <time>2015-09-19T10:32:17Z</time>
      </trkpt>
      <trkpt lat="43.98157" lon="6.95447">
        <ele>1560.36</ele>
        <time>2015-09-19T10:32:23Z</time>
      </trkpt>
      <trkpt lat="43.98157" lon="6.95451">
        <ele>1561.32</ele>
        <time>2015-09-19T10:32:29Z</time>
      </trkpt>
      <trkpt lat="43.98158" lon="6.95455">
        <ele>1561.8</ele>
        <time>2015-09-19T10:32:35Z</time>
      </trkpt>
      <trkpt lat="43.98157" lon="6.95456">
        <ele>1562.28</ele>
        <time>2015-09-19T10:32:44Z</time>
      </trkpt>
      <trkpt lat="43.98157" lon="6.95455">
        <ele>1562.28</ele>
        <time>2015-09-19T10:32:56Z</time>
      </trkpt>
      <trkpt lat="43.98159" lon="6.95457">
        <ele>1562.76</ele>
        <time>2015-09-19T10:33:02Z</time>
      </trkpt>
      <trkpt lat="43.98158" lon="6.95459">
        <ele>1563.24</ele>
        <time>2015-09-19T10:33:12Z</time>
      </trkpt>
      <trkpt lat="43.98159" lon="6.95463">
        <ele>1564.2</ele>
        <time>2015-09-19T10:33:19Z</time>
      </trkpt>
      <trkpt lat="43.98161" lon="6.95469">
        <ele>1565.64</ele>
        <time>2015-09-19T10:33:26Z</time>
      </trkpt>
      <trkpt lat="43.98163" lon="6.95474">
        <ele>1566.61</ele>
        <time>2015-09-19T10:33:33Z</time>
      </trkpt>
      <trkpt lat="43.98165" lon="6.95477">
        <ele>1568.05</ele>
        <time>2015-09-19T10:33:40Z</time>
      </trkpt>
      <trkpt lat="43.98166" lon="6.95483">
        <ele>1569.49</ele>
        <time>2015-09-19T10:33:47Z</time>
      </trkpt>
      <trkpt lat="43.98169" lon="6.95487">
        <ele>1569.97</ele>
        <time>2015-09-19T10:33:53Z</time>
      </trkpt>
      <trkpt lat="43.9817" lon="6.95491">
        <ele>1571.41</ele>
        <time>2015-09-19T10:34:00Z</time>
      </trkpt>
      <trkpt lat="43.98171" lon="6.95495">
        <ele>1572.85</ele>
        <time>2015-09-19T10:34:08Z</time>
      </trkpt>
      <trkpt lat="43.98174" lon="6.95501">
        <ele>1573.82</ele>
        <time>2015-09-19T10:34:16Z</time>
      </trkpt>
      <trkpt lat="43.98176" lon="6.95507">
        <ele>1575.26</ele>
        <time>2015-09-19T10:34:23Z</time>
      </trkpt>
      <trkpt lat="43.98177" lon="6.95508">
        <ele>1575.74</ele>
        <time>2015-09-19T10:34:29Z</time>
      </trkpt>
      <trkpt lat="43.9818" lon="6.95514">
        <ele>1576.7</ele>
        <time>2015-09-19T10:34:37Z</time>
      </trkpt>
      <trkpt lat="43.98181" lon="6.95516">
        <ele>1577.66</ele>
        <time>2015-09-19T10:34:43Z</time>
      </trkpt>
      <trkpt lat="43.98182" lon="6.95521">
        <ele>1578.62</ele>
        <time>2015-09-19T10:34:49Z</time>
      </trkpt>
      <trkpt lat="43.98184" lon="6.95525">
        <ele>1580.06</ele>
        <time>2015-09-19T10:34:55Z</time>
      </trkpt>
      <trkpt lat="43.98185" lon="6.95532">
        <ele>1580.54</ele>
        <time>2015-09-19T10:35:03Z</time>
      </trkpt>
      <trkpt lat="43.98184" lon="6.9554">
        <ele>1581.99</ele>
        <time>2015-09-19T10:35:13Z</time>
      </trkpt>
      <trkpt lat="43.98183" lon="6.95548">
        <ele>1582.95</ele>
        <time>2015-09-19T10:35:22Z</time>
      </trkpt>
      <trkpt lat="43.98184" lon="6.95552">
        <ele>1583.91</ele>
        <time>2015-09-19T10:35:28Z</time>
      </trkpt>
      <trkpt lat="43.98186" lon="6.95556">
        <ele>1584.87</ele>
        <time>2015-09-19T10:35:35Z</time>
      </trkpt>
      <trkpt lat="43.98187" lon="6.95562">
        <ele>1585.35</ele>
        <time>2015-09-19T10:35:42Z</time>
      </trkpt>
      <trkpt lat="43.9819" lon="6.95561">
        <ele>1586.31</ele>
        <time>2015-09-19T10:35:48Z</time>
      </trkpt>
      <trkpt lat="43.9819" lon="6.95562">
        <ele>1586.79</ele>
        <time>2015-09-19T10:35:54Z</time>
      </trkpt>
      <trkpt lat="43.98193" lon="6.95566">
        <ele>1587.27</ele>
        <time>2015-09-19T10:35:59Z</time>
      </trkpt>
      <trkpt lat="43.98196" lon="6.95563">
        <ele>1588.24</ele>
        <time>2015-09-19T10:36:08Z</time>
      </trkpt>
      <trkpt lat="43.982" lon="6.95562">
        <ele>1589.2</ele>
        <time>2015-09-19T10:36:15Z</time>
      </trkpt>
      <trkpt lat="43.98204" lon="6.95563">
        <ele>1589.68</ele>
        <time>2015-09-19T10:36:21Z</time>
      </trkpt>
      <trkpt lat="43.98206" lon="6.95563">
        <ele>1591.12</ele>
        <time>2015-09-19T10:36:27Z</time>
      </trkpt>
      <trkpt lat="43.98208" lon="6.95566">
        <ele>1591.6</ele>
        <time>2015-09-19T10:36:33Z</time>
      </trkpt>
      <trkpt lat="43.9821" lon="6.9557">
        <ele>1591.6</ele>
        <time>2015-09-19T10:36:39Z</time>
      </trkpt>
      <trkpt lat="43.98212" lon="6.95571">
        <ele>1591.12</ele>
        <time>2015-09-19T10:36:45Z</time>
      </trkpt>
      <trkpt lat="43.98215" lon="6.95576">
        <ele>1592.56</ele>
        <time>2015-09-19T10:36:53Z</time>
      </trkpt>
      <trkpt lat="43.98215" lon="6.9558">
        <ele>1593.04</ele>
        <time>2015-09-19T10:36:58Z</time>
      </trkpt>
      <trkpt lat="43.98215" lon="6.9558">
        <ele>1593.04</ele>
        <time>2015-09-19T10:36:59Z</time>
      </trkpt>
      <trkpt lat="43.98217" lon="6.95581">
        <ele>1593.52</ele>
        <time>2015-09-19T10:37:05Z</time>
      </trkpt>
      <trkpt lat="43.98219" lon="6.95579">
        <ele>1594</ele>
        <time>2015-09-19T10:37:11Z</time>
      </trkpt>
      <trkpt lat="43.9822" lon="6.95577">
        <ele>1595.45</ele>
        <time>2015-09-19T10:37:17Z</time>
      </trkpt>
      <trkpt lat="43.98221" lon="6.95577">
        <ele>1595.93</ele>
        <time>2015-09-19T10:37:22Z</time>
      </trkpt>
      <trkpt lat="43.98223" lon="6.95578">
        <ele>1596.41</ele>
        <time>2015-09-19T10:37:27Z</time>
      </trkpt>
      <trkpt lat="43.98223" lon="6.95578">
        <ele>1596.41</ele>
        <time>2015-09-19T10:37:35Z</time>
      </trkpt>
      <trkpt lat="43.98223" lon="6.95578">
        <ele>1596.89</ele>
        <time>2015-09-19T10:37:47Z</time>
      </trkpt>
      <trkpt lat="43.98224" lon="6.95579">
        <ele>1596.89</ele>
        <time>2015-09-19T10:37:55Z</time>
      </trkpt>
      <trkpt lat="43.98224" lon="6.95579">
        <ele>1596.89</ele>
        <time>2015-09-19T10:38:10Z</time>
      </trkpt>
      <trkpt lat="43.98224" lon="6.95579">
        <ele>1596.89</ele>
        <time>2015-09-19T10:38:24Z</time>
      </trkpt>
      <trkpt lat="43.98225" lon="6.95579">
        <ele>1596.89</ele>
        <time>2015-09-19T10:38:33Z</time>
      </trkpt>
      <trkpt lat="43.98224" lon="6.95579">
        <ele>1596.89</ele>
        <time>2015-09-19T10:38:48Z</time>
      </trkpt>
      <trkpt lat="43.98225" lon="6.9558">
        <ele>1596.89</ele>
        <time>2015-09-19T10:38:55Z</time>
      </trkpt>
      <trkpt lat="43.98224" lon="6.95579">
        <ele>1596.41</ele>
        <time>2015-09-19T10:39:02Z</time>
      </trkpt>
      <trkpt lat="43.98224" lon="6.95579">
        <ele>1596.89</ele>
        <time>2015-09-19T10:39:24Z</time>
      </trkpt>
      <trkpt lat="43.98224" lon="6.95578">
        <ele>1596.89</ele>
        <time>2015-09-19T10:39:40Z</time>
      </trkpt>
      <trkpt lat="43.98224" lon="6.95578">
        <ele>1596.89</ele>
        <time>2015-09-19T10:39:51Z</time>
      </trkpt>
      <trkpt lat="43.98225" lon="6.95579">
        <ele>1596.89</ele>
        <time>2015-09-19T10:40:03Z</time>
      </trkpt>
      <trkpt lat="43.98225" lon="6.9558">
        <ele>1596.89</ele>
        <time>2015-09-19T10:40:20Z</time>
      </trkpt>
      <trkpt lat="43.98225" lon="6.9558">
        <ele>1596.89</ele>
        <time>2015-09-19T10:40:30Z</time>
      </trkpt>
      <trkpt lat="43.98225" lon="6.95579">
        <ele>1596.89</ele>
        <time>2015-09-19T10:40:42Z</time>
      </trkpt>
      <trkpt lat="43.98225" lon="6.9558">
        <ele>1596.41</ele>
        <time>2015-09-19T10:40:52Z</time>
      </trkpt>
      <trkpt lat="43.98225" lon="6.9558">
        <ele>1596.41</ele>
        <time>2015-09-19T10:40:59Z</time>
      </trkpt>
      <trkpt lat="43.98227" lon="6.95579">
        <ele>1595.93</ele>
        <time>2015-09-19T10:41:05Z</time>
      </trkpt>
      <trkpt lat="43.98228" lon="6.95579">
        <ele>1595.45</ele>
        <time>2015-09-19T10:41:11Z</time>
      </trkpt>
      <trkpt lat="43.98231" lon="6.95585">
        <ele>1594.96</ele>
        <time>2015-09-19T10:41:18Z</time>
      </trkpt>
      <trkpt lat="43.98231" lon="6.95592">
        <ele>1594</ele>
        <time>2015-09-19T10:41:25Z</time>
      </trkpt>
      <trkpt lat="43.9823" lon="6.95599">
        <ele>1593.52</ele>
        <time>2015-09-19T10:41:33Z</time>
      </trkpt>
      <trkpt lat="43.98234" lon="6.95607">
        <ele>1593.04</ele>
        <time>2015-09-19T10:41:41Z</time>
      </trkpt>
      <trkpt lat="43.98234" lon="6.95609">
        <ele>1593.04</ele>
        <time>2015-09-19T10:41:43Z</time>
      </trkpt>
      <trkpt lat="43.98237" lon="6.9561">
        <ele>1593.04</ele>
        <time>2015-09-19T10:41:47Z</time>
      </trkpt>
      <trkpt lat="43.98242" lon="6.95615">
        <ele>1593.04</ele>
        <time>2015-09-19T10:41:54Z</time>
      </trkpt>
      <trkpt lat="43.98242" lon="6.95615">
        <ele>1593.04</ele>
        <time>2015-09-19T10:41:55Z</time>
      </trkpt>
      <trkpt lat="43.98248" lon="6.95615">
        <ele>1593.04</ele>
        <time>2015-09-19T10:42:03Z</time>
      </trkpt>
      <trkpt lat="43.98254" lon="6.95613">
        <ele>1593.52</ele>
        <time>2015-09-19T10:42:10Z</time>
      </trkpt>
      <trkpt lat="43.9826" lon="6.95613">
        <ele>1593.52</ele>
        <time>2015-09-19T10:42:17Z</time>
      </trkpt>
      <trkpt lat="43.98261" lon="6.95613">
        <ele>1593.52</ele>
        <time>2015-09-19T10:42:18Z</time>
      </trkpt>
      <trkpt lat="43.98264" lon="6.95613">
        <ele>1593.04</ele>
        <time>2015-09-19T10:42:26Z</time>
      </trkpt>
      <trkpt lat="43.98264" lon="6.95613">
        <ele>1593.04</ele>
        <time>2015-09-19T10:42:38Z</time>
      </trkpt>
      <trkpt lat="43.98264" lon="6.95613">
        <ele>1593.04</ele>
        <time>2015-09-19T10:42:55Z</time>
      </trkpt>
      <trkpt lat="43.98263" lon="6.95613">
        <ele>1593.52</ele>
        <time>2015-09-19T10:43:10Z</time>
      </trkpt>
      <trkpt lat="43.98258" lon="6.95613">
        <ele>1594</ele>
        <time>2015-09-19T10:43:16Z</time>
      </trkpt>
      <trkpt lat="43.98259" lon="6.95607">
        <ele>1595.45</ele>
        <time>2015-09-19T10:43:22Z</time>
      </trkpt>
      <trkpt lat="43.9826" lon="6.95605">
        <ele>1594.96</ele>
        <time>2015-09-19T10:43:29Z</time>
      </trkpt>
      <trkpt lat="43.9826" lon="6.95603">
        <ele>1595.93</ele>
        <time>2015-09-19T10:43:36Z</time>
      </trkpt>
      <trkpt lat="43.9826" lon="6.95603">
        <ele>1595.45</ele>
        <time>2015-09-19T10:43:48Z</time>
      </trkpt>
      <trkpt lat="43.9826" lon="6.95604">
        <ele>1595.93</ele>
        <time>2015-09-19T10:44:01Z</time>
      </trkpt>
      <trkpt lat="43.98259" lon="6.95607">
        <ele>1594.48</ele>
        <time>2015-09-19T10:44:06Z</time>
      </trkpt>
      <trkpt lat="43.98257" lon="6.95613">
        <ele>1594</ele>
        <time>2015-09-19T10:44:14Z</time>
      </trkpt>
      <trkpt lat="43.98257" lon="6.95613">
        <ele>1593.04</ele>
        <time>2015-09-19T10:44:21Z</time>
      </trkpt>
      <trkpt lat="43.98257" lon="6.95613">
        <ele>1593.04</ele>
        <time>2015-09-19T10:44:34Z</time>
      </trkpt>
      <trkpt lat="43.98256" lon="6.95614">
        <ele>1593.04</ele>
        <time>2015-09-19T10:44:48Z</time>
      </trkpt>
      <trkpt lat="43.98256" lon="6.95614">
        <ele>1593.04</ele>
        <time>2015-09-19T10:45:03Z</time>
      </trkpt>
      <trkpt lat="43.98256" lon="6.95613">
        <ele>1593.04</ele>
        <time>2015-09-19T10:45:16Z</time>
      </trkpt>
      <trkpt lat="43.98256" lon="6.95613">
        <ele>1593.04</ele>
        <time>2015-09-19T10:45:24Z</time>
      </trkpt>
      <trkpt lat="43.98256" lon="6.95614">
        <ele>1593.04</ele>
        <time>2015-09-19T10:45:33Z</time>
      </trkpt>
      <trkpt lat="43.98257" lon="6.95614">
        <ele>1593.04</ele>
        <time>2015-09-19T10:45:47Z</time>
      </trkpt>
      <trkpt lat="43.98257" lon="6.95614">
        <ele>1589.68</ele>
        <time>2015-09-19T10:45:49Z</time>
      </trkpt>
      <trkpt lat="43.98257" lon="6.95614">
        <ele>1594</ele>
        <time>2015-09-19T10:45:50Z</time>
      </trkpt>
      <trkpt lat="43.98257" lon="6.95614">
        <ele>1593.52</ele>
        <time>2015-09-19T10:45:56Z</time>
      </trkpt>
      <trkpt lat="43.98257" lon="6.95613">
        <ele>1593.04</ele>
        <time>2015-09-19T10:46:11Z</time>
      </trkpt>
      <trkpt lat="43.98257" lon="6.95613">
        <ele>1593.04</ele>
        <time>2015-09-19T10:46:22Z</time>
      </trkpt>
      <trkpt lat="43.98257" lon="6.95613">
        <ele>1593.04</ele>
        <time>2015-09-19T10:46:37Z</time>
      </trkpt>
      <trkpt lat="43.98256" lon="6.95613">
        <ele>1593.04</ele>
        <time>2015-09-19T10:46:45Z</time>
      </trkpt>
      <trkpt lat="43.98257" lon="6.95613">
        <ele>1593.04</ele>
        <time>2015-09-19T10:46:54Z</time>
      </trkpt>
      <trkpt lat="43.98257" lon="6.95613">
        <ele>1593.04</ele>
        <time>2015-09-19T10:47:07Z</time>
      </trkpt>
      <trkpt lat="43.98257" lon="6.95613">
        <ele>1593.04</ele>
        <time>2015-09-19T10:47:14Z</time>
      </trkpt>
      <trkpt lat="43.98257" lon="6.95613">
        <ele>1593.04</ele>
        <time>2015-09-19T10:47:31Z</time>
      </trkpt>
      <trkpt lat="43.98257" lon="6.95613">
        <ele>1593.04</ele>
        <time>2015-09-19T10:47:47Z</time>
      </trkpt>
      <trkpt lat="43.98257" lon="6.95613">
        <ele>1593.04</ele>
        <time>2015-09-19T10:48:02Z</time>
      </trkpt>
      <trkpt lat="43.98257" lon="6.95613">
        <ele>1592.56</ele>
        <time>2015-09-19T10:48:19Z</time>
      </trkpt>
      <trkpt lat="43.98257" lon="6.95613">
        <ele>1593.04</ele>
        <time>2015-09-19T10:48:36Z</time>
      </trkpt>
      <trkpt lat="43.98257" lon="6.95613">
        <ele>1592.56</ele>
        <time>2015-09-19T10:48:55Z</time>
      </trkpt>
      <trkpt lat="43.98257" lon="6.95612">
        <ele>1593.04</ele>
        <time>2015-09-19T10:49:10Z</time>
      </trkpt>
      <trkpt lat="43.98256" lon="6.95612">
        <ele>1593.04</ele>
        <time>2015-09-19T10:49:27Z</time>
      </trkpt>
      <trkpt lat="43.98256" lon="6.95612">
        <ele>1592.56</ele>
        <time>2015-09-19T10:49:43Z</time>
      </trkpt>
      <trkpt lat="43.98256" lon="6.95612">
        <ele>1593.04</ele>
        <time>2015-09-19T10:50:00Z</time>
      </trkpt>
      <trkpt lat="43.98257" lon="6.95612">
        <ele>1593.04</ele>
        <time>2015-09-19T10:50:14Z</time>
      </trkpt>
      <trkpt lat="43.98257" lon="6.95612">
        <ele>1592.56</ele>
        <time>2015-09-19T10:50:27Z</time>
      </trkpt>
      <trkpt lat="43.98257" lon="6.95612">
        <ele>1593.04</ele>
        <time>2015-09-19T10:50:46Z</time>
      </trkpt>
      <trkpt lat="43.98257" lon="6.95612">
        <ele>1592.56</ele>
        <time>2015-09-19T10:51:06Z</time>
      </trkpt>
      <trkpt lat="43.98257" lon="6.95612">
        <ele>1593.04</ele>
        <time>2015-09-19T10:51:25Z</time>
      </trkpt>
      <trkpt lat="43.98257" lon="6.95612">
        <ele>1593.04</ele>
        <time>2015-09-19T10:51:44Z</time>
      </trkpt>
      <trkpt lat="43.98257" lon="6.95613">
        <ele>1592.56</ele>
        <time>2015-09-19T10:52:02Z</time>
      </trkpt>
      <trkpt lat="43.98257" lon="6.95613">
        <ele>1592.56</ele>
        <time>2015-09-19T10:52:18Z</time>
      </trkpt>
      <trkpt lat="43.98257" lon="6.95613">
        <ele>1592.56</ele>
        <time>2015-09-19T10:52:37Z</time>
      </trkpt>
      <trkpt lat="43.98257" lon="6.95613">
        <ele>1592.56</ele>
        <time>2015-09-19T10:52:53Z</time>
      </trkpt>
      <trkpt lat="43.98257" lon="6.95613">
        <ele>1592.56</ele>
        <time>2015-09-19T10:53:11Z</time>
      </trkpt>
      <trkpt lat="43.98257" lon="6.95613">
        <ele>1593.04</ele>
        <time>2015-09-19T10:53:30Z</time>
      </trkpt>
      <trkpt lat="43.98257" lon="6.95613">
        <ele>1593.04</ele>
        <time>2015-09-19T10:53:47Z</time>
      </trkpt>
      <trkpt lat="43.98257" lon="6.95613">
        <ele>1592.56</ele>
        <time>2015-09-19T10:54:05Z</time>
      </trkpt>
      <trkpt lat="43.98257" lon="6.95613">
        <ele>1593.04</ele>
        <time>2015-09-19T10:54:23Z</time>
      </trkpt>
      <trkpt lat="43.98257" lon="6.95613">
        <ele>1592.56</ele>
        <time>2015-09-19T10:54:40Z</time>
      </trkpt>
      <trkpt lat="43.98257" lon="6.95613">
        <ele>1592.56</ele>
        <time>2015-09-19T10:54:55Z</time>
      </trkpt>
      <trkpt lat="43.98257" lon="6.95613">
        <ele>1593.04</ele>
        <time>2015-09-19T10:55:12Z</time>
      </trkpt>
      <trkpt lat="43.98257" lon="6.95613">
        <ele>1593.04</ele>
        <time>2015-09-19T10:55:29Z</time>
      </trkpt>
      <trkpt lat="43.98257" lon="6.95613">
        <ele>1593.04</ele>
        <time>2015-09-19T10:55:43Z</time>
      </trkpt>
      <trkpt lat="43.98257" lon="6.95613">
        <ele>1593.04</ele>
        <time>2015-09-19T10:56:00Z</time>
      </trkpt>
      <trkpt lat="43.98257" lon="6.95613">
        <ele>1593.04</ele>
        <time>2015-09-19T10:56:17Z</time>
      </trkpt>
      <trkpt lat="43.98257" lon="6.95613">
        <ele>1593.04</ele>
        <time>2015-09-19T10:56:39Z</time>
      </trkpt>
      <trkpt lat="43.98257" lon="6.95613">
        <ele>1592.56</ele>
        <time>2015-09-19T10:56:56Z</time>
      </trkpt>
      <trkpt lat="43.98257" lon="6.95612">
        <ele>1593.04</ele>
        <time>2015-09-19T10:57:13Z</time>
      </trkpt>
      <trkpt lat="43.98257" lon="6.95612">
        <ele>1593.04</ele>
        <time>2015-09-19T10:57:31Z</time>
      </trkpt>
      <trkpt lat="43.98257" lon="6.95612">
        <ele>1593.04</ele>
        <time>2015-09-19T10:57:49Z</time>
      </trkpt>
      <trkpt lat="43.98257" lon="6.95612">
        <ele>1592.56</ele>
        <time>2015-09-19T10:58:06Z</time>
      </trkpt>
      <trkpt lat="43.98257" lon="6.95612">
        <ele>1593.04</ele>
        <time>2015-09-19T10:58:23Z</time>
      </trkpt>
      <trkpt lat="43.98257" lon="6.95612">
        <ele>1592.56</ele>
        <time>2015-09-19T10:58:39Z</time>
      </trkpt>
      <trkpt lat="43.98257" lon="6.95613">
        <ele>1593.04</ele>
        <time>2015-09-19T10:58:53Z</time>
      </trkpt>
      <trkpt lat="43.98257" lon="6.95613">
        <ele>1593.04</ele>
        <time>2015-09-19T10:59:13Z</time>
      </trkpt>
      <trkpt lat="43.98257" lon="6.95613">
        <ele>1593.04</ele>
        <time>2015-09-19T10:59:32Z</time>
      </trkpt>
      <trkpt lat="43.98257" lon="6.95613">
        <ele>1593.04</ele>
        <time>2015-09-19T10:59:48Z</time>
      </trkpt>
      <trkpt lat="43.98257" lon="6.95612">
        <ele>1593.04</ele>
        <time>2015-09-19T11:00:06Z</time>
      </trkpt>
      <trkpt lat="43.98257" lon="6.95612">
        <ele>1593.04</ele>
        <time>2015-09-19T11:00:25Z</time>
      </trkpt>
      <trkpt lat="43.98257" lon="6.95612">
        <ele>1593.04</ele>
        <time>2015-09-19T11:00:43Z</time>
      </trkpt>
      <trkpt lat="43.98257" lon="6.95612">
        <ele>1593.52</ele>
        <time>2015-09-19T11:01:01Z</time>
      </trkpt>
      <trkpt lat="43.98257" lon="6.95612">
        <ele>1593.04</ele>
        <time>2015-09-19T11:01:19Z</time>
      </trkpt>
      <trkpt lat="43.98257" lon="6.95612">
        <ele>1593.52</ele>
        <time>2015-09-19T11:01:41Z</time>
      </trkpt>
      <trkpt lat="43.98258" lon="6.95613">
        <ele>1593.52</ele>
        <time>2015-09-19T11:01:49Z</time>
      </trkpt>
      <trkpt lat="43.98257" lon="6.95613">
        <ele>1593.52</ele>
        <time>2015-09-19T11:02:02Z</time>
      </trkpt>
      <trkpt lat="43.98257" lon="6.95612">
        <ele>1593.52</ele>
        <time>2015-09-19T11:02:20Z</time>
      </trkpt>
      <trkpt lat="43.98257" lon="6.95612">
        <ele>1593.52</ele>
        <time>2015-09-19T11:02:41Z</time>
      </trkpt>
      <trkpt lat="43.98257" lon="6.95612">
        <ele>1593.52</ele>
        <time>2015-09-19T11:02:58Z</time>
      </trkpt>
      <trkpt lat="43.98257" lon="6.95612">
        <ele>1593.52</ele>
        <time>2015-09-19T11:03:14Z</time>
      </trkpt>
      <trkpt lat="43.98257" lon="6.95612">
        <ele>1593.04</ele>
        <time>2015-09-19T11:03:34Z</time>
      </trkpt>
      <trkpt lat="43.98256" lon="6.95612">
        <ele>1593.52</ele>
        <time>2015-09-19T11:03:52Z</time>
      </trkpt>
      <trkpt lat="43.98257" lon="6.95612">
        <ele>1593.52</ele>
        <time>2015-09-19T11:03:59Z</time>
      </trkpt>
      <trkpt lat="43.98257" lon="6.95611">
        <ele>1593.04</ele>
        <time>2015-09-19T11:04:17Z</time>
      </trkpt>
      <trkpt lat="43.98256" lon="6.95611">
        <ele>1593.52</ele>
        <time>2015-09-19T11:04:36Z</time>
      </trkpt>
      <trkpt lat="43.98256" lon="6.95611">
        <ele>1593.52</ele>
        <time>2015-09-19T11:04:55Z</time>
      </trkpt>
      <trkpt lat="43.98256" lon="6.95611">
        <ele>1593.52</ele>
        <time>2015-09-19T11:05:17Z</time>
      </trkpt>
      <trkpt lat="43.98257" lon="6.95611">
        <ele>1593.04</ele>
        <time>2015-09-19T11:05:40Z</time>
      </trkpt>
      <trkpt lat="43.98257" lon="6.95611">
        <ele>1593.52</ele>
        <time>2015-09-19T11:06:00Z</time>
      </trkpt>
      <trkpt lat="43.98257" lon="6.95611">
        <ele>1593.52</ele>
        <time>2015-09-19T11:06:20Z</time>
      </trkpt>
      <trkpt lat="43.98257" lon="6.95611">
        <ele>1593.52</ele>
        <time>2015-09-19T11:06:41Z</time>
      </trkpt>
      <trkpt lat="43.98257" lon="6.95611">
        <ele>1593.52</ele>
        <time>2015-09-19T11:07:06Z</time>
      </trkpt>
      <trkpt lat="43.98257" lon="6.95611">
        <ele>1593.52</ele>
        <time>2015-09-19T11:07:26Z</time>
      </trkpt>
      <trkpt lat="43.98257" lon="6.95611">
        <ele>1593.52</ele>
        <time>2015-09-19T11:07:45Z</time>
      </trkpt>
      <trkpt lat="43.98257" lon="6.95611">
        <ele>1593.52</ele>
        <time>2015-09-19T11:08:06Z</time>
      </trkpt>
      <trkpt lat="43.98257" lon="6.9561">
        <ele>1593.52</ele>
        <time>2015-09-19T11:08:28Z</time>
      </trkpt>
      <trkpt lat="43.98257" lon="6.9561">
        <ele>1593.52</ele>
        <time>2015-09-19T11:08:48Z</time>
      </trkpt>
      <trkpt lat="43.98257" lon="6.9561">
        <ele>1593.52</ele>
        <time>2015-09-19T11:09:09Z</time>
      </trkpt>
      <trkpt lat="43.98257" lon="6.9561">
        <ele>1593.04</ele>
        <time>2015-09-19T11:09:32Z</time>
      </trkpt>
      <trkpt lat="43.98257" lon="6.9561">
        <ele>1593.04</ele>
        <time>2015-09-19T11:09:53Z</time>
      </trkpt>
      <trkpt lat="43.98257" lon="6.9561">
        <ele>1593.04</ele>
        <time>2015-09-19T11:10:14Z</time>
      </trkpt>
      <trkpt lat="43.98257" lon="6.9561">
        <ele>1593.04</ele>
        <time>2015-09-19T11:10:37Z</time>
      </trkpt>
      <trkpt lat="43.98257" lon="6.9561">
        <ele>1593.04</ele>
        <time>2015-09-19T11:10:58Z</time>
      </trkpt>
      <trkpt lat="43.98257" lon="6.9561">
        <ele>1592.56</ele>
        <time>2015-09-19T11:11:16Z</time>
      </trkpt>
      <trkpt lat="43.98257" lon="6.95611">
        <ele>1592.56</ele>
        <time>2015-09-19T11:11:36Z</time>
      </trkpt>
      <trkpt lat="43.98257" lon="6.9561">
        <ele>1593.04</ele>
        <time>2015-09-19T11:11:57Z</time>
      </trkpt>
      <trkpt lat="43.98257" lon="6.9561">
        <ele>1593.04</ele>
        <time>2015-09-19T11:12:20Z</time>
      </trkpt>
      <trkpt lat="43.98257" lon="6.95609">
        <ele>1592.56</ele>
        <time>2015-09-19T11:12:40Z</time>
      </trkpt>
      <trkpt lat="43.98257" lon="6.95609">
        <ele>1592.56</ele>
        <time>2015-09-19T11:13:00Z</time>
      </trkpt>
      <trkpt lat="43.98256" lon="6.95609">
        <ele>1592.56</ele>
        <time>2015-09-19T11:13:21Z</time>
      </trkpt>
      <trkpt lat="43.98256" lon="6.95609">
        <ele>1592.56</ele>
        <time>2015-09-19T11:13:41Z</time>
      </trkpt>
      <trkpt lat="43.98256" lon="6.9561">
        <ele>1592.56</ele>
        <time>2015-09-19T11:14:00Z</time>
      </trkpt>
      <trkpt lat="43.98256" lon="6.9561">
        <ele>1592.56</ele>
        <time>2015-09-19T11:14:16Z</time>
      </trkpt>
      <trkpt lat="43.98256" lon="6.9561">
        <ele>1592.56</ele>
        <time>2015-09-19T11:14:34Z</time>
      </trkpt>
      <trkpt lat="43.98256" lon="6.9561">
        <ele>1592.56</ele>
        <time>2015-09-19T11:14:52Z</time>
      </trkpt>
      <trkpt lat="43.98256" lon="6.9561">
        <ele>1592.56</ele>
        <time>2015-09-19T11:15:09Z</time>
      </trkpt>
      <trkpt lat="43.98256" lon="6.9561">
        <ele>1592.56</ele>
        <time>2015-09-19T11:15:29Z</time>
      </trkpt>
      <trkpt lat="43.98257" lon="6.9561">
        <ele>1592.08</ele>
        <time>2015-09-19T11:15:51Z</time>
      </trkpt>
      <trkpt lat="43.98256" lon="6.9561">
        <ele>1592.08</ele>
        <time>2015-09-19T11:16:12Z</time>
      </trkpt>
      <trkpt lat="43.98257" lon="6.9561">
        <ele>1592.08</ele>
        <time>2015-09-19T11:16:35Z</time>
      </trkpt>
      <trkpt lat="43.98257" lon="6.9561">
        <ele>1592.08</ele>
        <time>2015-09-19T11:16:54Z</time>
      </trkpt>
      <trkpt lat="43.98257" lon="6.9561">
        <ele>1592.08</ele>
        <time>2015-09-19T11:17:15Z</time>
      </trkpt>
      <trkpt lat="43.98257" lon="6.9561">
        <ele>1592.08</ele>
        <time>2015-09-19T11:17:35Z</time>
      </trkpt>
      <trkpt lat="43.98256" lon="6.9561">
        <ele>1592.08</ele>
        <time>2015-09-19T11:17:50Z</time>
      </trkpt>
      <trkpt lat="43.98256" lon="6.9561">
        <ele>1592.08</ele>
        <time>2015-09-19T11:18:10Z</time>
      </trkpt>
      <trkpt lat="43.98256" lon="6.9561">
        <ele>1592.08</ele>
        <time>2015-09-19T11:18:32Z</time>
      </trkpt>
      <trkpt lat="43.98256" lon="6.95609">
        <ele>1592.08</ele>
        <time>2015-09-19T11:18:54Z</time>
      </trkpt>
      <trkpt lat="43.98256" lon="6.9561">
        <ele>1592.08</ele>
        <time>2015-09-19T11:19:02Z</time>
      </trkpt>
      <trkpt lat="43.98256" lon="6.9561">
        <ele>1592.08</ele>
        <time>2015-09-19T11:19:17Z</time>
      </trkpt>
      <trkpt lat="43.98256" lon="6.9561">
        <ele>1592.08</ele>
        <time>2015-09-19T11:19:32Z</time>
      </trkpt>
      <trkpt lat="43.98256" lon="6.9561">
        <ele>1592.08</ele>
        <time>2015-09-19T11:19:39Z</time>
      </trkpt>
      <trkpt lat="43.98256" lon="6.95611">
        <ele>1592.08</ele>
        <time>2015-09-19T11:19:56Z</time>
      </trkpt>
      <trkpt lat="43.98256" lon="6.95611">
        <ele>1591.6</ele>
        <time>2015-09-19T11:20:15Z</time>
      </trkpt>
      <trkpt lat="43.98256" lon="6.95611">
        <ele>1591.6</ele>
        <time>2015-09-19T11:20:35Z</time>
      </trkpt>
      <trkpt lat="43.98256" lon="6.95612">
        <ele>1591.6</ele>
        <time>2015-09-19T11:20:53Z</time>
      </trkpt>
      <trkpt lat="43.98256" lon="6.95612">
        <ele>1591.6</ele>
        <time>2015-09-19T11:21:11Z</time>
      </trkpt>
      <trkpt lat="43.98256" lon="6.95612">
        <ele>1591.6</ele>
        <time>2015-09-19T11:21:27Z</time>
      </trkpt>
      <trkpt lat="43.98256" lon="6.95612">
        <ele>1591.6</ele>
        <time>2015-09-19T11:21:48Z</time>
      </trkpt>
      <trkpt lat="43.98257" lon="6.95612">
        <ele>1591.6</ele>
        <time>2015-09-19T11:22:04Z</time>
      </trkpt>
      <trkpt lat="43.98257" lon="6.95612">
        <ele>1591.6</ele>
        <time>2015-09-19T11:22:22Z</time>
      </trkpt>
      <trkpt lat="43.98257" lon="6.95612">
        <ele>1591.6</ele>
        <time>2015-09-19T11:22:38Z</time>
      </trkpt>
      <trkpt lat="43.98257" lon="6.95612">
        <ele>1591.6</ele>
        <time>2015-09-19T11:22:55Z</time>
      </trkpt>
      <trkpt lat="43.98257" lon="6.95612">
        <ele>1592.08</ele>
        <time>2015-09-19T11:23:14Z</time>
      </trkpt>
      <trkpt lat="43.98257" lon="6.95612">
        <ele>1592.08</ele>
        <time>2015-09-19T11:23:28Z</time>
      </trkpt>
      <trkpt lat="43.98257" lon="6.95612">
        <ele>1591.12</ele>
        <time>2015-09-19T11:23:39Z</time>
      </trkpt>
      <trkpt lat="43.98257" lon="6.95612">
        <ele>1591.6</ele>
        <time>2015-09-19T11:23:56Z</time>
      </trkpt>
      <trkpt lat="43.98257" lon="6.95612">
        <ele>1591.6</ele>
        <time>2015-09-19T11:24:17Z</time>
      </trkpt>
      <trkpt lat="43.98257" lon="6.95612">
        <ele>1592.08</ele>
        <time>2015-09-19T11:24:35Z</time>
      </trkpt>
      <trkpt lat="43.98258" lon="6.95612">
        <ele>1591.6</ele>
        <time>2015-09-19T11:24:58Z</time>
      </trkpt>
      <trkpt lat="43.98258" lon="6.95612">
        <ele>1592.08</ele>
        <time>2015-09-19T11:25:21Z</time>
      </trkpt>
      <trkpt lat="43.98258" lon="6.95612">
        <ele>1591.6</ele>
        <time>2015-09-19T11:25:41Z</time>
      </trkpt>
      <trkpt lat="43.98258" lon="6.95612">
        <ele>1591.6</ele>
        <time>2015-09-19T11:26:01Z</time>
      </trkpt>
      <trkpt lat="43.98258" lon="6.95612">
        <ele>1591.6</ele>
        <time>2015-09-19T11:26:20Z</time>
      </trkpt>
      <trkpt lat="43.98258" lon="6.95612">
        <ele>1591.6</ele>
        <time>2015-09-19T11:26:39Z</time>
      </trkpt>
      <trkpt lat="43.98258" lon="6.95612">
        <ele>1591.6</ele>
        <time>2015-09-19T11:26:53Z</time>
      </trkpt>
      <trkpt lat="43.98258" lon="6.95612">
        <ele>1591.6</ele>
        <time>2015-09-19T11:27:14Z</time>
      </trkpt>
      <trkpt lat="43.98259" lon="6.95612">
        <ele>1591.6</ele>
        <time>2015-09-19T11:27:36Z</time>
      </trkpt>
      <trkpt lat="43.98259" lon="6.95612">
        <ele>1591.6</ele>
        <time>2015-09-19T11:27:59Z</time>
      </trkpt>
      <trkpt lat="43.98259" lon="6.95612">
        <ele>1591.6</ele>
        <time>2015-09-19T11:28:23Z</time>
      </trkpt>
      <trkpt lat="43.98259" lon="6.95612">
        <ele>1591.6</ele>
        <time>2015-09-19T11:28:43Z</time>
      </trkpt>
      <trkpt lat="43.98259" lon="6.95612">
        <ele>1591.6</ele>
        <time>2015-09-19T11:29:06Z</time>
      </trkpt>
      <trkpt lat="43.98259" lon="6.95612">
        <ele>1592.08</ele>
        <time>2015-09-19T11:29:30Z</time>
      </trkpt>
      <trkpt lat="43.98259" lon="6.95612">
        <ele>1592.08</ele>
        <time>2015-09-19T11:29:48Z</time>
      </trkpt>
      <trkpt lat="43.98259" lon="6.95613">
        <ele>1593.04</ele>
        <time>2015-09-19T11:29:52Z</time>
      </trkpt>
      <trkpt lat="43.98258" lon="6.95612">
        <ele>1591.6</ele>
        <time>2015-09-19T11:29:55Z</time>
      </trkpt>
      <trkpt lat="43.98258" lon="6.95613">
        <ele>1592.08</ele>
        <time>2015-09-19T11:30:06Z</time>
      </trkpt>
      <trkpt lat="43.98257" lon="6.95613">
        <ele>1592.08</ele>
        <time>2015-09-19T11:30:16Z</time>
      </trkpt>
      <trkpt lat="43.98257" lon="6.95613">
        <ele>1591.6</ele>
        <time>2015-09-19T11:30:20Z</time>
      </trkpt>
      <trkpt lat="43.98257" lon="6.95615">
        <ele>1592.56</ele>
        <time>2015-09-19T11:30:25Z</time>
      </trkpt>
      <trkpt lat="43.98257" lon="6.95614">
        <ele>1593.04</ele>
        <time>2015-09-19T11:30:32Z</time>
      </trkpt>
      <trkpt lat="43.98257" lon="6.95613">
        <ele>1593.04</ele>
        <time>2015-09-19T11:30:47Z</time>
      </trkpt>
      <trkpt lat="43.98257" lon="6.95613">
        <ele>1593.52</ele>
        <time>2015-09-19T11:30:56Z</time>
      </trkpt>
      <trkpt lat="43.98257" lon="6.95612">
        <ele>1593.04</ele>
        <time>2015-09-19T11:31:02Z</time>
      </trkpt>
      <trkpt lat="43.98255" lon="6.95612">
        <ele>1593.04</ele>
        <time>2015-09-19T11:31:15Z</time>
      </trkpt>
      <trkpt lat="43.98248" lon="6.9561">
        <ele>1594</ele>
        <time>2015-09-19T11:31:23Z</time>
      </trkpt>
      <trkpt lat="43.98247" lon="6.9561">
        <ele>1593.52</ele>
        <time>2015-09-19T11:31:24Z</time>
      </trkpt>
      <trkpt lat="43.98245" lon="6.95609">
        <ele>1593.04</ele>
        <time>2015-09-19T11:31:26Z</time>
      </trkpt>
      <trkpt lat="43.98242" lon="6.95607">
        <ele>1593.04</ele>
        <time>2015-09-19T11:31:34Z</time>
      </trkpt>
      <trkpt lat="43.98242" lon="6.95607">
        <ele>1593.04</ele>
        <time>2015-09-19T11:31:49Z</time>
      </trkpt>
      <trkpt lat="43.98238" lon="6.95608">
        <ele>1592.56</ele>
        <time>2015-09-19T11:31:56Z</time>
      </trkpt>
      <trkpt lat="43.98232" lon="6.95604">
        <ele>1592.08</ele>
        <time>2015-09-19T11:32:03Z</time>
      </trkpt>
      <trkpt lat="43.98229" lon="6.956">
        <ele>1592.56</ele>
        <time>2015-09-19T11:32:07Z</time>
      </trkpt>
      <trkpt lat="43.98228" lon="6.95598">
        <ele>1592.56</ele>
        <time>2015-09-19T11:32:09Z</time>
      </trkpt>
      <trkpt lat="43.98226" lon="6.95599">
        <ele>1593.04</ele>
        <time>2015-09-19T11:32:11Z</time>
      </trkpt>
      <trkpt lat="43.98223" lon="6.956">
        <ele>1593.04</ele>
        <time>2015-09-19T11:32:17Z</time>
      </trkpt>
      <trkpt lat="43.98226" lon="6.95597">
        <ele>1592.56</ele>
        <time>2015-09-19T11:32:20Z</time>
      </trkpt>
      <trkpt lat="43.9823" lon="6.95589">
        <ele>1593.52</ele>
        <time>2015-09-19T11:32:28Z</time>
      </trkpt>
      <trkpt lat="43.98227" lon="6.95588">
        <ele>1594.48</ele>
        <time>2015-09-19T11:32:34Z</time>
      </trkpt>
      <trkpt lat="43.98226" lon="6.95587">
        <ele>1594.48</ele>
        <time>2015-09-19T11:32:36Z</time>
      </trkpt>
      <trkpt lat="43.98224" lon="6.95586">
        <ele>1595.45</ele>
        <time>2015-09-19T11:32:43Z</time>
      </trkpt>
      <trkpt lat="43.98223" lon="6.95585">
        <ele>1595.45</ele>
        <time>2015-09-19T11:32:51Z</time>
      </trkpt>
      <trkpt lat="43.98221" lon="6.95583">
        <ele>1594</ele>
        <time>2015-09-19T11:32:57Z</time>
      </trkpt>
      <trkpt lat="43.98218" lon="6.95582">
        <ele>1592.56</ele>
        <time>2015-09-19T11:33:03Z</time>
      </trkpt>
      <trkpt lat="43.98216" lon="6.95579">
        <ele>1591.6</ele>
        <time>2015-09-19T11:33:10Z</time>
      </trkpt>
      <trkpt lat="43.98214" lon="6.95573">
        <ele>1590.64</ele>
        <time>2015-09-19T11:33:18Z</time>
      </trkpt>
      <trkpt lat="43.98211" lon="6.95571">
        <ele>1591.12</ele>
        <time>2015-09-19T11:33:23Z</time>
      </trkpt>
      <trkpt lat="43.9821" lon="6.95568">
        <ele>1591.6</ele>
        <time>2015-09-19T11:33:28Z</time>
      </trkpt>
      <trkpt lat="43.98207" lon="6.95564">
        <ele>1590.16</ele>
        <time>2015-09-19T11:33:35Z</time>
      </trkpt>
      <trkpt lat="43.98205" lon="6.95563">
        <ele>1588.72</ele>
        <time>2015-09-19T11:33:41Z</time>
      </trkpt>
      <trkpt lat="43.98199" lon="6.95564">
        <ele>1588.24</ele>
        <time>2015-09-19T11:33:47Z</time>
      </trkpt>
      <trkpt lat="43.98199" lon="6.95564">
        <ele>1588.24</ele>
        <time>2015-09-19T11:33:48Z</time>
      </trkpt>
      <trkpt lat="43.98193" lon="6.95566">
        <ele>1586.79</ele>
        <time>2015-09-19T11:33:57Z</time>
      </trkpt>
      <trkpt lat="43.9819" lon="6.95563">
        <ele>1585.83</ele>
        <time>2015-09-19T11:34:04Z</time>
      </trkpt>
      <trkpt lat="43.98185" lon="6.9556">
        <ele>1584.87</ele>
        <time>2015-09-19T11:34:11Z</time>
      </trkpt>
      <trkpt lat="43.98184" lon="6.95553">
        <ele>1583.91</ele>
        <time>2015-09-19T11:34:18Z</time>
      </trkpt>
      <trkpt lat="43.98182" lon="6.95548">
        <ele>1582.95</ele>
        <time>2015-09-19T11:34:24Z</time>
      </trkpt>
      <trkpt lat="43.98179" lon="6.95542">
        <ele>1581.51</ele>
        <time>2015-09-19T11:34:31Z</time>
      </trkpt>
      <trkpt lat="43.98178" lon="6.95541">
        <ele>1581.03</ele>
        <time>2015-09-19T11:34:39Z</time>
      </trkpt>
      <trkpt lat="43.98177" lon="6.95541">
        <ele>1581.03</ele>
        <time>2015-09-19T11:34:50Z</time>
      </trkpt>
      <trkpt lat="43.98178" lon="6.9554">
        <ele>1581.03</ele>
        <time>2015-09-19T11:35:00Z</time>
      </trkpt>
      <trkpt lat="43.98176" lon="6.95537">
        <ele>1581.03</ele>
        <time>2015-09-19T11:35:06Z</time>
      </trkpt>
      <trkpt lat="43.98175" lon="6.95536">
        <ele>1580.06</ele>
        <time>2015-09-19T11:35:12Z</time>
      </trkpt>
      <trkpt lat="43.98175" lon="6.95534">
        <ele>1579.58</ele>
        <time>2015-09-19T11:35:18Z</time>
      </trkpt>
      <trkpt lat="43.98175" lon="6.95528">
        <ele>1579.1</ele>
        <time>2015-09-19T11:35:25Z</time>
      </trkpt>
      <trkpt lat="43.98173" lon="6.95524">
        <ele>1578.14</ele>
        <time>2015-09-19T11:35:31Z</time>
      </trkpt>
      <trkpt lat="43.98171" lon="6.95519">
        <ele>1576.7</ele>
        <time>2015-09-19T11:35:38Z</time>
      </trkpt>
      <trkpt lat="43.98171" lon="6.95517">
        <ele>1576.7</ele>
        <time>2015-09-19T11:35:40Z</time>
      </trkpt>
      <trkpt lat="43.98169" lon="6.95508">
        <ele>1574.78</ele>
        <time>2015-09-19T11:35:48Z</time>
      </trkpt>
      <trkpt lat="43.98168" lon="6.955">
        <ele>1573.82</ele>
        <time>2015-09-19T11:35:56Z</time>
      </trkpt>
      <trkpt lat="43.98165" lon="6.95492">
        <ele>1572.37</ele>
        <time>2015-09-19T11:36:04Z</time>
      </trkpt>
      <trkpt lat="43.98165" lon="6.95485">
        <ele>1570.45</ele>
        <time>2015-09-19T11:36:11Z</time>
      </trkpt>
      <trkpt lat="43.98165" lon="6.95478">
        <ele>1568.53</ele>
        <time>2015-09-19T11:36:19Z</time>
      </trkpt>
      <trkpt lat="43.98164" lon="6.95472">
        <ele>1567.09</ele>
        <time>2015-09-19T11:36:27Z</time>
      </trkpt>
      <trkpt lat="43.98164" lon="6.95471">
        <ele>1566.61</ele>
        <time>2015-09-19T11:36:34Z</time>
      </trkpt>
      <trkpt lat="43.98164" lon="6.9547">
        <ele>1566.61</ele>
        <time>2015-09-19T11:36:40Z</time>
      </trkpt>
      <trkpt lat="43.98161" lon="6.95466">
        <ele>1566.12</ele>
        <time>2015-09-19T11:36:44Z</time>
      </trkpt>
      <trkpt lat="43.98158" lon="6.95457">
        <ele>1563.72</ele>
        <time>2015-09-19T11:36:53Z</time>
      </trkpt>
      <trkpt lat="43.98156" lon="6.95449">
        <ele>1561.8</ele>
        <time>2015-09-19T11:37:01Z</time>
      </trkpt>
      <trkpt lat="43.98154" lon="6.95442">
        <ele>1560.36</ele>
        <time>2015-09-19T11:37:06Z</time>
      </trkpt>
      <trkpt lat="43.98152" lon="6.95435">
        <ele>1558.43</ele>
        <time>2015-09-19T11:37:14Z</time>
      </trkpt>
      <trkpt lat="43.9815" lon="6.95427">
        <ele>1556.03</ele>
        <time>2015-09-19T11:37:22Z</time>
      </trkpt>
      <trkpt lat="43.98148" lon="6.95422">
        <ele>1555.07</ele>
        <time>2015-09-19T11:37:27Z</time>
      </trkpt>
      <trkpt lat="43.98147" lon="6.95414">
        <ele>1553.63</ele>
        <time>2015-09-19T11:37:35Z</time>
      </trkpt>
      <trkpt lat="43.98146" lon="6.95411">
        <ele>1552.67</ele>
        <time>2015-09-19T11:37:39Z</time>
      </trkpt>
      <trkpt lat="43.98139" lon="6.95408">
        <ele>1550.26</ele>
        <time>2015-09-19T11:37:47Z</time>
      </trkpt>
      <trkpt lat="43.98137" lon="6.95406">
        <ele>1549.3</ele>
        <time>2015-09-19T11:37:54Z</time>
      </trkpt>
      <trkpt lat="43.98137" lon="6.95406">
        <ele>1550.26</ele>
        <time>2015-09-19T11:38:04Z</time>
      </trkpt>
      <trkpt lat="43.98137" lon="6.95406">
        <ele>1549.78</ele>
        <time>2015-09-19T11:38:13Z</time>
      </trkpt>
      <trkpt lat="43.98137" lon="6.95401">
        <ele>1548.34</ele>
        <time>2015-09-19T11:38:19Z</time>
      </trkpt>
      <trkpt lat="43.98138" lon="6.95396">
        <ele>1547.38</ele>
        <time>2015-09-19T11:38:24Z</time>
      </trkpt>
      <trkpt lat="43.98139" lon="6.95387">
        <ele>1545.94</ele>
        <time>2015-09-19T11:38:32Z</time>
      </trkpt>
      <trkpt lat="43.98136" lon="6.95384">
        <ele>1544.5</ele>
        <time>2015-09-19T11:38:38Z</time>
      </trkpt>
      <trkpt lat="43.98135" lon="6.95378">
        <ele>1542.57</ele>
        <time>2015-09-19T11:38:45Z</time>
      </trkpt>
      <trkpt lat="43.98132" lon="6.95374">
        <ele>1541.61</ele>
        <time>2015-09-19T11:38:51Z</time>
      </trkpt>
      <trkpt lat="43.98131" lon="6.95368">
        <ele>1539.69</ele>
        <time>2015-09-19T11:38:58Z</time>
      </trkpt>
      <trkpt lat="43.9813" lon="6.95364">
        <ele>1538.73</ele>
        <time>2015-09-19T11:39:05Z</time>
      </trkpt>
      <trkpt lat="43.98129" lon="6.95361">
        <ele>1538.25</ele>
        <time>2015-09-19T11:39:18Z</time>
      </trkpt>
      <trkpt lat="43.98129" lon="6.95356">
        <ele>1536.8</ele>
        <time>2015-09-19T11:39:24Z</time>
      </trkpt>
      <trkpt lat="43.98128" lon="6.95352">
        <ele>1535.36</ele>
        <time>2015-09-19T11:39:30Z</time>
      </trkpt>
      <trkpt lat="43.98126" lon="6.95347">
        <ele>1534.4</ele>
        <time>2015-09-19T11:39:37Z</time>
      </trkpt>
      <trkpt lat="43.98124" lon="6.95342">
        <ele>1533.44</ele>
        <time>2015-09-19T11:39:44Z</time>
      </trkpt>
      <trkpt lat="43.98123" lon="6.95337">
        <ele>1532.48</ele>
        <time>2015-09-19T11:39:50Z</time>
      </trkpt>
      <trkpt lat="43.98123" lon="6.95335">
        <ele>1532</ele>
        <time>2015-09-19T11:39:57Z</time>
      </trkpt>
      <trkpt lat="43.98122" lon="6.95333">
        <ele>1531.52</ele>
        <time>2015-09-19T11:39:59Z</time>
      </trkpt>
      <trkpt lat="43.98118" lon="6.95328">
        <ele>1530.08</ele>
        <time>2015-09-19T11:40:06Z</time>
      </trkpt>
      <trkpt lat="43.98118" lon="6.95325">
        <ele>1530.08</ele>
        <time>2015-09-19T11:40:09Z</time>
      </trkpt>
      <trkpt lat="43.98117" lon="6.95323">
        <ele>1529.11</ele>
        <time>2015-09-19T11:40:11Z</time>
      </trkpt>
      <trkpt lat="43.98114" lon="6.95312">
        <ele>1527.19</ele>
        <time>2015-09-19T11:40:20Z</time>
      </trkpt>
      <trkpt lat="43.98112" lon="6.95308">
        <ele>1526.23</ele>
        <time>2015-09-19T11:40:24Z</time>
      </trkpt>
      <trkpt lat="43.98112" lon="6.95299">
        <ele>1524.31</ele>
        <time>2015-09-19T11:40:31Z</time>
      </trkpt>
      <trkpt lat="43.98111" lon="6.95292">
        <ele>1522.87</ele>
        <time>2015-09-19T11:40:39Z</time>
      </trkpt>
      <trkpt lat="43.98109" lon="6.95286">
        <ele>1521.42</ele>
        <time>2015-09-19T11:40:46Z</time>
      </trkpt>
      <trkpt lat="43.98109" lon="6.9528">
        <ele>1519.98</ele>
        <time>2015-09-19T11:40:52Z</time>
      </trkpt>
      <trkpt lat="43.98108" lon="6.95273">
        <ele>1519.02</ele>
        <time>2015-09-19T11:40:59Z</time>
      </trkpt>
      <trkpt lat="43.98105" lon="6.95268">
        <ele>1518.06</ele>
        <time>2015-09-19T11:41:04Z</time>
      </trkpt>
      <trkpt lat="43.98103" lon="6.95266">
        <ele>1517.1</ele>
        <time>2015-09-19T11:41:11Z</time>
      </trkpt>
      <trkpt lat="43.98102" lon="6.95265">
        <ele>1517.1</ele>
        <time>2015-09-19T11:41:20Z</time>
      </trkpt>
      <trkpt lat="43.98103" lon="6.95265">
        <ele>1517.1</ele>
        <time>2015-09-19T11:41:35Z</time>
      </trkpt>
      <trkpt lat="43.98102" lon="6.95257">
        <ele>1515.66</ele>
        <time>2015-09-19T11:41:43Z</time>
      </trkpt>
      <trkpt lat="43.98103" lon="6.95254">
        <ele>1515.18</ele>
        <time>2015-09-19T11:41:45Z</time>
      </trkpt>
      <trkpt lat="43.98101" lon="6.95248">
        <ele>1513.73</ele>
        <time>2015-09-19T11:41:49Z</time>
      </trkpt>
      <trkpt lat="43.981" lon="6.95243">
        <ele>1512.77</ele>
        <time>2015-09-19T11:41:53Z</time>
      </trkpt>
      <trkpt lat="43.98093" lon="6.95234">
        <ele>1511.33</ele>
        <time>2015-09-19T11:42:01Z</time>
      </trkpt>
      <trkpt lat="43.98089" lon="6.95223">
        <ele>1509.41</ele>
        <time>2015-09-19T11:42:09Z</time>
      </trkpt>
      <trkpt lat="43.98084" lon="6.95214">
        <ele>1507.97</ele>
        <time>2015-09-19T11:42:16Z</time>
      </trkpt>
      <trkpt lat="43.9808" lon="6.95206">
        <ele>1507</ele>
        <time>2015-09-19T11:42:23Z</time>
      </trkpt>
      <trkpt lat="43.98074" lon="6.95198">
        <ele>1505.56</ele>
        <time>2015-09-19T11:42:31Z</time>
      </trkpt>
      <trkpt lat="43.98068" lon="6.95188">
        <ele>1504.12</ele>
        <time>2015-09-19T11:42:39Z</time>
      </trkpt>
      <trkpt lat="43.98065" lon="6.95185">
        <ele>1503.16</ele>
        <time>2015-09-19T11:42:43Z</time>
      </trkpt>
      <trkpt lat="43.9806" lon="6.95174">
        <ele>1501.72</ele>
        <time>2015-09-19T11:42:51Z</time>
      </trkpt>
      <trkpt lat="43.98054" lon="6.95168">
        <ele>1500.76</ele>
        <time>2015-09-19T11:42:58Z</time>
      </trkpt>
      <trkpt lat="43.98048" lon="6.95159">
        <ele>1499.31</ele>
        <time>2015-09-19T11:43:05Z</time>
      </trkpt>
      <trkpt lat="43.98044" lon="6.95154">
        <ele>1498.83</ele>
        <time>2015-09-19T11:43:10Z</time>
      </trkpt>
      <trkpt lat="43.98042" lon="6.95149">
        <ele>1497.87</ele>
        <time>2015-09-19T11:43:14Z</time>
      </trkpt>
      <trkpt lat="43.98035" lon="6.9514">
        <ele>1496.91</ele>
        <time>2015-09-19T11:43:22Z</time>
      </trkpt>
      <trkpt lat="43.98033" lon="6.95136">
        <ele>1496.43</ele>
        <time>2015-09-19T11:43:25Z</time>
      </trkpt>
      <trkpt lat="43.98026" lon="6.95123">
        <ele>1494.51</ele>
        <time>2015-09-19T11:43:35Z</time>
      </trkpt>
      <trkpt lat="43.98024" lon="6.95113">
        <ele>1493.55</ele>
        <time>2015-09-19T11:43:41Z</time>
      </trkpt>
      <trkpt lat="43.98021" lon="6.951">
        <ele>1492.1</ele>
        <time>2015-09-19T11:43:50Z</time>
      </trkpt>
      <trkpt lat="43.98019" lon="6.95088">
        <ele>1491.14</ele>
        <time>2015-09-19T11:43:58Z</time>
      </trkpt>
      <trkpt lat="43.98018" lon="6.95081">
        <ele>1490.18</ele>
        <time>2015-09-19T11:44:03Z</time>
      </trkpt>
      <trkpt lat="43.98014" lon="6.95071">
        <ele>1488.74</ele>
        <time>2015-09-19T11:44:11Z</time>
      </trkpt>
      <trkpt lat="43.98013" lon="6.95066">
        <ele>1487.78</ele>
        <time>2015-09-19T11:44:14Z</time>
      </trkpt>
      <trkpt lat="43.98004" lon="6.95058">
        <ele>1485.85</ele>
        <time>2015-09-19T11:44:23Z</time>
      </trkpt>
      <trkpt lat="43.97997" lon="6.95053">
        <ele>1485.37</ele>
        <time>2015-09-19T11:44:30Z</time>
      </trkpt>
      <trkpt lat="43.97996" lon="6.95052">
        <ele>1485.37</ele>
        <time>2015-09-19T11:44:31Z</time>
      </trkpt>
      <trkpt lat="43.97985" lon="6.95048">
        <ele>1484.89</ele>
        <time>2015-09-19T11:44:40Z</time>
      </trkpt>
      <trkpt lat="43.97983" lon="6.95047">
        <ele>1484.41</ele>
        <time>2015-09-19T11:44:42Z</time>
      </trkpt>
      <trkpt lat="43.97982" lon="6.95042">
        <ele>1483.93</ele>
        <time>2015-09-19T11:44:46Z</time>
      </trkpt>
      <trkpt lat="43.97977" lon="6.95038">
        <ele>1482.97</ele>
        <time>2015-09-19T11:44:53Z</time>
      </trkpt>
      <trkpt lat="43.97976" lon="6.95036">
        <ele>1482.97</ele>
        <time>2015-09-19T11:45:01Z</time>
      </trkpt>
      <trkpt lat="43.97972" lon="6.95033">
        <ele>1482.97</ele>
        <time>2015-09-19T11:45:10Z</time>
      </trkpt>
      <trkpt lat="43.97971" lon="6.9503">
        <ele>1482.49</ele>
        <time>2015-09-19T11:45:12Z</time>
      </trkpt>
      <trkpt lat="43.97967" lon="6.95019">
        <ele>1481.05</ele>
        <time>2015-09-19T11:45:20Z</time>
      </trkpt>
      <trkpt lat="43.97967" lon="6.95019">
        <ele>1481.05</ele>
        <time>2015-09-19T11:45:21Z</time>
      </trkpt>
      <trkpt lat="43.9796" lon="6.95009">
        <ele>1481.05</ele>
        <time>2015-09-19T11:45:29Z</time>
      </trkpt>
      <trkpt lat="43.97958" lon="6.95">
        <ele>1480.09</ele>
        <time>2015-09-19T11:45:36Z</time>
      </trkpt>
      <trkpt lat="43.97957" lon="6.95">
        <ele>1480.57</ele>
        <time>2015-09-19T11:45:46Z</time>
      </trkpt>
      <trkpt lat="43.97958" lon="6.94999">
        <ele>1480.09</ele>
        <time>2015-09-19T11:45:47Z</time>
      </trkpt>
      <trkpt lat="43.97953" lon="6.94987">
        <ele>1480.09</ele>
        <time>2015-09-19T11:45:55Z</time>
      </trkpt>
      <trkpt lat="43.97946" lon="6.94975">
        <ele>1480.57</ele>
        <time>2015-09-19T11:46:04Z</time>
      </trkpt>
      <trkpt lat="43.9794" lon="6.94965">
        <ele>1481.53</ele>
        <time>2015-09-19T11:46:13Z</time>
      </trkpt>
      <trkpt lat="43.97938" lon="6.94962">
        <ele>1482.01</ele>
        <time>2015-09-19T11:46:18Z</time>
      </trkpt>
      <trkpt lat="43.97933" lon="6.94951">
        <ele>1482.49</ele>
        <time>2015-09-19T11:46:27Z</time>
      </trkpt>
      <trkpt lat="43.97931" lon="6.94944">
        <ele>1482.97</ele>
        <time>2015-09-19T11:46:33Z</time>
      </trkpt>
      <trkpt lat="43.97931" lon="6.94929">
        <ele>1483.93</ele>
        <time>2015-09-19T11:46:43Z</time>
      </trkpt>
      <trkpt lat="43.9793" lon="6.9492">
        <ele>1483.93</ele>
        <time>2015-09-19T11:46:50Z</time>
      </trkpt>
      <trkpt lat="43.97929" lon="6.94913">
        <ele>1483.93</ele>
        <time>2015-09-19T11:46:55Z</time>
      </trkpt>
      <trkpt lat="43.97927" lon="6.94903">
        <ele>1484.41</ele>
        <time>2015-09-19T11:47:02Z</time>
      </trkpt>
      <trkpt lat="43.97926" lon="6.94899">
        <ele>1484.41</ele>
        <time>2015-09-19T11:47:05Z</time>
      </trkpt>
      <trkpt lat="43.97923" lon="6.94887">
        <ele>1485.37</ele>
        <time>2015-09-19T11:47:14Z</time>
      </trkpt>
      <trkpt lat="43.97921" lon="6.94874">
        <ele>1485.85</ele>
        <time>2015-09-19T11:47:23Z</time>
      </trkpt>
      <trkpt lat="43.9792" lon="6.94864">
        <ele>1486.34</ele>
        <time>2015-09-19T11:47:31Z</time>
      </trkpt>
      <trkpt lat="43.97917" lon="6.94854">
        <ele>1486.82</ele>
        <time>2015-09-19T11:47:39Z</time>
      </trkpt>
      <trkpt lat="43.97913" lon="6.94844">
        <ele>1487.3</ele>
        <time>2015-09-19T11:47:47Z</time>
      </trkpt>
      <trkpt lat="43.97911" lon="6.94834">
        <ele>1488.26</ele>
        <time>2015-09-19T11:47:55Z</time>
      </trkpt>
      <trkpt lat="43.97908" lon="6.94825">
        <ele>1488.74</ele>
        <time>2015-09-19T11:48:03Z</time>
      </trkpt>
      <trkpt lat="43.97905" lon="6.94819">
        <ele>1489.22</ele>
        <time>2015-09-19T11:48:09Z</time>
      </trkpt>
      <trkpt lat="43.97904" lon="6.94817">
        <ele>1489.7</ele>
        <time>2015-09-19T11:48:11Z</time>
      </trkpt>
      <trkpt lat="43.97903" lon="6.94815">
        <ele>1490.18</ele>
        <time>2015-09-19T11:48:17Z</time>
      </trkpt>
      <trkpt lat="43.97901" lon="6.94811">
        <ele>1490.18</ele>
        <time>2015-09-19T11:48:24Z</time>
      </trkpt>
      <trkpt lat="43.97895" lon="6.94808">
        <ele>1490.66</ele>
        <time>2015-09-19T11:48:32Z</time>
      </trkpt>
      <trkpt lat="43.97888" lon="6.94806">
        <ele>1490.66</ele>
        <time>2015-09-19T11:48:40Z</time>
      </trkpt>
      <trkpt lat="43.97884" lon="6.94804">
        <ele>1490.66</ele>
        <time>2015-09-19T11:48:44Z</time>
      </trkpt>
      <trkpt lat="43.97876" lon="6.948">
        <ele>1490.66</ele>
        <time>2015-09-19T11:48:54Z</time>
      </trkpt>
      <trkpt lat="43.97874" lon="6.94799">
        <ele>1490.66</ele>
        <time>2015-09-19T11:48:59Z</time>
      </trkpt>
      <trkpt lat="43.97868" lon="6.94799">
        <ele>1490.18</ele>
        <time>2015-09-19T11:49:05Z</time>
      </trkpt>
      <trkpt lat="43.97859" lon="6.94801">
        <ele>1489.22</ele>
        <time>2015-09-19T11:49:13Z</time>
      </trkpt>
      <trkpt lat="43.97851" lon="6.94791">
        <ele>1489.7</ele>
        <time>2015-09-19T11:49:23Z</time>
      </trkpt>
      <trkpt lat="43.97846" lon="6.94781">
        <ele>1490.18</ele>
        <time>2015-09-19T11:49:31Z</time>
      </trkpt>
      <trkpt lat="43.97844" lon="6.94775">
        <ele>1490.66</ele>
        <time>2015-09-19T11:49:36Z</time>
      </trkpt>
      <trkpt lat="43.97836" lon="6.94767">
        <ele>1490.66</ele>
        <time>2015-09-19T11:49:45Z</time>
      </trkpt>
      <trkpt lat="43.97831" lon="6.94763">
        <ele>1490.66</ele>
        <time>2015-09-19T11:49:51Z</time>
      </trkpt>
      <trkpt lat="43.97828" lon="6.94761">
        <ele>1491.14</ele>
        <time>2015-09-19T11:49:55Z</time>
      </trkpt>
      <trkpt lat="43.9782" lon="6.9476">
        <ele>1489.7</ele>
        <time>2015-09-19T11:50:04Z</time>
      </trkpt>
      <trkpt lat="43.97815" lon="6.94757">
        <ele>1488.74</ele>
        <time>2015-09-19T11:50:10Z</time>
      </trkpt>
      <trkpt lat="43.97807" lon="6.94748">
        <ele>1487.78</ele>
        <time>2015-09-19T11:50:19Z</time>
      </trkpt>
      <trkpt lat="43.97803" lon="6.9474">
        <ele>1487.3</ele>
        <time>2015-09-19T11:50:25Z</time>
      </trkpt>
      <trkpt lat="43.97798" lon="6.94726">
        <ele>1487.78</ele>
        <time>2015-09-19T11:50:35Z</time>
      </trkpt>
      <trkpt lat="43.97794" lon="6.94719">
        <ele>1487.78</ele>
        <time>2015-09-19T11:50:41Z</time>
      </trkpt>
      <trkpt lat="43.9779" lon="6.94706">
        <ele>1487.3</ele>
        <time>2015-09-19T11:50:50Z</time>
      </trkpt>
      <trkpt lat="43.9779" lon="6.947">
        <ele>1486.82</ele>
        <time>2015-09-19T11:50:54Z</time>
      </trkpt>
      <trkpt lat="43.9779" lon="6.94696">
        <ele>1486.34</ele>
        <time>2015-09-19T11:50:57Z</time>
      </trkpt>
      <trkpt lat="43.97786" lon="6.94685">
        <ele>1485.85</ele>
        <time>2015-09-19T11:51:05Z</time>
      </trkpt>
      <trkpt lat="43.97785" lon="6.94676">
        <ele>1485.85</ele>
        <time>2015-09-19T11:51:12Z</time>
      </trkpt>
      <trkpt lat="43.97783" lon="6.94665">
        <ele>1485.85</ele>
        <time>2015-09-19T11:51:20Z</time>
      </trkpt>
      <trkpt lat="43.97783" lon="6.94657">
        <ele>1485.85</ele>
        <time>2015-09-19T11:51:26Z</time>
      </trkpt>
      <trkpt lat="43.97781" lon="6.94649">
        <ele>1485.85</ele>
        <time>2015-09-19T11:51:33Z</time>
      </trkpt>
      <trkpt lat="43.97779" lon="6.94641">
        <ele>1484.41</ele>
        <time>2015-09-19T11:51:40Z</time>
      </trkpt>
      <trkpt lat="43.97777" lon="6.94636">
        <ele>1483.45</ele>
        <time>2015-09-19T11:51:45Z</time>
      </trkpt>
      <trkpt lat="43.97777" lon="6.94628">
        <ele>1482.01</ele>
        <time>2015-09-19T11:51:52Z</time>
      </trkpt>
      <trkpt lat="43.97775" lon="6.94626">
        <ele>1481.53</ele>
        <time>2015-09-19T11:51:55Z</time>
      </trkpt>
      <trkpt lat="43.97772" lon="6.94617">
        <ele>1479.61</ele>
        <time>2015-09-19T11:52:02Z</time>
      </trkpt>
      <trkpt lat="43.97768" lon="6.94615">
        <ele>1478.65</ele>
        <time>2015-09-19T11:52:08Z</time>
      </trkpt>
      <trkpt lat="43.97764" lon="6.94615">
        <ele>1477.68</ele>
        <time>2015-09-19T11:52:12Z</time>
      </trkpt>
      <trkpt lat="43.97753" lon="6.94613">
        <ele>1476.72</ele>
        <time>2015-09-19T11:52:22Z</time>
      </trkpt>
      <trkpt lat="43.97743" lon="6.94609">
        <ele>1476.72</ele>
        <time>2015-09-19T11:52:31Z</time>
      </trkpt>
      <trkpt lat="43.97737" lon="6.94605">
        <ele>1476.72</ele>
        <time>2015-09-19T11:52:37Z</time>
      </trkpt>
      <trkpt lat="43.97729" lon="6.94597">
        <ele>1476.24</ele>
        <time>2015-09-19T11:52:46Z</time>
      </trkpt>
      <trkpt lat="43.97724" lon="6.9459">
        <ele>1475.28</ele>
        <time>2015-09-19T11:52:53Z</time>
      </trkpt>
      <trkpt lat="43.97723" lon="6.94589">
        <ele>1474.8</ele>
        <time>2015-09-19T11:52:55Z</time>
      </trkpt>
      <trkpt lat="43.97716" lon="6.94582">
        <ele>1472.88</ele>
        <time>2015-09-19T11:53:04Z</time>
      </trkpt>
      <trkpt lat="43.97712" lon="6.94581">
        <ele>1472.4</ele>
        <time>2015-09-19T11:53:10Z</time>
      </trkpt>
      <trkpt lat="43.97711" lon="6.9458">
        <ele>1471.92</ele>
        <time>2015-09-19T11:53:11Z</time>
      </trkpt>
      <trkpt lat="43.97709" lon="6.94578">
        <ele>1471.44</ele>
        <time>2015-09-19T11:53:14Z</time>
      </trkpt>
      <trkpt lat="43.97707" lon="6.94574">
        <ele>1470.95</ele>
        <time>2015-09-19T11:53:17Z</time>
      </trkpt>
      <trkpt lat="43.97701" lon="6.94566">
        <ele>1469.03</ele>
        <time>2015-09-19T11:53:26Z</time>
      </trkpt>
      <trkpt lat="43.97697" lon="6.9456">
        <ele>1468.07</ele>
        <time>2015-09-19T11:53:33Z</time>
      </trkpt>
      <trkpt lat="43.97697" lon="6.94559">
        <ele>1467.59</ele>
        <time>2015-09-19T11:53:34Z</time>
      </trkpt>
      <trkpt lat="43.9769" lon="6.9455">
        <ele>1467.11</ele>
        <time>2015-09-19T11:53:44Z</time>
      </trkpt>
      <trkpt lat="43.97686" lon="6.94543">
        <ele>1465.67</ele>
        <time>2015-09-19T11:53:51Z</time>
      </trkpt>
      <trkpt lat="43.97677" lon="6.94536">
        <ele>1464.71</ele>
        <time>2015-09-19T11:53:58Z</time>
      </trkpt>
      <trkpt lat="43.97674" lon="6.9453">
        <ele>1463.74</ele>
        <time>2015-09-19T11:54:04Z</time>
      </trkpt>
      <trkpt lat="43.97671" lon="6.94524">
        <ele>1462.78</ele>
        <time>2015-09-19T11:54:12Z</time>
      </trkpt>
      <trkpt lat="43.97663" lon="6.94515">
        <ele>1462.78</ele>
        <time>2015-09-19T11:54:20Z</time>
      </trkpt>
      <trkpt lat="43.97657" lon="6.94509">
        <ele>1462.3</ele>
        <time>2015-09-19T11:54:27Z</time>
      </trkpt>
      <trkpt lat="43.97653" lon="6.94503">
        <ele>1461.34</ele>
        <time>2015-09-19T11:54:32Z</time>
      </trkpt>
      <trkpt lat="43.9765" lon="6.945">
        <ele>1459.9</ele>
        <time>2015-09-19T11:54:38Z</time>
      </trkpt>
      <trkpt lat="43.97648" lon="6.94495">
        <ele>1458.46</ele>
        <time>2015-09-19T11:54:44Z</time>
      </trkpt>
      <trkpt lat="43.97647" lon="6.9449">
        <ele>1457.5</ele>
        <time>2015-09-19T11:54:48Z</time>
      </trkpt>
      <trkpt lat="43.97645" lon="6.94485">
        <ele>1456.05</ele>
        <time>2015-09-19T11:54:55Z</time>
      </trkpt>
      <trkpt lat="43.97642" lon="6.9448">
        <ele>1454.61</ele>
        <time>2015-09-19T11:55:01Z</time>
      </trkpt>
      <trkpt lat="43.97642" lon="6.94475">
        <ele>1453.65</ele>
        <time>2015-09-19T11:55:07Z</time>
      </trkpt>
      <trkpt lat="43.97642" lon="6.9447">
        <ele>1452.21</ele>
        <time>2015-09-19T11:55:13Z</time>
      </trkpt>
      <trkpt lat="43.97639" lon="6.94465">
        <ele>1450.77</ele>
        <time>2015-09-19T11:55:20Z</time>
      </trkpt>
      <trkpt lat="43.97638" lon="6.94461">
        <ele>1449.81</ele>
        <time>2015-09-19T11:55:28Z</time>
      </trkpt>
      <trkpt lat="43.97633" lon="6.94456">
        <ele>1449.32</ele>
        <time>2015-09-19T11:55:35Z</time>
      </trkpt>
      <trkpt lat="43.97628" lon="6.94451">
        <ele>1447.88</ele>
        <time>2015-09-19T11:55:43Z</time>
      </trkpt>
      <trkpt lat="43.97625" lon="6.94446">
        <ele>1446.44</ele>
        <time>2015-09-19T11:55:50Z</time>
      </trkpt>
      <trkpt lat="43.97623" lon="6.94444">
        <ele>1446.44</ele>
        <time>2015-09-19T11:56:08Z</time>
      </trkpt>
      <trkpt lat="43.97622" lon="6.94444">
        <ele>1445.48</ele>
        <time>2015-09-19T11:56:12Z</time>
      </trkpt>
      <trkpt lat="43.97619" lon="6.94441">
        <ele>1444.52</ele>
        <time>2015-09-19T11:56:18Z</time>
      </trkpt>
      <trkpt lat="43.97614" lon="6.94433">
        <ele>1442.11</ele>
        <time>2015-09-19T11:56:26Z</time>
      </trkpt>
      <trkpt lat="43.9761" lon="6.94428">
        <ele>1441.15</ele>
        <time>2015-09-19T11:56:32Z</time>
      </trkpt>
      <trkpt lat="43.97604" lon="6.94423">
        <ele>1438.75</ele>
        <time>2015-09-19T11:56:40Z</time>
      </trkpt>
      <trkpt lat="43.97601" lon="6.94418">
        <ele>1436.35</ele>
        <time>2015-09-19T11:56:47Z</time>
      </trkpt>
      <trkpt lat="43.97597" lon="6.94412">
        <ele>1435.39</ele>
        <time>2015-09-19T11:56:53Z</time>
      </trkpt>
      <trkpt lat="43.97594" lon="6.94406">
        <ele>1432.98</ele>
        <time>2015-09-19T11:57:00Z</time>
      </trkpt>
      <trkpt lat="43.97593" lon="6.94402">
        <ele>1431.54</ele>
        <time>2015-09-19T11:57:06Z</time>
      </trkpt>
      <trkpt lat="43.97591" lon="6.94398">
        <ele>1430.1</ele>
        <time>2015-09-19T11:57:12Z</time>
      </trkpt>
      <trkpt lat="43.97586" lon="6.94392">
        <ele>1428.18</ele>
        <time>2015-09-19T11:57:20Z</time>
      </trkpt>
      <trkpt lat="43.97584" lon="6.94386">
        <ele>1426.73</ele>
        <time>2015-09-19T11:57:26Z</time>
      </trkpt>
      <trkpt lat="43.9758" lon="6.94379">
        <ele>1424.81</ele>
        <time>2015-09-19T11:57:33Z</time>
      </trkpt>
      <trkpt lat="43.97579" lon="6.94377">
        <ele>1424.33</ele>
        <time>2015-09-19T11:57:35Z</time>
      </trkpt>
      <trkpt lat="43.97574" lon="6.94369">
        <ele>1422.89</ele>
        <time>2015-09-19T11:57:43Z</time>
      </trkpt>
      <trkpt lat="43.97571" lon="6.94362">
        <ele>1421.45</ele>
        <time>2015-09-19T11:57:50Z</time>
      </trkpt>
      <trkpt lat="43.97567" lon="6.94357">
        <ele>1420</ele>
        <time>2015-09-19T11:57:58Z</time>
      </trkpt>
      <trkpt lat="43.97563" lon="6.94353">
        <ele>1419.04</ele>
        <time>2015-09-19T11:58:06Z</time>
      </trkpt>
      <trkpt lat="43.9756" lon="6.94348">
        <ele>1418.08</ele>
        <time>2015-09-19T11:58:14Z</time>
      </trkpt>
      <trkpt lat="43.97558" lon="6.94344">
        <ele>1416.64</ele>
        <time>2015-09-19T11:58:19Z</time>
      </trkpt>
      <trkpt lat="43.97554" lon="6.94341">
        <ele>1415.2</ele>
        <time>2015-09-19T11:58:26Z</time>
      </trkpt>
      <trkpt lat="43.97549" lon="6.94334">
        <ele>1413.76</ele>
        <time>2015-09-19T11:58:33Z</time>
      </trkpt>
      <trkpt lat="43.97544" lon="6.94327">
        <ele>1412.31</ele>
        <time>2015-09-19T11:58:41Z</time>
      </trkpt>
      <trkpt lat="43.9754" lon="6.94321">
        <ele>1410.87</ele>
        <time>2015-09-19T11:58:47Z</time>
      </trkpt>
      <trkpt lat="43.97534" lon="6.94314">
        <ele>1409.43</ele>
        <time>2015-09-19T11:58:55Z</time>
      </trkpt>
      <trkpt lat="43.9753" lon="6.9431">
        <ele>1408.47</ele>
        <time>2015-09-19T11:59:02Z</time>
      </trkpt>
      <trkpt lat="43.97525" lon="6.94308">
        <ele>1407.03</ele>
        <time>2015-09-19T11:59:10Z</time>
      </trkpt>
      <trkpt lat="43.97524" lon="6.94306">
        <ele>1406.07</ele>
        <time>2015-09-19T11:59:18Z</time>
      </trkpt>
      <trkpt lat="43.97523" lon="6.94302">
        <ele>1405.1</ele>
        <time>2015-09-19T11:59:27Z</time>
      </trkpt>
      <trkpt lat="43.97523" lon="6.943">
        <ele>1404.14</ele>
        <time>2015-09-19T11:59:32Z</time>
      </trkpt>
      <trkpt lat="43.97523" lon="6.94297">
        <ele>1402.7</ele>
        <time>2015-09-19T11:59:38Z</time>
      </trkpt>
      <trkpt lat="43.97525" lon="6.94296">
        <ele>1401.74</ele>
        <time>2015-09-19T11:59:45Z</time>
      </trkpt>
      <trkpt lat="43.97525" lon="6.9429">
        <ele>1399.82</ele>
        <time>2015-09-19T11:59:53Z</time>
      </trkpt>
      <trkpt lat="43.97524" lon="6.9429">
        <ele>1399.34</ele>
        <time>2015-09-19T11:59:58Z</time>
      </trkpt>
      <trkpt lat="43.97522" lon="6.94287">
        <ele>1398.37</ele>
        <time>2015-09-19T12:00:05Z</time>
      </trkpt>
      <trkpt lat="43.97522" lon="6.94287">
        <ele>1397.89</ele>
        <time>2015-09-19T12:00:14Z</time>
      </trkpt>
      <trkpt lat="43.97523" lon="6.94285">
        <ele>1397.41</ele>
        <time>2015-09-19T12:00:21Z</time>
      </trkpt>
      <trkpt lat="43.97525" lon="6.94282">
        <ele>1395.97</ele>
        <time>2015-09-19T12:00:28Z</time>
      </trkpt>
      <trkpt lat="43.97528" lon="6.9428">
        <ele>1395.01</ele>
        <time>2015-09-19T12:00:34Z</time>
      </trkpt>
      <trkpt lat="43.97527" lon="6.94279">
        <ele>1395.49</ele>
        <time>2015-09-19T12:00:49Z</time>
      </trkpt>
      <trkpt lat="43.97527" lon="6.94279">
        <ele>1395.49</ele>
        <time>2015-09-19T12:01:04Z</time>
      </trkpt>
      <trkpt lat="43.97526" lon="6.94278">
        <ele>1395.01</ele>
        <time>2015-09-19T12:01:06Z</time>
      </trkpt>
      <trkpt lat="43.97523" lon="6.94274">
        <ele>1393.09</ele>
        <time>2015-09-19T12:01:13Z</time>
      </trkpt>
      <trkpt lat="43.97521" lon="6.94272">
        <ele>1391.65</ele>
        <time>2015-09-19T12:01:19Z</time>
      </trkpt>
      <trkpt lat="43.9752" lon="6.94271">
        <ele>1391.17</ele>
        <time>2015-09-19T12:01:24Z</time>
      </trkpt>
      <trkpt lat="43.9752" lon="6.94268">
        <ele>1390.68</ele>
        <time>2015-09-19T12:01:31Z</time>
      </trkpt>
      <trkpt lat="43.97516" lon="6.94266">
        <ele>1388.28</ele>
        <time>2015-09-19T12:01:38Z</time>
      </trkpt>
      <trkpt lat="43.97513" lon="6.94263">
        <ele>1386.36</ele>
        <time>2015-09-19T12:01:46Z</time>
      </trkpt>
      <trkpt lat="43.97512" lon="6.94256">
        <ele>1384.92</ele>
        <time>2015-09-19T12:01:53Z</time>
      </trkpt>
      <trkpt lat="43.97513" lon="6.94249">
        <ele>1383.47</ele>
        <time>2015-09-19T12:02:00Z</time>
      </trkpt>
      <trkpt lat="43.97512" lon="6.94242">
        <ele>1382.03</ele>
        <time>2015-09-19T12:02:07Z</time>
      </trkpt>
      <trkpt lat="43.9751" lon="6.94238">
        <ele>1380.11</ele>
        <time>2015-09-19T12:02:15Z</time>
      </trkpt>
      <trkpt lat="43.97509" lon="6.94234">
        <ele>1379.15</ele>
        <time>2015-09-19T12:02:21Z</time>
      </trkpt>
      <trkpt lat="43.97508" lon="6.94229">
        <ele>1377.71</ele>
        <time>2015-09-19T12:02:26Z</time>
      </trkpt>
      <trkpt lat="43.97507" lon="6.94224">
        <ele>1375.78</ele>
        <time>2015-09-19T12:02:33Z</time>
      </trkpt>
      <trkpt lat="43.97502" lon="6.94222">
        <ele>1374.82</ele>
        <time>2015-09-19T12:02:39Z</time>
      </trkpt>
      <trkpt lat="43.97497" lon="6.94215">
        <ele>1373.86</ele>
        <time>2015-09-19T12:02:47Z</time>
      </trkpt>
      <trkpt lat="43.97494" lon="6.94207">
        <ele>1373.38</ele>
        <time>2015-09-19T12:02:53Z</time>
      </trkpt>
      <trkpt lat="43.97494" lon="6.94203">
        <ele>1372.9</ele>
        <time>2015-09-19T12:02:56Z</time>
      </trkpt>
      <trkpt lat="43.97489" lon="6.94195">
        <ele>1371.94</ele>
        <time>2015-09-19T12:03:03Z</time>
      </trkpt>
      <trkpt lat="43.97485" lon="6.94185">
        <ele>1371.46</ele>
        <time>2015-09-19T12:03:11Z</time>
      </trkpt>
      <trkpt lat="43.97484" lon="6.9418">
        <ele>1370.98</ele>
        <time>2015-09-19T12:03:16Z</time>
      </trkpt>
      <trkpt lat="43.97482" lon="6.94173">
        <ele>1370.02</ele>
        <time>2015-09-19T12:03:21Z</time>
      </trkpt>
      <trkpt lat="43.97481" lon="6.94165">
        <ele>1369.05</ele>
        <time>2015-09-19T12:03:27Z</time>
      </trkpt>
      <trkpt lat="43.97476" lon="6.94156">
        <ele>1368.57</ele>
        <time>2015-09-19T12:03:35Z</time>
      </trkpt>
      <trkpt lat="43.97476" lon="6.9415">
        <ele>1368.09</ele>
        <time>2015-09-19T12:03:39Z</time>
      </trkpt>
      <trkpt lat="43.97474" lon="6.94147">
        <ele>1367.61</ele>
        <time>2015-09-19T12:03:42Z</time>
      </trkpt>
      <trkpt lat="43.97474" lon="6.94143">
        <ele>1367.13</ele>
        <time>2015-09-19T12:03:45Z</time>
      </trkpt>
      <trkpt lat="43.97471" lon="6.94134">
        <ele>1366.65</ele>
        <time>2015-09-19T12:03:54Z</time>
      </trkpt>
      <trkpt lat="43.97472" lon="6.94125">
        <ele>1365.69</ele>
        <time>2015-09-19T12:04:03Z</time>
      </trkpt>
      <trkpt lat="43.97471" lon="6.9412">
        <ele>1364.73</ele>
        <time>2015-09-19T12:04:09Z</time>
      </trkpt>
      <trkpt lat="43.97467" lon="6.94116">
        <ele>1364.25</ele>
        <time>2015-09-19T12:04:15Z</time>
      </trkpt>
      <trkpt lat="43.97463" lon="6.94113">
        <ele>1362.81</ele>
        <time>2015-09-19T12:04:22Z</time>
      </trkpt>
      <trkpt lat="43.97457" lon="6.94104">
        <ele>1361.84</ele>
        <time>2015-09-19T12:04:28Z</time>
      </trkpt>
      <trkpt lat="43.97455" lon="6.94096">
        <ele>1362.81</ele>
        <time>2015-09-19T12:04:35Z</time>
      </trkpt>
      <trkpt lat="43.97453" lon="6.94087">
        <ele>1363.77</ele>
        <time>2015-09-19T12:04:44Z</time>
      </trkpt>
      <trkpt lat="43.97451" lon="6.94079">
        <ele>1363.77</ele>
        <time>2015-09-19T12:04:51Z</time>
      </trkpt>
      <trkpt lat="43.97446" lon="6.94073">
        <ele>1362.81</ele>
        <time>2015-09-19T12:04:58Z</time>
      </trkpt>
      <trkpt lat="43.97439" lon="6.94066">
        <ele>1361.84</ele>
        <time>2015-09-19T12:05:06Z</time>
      </trkpt>
      <trkpt lat="43.97435" lon="6.94058">
        <ele>1362.33</ele>
        <time>2015-09-19T12:05:14Z</time>
      </trkpt>
      <trkpt lat="43.97431" lon="6.94051">
        <ele>1361.36</ele>
        <time>2015-09-19T12:05:20Z</time>
      </trkpt>
      <trkpt lat="43.97428" lon="6.94048">
        <ele>1361.36</ele>
        <time>2015-09-19T12:05:26Z</time>
      </trkpt>
      <trkpt lat="43.97424" lon="6.94043">
        <ele>1361.36</ele>
        <time>2015-09-19T12:05:32Z</time>
      </trkpt>
      <trkpt lat="43.97423" lon="6.94042">
        <ele>1360.88</ele>
        <time>2015-09-19T12:05:34Z</time>
      </trkpt>
      <trkpt lat="43.97413" lon="6.94042">
        <ele>1360.88</ele>
        <time>2015-09-19T12:05:44Z</time>
      </trkpt>
      <trkpt lat="43.97408" lon="6.9404">
        <ele>1360.4</ele>
        <time>2015-09-19T12:05:50Z</time>
      </trkpt>
      <trkpt lat="43.97403" lon="6.94035">
        <ele>1359.44</ele>
        <time>2015-09-19T12:05:56Z</time>
      </trkpt>
      <trkpt lat="43.97402" lon="6.94033">
        <ele>1358.96</ele>
        <time>2015-09-19T12:05:58Z</time>
      </trkpt>
      <trkpt lat="43.97393" lon="6.94024">
        <ele>1358</ele>
        <time>2015-09-19T12:06:07Z</time>
      </trkpt>
      <trkpt lat="43.97388" lon="6.94018">
        <ele>1357.04</ele>
        <time>2015-09-19T12:06:15Z</time>
      </trkpt>
      <trkpt lat="43.97384" lon="6.94011">
        <ele>1355.12</ele>
        <time>2015-09-19T12:06:23Z</time>
      </trkpt>
      <trkpt lat="43.97384" lon="6.9401">
        <ele>1355.12</ele>
        <time>2015-09-19T12:06:24Z</time>
      </trkpt>
      <trkpt lat="43.97384" lon="6.94002">
        <ele>1354.15</ele>
        <time>2015-09-19T12:06:32Z</time>
      </trkpt>
      <trkpt lat="43.97384" lon="6.93994">
        <ele>1352.71</ele>
        <time>2015-09-19T12:06:41Z</time>
      </trkpt>
      <trkpt lat="43.97383" lon="6.93986">
        <ele>1351.27</ele>
        <time>2015-09-19T12:06:48Z</time>
      </trkpt>
      <trkpt lat="43.97382" lon="6.9398">
        <ele>1350.31</ele>
        <time>2015-09-19T12:06:56Z</time>
      </trkpt>
      <trkpt lat="43.97382" lon="6.93977">
        <ele>1349.83</ele>
        <time>2015-09-19T12:07:03Z</time>
      </trkpt>
      <trkpt lat="43.9738" lon="6.93972">
        <ele>1347.91</ele>
        <time>2015-09-19T12:07:09Z</time>
      </trkpt>
      <trkpt lat="43.97377" lon="6.93968">
        <ele>1346.46</ele>
        <time>2015-09-19T12:07:16Z</time>
      </trkpt>
      <trkpt lat="43.97376" lon="6.93963">
        <ele>1345.5</ele>
        <time>2015-09-19T12:07:22Z</time>
      </trkpt>
      <trkpt lat="43.97375" lon="6.93957">
        <ele>1344.06</ele>
        <time>2015-09-19T12:07:28Z</time>
      </trkpt>
      <trkpt lat="43.97375" lon="6.93953">
        <ele>1342.62</ele>
        <time>2015-09-19T12:07:34Z</time>
      </trkpt>
      <trkpt lat="43.97376" lon="6.93947">
        <ele>1341.18</ele>
        <time>2015-09-19T12:07:41Z</time>
      </trkpt>
      <trkpt lat="43.97377" lon="6.93942">
        <ele>1340.22</ele>
        <time>2015-09-19T12:07:48Z</time>
      </trkpt>
      <trkpt lat="43.97379" lon="6.93936">
        <ele>1338.77</ele>
        <time>2015-09-19T12:07:57Z</time>
      </trkpt>
      <trkpt lat="43.97377" lon="6.93932">
        <ele>1337.33</ele>
        <time>2015-09-19T12:08:05Z</time>
      </trkpt>
      <trkpt lat="43.97375" lon="6.9393">
        <ele>1335.89</ele>
        <time>2015-09-19T12:08:12Z</time>
      </trkpt>
      <trkpt lat="43.97373" lon="6.93929">
        <ele>1334.93</ele>
        <time>2015-09-19T12:08:17Z</time>
      </trkpt>
      <trkpt lat="43.97372" lon="6.93925">
        <ele>1333.97</ele>
        <time>2015-09-19T12:08:23Z</time>
      </trkpt>
      <trkpt lat="43.9737" lon="6.9392">
        <ele>1332.04</ele>
        <time>2015-09-19T12:08:31Z</time>
      </trkpt>
      <trkpt lat="43.97369" lon="6.93917">
        <ele>1330.6</ele>
        <time>2015-09-19T12:08:37Z</time>
      </trkpt>
      <trkpt lat="43.97366" lon="6.93913">
        <ele>1328.68</ele>
        <time>2015-09-19T12:08:47Z</time>
      </trkpt>
      <trkpt lat="43.97363" lon="6.9391">
        <ele>1327.24</ele>
        <time>2015-09-19T12:08:54Z</time>
      </trkpt>
      <trkpt lat="43.9736" lon="6.93906">
        <ele>1325.31</ele>
        <time>2015-09-19T12:09:03Z</time>
      </trkpt>
      <trkpt lat="43.97359" lon="6.93901">
        <ele>1324.35</ele>
        <time>2015-09-19T12:09:10Z</time>
      </trkpt>
      <trkpt lat="43.97357" lon="6.93895">
        <ele>1322.91</ele>
        <time>2015-09-19T12:09:17Z</time>
      </trkpt>
      <trkpt lat="43.97356" lon="6.93895">
        <ele>1322.91</ele>
        <time>2015-09-19T12:09:24Z</time>
      </trkpt>
      <trkpt lat="43.97357" lon="6.93896">
        <ele>1322.91</ele>
        <time>2015-09-19T12:09:36Z</time>
      </trkpt>
      <trkpt lat="43.97356" lon="6.93896">
        <ele>1322.91</ele>
        <time>2015-09-19T12:09:51Z</time>
      </trkpt>
      <trkpt lat="43.97356" lon="6.93896">
        <ele>1322.91</ele>
        <time>2015-09-19T12:10:05Z</time>
      </trkpt>
      <trkpt lat="43.97356" lon="6.93895">
        <ele>1322.43</ele>
        <time>2015-09-19T12:10:22Z</time>
      </trkpt>
      <trkpt lat="43.97356" lon="6.93895">
        <ele>1322.43</ele>
        <time>2015-09-19T12:10:40Z</time>
      </trkpt>
      <trkpt lat="43.97356" lon="6.93895">
        <ele>1322.43</ele>
        <time>2015-09-19T12:11:00Z</time>
      </trkpt>
      <trkpt lat="43.97356" lon="6.93895">
        <ele>1322.43</ele>
        <time>2015-09-19T12:11:15Z</time>
      </trkpt>
      <trkpt lat="43.97356" lon="6.93893">
        <ele>1321.95</ele>
        <time>2015-09-19T12:11:21Z</time>
      </trkpt>
      <trkpt lat="43.97357" lon="6.9389">
        <ele>1320.51</ele>
        <time>2015-09-19T12:11:29Z</time>
      </trkpt>
      <trkpt lat="43.97358" lon="6.93887">
        <ele>1319.07</ele>
        <time>2015-09-19T12:11:35Z</time>
      </trkpt>
      <trkpt lat="43.97357" lon="6.93881">
        <ele>1317.62</ele>
        <time>2015-09-19T12:11:42Z</time>
      </trkpt>
      <trkpt lat="43.97358" lon="6.93876">
        <ele>1316.66</ele>
        <time>2015-09-19T12:11:50Z</time>
      </trkpt>
      <trkpt lat="43.97359" lon="6.93872">
        <ele>1315.22</ele>
        <time>2015-09-19T12:11:56Z</time>
      </trkpt>
      <trkpt lat="43.97357" lon="6.93869">
        <ele>1314.26</ele>
        <time>2015-09-19T12:12:03Z</time>
      </trkpt>
      <trkpt lat="43.97356" lon="6.93865">
        <ele>1313.3</ele>
        <time>2015-09-19T12:12:09Z</time>
      </trkpt>
      <trkpt lat="43.97353" lon="6.93862">
        <ele>1311.38</ele>
        <time>2015-09-19T12:12:16Z</time>
      </trkpt>
      <trkpt lat="43.97352" lon="6.93859">
        <ele>1309.93</ele>
        <time>2015-09-19T12:12:23Z</time>
      </trkpt>
      <trkpt lat="43.97351" lon="6.93853">
        <ele>1308.49</ele>
        <time>2015-09-19T12:12:30Z</time>
      </trkpt>
      <trkpt lat="43.97348" lon="6.93849">
        <ele>1307.53</ele>
        <time>2015-09-19T12:12:36Z</time>
      </trkpt>
      <trkpt lat="43.97351" lon="6.93844">
        <ele>1306.09</ele>
        <time>2015-09-19T12:12:43Z</time>
      </trkpt>
      <trkpt lat="43.97352" lon="6.93837">
        <ele>1304.65</ele>
        <time>2015-09-19T12:12:51Z</time>
      </trkpt>
      <trkpt lat="43.97351" lon="6.93831">
        <ele>1303.2</ele>
        <time>2015-09-19T12:12:58Z</time>
      </trkpt>
      <trkpt lat="43.97349" lon="6.93826">
        <ele>1301.28</ele>
        <time>2015-09-19T12:13:04Z</time>
      </trkpt>
      <trkpt lat="43.97347" lon="6.93818">
        <ele>1299.84</ele>
        <time>2015-09-19T12:13:12Z</time>
      </trkpt>
      <trkpt lat="43.97347" lon="6.93813">
        <ele>1298.4</ele>
        <time>2015-09-19T12:13:19Z</time>
      </trkpt>
      <trkpt lat="43.97345" lon="6.93807">
        <ele>1297.44</ele>
        <time>2015-09-19T12:13:26Z</time>
      </trkpt>
      <trkpt lat="43.97344" lon="6.93804">
        <ele>1297.44</ele>
        <time>2015-09-19T12:13:32Z</time>
      </trkpt>
      <trkpt lat="43.97344" lon="6.93804">
        <ele>1296.48</ele>
        <time>2015-09-19T12:13:47Z</time>
      </trkpt>
      <trkpt lat="43.97344" lon="6.93804">
        <ele>1296.48</ele>
        <time>2015-09-19T12:14:02Z</time>
      </trkpt>
      <trkpt lat="43.97343" lon="6.93803">
        <ele>1295.99</ele>
        <time>2015-09-19T12:14:11Z</time>
      </trkpt>
      <trkpt lat="43.97338" lon="6.93802">
        <ele>1295.03</ele>
        <time>2015-09-19T12:14:18Z</time>
      </trkpt>
      <trkpt lat="43.97338" lon="6.93798">
        <ele>1294.07</ele>
        <time>2015-09-19T12:14:25Z</time>
      </trkpt>
      <trkpt lat="43.97336" lon="6.93796">
        <ele>1292.63</ele>
        <time>2015-09-19T12:14:33Z</time>
      </trkpt>
      <trkpt lat="43.97335" lon="6.93797">
        <ele>1292.63</ele>
        <time>2015-09-19T12:14:40Z</time>
      </trkpt>
      <trkpt lat="43.97335" lon="6.93798">
        <ele>1293.11</ele>
        <time>2015-09-19T12:14:54Z</time>
      </trkpt>
      <trkpt lat="43.97334" lon="6.93798">
        <ele>1293.11</ele>
        <time>2015-09-19T12:15:08Z</time>
      </trkpt>
      <trkpt lat="43.97334" lon="6.93798">
        <ele>1293.11</ele>
        <time>2015-09-19T12:15:23Z</time>
      </trkpt>
      <trkpt lat="43.97334" lon="6.93797">
        <ele>1292.63</ele>
        <time>2015-09-19T12:15:31Z</time>
      </trkpt>
      <trkpt lat="43.97334" lon="6.93796">
        <ele>1292.63</ele>
        <time>2015-09-19T12:15:40Z</time>
      </trkpt>
      <trkpt lat="43.97333" lon="6.93796">
        <ele>1292.15</ele>
        <time>2015-09-19T12:15:50Z</time>
      </trkpt>
      <trkpt lat="43.97333" lon="6.93796">
        <ele>1292.15</ele>
        <time>2015-09-19T12:16:03Z</time>
      </trkpt>
      <trkpt lat="43.97333" lon="6.93796">
        <ele>1291.67</ele>
        <time>2015-09-19T12:16:22Z</time>
      </trkpt>
      <trkpt lat="43.97332" lon="6.93789">
        <ele>1290.71</ele>
        <time>2015-09-19T12:16:29Z</time>
      </trkpt>
      <trkpt lat="43.97329" lon="6.93782">
        <ele>1288.78</ele>
        <time>2015-09-19T12:16:37Z</time>
      </trkpt>
      <trkpt lat="43.97323" lon="6.93774">
        <ele>1287.34</ele>
        <time>2015-09-19T12:16:45Z</time>
      </trkpt>
      <trkpt lat="43.9732" lon="6.93768">
        <ele>1286.38</ele>
        <time>2015-09-19T12:16:52Z</time>
      </trkpt>
      <trkpt lat="43.97318" lon="6.93762">
        <ele>1285.42</ele>
        <time>2015-09-19T12:16:58Z</time>
      </trkpt>
      <trkpt lat="43.97316" lon="6.9376">
        <ele>1283.5</ele>
        <time>2015-09-19T12:17:06Z</time>
      </trkpt>
      <trkpt lat="43.9731" lon="6.93753">
        <ele>1282.54</ele>
        <time>2015-09-19T12:17:13Z</time>
      </trkpt>
      <trkpt lat="43.97308" lon="6.93746">
        <ele>1281.57</ele>
        <time>2015-09-19T12:17:20Z</time>
      </trkpt>
      <trkpt lat="43.97304" lon="6.93742">
        <ele>1280.61</ele>
        <time>2015-09-19T12:17:27Z</time>
      </trkpt>
      <trkpt lat="43.97298" lon="6.93736">
        <ele>1278.69</ele>
        <time>2015-09-19T12:17:35Z</time>
      </trkpt>
      <trkpt lat="43.97294" lon="6.93733">
        <ele>1277.25</ele>
        <time>2015-09-19T12:17:41Z</time>
      </trkpt>
      <trkpt lat="43.9729" lon="6.93729">
        <ele>1275.81</ele>
        <time>2015-09-19T12:17:48Z</time>
      </trkpt>
      <trkpt lat="43.97286" lon="6.93723">
        <ele>1274.85</ele>
        <time>2015-09-19T12:17:55Z</time>
      </trkpt>
      <trkpt lat="43.97282" lon="6.93717">
        <ele>1273.4</ele>
        <time>2015-09-19T12:18:03Z</time>
      </trkpt>
      <trkpt lat="43.9728" lon="6.93714">
        <ele>1272.92</ele>
        <time>2015-09-19T12:18:08Z</time>
      </trkpt>
      <trkpt lat="43.97279" lon="6.93713">
        <ele>1272.92</ele>
        <time>2015-09-19T12:18:19Z</time>
      </trkpt>
      <trkpt lat="43.97277" lon="6.93712">
        <ele>1272.92</ele>
        <time>2015-09-19T12:18:26Z</time>
      </trkpt>
      <trkpt lat="43.97275" lon="6.93712">
        <ele>1272.92</ele>
        <time>2015-09-19T12:18:32Z</time>
      </trkpt>
      <trkpt lat="43.97273" lon="6.93711">
        <ele>1271.96</ele>
        <time>2015-09-19T12:18:42Z</time>
      </trkpt>
      <trkpt lat="43.97272" lon="6.93704">
        <ele>1271.48</ele>
        <time>2015-09-19T12:18:48Z</time>
      </trkpt>
      <trkpt lat="43.97273" lon="6.937">
        <ele>1271.48</ele>
        <time>2015-09-19T12:18:51Z</time>
      </trkpt>
      <trkpt lat="43.97274" lon="6.93688">
        <ele>1270.52</ele>
        <time>2015-09-19T12:18:59Z</time>
      </trkpt>
      <trkpt lat="43.97271" lon="6.93682">
        <ele>1270.04</ele>
        <time>2015-09-19T12:19:06Z</time>
      </trkpt>
      <trkpt lat="43.97272" lon="6.9368">
        <ele>1270.04</ele>
        <time>2015-09-19T12:19:10Z</time>
      </trkpt>
      <trkpt lat="43.97274" lon="6.93668">
        <ele>1269.08</ele>
        <time>2015-09-19T12:19:19Z</time>
      </trkpt>
      <trkpt lat="43.97277" lon="6.93659">
        <ele>1268.6</ele>
        <time>2015-09-19T12:19:26Z</time>
      </trkpt>
      <trkpt lat="43.97282" lon="6.93651">
        <ele>1268.6</ele>
        <time>2015-09-19T12:19:34Z</time>
      </trkpt>
      <trkpt lat="43.97289" lon="6.9364">
        <ele>1268.6</ele>
        <time>2015-09-19T12:19:44Z</time>
      </trkpt>
      <trkpt lat="43.97294" lon="6.93632">
        <ele>1269.56</ele>
        <time>2015-09-19T12:19:52Z</time>
      </trkpt>
      <trkpt lat="43.97296" lon="6.93624">
        <ele>1270.04</ele>
        <time>2015-09-19T12:19:59Z</time>
      </trkpt>
      <trkpt lat="43.97297" lon="6.93622">
        <ele>1270.04</ele>
        <time>2015-09-19T12:20:00Z</time>
      </trkpt>
      <trkpt lat="43.97298" lon="6.93614">
        <ele>1271.48</ele>
        <time>2015-09-19T12:20:08Z</time>
      </trkpt>
      <trkpt lat="43.97297" lon="6.9361">
        <ele>1271.96</ele>
        <time>2015-09-19T12:20:12Z</time>
      </trkpt>
      <trkpt lat="43.97296" lon="6.93602">
        <ele>1272.92</ele>
        <time>2015-09-19T12:20:19Z</time>
      </trkpt>
      <trkpt lat="43.97295" lon="6.93593">
        <ele>1273.4</ele>
        <time>2015-09-19T12:20:28Z</time>
      </trkpt>
      <trkpt lat="43.97295" lon="6.93586">
        <ele>1272.44</ele>
        <time>2015-09-19T12:20:36Z</time>
      </trkpt>
      <trkpt lat="43.97295" lon="6.93579">
        <ele>1271.96</ele>
        <time>2015-09-19T12:20:44Z</time>
      </trkpt>
      <trkpt lat="43.97295" lon="6.93575">
        <ele>1271</ele>
        <time>2015-09-19T12:20:50Z</time>
      </trkpt>
      <trkpt lat="43.97295" lon="6.9357">
        <ele>1270.04</ele>
        <time>2015-09-19T12:20:58Z</time>
      </trkpt>
      <trkpt lat="43.97293" lon="6.93567">
        <ele>1269.08</ele>
        <time>2015-09-19T12:21:04Z</time>
      </trkpt>
      <trkpt lat="43.97291" lon="6.93561">
        <ele>1268.6</ele>
        <time>2015-09-19T12:21:11Z</time>
      </trkpt>
      <trkpt lat="43.97289" lon="6.93556">
        <ele>1267.16</ele>
        <time>2015-09-19T12:21:19Z</time>
      </trkpt>
      <trkpt lat="43.97288" lon="6.93553">
        <ele>1265.71</ele>
        <time>2015-09-19T12:21:28Z</time>
      </trkpt>
      <trkpt lat="43.97287" lon="6.93548">
        <ele>1264.75</ele>
        <time>2015-09-19T12:21:34Z</time>
      </trkpt>
      <trkpt lat="43.97286" lon="6.93542">
        <ele>1263.79</ele>
        <time>2015-09-19T12:21:41Z</time>
      </trkpt>
      <trkpt lat="43.97287" lon="6.9354">
        <ele>1263.31</ele>
        <time>2015-09-19T12:21:46Z</time>
      </trkpt>
      <trkpt lat="43.97286" lon="6.93538">
        <ele>1262.83</ele>
        <time>2015-09-19T12:21:53Z</time>
      </trkpt>
      <trkpt lat="43.97285" lon="6.93534">
        <ele>1261.87</ele>
        <time>2015-09-19T12:21:59Z</time>
      </trkpt>
      <trkpt lat="43.97281" lon="6.93532">
        <ele>1260.91</ele>
        <time>2015-09-19T12:22:05Z</time>
      </trkpt>
      <trkpt lat="43.97281" lon="6.93532">
        <ele>1260.43</ele>
        <time>2015-09-19T12:22:06Z</time>
      </trkpt>
      <trkpt lat="43.9728" lon="6.93528">
        <ele>1259.46</ele>
        <time>2015-09-19T12:22:12Z</time>
      </trkpt>
      <trkpt lat="43.97278" lon="6.93526">
        <ele>1257.54</ele>
        <time>2015-09-19T12:22:19Z</time>
      </trkpt>
      <trkpt lat="43.97277" lon="6.93522">
        <ele>1256.1</ele>
        <time>2015-09-19T12:22:26Z</time>
      </trkpt>
      <trkpt lat="43.97274" lon="6.93518">
        <ele>1255.62</ele>
        <time>2015-09-19T12:22:33Z</time>
      </trkpt>
      <trkpt lat="43.97273" lon="6.93514">
        <ele>1253.7</ele>
        <time>2015-09-19T12:22:40Z</time>
      </trkpt>
      <trkpt lat="43.97269" lon="6.93507">
        <ele>1252.25</ele>
        <time>2015-09-19T12:22:49Z</time>
      </trkpt>
      <trkpt lat="43.97269" lon="6.93499">
        <ele>1250.81</ele>
        <time>2015-09-19T12:22:56Z</time>
      </trkpt>
      <trkpt lat="43.97269" lon="6.93493">
        <ele>1249.85</ele>
        <time>2015-09-19T12:23:03Z</time>
      </trkpt>
      <trkpt lat="43.97268" lon="6.93491">
        <ele>1249.37</ele>
        <time>2015-09-19T12:23:12Z</time>
      </trkpt>
      <trkpt lat="43.97266" lon="6.93487">
        <ele>1248.41</ele>
        <time>2015-09-19T12:23:19Z</time>
      </trkpt>
      <trkpt lat="43.97264" lon="6.93484">
        <ele>1247.45</ele>
        <time>2015-09-19T12:23:25Z</time>
      </trkpt>
      <trkpt lat="43.97263" lon="6.93479">
        <ele>1246.01</ele>
        <time>2015-09-19T12:23:31Z</time>
      </trkpt>
      <trkpt lat="43.97262" lon="6.93475">
        <ele>1244.56</ele>
        <time>2015-09-19T12:23:37Z</time>
      </trkpt>
      <trkpt lat="43.97261" lon="6.93474">
        <ele>1244.08</ele>
        <time>2015-09-19T12:23:46Z</time>
      </trkpt>
      <trkpt lat="43.97261" lon="6.93474">
        <ele>1244.08</ele>
        <time>2015-09-19T12:23:47Z</time>
      </trkpt>
      <trkpt lat="43.97259" lon="6.93474">
        <ele>1243.12</ele>
        <time>2015-09-19T12:23:52Z</time>
      </trkpt>
      <trkpt lat="43.97259" lon="6.93474">
        <ele>1242.64</ele>
        <time>2015-09-19T12:24:03Z</time>
      </trkpt>
      <trkpt lat="43.97258" lon="6.93473">
        <ele>1242.64</ele>
        <time>2015-09-19T12:24:13Z</time>
      </trkpt>
      <trkpt lat="43.97258" lon="6.93474">
        <ele>1243.12</ele>
        <time>2015-09-19T12:24:21Z</time>
      </trkpt>
      <trkpt lat="43.97258" lon="6.93472">
        <ele>1242.16</ele>
        <time>2015-09-19T12:24:29Z</time>
      </trkpt>
      <trkpt lat="43.97258" lon="6.9347">
        <ele>1241.2</ele>
        <time>2015-09-19T12:24:37Z</time>
      </trkpt>
      <trkpt lat="43.97257" lon="6.93466">
        <ele>1240.24</ele>
        <time>2015-09-19T12:24:43Z</time>
      </trkpt>
      <trkpt lat="43.97253" lon="6.93463">
        <ele>1238.8</ele>
        <time>2015-09-19T12:24:50Z</time>
      </trkpt>
      <trkpt lat="43.9725" lon="6.93459">
        <ele>1237.35</ele>
        <time>2015-09-19T12:24:58Z</time>
      </trkpt>
      <trkpt lat="43.97249" lon="6.93454">
        <ele>1235.91</ele>
        <time>2015-09-19T12:25:05Z</time>
      </trkpt>
      <trkpt lat="43.97246" lon="6.93454">
        <ele>1234.47</ele>
        <time>2015-09-19T12:25:11Z</time>
      </trkpt>
      <trkpt lat="43.97244" lon="6.9345">
        <ele>1232.55</ele>
        <time>2015-09-19T12:25:19Z</time>
      </trkpt>
      <trkpt lat="43.97242" lon="6.93448">
        <ele>1232.55</ele>
        <time>2015-09-19T12:25:24Z</time>
      </trkpt>
      <trkpt lat="43.97238" lon="6.93446">
        <ele>1230.62</ele>
        <time>2015-09-19T12:25:30Z</time>
      </trkpt>
      <trkpt lat="43.97236" lon="6.93445">
        <ele>1229.18</ele>
        <time>2015-09-19T12:25:37Z</time>
      </trkpt>
      <trkpt lat="43.97232" lon="6.93442">
        <ele>1227.26</ele>
        <time>2015-09-19T12:25:44Z</time>
      </trkpt>
      <trkpt lat="43.97228" lon="6.9344">
        <ele>1225.82</ele>
        <time>2015-09-19T12:25:53Z</time>
      </trkpt>
      <trkpt lat="43.97227" lon="6.9344">
        <ele>1225.82</ele>
        <time>2015-09-19T12:25:54Z</time>
      </trkpt>
      <trkpt lat="43.97224" lon="6.93439">
        <ele>1223.9</ele>
        <time>2015-09-19T12:26:00Z</time>
      </trkpt>
      <trkpt lat="43.97222" lon="6.93438">
        <ele>1221.97</ele>
        <time>2015-09-19T12:26:07Z</time>
      </trkpt>
      <trkpt lat="43.97221" lon="6.93436">
        <ele>1221.01</ele>
        <time>2015-09-19T12:26:14Z</time>
      </trkpt>
      <trkpt lat="43.97218" lon="6.93429">
        <ele>1220.05</ele>
        <time>2015-09-19T12:26:22Z</time>
      </trkpt>
      <trkpt lat="43.97216" lon="6.93424">
        <ele>1218.13</ele>
        <time>2015-09-19T12:26:29Z</time>
      </trkpt>
      <trkpt lat="43.97215" lon="6.93421">
        <ele>1217.17</ele>
        <time>2015-09-19T12:26:37Z</time>
      </trkpt>
      <trkpt lat="43.97212" lon="6.93415">
        <ele>1215.72</ele>
        <time>2015-09-19T12:26:45Z</time>
      </trkpt>
      <trkpt lat="43.97209" lon="6.93409">
        <ele>1213.8</ele>
        <time>2015-09-19T12:26:52Z</time>
      </trkpt>
      <trkpt lat="43.97205" lon="6.93403">
        <ele>1212.36</ele>
        <time>2015-09-19T12:27:01Z</time>
      </trkpt>
      <trkpt lat="43.97201" lon="6.93393">
        <ele>1210.92</ele>
        <time>2015-09-19T12:27:09Z</time>
      </trkpt>
      <trkpt lat="43.972" lon="6.93385">
        <ele>1209.48</ele>
        <time>2015-09-19T12:27:17Z</time>
      </trkpt>
      <trkpt lat="43.972" lon="6.93375">
        <ele>1208.51</ele>
        <time>2015-09-19T12:27:25Z</time>
      </trkpt>
      <trkpt lat="43.97197" lon="6.93365">
        <ele>1206.59</ele>
        <time>2015-09-19T12:27:33Z</time>
      </trkpt>
      <trkpt lat="43.97191" lon="6.93365">
        <ele>1205.63</ele>
        <time>2015-09-19T12:27:40Z</time>
      </trkpt>
      <trkpt lat="43.97189" lon="6.93364">
        <ele>1204.67</ele>
        <time>2015-09-19T12:27:47Z</time>
      </trkpt>
      <trkpt lat="43.97188" lon="6.93364">
        <ele>1204.19</ele>
        <time>2015-09-19T12:27:54Z</time>
      </trkpt>
      <trkpt lat="43.97189" lon="6.93364">
        <ele>1203.71</ele>
        <time>2015-09-19T12:28:12Z</time>
      </trkpt>
      <trkpt lat="43.97188" lon="6.93364">
        <ele>1203.71</ele>
        <time>2015-09-19T12:28:22Z</time>
      </trkpt>
      <trkpt lat="43.97187" lon="6.93363">
        <ele>1203.23</ele>
        <time>2015-09-19T12:28:40Z</time>
      </trkpt>
      <trkpt lat="43.97187" lon="6.93363">
        <ele>1203.23</ele>
        <time>2015-09-19T12:28:49Z</time>
      </trkpt>
      <trkpt lat="43.97187" lon="6.93363">
        <ele>1200.82</ele>
        <time>2015-09-19T12:28:57Z</time>
      </trkpt>
      <trkpt lat="43.97184" lon="6.93357">
        <ele>1199.38</ele>
        <time>2015-09-19T12:29:04Z</time>
      </trkpt>
      <trkpt lat="43.97182" lon="6.9335">
        <ele>1197.94</ele>
        <time>2015-09-19T12:29:11Z</time>
      </trkpt>
      <trkpt lat="43.97179" lon="6.93342">
        <ele>1196.02</ele>
        <time>2015-09-19T12:29:18Z</time>
      </trkpt>
      <trkpt lat="43.97177" lon="6.93337">
        <ele>1194.09</ele>
        <time>2015-09-19T12:29:27Z</time>
      </trkpt>
      <trkpt lat="43.97171" lon="6.93332">
        <ele>1193.13</ele>
        <time>2015-09-19T12:29:35Z</time>
      </trkpt>
      <trkpt lat="43.97169" lon="6.93329">
        <ele>1191.21</ele>
        <time>2015-09-19T12:29:42Z</time>
      </trkpt>
      <trkpt lat="43.97168" lon="6.93326">
        <ele>1190.25</ele>
        <time>2015-09-19T12:29:49Z</time>
      </trkpt>
      <trkpt lat="43.97163" lon="6.93319">
        <ele>1188.33</ele>
        <time>2015-09-19T12:29:58Z</time>
      </trkpt>
      <trkpt lat="43.97161" lon="6.93312">
        <ele>1186.88</ele>
        <time>2015-09-19T12:30:06Z</time>
      </trkpt>
      <trkpt lat="43.97158" lon="6.93307">
        <ele>1184.96</ele>
        <time>2015-09-19T12:30:14Z</time>
      </trkpt>
      <trkpt lat="43.97157" lon="6.93305">
        <ele>1184.96</ele>
        <time>2015-09-19T12:30:21Z</time>
      </trkpt>
      <trkpt lat="43.97156" lon="6.93303">
        <ele>1183.52</ele>
        <time>2015-09-19T12:30:30Z</time>
      </trkpt>
      <trkpt lat="43.97156" lon="6.93301">
        <ele>1182.08</ele>
        <time>2015-09-19T12:30:37Z</time>
      </trkpt>
      <trkpt lat="43.97155" lon="6.93299">
        <ele>1181.6</ele>
        <time>2015-09-19T12:30:40Z</time>
      </trkpt>
      <trkpt lat="43.97152" lon="6.93297">
        <ele>1180.16</ele>
        <time>2015-09-19T12:30:48Z</time>
      </trkpt>
      <trkpt lat="43.97151" lon="6.93293">
        <ele>1178.71</ele>
        <time>2015-09-19T12:30:55Z</time>
      </trkpt>
      <trkpt lat="43.97149" lon="6.93283">
        <ele>1176.31</ele>
        <time>2015-09-19T12:31:05Z</time>
      </trkpt>
      <trkpt lat="43.97148" lon="6.93277">
        <ele>1174.87</ele>
        <time>2015-09-19T12:31:13Z</time>
      </trkpt>
      <trkpt lat="43.97148" lon="6.93271">
        <ele>1173.91</ele>
        <time>2015-09-19T12:31:20Z</time>
      </trkpt>
      <trkpt lat="43.97148" lon="6.93259">
        <ele>1172.95</ele>
        <time>2015-09-19T12:31:28Z</time>
      </trkpt>
      <trkpt lat="43.97147" lon="6.93255">
        <ele>1172.95</ele>
        <time>2015-09-19T12:31:30Z</time>
      </trkpt>
      <trkpt lat="43.97143" lon="6.93237">
        <ele>1171.98</ele>
        <time>2015-09-19T12:31:40Z</time>
      </trkpt>
      <trkpt lat="43.97143" lon="6.93232">
        <ele>1171.5</ele>
        <time>2015-09-19T12:31:46Z</time>
      </trkpt>
      <trkpt lat="43.97143" lon="6.9323">
        <ele>1171.5</ele>
        <time>2015-09-19T12:31:56Z</time>
      </trkpt>
      <trkpt lat="43.97143" lon="6.93228">
        <ele>1171.5</ele>
        <time>2015-09-19T12:32:16Z</time>
      </trkpt>
      <trkpt lat="43.97143" lon="6.93227">
        <ele>1171.5</ele>
        <time>2015-09-19T12:32:31Z</time>
      </trkpt>
      <trkpt lat="43.97142" lon="6.93223">
        <ele>1171.02</ele>
        <time>2015-09-19T12:32:35Z</time>
      </trkpt>
      <trkpt lat="43.97141" lon="6.93219">
        <ele>1170.06</ele>
        <time>2015-09-19T12:32:38Z</time>
      </trkpt>
      <trkpt lat="43.97137" lon="6.93209">
        <ele>1169.58</ele>
        <time>2015-09-19T12:32:47Z</time>
      </trkpt>
      <trkpt lat="43.97132" lon="6.93193">
        <ele>1170.54</ele>
        <time>2015-09-19T12:32:56Z</time>
      </trkpt>
      <trkpt lat="43.97131" lon="6.93184">
        <ele>1171.02</ele>
        <time>2015-09-19T12:33:05Z</time>
      </trkpt>
      <trkpt lat="43.97128" lon="6.93173">
        <ele>1171.5</ele>
        <time>2015-09-19T12:33:13Z</time>
      </trkpt>
      <trkpt lat="43.97128" lon="6.93167">
        <ele>1171.5</ele>
        <time>2015-09-19T12:33:20Z</time>
      </trkpt>
      <trkpt lat="43.97127" lon="6.93157">
        <ele>1172.47</ele>
        <time>2015-09-19T12:33:28Z</time>
      </trkpt>
      <trkpt lat="43.97127" lon="6.93148">
        <ele>1173.43</ele>
        <time>2015-09-19T12:33:35Z</time>
      </trkpt>
      <trkpt lat="43.97125" lon="6.93136">
        <ele>1173.43</ele>
        <time>2015-09-19T12:33:44Z</time>
      </trkpt>
      <trkpt lat="43.97124" lon="6.93127">
        <ele>1173.43</ele>
        <time>2015-09-19T12:33:51Z</time>
      </trkpt>
      <trkpt lat="43.97124" lon="6.93122">
        <ele>1172.47</ele>
        <time>2015-09-19T12:33:58Z</time>
      </trkpt>
      <trkpt lat="43.97122" lon="6.93114">
        <ele>1171.02</ele>
        <time>2015-09-19T12:34:06Z</time>
      </trkpt>
      <trkpt lat="43.97121" lon="6.93108">
        <ele>1170.06</ele>
        <time>2015-09-19T12:34:13Z</time>
      </trkpt>
      <trkpt lat="43.9712" lon="6.93104">
        <ele>1169.1</ele>
        <time>2015-09-19T12:34:19Z</time>
      </trkpt>
      <trkpt lat="43.97119" lon="6.93103">
        <ele>1168.62</ele>
        <time>2015-09-19T12:34:20Z</time>
      </trkpt>
      <trkpt lat="43.97119" lon="6.93092">
        <ele>1167.18</ele>
        <time>2015-09-19T12:34:27Z</time>
      </trkpt>
      <trkpt lat="43.97117" lon="6.93078">
        <ele>1166.22</ele>
        <time>2015-09-19T12:34:35Z</time>
      </trkpt>
      <trkpt lat="43.97115" lon="6.93066">
        <ele>1165.26</ele>
        <time>2015-09-19T12:34:43Z</time>
      </trkpt>
      <trkpt lat="43.97114" lon="6.93058">
        <ele>1163.81</ele>
        <time>2015-09-19T12:34:48Z</time>
      </trkpt>
      <trkpt lat="43.97112" lon="6.93053">
        <ele>1162.85</ele>
        <time>2015-09-19T12:34:51Z</time>
      </trkpt>
      <trkpt lat="43.97109" lon="6.93046">
        <ele>1161.89</ele>
        <time>2015-09-19T12:34:58Z</time>
      </trkpt>
      <trkpt lat="43.97107" lon="6.93042">
        <ele>1160.93</ele>
        <time>2015-09-19T12:35:01Z</time>
      </trkpt>
      <trkpt lat="43.97105" lon="6.93036">
        <ele>1159.97</ele>
        <time>2015-09-19T12:35:05Z</time>
      </trkpt>
      <trkpt lat="43.97105" lon="6.93028">
        <ele>1159.01</ele>
        <time>2015-09-19T12:35:11Z</time>
      </trkpt>
      <trkpt lat="43.97105" lon="6.93022">
        <ele>1157.56</ele>
        <time>2015-09-19T12:35:15Z</time>
      </trkpt>
      <trkpt lat="43.971" lon="6.93008">
        <ele>1156.12</ele>
        <time>2015-09-19T12:35:23Z</time>
      </trkpt>
      <trkpt lat="43.97096" lon="6.92997">
        <ele>1154.68</ele>
        <time>2015-09-19T12:35:30Z</time>
      </trkpt>
      <trkpt lat="43.97094" lon="6.92989">
        <ele>1154.68</ele>
        <time>2015-09-19T12:35:37Z</time>
      </trkpt>
      <trkpt lat="43.97092" lon="6.92973">
        <ele>1153.72</ele>
        <time>2015-09-19T12:35:46Z</time>
      </trkpt>
      <trkpt lat="43.97091" lon="6.92963">
        <ele>1153.72</ele>
        <time>2015-09-19T12:35:53Z</time>
      </trkpt>
      <trkpt lat="43.97089" lon="6.9295">
        <ele>1154.2</ele>
        <time>2015-09-19T12:36:02Z</time>
      </trkpt>
      <trkpt lat="43.97088" lon="6.92941">
        <ele>1154.68</ele>
        <time>2015-09-19T12:36:09Z</time>
      </trkpt>
      <trkpt lat="43.97087" lon="6.92935">
        <ele>1155.64</ele>
        <time>2015-09-19T12:36:15Z</time>
      </trkpt>
      <trkpt lat="43.97084" lon="6.92928">
        <ele>1155.16</ele>
        <time>2015-09-19T12:36:22Z</time>
      </trkpt>
      <trkpt lat="43.97081" lon="6.92918">
        <ele>1154.68</ele>
        <time>2015-09-19T12:36:29Z</time>
      </trkpt>
      <trkpt lat="43.97075" lon="6.92907">
        <ele>1154.68</ele>
        <time>2015-09-19T12:36:38Z</time>
      </trkpt>
      <trkpt lat="43.97072" lon="6.929">
        <ele>1155.16</ele>
        <time>2015-09-19T12:36:45Z</time>
      </trkpt>
      <trkpt lat="43.9707" lon="6.92895">
        <ele>1155.16</ele>
        <time>2015-09-19T12:36:50Z</time>
      </trkpt>
      <trkpt lat="43.97067" lon="6.92887">
        <ele>1155.16</ele>
        <time>2015-09-19T12:36:57Z</time>
      </trkpt>
      <trkpt lat="43.97058" lon="6.92872">
        <ele>1155.16</ele>
        <time>2015-09-19T12:37:08Z</time>
      </trkpt>
      <trkpt lat="43.97058" lon="6.92869">
        <ele>1155.64</ele>
        <time>2015-09-19T12:37:10Z</time>
      </trkpt>
      <trkpt lat="43.97056" lon="6.92859">
        <ele>1155.16</ele>
        <time>2015-09-19T12:37:18Z</time>
      </trkpt>
      <trkpt lat="43.97056" lon="6.92851">
        <ele>1155.64</ele>
        <time>2015-09-19T12:37:24Z</time>
      </trkpt>
      <trkpt lat="43.97056" lon="6.92841">
        <ele>1155.16</ele>
        <time>2015-09-19T12:37:31Z</time>
      </trkpt>
      <trkpt lat="43.97056" lon="6.92834">
        <ele>1154.68</ele>
        <time>2015-09-19T12:37:37Z</time>
      </trkpt>
      <trkpt lat="43.97055" lon="6.92826">
        <ele>1153.72</ele>
        <time>2015-09-19T12:37:44Z</time>
      </trkpt>
      <trkpt lat="43.97056" lon="6.92818">
        <ele>1152.76</ele>
        <time>2015-09-19T12:37:51Z</time>
      </trkpt>
      <trkpt lat="43.97056" lon="6.92815">
        <ele>1152.76</ele>
        <time>2015-09-19T12:37:57Z</time>
      </trkpt>
      <trkpt lat="43.97054" lon="6.92815">
        <ele>1152.76</ele>
        <time>2015-09-19T12:38:16Z</time>
      </trkpt>
      <trkpt lat="43.97053" lon="6.92813">
        <ele>1152.28</ele>
        <time>2015-09-19T12:38:24Z</time>
      </trkpt>
      <trkpt lat="43.97052" lon="6.92812">
        <ele>1151.8</ele>
        <time>2015-09-19T12:38:32Z</time>
      </trkpt>
      <trkpt lat="43.9705" lon="6.9281">
        <ele>1149.39</ele>
        <time>2015-09-19T12:38:40Z</time>
      </trkpt>
      <trkpt lat="43.97046" lon="6.92802">
        <ele>1147.95</ele>
        <time>2015-09-19T12:38:48Z</time>
      </trkpt>
      <trkpt lat="43.97045" lon="6.92801">
        <ele>1147.47</ele>
        <time>2015-09-19T12:38:49Z</time>
      </trkpt>
      <trkpt lat="43.97043" lon="6.92791">
        <ele>1146.51</ele>
        <time>2015-09-19T12:38:57Z</time>
      </trkpt>
      <trkpt lat="43.97037" lon="6.92783">
        <ele>1144.59</ele>
        <time>2015-09-19T12:39:05Z</time>
      </trkpt>
      <trkpt lat="43.97033" lon="6.92776">
        <ele>1144.11</ele>
        <time>2015-09-19T12:39:12Z</time>
      </trkpt>
      <trkpt lat="43.97032" lon="6.92768">
        <ele>1143.14</ele>
        <time>2015-09-19T12:39:19Z</time>
      </trkpt>
      <trkpt lat="43.97026" lon="6.92762">
        <ele>1141.7</ele>
        <time>2015-09-19T12:39:26Z</time>
      </trkpt>
      <trkpt lat="43.97023" lon="6.92754">
        <ele>1140.74</ele>
        <time>2015-09-19T12:39:33Z</time>
      </trkpt>
      <trkpt lat="43.97017" lon="6.92742">
        <ele>1140.26</ele>
        <time>2015-09-19T12:39:41Z</time>
      </trkpt>
      <trkpt lat="43.97014" lon="6.92732">
        <ele>1140.74</ele>
        <time>2015-09-19T12:39:49Z</time>
      </trkpt>
      <trkpt lat="43.97012" lon="6.92722">
        <ele>1140.26</ele>
        <time>2015-09-19T12:39:57Z</time>
      </trkpt>
      <trkpt lat="43.97008" lon="6.92713">
        <ele>1139.3</ele>
        <time>2015-09-19T12:40:06Z</time>
      </trkpt>
      <trkpt lat="43.97006" lon="6.92707">
        <ele>1138.34</ele>
        <time>2015-09-19T12:40:13Z</time>
      </trkpt>
      <trkpt lat="43.97001" lon="6.92702">
        <ele>1136.9</ele>
        <time>2015-09-19T12:40:19Z</time>
      </trkpt>
      <trkpt lat="43.96996" lon="6.92698">
        <ele>1134.49</ele>
        <time>2015-09-19T12:40:27Z</time>
      </trkpt>
      <trkpt lat="43.96993" lon="6.92692">
        <ele>1133.53</ele>
        <time>2015-09-19T12:40:33Z</time>
      </trkpt>
      <trkpt lat="43.96989" lon="6.92688">
        <ele>1131.61</ele>
        <time>2015-09-19T12:40:40Z</time>
      </trkpt>
      <trkpt lat="43.96987" lon="6.92684">
        <ele>1129.69</ele>
        <time>2015-09-19T12:40:47Z</time>
      </trkpt>
      <trkpt lat="43.96987" lon="6.92679">
        <ele>1129.21</ele>
        <time>2015-09-19T12:40:54Z</time>
      </trkpt>
      <trkpt lat="43.96982" lon="6.92671">
        <ele>1128.24</ele>
        <time>2015-09-19T12:41:00Z</time>
      </trkpt>
      <trkpt lat="43.96977" lon="6.92664">
        <ele>1127.28</ele>
        <time>2015-09-19T12:41:07Z</time>
      </trkpt>
      <trkpt lat="43.96973" lon="6.92657">
        <ele>1125.84</ele>
        <time>2015-09-19T12:41:15Z</time>
      </trkpt>
      <trkpt lat="43.96968" lon="6.92649">
        <ele>1125.36</ele>
        <time>2015-09-19T12:41:20Z</time>
      </trkpt>
      <trkpt lat="43.96958" lon="6.92635">
        <ele>1124.4</ele>
        <time>2015-09-19T12:41:29Z</time>
      </trkpt>
      <trkpt lat="43.96952" lon="6.92627">
        <ele>1123.44</ele>
        <time>2015-09-19T12:41:38Z</time>
      </trkpt>
      <trkpt lat="43.96951" lon="6.92625">
        <ele>1122.96</ele>
        <time>2015-09-19T12:41:45Z</time>
      </trkpt>
      <trkpt lat="43.96952" lon="6.92625">
        <ele>1122.96</ele>
        <time>2015-09-19T12:42:01Z</time>
      </trkpt>
      <trkpt lat="43.96951" lon="6.92622">
        <ele>1122.96</ele>
        <time>2015-09-19T12:42:08Z</time>
      </trkpt>
      <trkpt lat="43.96948" lon="6.92609">
        <ele>1122</ele>
        <time>2015-09-19T12:42:17Z</time>
      </trkpt>
      <trkpt lat="43.96943" lon="6.92599">
        <ele>1121.03</ele>
        <time>2015-09-19T12:42:25Z</time>
      </trkpt>
      <trkpt lat="43.9694" lon="6.9259">
        <ele>1119.59</ele>
        <time>2015-09-19T12:42:32Z</time>
      </trkpt>
      <trkpt lat="43.96937" lon="6.92585">
        <ele>1118.63</ele>
        <time>2015-09-19T12:42:37Z</time>
      </trkpt>
      <trkpt lat="43.96934" lon="6.92579">
        <ele>1117.19</ele>
        <time>2015-09-19T12:42:44Z</time>
      </trkpt>
      <trkpt lat="43.96931" lon="6.92572">
        <ele>1115.27</ele>
        <time>2015-09-19T12:42:52Z</time>
      </trkpt>
      <trkpt lat="43.9693" lon="6.92563">
        <ele>1112.86</ele>
        <time>2015-09-19T12:42:59Z</time>
      </trkpt>
      <trkpt lat="43.9693" lon="6.92559">
        <ele>1111.9</ele>
        <time>2015-09-19T12:43:05Z</time>
      </trkpt>
      <trkpt lat="43.96927" lon="6.92545">
        <ele>1109.98</ele>
        <time>2015-09-19T12:43:14Z</time>
      </trkpt>
      <trkpt lat="43.96926" lon="6.92542">
        <ele>1109.02</ele>
        <time>2015-09-19T12:43:17Z</time>
      </trkpt>
      <trkpt lat="43.96923" lon="6.92536">
        <ele>1108.54</ele>
        <time>2015-09-19T12:43:21Z</time>
      </trkpt>
      <trkpt lat="43.9692" lon="6.92532">
        <ele>1108.06</ele>
        <time>2015-09-19T12:43:25Z</time>
      </trkpt>
      <trkpt lat="43.96916" lon="6.92515">
        <ele>1108.54</ele>
        <time>2015-09-19T12:43:34Z</time>
      </trkpt>
      <trkpt lat="43.96913" lon="6.92505">
        <ele>1108.54</ele>
        <time>2015-09-19T12:43:41Z</time>
      </trkpt>
      <trkpt lat="43.96906" lon="6.92498">
        <ele>1106.61</ele>
        <time>2015-09-19T12:43:50Z</time>
      </trkpt>
      <trkpt lat="43.96905" lon="6.92497">
        <ele>1106.13</ele>
        <time>2015-09-19T12:43:52Z</time>
      </trkpt>
      <trkpt lat="43.96901" lon="6.92492">
        <ele>1105.65</ele>
        <time>2015-09-19T12:43:56Z</time>
      </trkpt>
      <trkpt lat="43.96898" lon="6.92481">
        <ele>1105.17</ele>
        <time>2015-09-19T12:44:03Z</time>
      </trkpt>
      <trkpt lat="43.96892" lon="6.92467">
        <ele>1105.17</ele>
        <time>2015-09-19T12:44:13Z</time>
      </trkpt>
      <trkpt lat="43.96888" lon="6.92454">
        <ele>1104.69</ele>
        <time>2015-09-19T12:44:22Z</time>
      </trkpt>
      <trkpt lat="43.96884" lon="6.92449">
        <ele>1103.25</ele>
        <time>2015-09-19T12:44:29Z</time>
      </trkpt>
      <trkpt lat="43.96879" lon="6.92437">
        <ele>1100.85</ele>
        <time>2015-09-19T12:44:38Z</time>
      </trkpt>
      <trkpt lat="43.96877" lon="6.92425">
        <ele>1099.89</ele>
        <time>2015-09-19T12:44:46Z</time>
      </trkpt>
      <trkpt lat="43.96876" lon="6.92414">
        <ele>1098.92</ele>
        <time>2015-09-19T12:44:55Z</time>
      </trkpt>
      <trkpt lat="43.96875" lon="6.92404">
        <ele>1097.48</ele>
        <time>2015-09-19T12:45:01Z</time>
      </trkpt>
      <trkpt lat="43.96874" lon="6.92395">
        <ele>1096.52</ele>
        <time>2015-09-19T12:45:09Z</time>
      </trkpt>
      <trkpt lat="43.96874" lon="6.9239">
        <ele>1095.56</ele>
        <time>2015-09-19T12:45:15Z</time>
      </trkpt>
      <trkpt lat="43.96876" lon="6.92384">
        <ele>1094.6</ele>
        <time>2015-09-19T12:45:21Z</time>
      </trkpt>
      <trkpt lat="43.9688" lon="6.92383">
        <ele>1093.16</ele>
        <time>2015-09-19T12:45:30Z</time>
      </trkpt>
      <trkpt lat="43.9688" lon="6.92383">
        <ele>1093.16</ele>
        <time>2015-09-19T12:45:47Z</time>
      </trkpt>
      <trkpt lat="43.9688" lon="6.92382">
        <ele>1093.16</ele>
        <time>2015-09-19T12:46:04Z</time>
      </trkpt>
      <trkpt lat="43.96881" lon="6.92381">
        <ele>1092.68</ele>
        <time>2015-09-19T12:46:16Z</time>
      </trkpt>
      <trkpt lat="43.96881" lon="6.9238">
        <ele>1092.68</ele>
        <time>2015-09-19T12:46:25Z</time>
      </trkpt>
      <trkpt lat="43.96882" lon="6.92378">
        <ele>1091.23</ele>
        <time>2015-09-19T12:46:31Z</time>
      </trkpt>
      <trkpt lat="43.96882" lon="6.92373">
        <ele>1089.79</ele>
        <time>2015-09-19T12:46:38Z</time>
      </trkpt>
      <trkpt lat="43.9688" lon="6.92367">
        <ele>1088.35</ele>
        <time>2015-09-19T12:46:45Z</time>
      </trkpt>
      <trkpt lat="43.96878" lon="6.92356">
        <ele>1087.39</ele>
        <time>2015-09-19T12:46:52Z</time>
      </trkpt>
      <trkpt lat="43.96876" lon="6.92347">
        <ele>1086.43</ele>
        <time>2015-09-19T12:47:00Z</time>
      </trkpt>
      <trkpt lat="43.96873" lon="6.92339">
        <ele>1084.99</ele>
        <time>2015-09-19T12:47:08Z</time>
      </trkpt>
      <trkpt lat="43.96866" lon="6.92329">
        <ele>1084.5</ele>
        <time>2015-09-19T12:47:16Z</time>
      </trkpt>
      <trkpt lat="43.96859" lon="6.92324">
        <ele>1083.54</ele>
        <time>2015-09-19T12:47:24Z</time>
      </trkpt>
      <trkpt lat="43.96851" lon="6.92317">
        <ele>1082.1</ele>
        <time>2015-09-19T12:47:32Z</time>
      </trkpt>
      <trkpt lat="43.96846" lon="6.92313">
        <ele>1080.66</ele>
        <time>2015-09-19T12:47:38Z</time>
      </trkpt>
      <trkpt lat="43.9684" lon="6.92307">
        <ele>1079.22</ele>
        <time>2015-09-19T12:47:45Z</time>
      </trkpt>
      <trkpt lat="43.96837" lon="6.92302">
        <ele>1078.26</ele>
        <time>2015-09-19T12:47:53Z</time>
      </trkpt>
      <trkpt lat="43.96837" lon="6.92302">
        <ele>1078.26</ele>
        <time>2015-09-19T12:48:10Z</time>
      </trkpt>
      <trkpt lat="43.96837" lon="6.92301">
        <ele>1078.26</ele>
        <time>2015-09-19T12:48:24Z</time>
      </trkpt>
      <trkpt lat="43.96835" lon="6.92299">
        <ele>1077.29</ele>
        <time>2015-09-19T12:48:31Z</time>
      </trkpt>
      <trkpt lat="43.96829" lon="6.92294">
        <ele>1075.85</ele>
        <time>2015-09-19T12:48:40Z</time>
      </trkpt>
      <trkpt lat="43.96829" lon="6.92293">
        <ele>1075.85</ele>
        <time>2015-09-19T12:48:49Z</time>
      </trkpt>
      <trkpt lat="43.96829" lon="6.92293">
        <ele>1074.89</ele>
        <time>2015-09-19T12:48:57Z</time>
      </trkpt>
      <trkpt lat="43.96828" lon="6.92294">
        <ele>1074.89</ele>
        <time>2015-09-19T12:49:10Z</time>
      </trkpt>
      <trkpt lat="43.96828" lon="6.92294">
        <ele>1074.89</ele>
        <time>2015-09-19T12:49:21Z</time>
      </trkpt>
      <trkpt lat="43.96828" lon="6.92291">
        <ele>1074.89</ele>
        <time>2015-09-19T12:49:41Z</time>
      </trkpt>
      <trkpt lat="43.96828" lon="6.92291">
        <ele>1074.89</ele>
        <time>2015-09-19T12:50:01Z</time>
      </trkpt>
      <trkpt lat="43.96829" lon="6.92291">
        <ele>1074.89</ele>
        <time>2015-09-19T12:50:18Z</time>
      </trkpt>
      <trkpt lat="43.96828" lon="6.92291">
        <ele>1074.41</ele>
        <time>2015-09-19T12:50:30Z</time>
      </trkpt>
      <trkpt lat="43.96829" lon="6.92291">
        <ele>1074.89</ele>
        <time>2015-09-19T12:50:41Z</time>
      </trkpt>
      <trkpt lat="43.96829" lon="6.92291">
        <ele>1075.85</ele>
        <time>2015-09-19T12:50:46Z</time>
      </trkpt>
      <trkpt lat="43.96828" lon="6.9229">
        <ele>1075.37</ele>
        <time>2015-09-19T12:50:56Z</time>
      </trkpt>
      <trkpt lat="43.96829" lon="6.92289">
        <ele>1075.85</ele>
        <time>2015-09-19T12:51:08Z</time>
      </trkpt>
      <trkpt lat="43.96829" lon="6.9229">
        <ele>1075.85</ele>
        <time>2015-09-19T12:51:13Z</time>
      </trkpt>
      <trkpt lat="43.96828" lon="6.92288">
        <ele>1074.89</ele>
        <time>2015-09-19T12:51:18Z</time>
      </trkpt>
      <trkpt lat="43.96823" lon="6.92285">
        <ele>1073.93</ele>
        <time>2015-09-19T12:51:26Z</time>
      </trkpt>
      <trkpt lat="43.96821" lon="6.92281">
        <ele>1073.93</ele>
        <time>2015-09-19T12:51:33Z</time>
      </trkpt>
      <trkpt lat="43.96821" lon="6.9228">
        <ele>1073.93</ele>
        <time>2015-09-19T12:51:40Z</time>
      </trkpt>
      <trkpt lat="43.96821" lon="6.92281">
        <ele>1073.45</ele>
        <time>2015-09-19T12:51:53Z</time>
      </trkpt>
      <trkpt lat="43.96821" lon="6.9228">
        <ele>1073.45</ele>
        <time>2015-09-19T12:52:11Z</time>
      </trkpt>
      <trkpt lat="43.96821" lon="6.92279">
        <ele>1072.97</ele>
        <time>2015-09-19T12:52:26Z</time>
      </trkpt>
      <trkpt lat="43.96821" lon="6.92279">
        <ele>1072.49</ele>
        <time>2015-09-19T12:52:34Z</time>
      </trkpt>
      <trkpt lat="43.96822" lon="6.92279">
        <ele>1070.57</ele>
        <time>2015-09-19T12:52:41Z</time>
      </trkpt>
      <trkpt lat="43.9682" lon="6.92277">
        <ele>1068.64</ele>
        <time>2015-09-19T12:52:44Z</time>
      </trkpt>
      <trkpt lat="43.96812" lon="6.92267">
        <ele>1064.32</ele>
        <time>2015-09-19T12:52:49Z</time>
      </trkpt>
      <trkpt lat="43.96809" lon="6.92264">
        <ele>1064.32</ele>
        <time>2015-09-19T12:52:50Z</time>
      </trkpt>
      <trkpt lat="43.96805" lon="6.92258">
        <ele>1061.43</ele>
        <time>2015-09-19T12:52:53Z</time>
      </trkpt>
      <trkpt lat="43.96804" lon="6.92257">
        <ele>1060.95</ele>
        <time>2015-09-19T12:52:54Z</time>
      </trkpt>
      <trkpt lat="43.96796" lon="6.9225">
        <ele>1059.03</ele>
        <time>2015-09-19T12:53:01Z</time>
      </trkpt>
      <trkpt lat="43.96791" lon="6.92244">
        <ele>1058.55</ele>
        <time>2015-09-19T12:53:11Z</time>
      </trkpt>
      <trkpt lat="43.96789" lon="6.9224">
        <ele>1058.07</ele>
        <time>2015-09-19T12:53:18Z</time>
      </trkpt>
      <trkpt lat="43.96783" lon="6.92235">
        <ele>1057.11</ele>
        <time>2015-09-19T12:53:27Z</time>
      </trkpt>
      <trkpt lat="43.96779" lon="6.92228">
        <ele>1056.63</ele>
        <time>2015-09-19T12:53:34Z</time>
      </trkpt>
      <trkpt lat="43.96774" lon="6.92221">
        <ele>1057.11</ele>
        <time>2015-09-19T12:53:42Z</time>
      </trkpt>
      <trkpt lat="43.96773" lon="6.92217">
        <ele>1057.59</ele>
        <time>2015-09-19T12:53:48Z</time>
      </trkpt>
      <trkpt lat="43.96762" lon="6.92208">
        <ele>1057.11</ele>
        <time>2015-09-19T12:53:56Z</time>
      </trkpt>
      <trkpt lat="43.96758" lon="6.92203">
        <ele>1056.15</ele>
        <time>2015-09-19T12:54:02Z</time>
      </trkpt>
      <trkpt lat="43.96759" lon="6.92197">
        <ele>1055.67</ele>
        <time>2015-09-19T12:54:08Z</time>
      </trkpt>
      <trkpt lat="43.96757" lon="6.92194">
        <ele>1054.7</ele>
        <time>2015-09-19T12:54:14Z</time>
      </trkpt>
      <trkpt lat="43.96756" lon="6.92187">
        <ele>1053.26</ele>
        <time>2015-09-19T12:54:22Z</time>
      </trkpt>
      <trkpt lat="43.9674" lon="6.92174">
        <ele>1051.82</ele>
        <time>2015-09-19T12:54:30Z</time>
      </trkpt>
      <trkpt lat="43.96733" lon="6.92165">
        <ele>1050.86</ele>
        <time>2015-09-19T12:54:37Z</time>
      </trkpt>
      <trkpt lat="43.96727" lon="6.92155">
        <ele>1049.42</ele>
        <time>2015-09-19T12:54:45Z</time>
      </trkpt>
      <trkpt lat="43.96724" lon="6.92148">
        <ele>1048.45</ele>
        <time>2015-09-19T12:54:52Z</time>
      </trkpt>
      <trkpt lat="43.96723" lon="6.92142">
        <ele>1046.53</ele>
        <time>2015-09-19T12:55:00Z</time>
      </trkpt>
      <trkpt lat="43.96722" lon="6.92141">
        <ele>1045.57</ele>
        <time>2015-09-19T12:55:06Z</time>
      </trkpt>
      <trkpt lat="43.96723" lon="6.92138">
        <ele>1044.61</ele>
        <time>2015-09-19T12:55:12Z</time>
      </trkpt>
      <trkpt lat="43.96725" lon="6.92134">
        <ele>1043.65</ele>
        <time>2015-09-19T12:55:17Z</time>
      </trkpt>
      <trkpt lat="43.96727" lon="6.9212">
        <ele>1041.73</ele>
        <time>2015-09-19T12:55:24Z</time>
      </trkpt>
      <trkpt lat="43.9673" lon="6.92107">
        <ele>1039.8</ele>
        <time>2015-09-19T12:55:33Z</time>
      </trkpt>
      <trkpt lat="43.96732" lon="6.92104">
        <ele>1038.36</ele>
        <time>2015-09-19T12:55:41Z</time>
      </trkpt>
      <trkpt lat="43.9673" lon="6.921">
        <ele>1037.4</ele>
        <time>2015-09-19T12:55:48Z</time>
      </trkpt>
      <trkpt lat="43.96728" lon="6.921">
        <ele>1036.92</ele>
        <time>2015-09-19T12:55:58Z</time>
      </trkpt>
      <trkpt lat="43.96726" lon="6.92098">
        <ele>1036.92</ele>
        <time>2015-09-19T12:56:15Z</time>
      </trkpt>
      <trkpt lat="43.96726" lon="6.92096">
        <ele>1036.92</ele>
        <time>2015-09-19T12:56:21Z</time>
      </trkpt>
      <trkpt lat="43.96729" lon="6.92089">
        <ele>1035.48</ele>
        <time>2015-09-19T12:56:28Z</time>
      </trkpt>
      <trkpt lat="43.96729" lon="6.9208">
        <ele>1034.04</ele>
        <time>2015-09-19T12:56:36Z</time>
      </trkpt>
      <trkpt lat="43.96729" lon="6.92077">
        <ele>1033.55</ele>
        <time>2015-09-19T12:56:40Z</time>
      </trkpt>
      <trkpt lat="43.96729" lon="6.92075">
        <ele>1032.11</ele>
        <time>2015-09-19T12:56:43Z</time>
      </trkpt>
      <trkpt lat="43.96728" lon="6.92069">
        <ele>1031.15</ele>
        <time>2015-09-19T12:56:50Z</time>
      </trkpt>
      <trkpt lat="43.96732" lon="6.92062">
        <ele>1030.19</ele>
        <time>2015-09-19T12:56:58Z</time>
      </trkpt>
      <trkpt lat="43.96733" lon="6.92057">
        <ele>1029.23</ele>
        <time>2015-09-19T12:57:04Z</time>
      </trkpt>
      <trkpt lat="43.96732" lon="6.92054">
        <ele>1027.79</ele>
        <time>2015-09-19T12:57:10Z</time>
      </trkpt>
      <trkpt lat="43.9673" lon="6.92045">
        <ele>1026.34</ele>
        <time>2015-09-19T12:57:18Z</time>
      </trkpt>
      <trkpt lat="43.9673" lon="6.92044">
        <ele>1026.34</ele>
        <time>2015-09-19T12:57:19Z</time>
      </trkpt>
      <trkpt lat="43.96727" lon="6.92032">
        <ele>1024.42</ele>
        <time>2015-09-19T12:57:28Z</time>
      </trkpt>
      <trkpt lat="43.96726" lon="6.9203">
        <ele>1023.94</ele>
        <time>2015-09-19T12:57:35Z</time>
      </trkpt>
      <trkpt lat="43.96725" lon="6.92026">
        <ele>1022.5</ele>
        <time>2015-09-19T12:57:43Z</time>
      </trkpt>
      <trkpt lat="43.96725" lon="6.92024">
        <ele>1022.5</ele>
        <time>2015-09-19T12:57:44Z</time>
      </trkpt>
      <trkpt lat="43.96727" lon="6.92011">
        <ele>1022.5</ele>
        <time>2015-09-19T12:57:52Z</time>
      </trkpt>
      <trkpt lat="43.96727" lon="6.92001">
        <ele>1020.58</ele>
        <time>2015-09-19T12:57:59Z</time>
      </trkpt>
      <trkpt lat="43.9673" lon="6.91994">
        <ele>1020.1</ele>
        <time>2015-09-19T12:58:05Z</time>
      </trkpt>
      <trkpt lat="43.96728" lon="6.91989">
        <ele>1019.13</ele>
        <time>2015-09-19T12:58:12Z</time>
      </trkpt>
      <trkpt lat="43.96726" lon="6.91983">
        <ele>1017.21</ele>
        <time>2015-09-19T12:58:21Z</time>
      </trkpt>
      <trkpt lat="43.96725" lon="6.91981">
        <ele>1016.73</ele>
        <time>2015-09-19T12:58:28Z</time>
      </trkpt>
      <trkpt lat="43.96725" lon="6.91979">
        <ele>1016.73</ele>
        <time>2015-09-19T12:58:38Z</time>
      </trkpt>
      <trkpt lat="43.96726" lon="6.91975">
        <ele>1016.73</ele>
        <time>2015-09-19T12:58:50Z</time>
      </trkpt>
      <trkpt lat="43.96726" lon="6.91973">
        <ele>1016.73</ele>
        <time>2015-09-19T12:59:06Z</time>
      </trkpt>
      <trkpt lat="43.96724" lon="6.91969">
        <ele>1016.25</ele>
        <time>2015-09-19T12:59:13Z</time>
      </trkpt>
      <trkpt lat="43.96721" lon="6.91964">
        <ele>1014.81</ele>
        <time>2015-09-19T12:59:19Z</time>
      </trkpt>
      <trkpt lat="43.9672" lon="6.91962">
        <ele>1013.85</ele>
        <time>2015-09-19T12:59:26Z</time>
      </trkpt>
      <trkpt lat="43.96719" lon="6.91959">
        <ele>1013.37</ele>
        <time>2015-09-19T12:59:37Z</time>
      </trkpt>
      <trkpt lat="43.96719" lon="6.9195">
        <ele>1011.93</ele>
        <time>2015-09-19T12:59:43Z</time>
      </trkpt>
      <trkpt lat="43.96719" lon="6.9194">
        <ele>1011.44</ele>
        <time>2015-09-19T12:59:49Z</time>
      </trkpt>
      <trkpt lat="43.96718" lon="6.91929">
        <ele>1010.48</ele>
        <time>2015-09-19T12:59:59Z</time>
      </trkpt>
      <trkpt lat="43.96718" lon="6.91922">
        <ele>1010</ele>
        <time>2015-09-19T13:00:02Z</time>
      </trkpt>
      <trkpt lat="43.96715" lon="6.9191">
        <ele>1008.56</ele>
        <time>2015-09-19T13:00:09Z</time>
      </trkpt>
      <trkpt lat="43.96715" lon="6.91905">
        <ele>1008.56</ele>
        <time>2015-09-19T13:00:11Z</time>
      </trkpt>
      <trkpt lat="43.9671" lon="6.91897">
        <ele>1006.64</ele>
        <time>2015-09-19T13:00:16Z</time>
      </trkpt>
      <trkpt lat="43.96707" lon="6.91893">
        <ele>1005.68</ele>
        <time>2015-09-19T13:00:19Z</time>
      </trkpt>
      <trkpt lat="43.96703" lon="6.91879">
        <ele>1003.75</ele>
        <time>2015-09-19T13:00:27Z</time>
      </trkpt>
      <trkpt lat="43.96699" lon="6.91862">
        <ele>1002.79</ele>
        <time>2015-09-19T13:00:37Z</time>
      </trkpt>
      <trkpt lat="43.96699" lon="6.91854">
        <ele>1002.31</ele>
        <time>2015-09-19T13:00:41Z</time>
      </trkpt>
      <trkpt lat="43.96698" lon="6.9184">
        <ele>1001.83</ele>
        <time>2015-09-19T13:00:48Z</time>
      </trkpt>
      <trkpt lat="43.96699" lon="6.91833">
        <ele>1001.35</ele>
        <time>2015-09-19T13:00:52Z</time>
      </trkpt>
      <trkpt lat="43.96698" lon="6.91828">
        <ele>1000.87</ele>
        <time>2015-09-19T13:00:55Z</time>
      </trkpt>
      <trkpt lat="43.96696" lon="6.91815">
        <ele>1000.39</ele>
        <time>2015-09-19T13:01:04Z</time>
      </trkpt>
      <trkpt lat="43.96697" lon="6.91802">
        <ele>999.43</ele>
        <time>2015-09-19T13:01:11Z</time>
      </trkpt>
      <trkpt lat="43.96695" lon="6.91789">
        <ele>998.47</ele>
        <time>2015-09-19T13:01:18Z</time>
      </trkpt>
      <trkpt lat="43.96695" lon="6.91788">
        <ele>998.47</ele>
        <time>2015-09-19T13:01:19Z</time>
      </trkpt>
      <trkpt lat="43.96695" lon="6.91782">
        <ele>997.99</ele>
        <time>2015-09-19T13:01:23Z</time>
      </trkpt>
      <trkpt lat="43.96694" lon="6.91768">
        <ele>997.02</ele>
        <time>2015-09-19T13:01:32Z</time>
      </trkpt>
      <trkpt lat="43.96693" lon="6.91755">
        <ele>996.06</ele>
        <time>2015-09-19T13:01:40Z</time>
      </trkpt>
      <trkpt lat="43.96691" lon="6.91748">
        <ele>995.58</ele>
        <time>2015-09-19T13:01:46Z</time>
      </trkpt>
      <trkpt lat="43.96688" lon="6.91743">
        <ele>994.62</ele>
        <time>2015-09-19T13:01:51Z</time>
      </trkpt>
      <trkpt lat="43.96687" lon="6.91734">
        <ele>993.66</ele>
        <time>2015-09-19T13:01:57Z</time>
      </trkpt>
      <trkpt lat="43.96684" lon="6.91725">
        <ele>993.18</ele>
        <time>2015-09-19T13:02:04Z</time>
      </trkpt>
      <trkpt lat="43.96683" lon="6.91718">
        <ele>992.7</ele>
        <time>2015-09-19T13:02:09Z</time>
      </trkpt>
      <trkpt lat="43.96679" lon="6.91708">
        <ele>991.26</ele>
        <time>2015-09-19T13:02:16Z</time>
      </trkpt>
      <trkpt lat="43.96676" lon="6.91696">
        <ele>990.3</ele>
        <time>2015-09-19T13:02:25Z</time>
      </trkpt>
      <trkpt lat="43.96676" lon="6.91694">
        <ele>989.81</ele>
        <time>2015-09-19T13:02:26Z</time>
      </trkpt>
      <trkpt lat="43.9668" lon="6.9168">
        <ele>991.74</ele>
        <time>2015-09-19T13:02:34Z</time>
      </trkpt>
      <trkpt lat="43.96681" lon="6.91673">
        <ele>991.74</ele>
        <time>2015-09-19T13:02:41Z</time>
      </trkpt>
      <trkpt lat="43.9668" lon="6.91667">
        <ele>990.78</ele>
        <time>2015-09-19T13:02:49Z</time>
      </trkpt>
      <trkpt lat="43.96679" lon="6.91658">
        <ele>990.3</ele>
        <time>2015-09-19T13:02:56Z</time>
      </trkpt>
      <trkpt lat="43.96678" lon="6.91649">
        <ele>989.81</ele>
        <time>2015-09-19T13:03:03Z</time>
      </trkpt>
      <trkpt lat="43.96676" lon="6.9164">
        <ele>989.33</ele>
        <time>2015-09-19T13:03:11Z</time>
      </trkpt>
      <trkpt lat="43.96676" lon="6.91629">
        <ele>989.81</ele>
        <time>2015-09-19T13:03:19Z</time>
      </trkpt>
      <trkpt lat="43.96675" lon="6.91616">
        <ele>988.37</ele>
        <time>2015-09-19T13:03:28Z</time>
      </trkpt>
      <trkpt lat="43.96675" lon="6.91612">
        <ele>987.89</ele>
        <time>2015-09-19T13:03:31Z</time>
      </trkpt>
      <trkpt lat="43.96675" lon="6.91601">
        <ele>986.45</ele>
        <time>2015-09-19T13:03:40Z</time>
      </trkpt>
      <trkpt lat="43.96674" lon="6.9159">
        <ele>985.49</ele>
        <time>2015-09-19T13:03:47Z</time>
      </trkpt>
      <trkpt lat="43.96675" lon="6.91583">
        <ele>984.53</ele>
        <time>2015-09-19T13:03:53Z</time>
      </trkpt>
      <trkpt lat="43.96678" lon="6.91573">
        <ele>983.09</ele>
        <time>2015-09-19T13:04:00Z</time>
      </trkpt>
      <trkpt lat="43.96682" lon="6.91558">
        <ele>982.12</ele>
        <time>2015-09-19T13:04:06Z</time>
      </trkpt>
      <trkpt lat="43.96684" lon="6.91547">
        <ele>980.68</ele>
        <time>2015-09-19T13:04:12Z</time>
      </trkpt>
      <trkpt lat="43.96681" lon="6.91533">
        <ele>979.72</ele>
        <time>2015-09-19T13:04:21Z</time>
      </trkpt>
      <trkpt lat="43.9668" lon="6.91524">
        <ele>978.76</ele>
        <time>2015-09-19T13:04:29Z</time>
      </trkpt>
      <trkpt lat="43.9668" lon="6.91517">
        <ele>978.28</ele>
        <time>2015-09-19T13:04:37Z</time>
      </trkpt>
      <trkpt lat="43.9668" lon="6.91512">
        <ele>978.28</ele>
        <time>2015-09-19T13:04:46Z</time>
      </trkpt>
      <trkpt lat="43.96681" lon="6.9151">
        <ele>978.28</ele>
        <time>2015-09-19T13:04:57Z</time>
      </trkpt>
      <trkpt lat="43.96682" lon="6.9151">
        <ele>978.28</ele>
        <time>2015-09-19T13:05:09Z</time>
      </trkpt>
      <trkpt lat="43.96682" lon="6.91509">
        <ele>977.8</ele>
        <time>2015-09-19T13:05:20Z</time>
      </trkpt>
      <trkpt lat="43.96682" lon="6.91508">
        <ele>977.8</ele>
        <time>2015-09-19T13:05:27Z</time>
      </trkpt>
      <trkpt lat="43.96682" lon="6.91504">
        <ele>977.32</ele>
        <time>2015-09-19T13:05:36Z</time>
      </trkpt>
      <trkpt lat="43.96682" lon="6.91503">
        <ele>976.84</ele>
        <time>2015-09-19T13:05:37Z</time>
      </trkpt>
      <trkpt lat="43.9668" lon="6.91496">
        <ele>975.39</ele>
        <time>2015-09-19T13:05:45Z</time>
      </trkpt>
      <trkpt lat="43.96681" lon="6.91489">
        <ele>974.91</ele>
        <time>2015-09-19T13:05:52Z</time>
      </trkpt>
      <trkpt lat="43.9668" lon="6.91479">
        <ele>973.47</ele>
        <time>2015-09-19T13:06:01Z</time>
      </trkpt>
      <trkpt lat="43.96681" lon="6.91467">
        <ele>972.03</ele>
        <time>2015-09-19T13:06:09Z</time>
      </trkpt>
      <trkpt lat="43.96685" lon="6.91455">
        <ele>971.07</ele>
        <time>2015-09-19T13:06:16Z</time>
      </trkpt>
      <trkpt lat="43.96692" lon="6.91452">
        <ele>970.11</ele>
        <time>2015-09-19T13:06:22Z</time>
      </trkpt>
      <trkpt lat="43.96696" lon="6.91455">
        <ele>968.67</ele>
        <time>2015-09-19T13:06:29Z</time>
      </trkpt>
      <trkpt lat="43.967" lon="6.9146">
        <ele>967.7</ele>
        <time>2015-09-19T13:06:36Z</time>
      </trkpt>
      <trkpt lat="43.96702" lon="6.91462">
        <ele>967.7</ele>
        <time>2015-09-19T13:06:46Z</time>
      </trkpt>
      <trkpt lat="43.96705" lon="6.91467">
        <ele>966.74</ele>
        <time>2015-09-19T13:06:53Z</time>
      </trkpt>
      <trkpt lat="43.96709" lon="6.91475">
        <ele>965.3</ele>
        <time>2015-09-19T13:07:00Z</time>
      </trkpt>
      <trkpt lat="43.96712" lon="6.9148">
        <ele>964.34</ele>
        <time>2015-09-19T13:07:09Z</time>
      </trkpt>
      <trkpt lat="43.96714" lon="6.91485">
        <ele>963.38</ele>
        <time>2015-09-19T13:07:14Z</time>
      </trkpt>
      <trkpt lat="43.96718" lon="6.91495">
        <ele>962.42</ele>
        <time>2015-09-19T13:07:21Z</time>
      </trkpt>
      <trkpt lat="43.9672" lon="6.915">
        <ele>961.46</ele>
        <time>2015-09-19T13:07:26Z</time>
      </trkpt>
      <trkpt lat="43.96721" lon="6.91503">
        <ele>960.49</ele>
        <time>2015-09-19T13:07:35Z</time>
      </trkpt>
      <trkpt lat="43.96722" lon="6.9151">
        <ele>959.53</ele>
        <time>2015-09-19T13:07:41Z</time>
      </trkpt>
      <trkpt lat="43.96721" lon="6.91514">
        <ele>959.05</ele>
        <time>2015-09-19T13:07:49Z</time>
      </trkpt>
      <trkpt lat="43.96727" lon="6.91523">
        <ele>958.09</ele>
        <time>2015-09-19T13:07:55Z</time>
      </trkpt>
      <trkpt lat="43.9673" lon="6.9153">
        <ele>957.13</ele>
        <time>2015-09-19T13:08:03Z</time>
      </trkpt>
      <trkpt lat="43.96732" lon="6.9153">
        <ele>956.65</ele>
        <time>2015-09-19T13:08:12Z</time>
      </trkpt>
      <trkpt lat="43.96734" lon="6.91532">
        <ele>956.17</ele>
        <time>2015-09-19T13:08:22Z</time>
      </trkpt>
      <trkpt lat="43.96735" lon="6.91537">
        <ele>955.69</ele>
        <time>2015-09-19T13:08:33Z</time>
      </trkpt>
      <trkpt lat="43.96742" lon="6.91547">
        <ele>954.25</ele>
        <time>2015-09-19T13:08:40Z</time>
      </trkpt>
      <trkpt lat="43.96744" lon="6.91556">
        <ele>953.28</ele>
        <time>2015-09-19T13:08:47Z</time>
      </trkpt>
      <trkpt lat="43.96748" lon="6.91564">
        <ele>951.84</ele>
        <time>2015-09-19T13:08:53Z</time>
      </trkpt>
      <trkpt lat="43.9675" lon="6.91571">
        <ele>950.88</ele>
        <time>2015-09-19T13:08:59Z</time>
      </trkpt>
      <trkpt lat="43.96752" lon="6.91579">
        <ele>948.96</ele>
        <time>2015-09-19T13:09:05Z</time>
      </trkpt>
      <trkpt lat="43.96751" lon="6.91589">
        <ele>948.48</ele>
        <time>2015-09-19T13:09:11Z</time>
      </trkpt>
      <trkpt lat="43.96755" lon="6.91598">
        <ele>947.04</ele>
        <time>2015-09-19T13:09:18Z</time>
      </trkpt>
      <trkpt lat="43.96758" lon="6.91599">
        <ele>946.56</ele>
        <time>2015-09-19T13:09:27Z</time>
      </trkpt>
      <trkpt lat="43.96758" lon="6.916">
        <ele>946.56</ele>
        <time>2015-09-19T13:09:43Z</time>
      </trkpt>
      <trkpt lat="43.96758" lon="6.91602">
        <ele>946.56</ele>
        <time>2015-09-19T13:09:52Z</time>
      </trkpt>
      <trkpt lat="43.96759" lon="6.91602">
        <ele>946.56</ele>
        <time>2015-09-19T13:10:05Z</time>
      </trkpt>
      <trkpt lat="43.96759" lon="6.91603">
        <ele>946.56</ele>
        <time>2015-09-19T13:10:21Z</time>
      </trkpt>
      <trkpt lat="43.9676" lon="6.91603">
        <ele>946.07</ele>
        <time>2015-09-19T13:10:28Z</time>
      </trkpt>
      <trkpt lat="43.9676" lon="6.91604">
        <ele>946.07</ele>
        <time>2015-09-19T13:10:38Z</time>
      </trkpt>
      <trkpt lat="43.96761" lon="6.91608">
        <ele>945.59</ele>
        <time>2015-09-19T13:10:48Z</time>
      </trkpt>
      <trkpt lat="43.96764" lon="6.91612">
        <ele>944.63</ele>
        <time>2015-09-19T13:10:56Z</time>
      </trkpt>
      <trkpt lat="43.96768" lon="6.91621">
        <ele>942.71</ele>
        <time>2015-09-19T13:11:03Z</time>
      </trkpt>
      <trkpt lat="43.96771" lon="6.91624">
        <ele>942.23</ele>
        <time>2015-09-19T13:11:05Z</time>
      </trkpt>
      <trkpt lat="43.96777" lon="6.91632">
        <ele>940.79</ele>
        <time>2015-09-19T13:11:11Z</time>
      </trkpt>
      <trkpt lat="43.96778" lon="6.91638">
        <ele>939.83</ele>
        <time>2015-09-19T13:11:15Z</time>
      </trkpt>
      <trkpt lat="43.96779" lon="6.91646">
        <ele>938.38</ele>
        <time>2015-09-19T13:11:22Z</time>
      </trkpt>
      <trkpt lat="43.96782" lon="6.9165">
        <ele>937.42</ele>
        <time>2015-09-19T13:11:29Z</time>
      </trkpt>
      <trkpt lat="43.96786" lon="6.91659">
        <ele>936.46</ele>
        <time>2015-09-19T13:11:36Z</time>
      </trkpt>
      <trkpt lat="43.9679" lon="6.91667">
        <ele>934.54</ele>
        <time>2015-09-19T13:11:42Z</time>
      </trkpt>
      <trkpt lat="43.96797" lon="6.91671">
        <ele>932.62</ele>
        <time>2015-09-19T13:11:48Z</time>
      </trkpt>
      <trkpt lat="43.968" lon="6.91674">
        <ele>932.14</ele>
        <time>2015-09-19T13:11:58Z</time>
      </trkpt>
      <trkpt lat="43.96802" lon="6.91675">
        <ele>932.14</ele>
        <time>2015-09-19T13:12:06Z</time>
      </trkpt>
      <trkpt lat="43.96803" lon="6.91677">
        <ele>932.14</ele>
        <time>2015-09-19T13:12:13Z</time>
      </trkpt>
      <trkpt lat="43.96807" lon="6.91679">
        <ele>931.65</ele>
        <time>2015-09-19T13:12:15Z</time>
      </trkpt>
      <trkpt lat="43.96812" lon="6.91682">
        <ele>929.25</ele>
        <time>2015-09-19T13:12:20Z</time>
      </trkpt>
      <trkpt lat="43.96817" lon="6.91683">
        <ele>929.25</ele>
        <time>2015-09-19T13:12:27Z</time>
      </trkpt>
      <trkpt lat="43.96815" lon="6.91684">
        <ele>928.77</ele>
        <time>2015-09-19T13:12:42Z</time>
      </trkpt>
      <trkpt lat="43.96817" lon="6.91686">
        <ele>928.77</ele>
        <time>2015-09-19T13:12:44Z</time>
      </trkpt>
      <trkpt lat="43.96823" lon="6.91691">
        <ele>927.33</ele>
        <time>2015-09-19T13:12:52Z</time>
      </trkpt>
      <trkpt lat="43.96823" lon="6.91692">
        <ele>926.85</ele>
        <time>2015-09-19T13:12:57Z</time>
      </trkpt>
      <trkpt lat="43.96828" lon="6.91699">
        <ele>925.89</ele>
        <time>2015-09-19T13:13:04Z</time>
      </trkpt>
      <trkpt lat="43.96837" lon="6.91704">
        <ele>924.45</ele>
        <time>2015-09-19T13:13:10Z</time>
      </trkpt>
      <trkpt lat="43.96839" lon="6.91709">
        <ele>924.45</ele>
        <time>2015-09-19T13:13:17Z</time>
      </trkpt>
      <trkpt lat="43.96841" lon="6.9171">
        <ele>923.96</ele>
        <time>2015-09-19T13:13:27Z</time>
      </trkpt>
      <trkpt lat="43.96841" lon="6.91712">
        <ele>923.96</ele>
        <time>2015-09-19T13:13:36Z</time>
      </trkpt>
      <trkpt lat="43.96845" lon="6.91714">
        <ele>923</ele>
        <time>2015-09-19T13:13:42Z</time>
      </trkpt>
      <trkpt lat="43.96847" lon="6.91715">
        <ele>922.52</ele>
        <time>2015-09-19T13:13:44Z</time>
      </trkpt>
      <trkpt lat="43.96851" lon="6.9172">
        <ele>921.56</ele>
        <time>2015-09-19T13:13:49Z</time>
      </trkpt>
      <trkpt lat="43.96855" lon="6.91724">
        <ele>920.6</ele>
        <time>2015-09-19T13:13:54Z</time>
      </trkpt>
      <trkpt lat="43.96857" lon="6.91724">
        <ele>920.12</ele>
        <time>2015-09-19T13:13:56Z</time>
      </trkpt>
      <trkpt lat="43.96864" lon="6.91729">
        <ele>918.2</ele>
        <time>2015-09-19T13:14:03Z</time>
      </trkpt>
      <trkpt lat="43.96871" lon="6.91734">
        <ele>916.75</ele>
        <time>2015-09-19T13:14:09Z</time>
      </trkpt>
      <trkpt lat="43.96871" lon="6.91737">
        <ele>915.79</ele>
        <time>2015-09-19T13:14:14Z</time>
      </trkpt>
      <trkpt lat="43.96874" lon="6.91743">
        <ele>915.31</ele>
        <time>2015-09-19T13:14:19Z</time>
      </trkpt>
      <trkpt lat="43.96876" lon="6.9175">
        <ele>913.39</ele>
        <time>2015-09-19T13:14:25Z</time>
      </trkpt>
      <trkpt lat="43.96877" lon="6.91752">
        <ele>913.39</ele>
        <time>2015-09-19T13:14:33Z</time>
      </trkpt>
      <trkpt lat="43.96879" lon="6.91755">
        <ele>913.39</ele>
        <time>2015-09-19T13:14:42Z</time>
      </trkpt>
      <trkpt lat="43.9688" lon="6.91761">
        <ele>912.91</ele>
        <time>2015-09-19T13:14:46Z</time>
      </trkpt>
      <trkpt lat="43.96887" lon="6.91769">
        <ele>910.99</ele>
        <time>2015-09-19T13:14:55Z</time>
      </trkpt>
      <trkpt lat="43.96889" lon="6.9177">
        <ele>910.03</ele>
        <time>2015-09-19T13:15:01Z</time>
      </trkpt>
      <trkpt lat="43.96892" lon="6.91768">
        <ele>907.62</ele>
        <time>2015-09-19T13:15:10Z</time>
      </trkpt>
      <trkpt lat="43.96893" lon="6.91765">
        <ele>907.14</ele>
        <time>2015-09-19T13:15:12Z</time>
      </trkpt>
      <trkpt lat="43.96894" lon="6.9176">
        <ele>906.18</ele>
        <time>2015-09-19T13:15:18Z</time>
      </trkpt>
      <trkpt lat="43.96892" lon="6.91758">
        <ele>906.18</ele>
        <time>2015-09-19T13:15:25Z</time>
      </trkpt>
      <trkpt lat="43.96892" lon="6.91755">
        <ele>906.18</ele>
        <time>2015-09-19T13:15:34Z</time>
      </trkpt>
      <trkpt lat="43.96891" lon="6.91753">
        <ele>906.18</ele>
        <time>2015-09-19T13:15:41Z</time>
      </trkpt>
      <trkpt lat="43.9689" lon="6.91751">
        <ele>906.18</ele>
        <time>2015-09-19T13:15:50Z</time>
      </trkpt>
      <trkpt lat="43.96888" lon="6.91748">
        <ele>906.18</ele>
        <time>2015-09-19T13:16:07Z</time>
      </trkpt>
      <trkpt lat="43.96886" lon="6.91747">
        <ele>906.18</ele>
        <time>2015-09-19T13:16:17Z</time>
      </trkpt>
      <trkpt lat="43.96887" lon="6.91749">
        <ele>906.18</ele>
        <time>2015-09-19T13:16:26Z</time>
      </trkpt>
      <trkpt lat="43.96886" lon="6.91749">
        <ele>906.18</ele>
        <time>2015-09-19T13:16:36Z</time>
      </trkpt>
      <trkpt lat="43.96885" lon="6.91749">
        <ele>906.18</ele>
        <time>2015-09-19T13:16:50Z</time>
      </trkpt>
      <trkpt lat="43.96884" lon="6.9175">
        <ele>906.18</ele>
        <time>2015-09-19T13:17:09Z</time>
      </trkpt>
      <trkpt lat="43.96884" lon="6.91751">
        <ele>905.7</ele>
        <time>2015-09-19T13:17:30Z</time>
      </trkpt>
      <trkpt lat="43.96884" lon="6.91751">
        <ele>905.7</ele>
        <time>2015-09-19T13:17:41Z</time>
      </trkpt>
      <trkpt lat="43.96883" lon="6.91751">
        <ele>905.7</ele>
        <time>2015-09-19T13:17:57Z</time>
      </trkpt>
      <trkpt lat="43.96883" lon="6.91752">
        <ele>905.7</ele>
        <time>2015-09-19T13:18:13Z</time>
      </trkpt>
      <trkpt lat="43.96882" lon="6.91752">
        <ele>905.22</ele>
        <time>2015-09-19T13:18:28Z</time>
      </trkpt>
      <trkpt lat="43.96881" lon="6.91751">
        <ele>905.22</ele>
        <time>2015-09-19T13:18:44Z</time>
      </trkpt>
      <trkpt lat="43.9688" lon="6.91752">
        <ele>905.7</ele>
        <time>2015-09-19T13:19:01Z</time>
      </trkpt>
      <trkpt lat="43.96881" lon="6.91753">
        <ele>905.7</ele>
        <time>2015-09-19T13:19:07Z</time>
      </trkpt>
      <trkpt lat="43.96881" lon="6.91753">
        <ele>905.7</ele>
        <time>2015-09-19T13:19:13Z</time>
      </trkpt>
      <trkpt lat="43.96885" lon="6.91751">
        <ele>905.22</ele>
        <time>2015-09-19T13:19:19Z</time>
      </trkpt>
      <trkpt lat="43.96891" lon="6.91753">
        <ele>903.78</ele>
        <time>2015-09-19T13:19:27Z</time>
      </trkpt>
      <trkpt lat="43.96895" lon="6.91756">
        <ele>902.82</ele>
        <time>2015-09-19T13:19:33Z</time>
      </trkpt>
      <trkpt lat="43.96895" lon="6.91756">
        <ele>902.82</ele>
        <time>2015-09-19T13:19:34Z</time>
      </trkpt>
      <trkpt lat="43.96897" lon="6.91758">
        <ele>901.85</ele>
        <time>2015-09-19T13:19:37Z</time>
      </trkpt>
      <trkpt lat="43.96904" lon="6.91763">
        <ele>900.41</ele>
        <time>2015-09-19T13:19:43Z</time>
      </trkpt>
      <trkpt lat="43.96906" lon="6.91769">
        <ele>899.45</ele>
        <time>2015-09-19T13:19:49Z</time>
      </trkpt>
      <trkpt lat="43.96909" lon="6.91775">
        <ele>898.49</ele>
        <time>2015-09-19T13:19:55Z</time>
      </trkpt>
      <trkpt lat="43.96908" lon="6.91781">
        <ele>897.05</ele>
        <time>2015-09-19T13:20:02Z</time>
      </trkpt>
      <trkpt lat="43.96908" lon="6.91782">
        <ele>897.05</ele>
        <time>2015-09-19T13:20:03Z</time>
      </trkpt>
      <trkpt lat="43.96908" lon="6.91788">
        <ele>896.57</ele>
        <time>2015-09-19T13:20:07Z</time>
      </trkpt>
      <trkpt lat="43.96908" lon="6.91795">
        <ele>895.61</ele>
        <time>2015-09-19T13:20:13Z</time>
      </trkpt>
      <trkpt lat="43.96908" lon="6.91797">
        <ele>895.12</ele>
        <time>2015-09-19T13:20:14Z</time>
      </trkpt>
      <trkpt lat="43.96908" lon="6.91803">
        <ele>894.64</ele>
        <time>2015-09-19T13:20:18Z</time>
      </trkpt>
      <trkpt lat="43.96909" lon="6.91804">
        <ele>894.16</ele>
        <time>2015-09-19T13:20:20Z</time>
      </trkpt>
      <trkpt lat="43.96916" lon="6.91803">
        <ele>892.72</ele>
        <time>2015-09-19T13:20:28Z</time>
      </trkpt>
      <trkpt lat="43.96919" lon="6.918">
        <ele>892.24</ele>
        <time>2015-09-19T13:20:36Z</time>
      </trkpt>
      <trkpt lat="43.96921" lon="6.91797">
        <ele>891.28</ele>
        <time>2015-09-19T13:20:42Z</time>
      </trkpt>
      <trkpt lat="43.96922" lon="6.91792">
        <ele>890.32</ele>
        <time>2015-09-19T13:20:47Z</time>
      </trkpt>
      <trkpt lat="43.96928" lon="6.91782">
        <ele>888.4</ele>
        <time>2015-09-19T13:20:54Z</time>
      </trkpt>
      <trkpt lat="43.96928" lon="6.91778">
        <ele>887.91</ele>
        <time>2015-09-19T13:20:58Z</time>
      </trkpt>
      <trkpt lat="43.96931" lon="6.91782">
        <ele>887.43</ele>
        <time>2015-09-19T13:21:06Z</time>
      </trkpt>
      <trkpt lat="43.9693" lon="6.91787">
        <ele>885.99</ele>
        <time>2015-09-19T13:21:13Z</time>
      </trkpt>
      <trkpt lat="43.9693" lon="6.9179">
        <ele>885.51</ele>
        <time>2015-09-19T13:21:20Z</time>
      </trkpt>
      <trkpt lat="43.96928" lon="6.91794">
        <ele>885.03</ele>
        <time>2015-09-19T13:21:27Z</time>
      </trkpt>
      <trkpt lat="43.96926" lon="6.91803">
        <ele>883.11</ele>
        <time>2015-09-19T13:21:34Z</time>
      </trkpt>
      <trkpt lat="43.96928" lon="6.91809">
        <ele>883.11</ele>
        <time>2015-09-19T13:21:40Z</time>
      </trkpt>
      <trkpt lat="43.96925" lon="6.91814">
        <ele>882.15</ele>
        <time>2015-09-19T13:21:47Z</time>
      </trkpt>
      <trkpt lat="43.96925" lon="6.91815">
        <ele>882.15</ele>
        <time>2015-09-19T13:21:48Z</time>
      </trkpt>
      <trkpt lat="43.96923" lon="6.91823">
        <ele>881.19</ele>
        <time>2015-09-19T13:21:54Z</time>
      </trkpt>
      <trkpt lat="43.96916" lon="6.91836">
        <ele>879.74</ele>
        <time>2015-09-19T13:22:03Z</time>
      </trkpt>
      <trkpt lat="43.96915" lon="6.91837">
        <ele>879.26</ele>
        <time>2015-09-19T13:22:04Z</time>
      </trkpt>
      <trkpt lat="43.96912" lon="6.9184">
        <ele>878.78</ele>
        <time>2015-09-19T13:22:07Z</time>
      </trkpt>
      <trkpt lat="43.96911" lon="6.91852">
        <ele>877.82</ele>
        <time>2015-09-19T13:22:14Z</time>
      </trkpt>
      <trkpt lat="43.96912" lon="6.91863">
        <ele>876.38</ele>
        <time>2015-09-19T13:22:22Z</time>
      </trkpt>
      <trkpt lat="43.96914" lon="6.91869">
        <ele>874.94</ele>
        <time>2015-09-19T13:22:27Z</time>
      </trkpt>
      <trkpt lat="43.9692" lon="6.91876">
        <ele>873.5</ele>
        <time>2015-09-19T13:22:34Z</time>
      </trkpt>
      <trkpt lat="43.96925" lon="6.91882">
        <ele>872.53</ele>
        <time>2015-09-19T13:22:40Z</time>
      </trkpt>
      <trkpt lat="43.96928" lon="6.91886">
        <ele>871.09</ele>
        <time>2015-09-19T13:22:46Z</time>
      </trkpt>
      <trkpt lat="43.96933" lon="6.91892">
        <ele>869.65</ele>
        <time>2015-09-19T13:22:54Z</time>
      </trkpt>
      <trkpt lat="43.96936" lon="6.91903">
        <ele>869.65</ele>
        <time>2015-09-19T13:23:01Z</time>
      </trkpt>
      <trkpt lat="43.96937" lon="6.91909">
        <ele>869.17</ele>
        <time>2015-09-19T13:23:04Z</time>
      </trkpt>
      <trkpt lat="43.96931" lon="6.91921">
        <ele>867.73</ele>
        <time>2015-09-19T13:23:13Z</time>
      </trkpt>
      <trkpt lat="43.96931" lon="6.91924">
        <ele>867.25</ele>
        <time>2015-09-19T13:23:16Z</time>
      </trkpt>
      <trkpt lat="43.96935" lon="6.91932">
        <ele>866.29</ele>
        <time>2015-09-19T13:23:24Z</time>
      </trkpt>
      <trkpt lat="43.96938" lon="6.9194">
        <ele>865.32</ele>
        <time>2015-09-19T13:23:31Z</time>
      </trkpt>
      <trkpt lat="43.96942" lon="6.91944">
        <ele>864.84</ele>
        <time>2015-09-19T13:23:37Z</time>
      </trkpt>
      <trkpt lat="43.96941" lon="6.91943">
        <ele>864.84</ele>
        <time>2015-09-19T13:23:44Z</time>
      </trkpt>
      <trkpt lat="43.9694" lon="6.91943">
        <ele>864.84</ele>
        <time>2015-09-19T13:23:58Z</time>
      </trkpt>
      <trkpt lat="43.9694" lon="6.91942">
        <ele>864.36</ele>
        <time>2015-09-19T13:24:13Z</time>
      </trkpt>
      <trkpt lat="43.96941" lon="6.91942">
        <ele>864.36</ele>
        <time>2015-09-19T13:24:26Z</time>
      </trkpt>
      <trkpt lat="43.96941" lon="6.91942">
        <ele>864.36</ele>
        <time>2015-09-19T13:24:38Z</time>
      </trkpt>
      <trkpt lat="43.9694" lon="6.91945">
        <ele>864.36</ele>
        <time>2015-09-19T13:24:44Z</time>
      </trkpt>
      <trkpt lat="43.9694" lon="6.91952">
        <ele>863.88</ele>
        <time>2015-09-19T13:24:49Z</time>
      </trkpt>
      <trkpt lat="43.9694" lon="6.91962">
        <ele>862.44</ele>
        <time>2015-09-19T13:24:56Z</time>
      </trkpt>
      <trkpt lat="43.96941" lon="6.91963">
        <ele>862.44</ele>
        <time>2015-09-19T13:24:58Z</time>
      </trkpt>
      <trkpt lat="43.96943" lon="6.91969">
        <ele>861.48</ele>
        <time>2015-09-19T13:25:05Z</time>
      </trkpt>
      <trkpt lat="43.96948" lon="6.91976">
        <ele>860.52</ele>
        <time>2015-09-19T13:25:12Z</time>
      </trkpt>
      <trkpt lat="43.96948" lon="6.91987">
        <ele>859.08</ele>
        <time>2015-09-19T13:25:19Z</time>
      </trkpt>
      <trkpt lat="43.96949" lon="6.9199">
        <ele>859.56</ele>
        <time>2015-09-19T13:25:21Z</time>
      </trkpt>
      <trkpt lat="43.96952" lon="6.91992">
        <ele>858.59</ele>
        <time>2015-09-19T13:25:24Z</time>
      </trkpt>
      <trkpt lat="43.96958" lon="6.91998">
        <ele>857.15</ele>
        <time>2015-09-19T13:25:32Z</time>
      </trkpt>
      <trkpt lat="43.96961" lon="6.92004">
        <ele>857.15</ele>
        <time>2015-09-19T13:25:38Z</time>
      </trkpt>
      <trkpt lat="43.96967" lon="6.92007">
        <ele>855.23</ele>
        <time>2015-09-19T13:25:46Z</time>
      </trkpt>
      <trkpt lat="43.96968" lon="6.92007">
        <ele>854.75</ele>
        <time>2015-09-19T13:25:48Z</time>
      </trkpt>
      <trkpt lat="43.96973" lon="6.92004">
        <ele>853.79</ele>
        <time>2015-09-19T13:25:53Z</time>
      </trkpt>
      <trkpt lat="43.96975" lon="6.92005">
        <ele>853.31</ele>
        <time>2015-09-19T13:25:55Z</time>
      </trkpt>
      <trkpt lat="43.96982" lon="6.92001">
        <ele>852.35</ele>
        <time>2015-09-19T13:26:03Z</time>
      </trkpt>
      <trkpt lat="43.96987" lon="6.91999">
        <ele>851.38</ele>
        <time>2015-09-19T13:26:10Z</time>
      </trkpt>
      <trkpt lat="43.96992" lon="6.91998">
        <ele>850.42</ele>
        <time>2015-09-19T13:26:15Z</time>
      </trkpt>
      <trkpt lat="43.97003" lon="6.92002">
        <ele>848.5</ele>
        <time>2015-09-19T13:26:25Z</time>
      </trkpt>
      <trkpt lat="43.97005" lon="6.92003">
        <ele>848.5</ele>
        <time>2015-09-19T13:26:27Z</time>
      </trkpt>
      <trkpt lat="43.97008" lon="6.92013">
        <ele>847.54</ele>
        <time>2015-09-19T13:26:34Z</time>
      </trkpt>
      <trkpt lat="43.9701" lon="6.92018">
        <ele>847.06</ele>
        <time>2015-09-19T13:26:41Z</time>
      </trkpt>
      <trkpt lat="43.97012" lon="6.92021">
        <ele>846.58</ele>
        <time>2015-09-19T13:26:43Z</time>
      </trkpt>
      <trkpt lat="43.97016" lon="6.92027">
        <ele>846.1</ele>
        <time>2015-09-19T13:26:49Z</time>
      </trkpt>
      <trkpt lat="43.97018" lon="6.92033">
        <ele>845.62</ele>
        <time>2015-09-19T13:26:53Z</time>
      </trkpt>
      <trkpt lat="43.9702" lon="6.92035">
        <ele>844.66</ele>
        <time>2015-09-19T13:26:56Z</time>
      </trkpt>
      <trkpt lat="43.9702" lon="6.92036">
        <ele>844.66</ele>
        <time>2015-09-19T13:27:02Z</time>
      </trkpt>
      <trkpt lat="43.97022" lon="6.92037">
        <ele>844.66</ele>
        <time>2015-09-19T13:27:12Z</time>
      </trkpt>
      <trkpt lat="43.97024" lon="6.92041">
        <ele>844.18</ele>
        <time>2015-09-19T13:27:24Z</time>
      </trkpt>
      <trkpt lat="43.97025" lon="6.92045">
        <ele>843.69</ele>
        <time>2015-09-19T13:27:29Z</time>
      </trkpt>
      <trkpt lat="43.97027" lon="6.92053">
        <ele>842.25</ele>
        <time>2015-09-19T13:27:35Z</time>
      </trkpt>
      <trkpt lat="43.97027" lon="6.9206">
        <ele>840.81</ele>
        <time>2015-09-19T13:27:40Z</time>
      </trkpt>
      <trkpt lat="43.97028" lon="6.92061">
        <ele>841.29</ele>
        <time>2015-09-19T13:27:41Z</time>
      </trkpt>
      <trkpt lat="43.97034" lon="6.92063">
        <ele>839.37</ele>
        <time>2015-09-19T13:27:48Z</time>
      </trkpt>
      <trkpt lat="43.97038" lon="6.9206">
        <ele>838.89</ele>
        <time>2015-09-19T13:27:52Z</time>
      </trkpt>
      <trkpt lat="43.97046" lon="6.9206">
        <ele>837.45</ele>
        <time>2015-09-19T13:27:57Z</time>
      </trkpt>
      <trkpt lat="43.97051" lon="6.92058">
        <ele>836.96</ele>
        <time>2015-09-19T13:28:01Z</time>
      </trkpt>
      <trkpt lat="43.97055" lon="6.92053">
        <ele>836</ele>
        <time>2015-09-19T13:28:06Z</time>
      </trkpt>
      <trkpt lat="43.97062" lon="6.92046">
        <ele>835.04</ele>
        <time>2015-09-19T13:28:13Z</time>
      </trkpt>
      <trkpt lat="43.9707" lon="6.92038">
        <ele>833.12</ele>
        <time>2015-09-19T13:28:22Z</time>
      </trkpt>
      <trkpt lat="43.97073" lon="6.92035">
        <ele>832.64</ele>
        <time>2015-09-19T13:28:27Z</time>
      </trkpt>
      <trkpt lat="43.97078" lon="6.92029">
        <ele>831.2</ele>
        <time>2015-09-19T13:28:34Z</time>
      </trkpt>
      <trkpt lat="43.97079" lon="6.92029">
        <ele>831.2</ele>
        <time>2015-09-19T13:28:35Z</time>
      </trkpt>
      <trkpt lat="43.97081" lon="6.92029">
        <ele>830.72</ele>
        <time>2015-09-19T13:28:37Z</time>
      </trkpt>
      <trkpt lat="43.97088" lon="6.92026">
        <ele>829.27</ele>
        <time>2015-09-19T13:28:44Z</time>
      </trkpt>
      <trkpt lat="43.97094" lon="6.92026">
        <ele>827.83</ele>
        <time>2015-09-19T13:28:51Z</time>
      </trkpt>
      <trkpt lat="43.971" lon="6.92026">
        <ele>826.39</ele>
        <time>2015-09-19T13:28:58Z</time>
      </trkpt>
      <trkpt lat="43.97105" lon="6.92027">
        <ele>825.43</ele>
        <time>2015-09-19T13:29:04Z</time>
      </trkpt>
      <trkpt lat="43.97111" lon="6.92029">
        <ele>823.99</ele>
        <time>2015-09-19T13:29:11Z</time>
      </trkpt>
      <trkpt lat="43.97113" lon="6.9203">
        <ele>823.99</ele>
        <time>2015-09-19T13:29:18Z</time>
      </trkpt>
      <trkpt lat="43.97114" lon="6.92035">
        <ele>823.03</ele>
        <time>2015-09-19T13:29:27Z</time>
      </trkpt>
      <trkpt lat="43.97118" lon="6.92044">
        <ele>822.06</ele>
        <time>2015-09-19T13:29:32Z</time>
      </trkpt>
      <trkpt lat="43.97122" lon="6.92051">
        <ele>821.1</ele>
        <time>2015-09-19T13:29:37Z</time>
      </trkpt>
      <trkpt lat="43.97124" lon="6.92053">
        <ele>821.1</ele>
        <time>2015-09-19T13:29:45Z</time>
      </trkpt>
      <trkpt lat="43.97123" lon="6.92056">
        <ele>821.1</ele>
        <time>2015-09-19T13:29:52Z</time>
      </trkpt>
      <trkpt lat="43.97123" lon="6.92056">
        <ele>821.1</ele>
        <time>2015-09-19T13:29:56Z</time>
      </trkpt>
      <trkpt lat="43.97126" lon="6.92058">
        <ele>821.1</ele>
        <time>2015-09-19T13:29:59Z</time>
      </trkpt>
      <trkpt lat="43.97129" lon="6.92059">
        <ele>820.14</ele>
        <time>2015-09-19T13:30:02Z</time>
      </trkpt>
      <trkpt lat="43.97134" lon="6.92064">
        <ele>819.66</ele>
        <time>2015-09-19T13:30:09Z</time>
      </trkpt>
      <trkpt lat="43.97137" lon="6.92063">
        <ele>819.18</ele>
        <time>2015-09-19T13:30:13Z</time>
      </trkpt>
      <trkpt lat="43.97143" lon="6.9206">
        <ele>819.18</ele>
        <time>2015-09-19T13:30:20Z</time>
      </trkpt>
      <trkpt lat="43.9715" lon="6.92056">
        <ele>818.22</ele>
        <time>2015-09-19T13:30:28Z</time>
      </trkpt>
      <trkpt lat="43.97157" lon="6.9205">
        <ele>817.26</ele>
        <time>2015-09-19T13:30:36Z</time>
      </trkpt>
      <trkpt lat="43.97163" lon="6.92041">
        <ele>816.3</ele>
        <time>2015-09-19T13:30:44Z</time>
      </trkpt>
      <trkpt lat="43.97166" lon="6.92037">
        <ele>815.82</ele>
        <time>2015-09-19T13:30:49Z</time>
      </trkpt>
      <trkpt lat="43.97169" lon="6.9203">
        <ele>815.34</ele>
        <time>2015-09-19T13:30:55Z</time>
      </trkpt>
      <trkpt lat="43.97172" lon="6.92026">
        <ele>814.85</ele>
        <time>2015-09-19T13:31:04Z</time>
      </trkpt>
      <trkpt lat="43.97173" lon="6.92025">
        <ele>814.37</ele>
        <time>2015-09-19T13:31:14Z</time>
      </trkpt>
      <trkpt lat="43.9718" lon="6.92024">
        <ele>812.93</ele>
        <time>2015-09-19T13:31:22Z</time>
      </trkpt>
      <trkpt lat="43.97181" lon="6.92028">
        <ele>812.45</ele>
        <time>2015-09-19T13:31:25Z</time>
      </trkpt>
      <trkpt lat="43.97185" lon="6.92036">
        <ele>811.01</ele>
        <time>2015-09-19T13:31:33Z</time>
      </trkpt>
      <trkpt lat="43.9719" lon="6.92043">
        <ele>810.05</ele>
        <time>2015-09-19T13:31:41Z</time>
      </trkpt>
      <trkpt lat="43.97192" lon="6.92044">
        <ele>808.61</ele>
        <time>2015-09-19T13:31:43Z</time>
      </trkpt>
      <trkpt lat="43.97196" lon="6.9205">
        <ele>807.16</ele>
        <time>2015-09-19T13:31:51Z</time>
      </trkpt>
      <trkpt lat="43.97201" lon="6.92057">
        <ele>806.2</ele>
        <time>2015-09-19T13:31:59Z</time>
      </trkpt>
      <trkpt lat="43.97204" lon="6.92056">
        <ele>805.24</ele>
        <time>2015-09-19T13:32:04Z</time>
      </trkpt>
      <trkpt lat="43.97205" lon="6.92056">
        <ele>804.76</ele>
        <time>2015-09-19T13:32:05Z</time>
      </trkpt>
      <trkpt lat="43.97207" lon="6.92054">
        <ele>804.76</ele>
        <time>2015-09-19T13:32:07Z</time>
      </trkpt>
      <trkpt lat="43.97213" lon="6.92051">
        <ele>802.84</ele>
        <time>2015-09-19T13:32:15Z</time>
      </trkpt>
      <trkpt lat="43.97218" lon="6.92047">
        <ele>801.4</ele>
        <time>2015-09-19T13:32:23Z</time>
      </trkpt>
      <trkpt lat="43.97222" lon="6.92044">
        <ele>800.92</ele>
        <time>2015-09-19T13:32:31Z</time>
      </trkpt>
      <trkpt lat="43.97223" lon="6.92042">
        <ele>799.95</ele>
        <time>2015-09-19T13:32:37Z</time>
      </trkpt>
      <trkpt lat="43.97225" lon="6.92039">
        <ele>798.99</ele>
        <time>2015-09-19T13:32:46Z</time>
      </trkpt>
      <trkpt lat="43.97227" lon="6.92036">
        <ele>798.51</ele>
        <time>2015-09-19T13:32:54Z</time>
      </trkpt>
      <trkpt lat="43.97227" lon="6.92034">
        <ele>797.55</ele>
        <time>2015-09-19T13:33:03Z</time>
      </trkpt>
      <trkpt lat="43.97224" lon="6.92031">
        <ele>796.59</ele>
        <time>2015-09-19T13:33:10Z</time>
      </trkpt>
      <trkpt lat="43.97223" lon="6.92028">
        <ele>796.59</ele>
        <time>2015-09-19T13:33:17Z</time>
      </trkpt>
      <trkpt lat="43.97223" lon="6.92028">
        <ele>796.59</ele>
        <time>2015-09-19T13:33:27Z</time>
      </trkpt>
      <trkpt lat="43.97222" lon="6.92026">
        <ele>796.11</ele>
        <time>2015-09-19T13:33:33Z</time>
      </trkpt>
      <trkpt lat="43.97221" lon="6.92026">
        <ele>795.63</ele>
        <time>2015-09-19T13:33:35Z</time>
      </trkpt>
      <trkpt lat="43.97217" lon="6.92022">
        <ele>794.67</ele>
        <time>2015-09-19T13:33:43Z</time>
      </trkpt>
      <trkpt lat="43.97215" lon="6.92017">
        <ele>794.19</ele>
        <time>2015-09-19T13:33:50Z</time>
      </trkpt>
      <trkpt lat="43.97211" lon="6.92014">
        <ele>793.71</ele>
        <time>2015-09-19T13:33:56Z</time>
      </trkpt>
      <trkpt lat="43.9721" lon="6.92012">
        <ele>793.71</ele>
        <time>2015-09-19T13:34:04Z</time>
      </trkpt>
      <trkpt lat="43.9721" lon="6.92011">
        <ele>793.22</ele>
        <time>2015-09-19T13:34:17Z</time>
      </trkpt>
      <trkpt lat="43.97207" lon="6.92006">
        <ele>792.26</ele>
        <time>2015-09-19T13:34:25Z</time>
      </trkpt>
      <trkpt lat="43.97202" lon="6.91999">
        <ele>791.3</ele>
        <time>2015-09-19T13:34:32Z</time>
      </trkpt>
      <trkpt lat="43.97197" lon="6.91991">
        <ele>789.86</ele>
        <time>2015-09-19T13:34:39Z</time>
      </trkpt>
      <trkpt lat="43.97196" lon="6.91987">
        <ele>789.38</ele>
        <time>2015-09-19T13:34:43Z</time>
      </trkpt>
      <trkpt lat="43.97195" lon="6.91984">
        <ele>788.42</ele>
        <time>2015-09-19T13:34:46Z</time>
      </trkpt>
      <trkpt lat="43.97193" lon="6.91978">
        <ele>787.46</ele>
        <time>2015-09-19T13:34:51Z</time>
      </trkpt>
      <trkpt lat="43.97194" lon="6.91978">
        <ele>787.46</ele>
        <time>2015-09-19T13:34:52Z</time>
      </trkpt>
      <trkpt lat="43.97191" lon="6.91974">
        <ele>786.5</ele>
        <time>2015-09-19T13:34:58Z</time>
      </trkpt>
      <trkpt lat="43.97189" lon="6.91969">
        <ele>785.53</ele>
        <time>2015-09-19T13:35:04Z</time>
      </trkpt>
      <trkpt lat="43.97188" lon="6.91968">
        <ele>785.53</ele>
        <time>2015-09-19T13:35:05Z</time>
      </trkpt>
      <trkpt lat="43.97183" lon="6.91965">
        <ele>784.57</ele>
        <time>2015-09-19T13:35:08Z</time>
      </trkpt>
      <trkpt lat="43.97179" lon="6.91958">
        <ele>783.13</ele>
        <time>2015-09-19T13:35:14Z</time>
      </trkpt>
      <trkpt lat="43.97179" lon="6.91954">
        <ele>782.65</ele>
        <time>2015-09-19T13:35:19Z</time>
      </trkpt>
      <trkpt lat="43.97179" lon="6.91951">
        <ele>782.17</ele>
        <time>2015-09-19T13:35:21Z</time>
      </trkpt>
      <trkpt lat="43.97181" lon="6.91945">
        <ele>780.73</ele>
        <time>2015-09-19T13:35:26Z</time>
      </trkpt>
      <trkpt lat="43.97178" lon="6.91937">
        <ele>779.29</ele>
        <time>2015-09-19T13:35:33Z</time>
      </trkpt>
      <trkpt lat="43.97179" lon="6.91933">
        <ele>779.29</ele>
        <time>2015-09-19T13:35:40Z</time>
      </trkpt>
      <trkpt lat="43.9718" lon="6.91931">
        <ele>779.29</ele>
        <time>2015-09-19T13:35:47Z</time>
      </trkpt>
      <trkpt lat="43.9718" lon="6.91931">
        <ele>778.81</ele>
        <time>2015-09-19T13:35:58Z</time>
      </trkpt>
      <trkpt lat="43.97181" lon="6.9193">
        <ele>778.81</ele>
        <time>2015-09-19T13:36:10Z</time>
      </trkpt>
      <trkpt lat="43.97182" lon="6.91931">
        <ele>778.81</ele>
        <time>2015-09-19T13:36:19Z</time>
      </trkpt>
      <trkpt lat="43.97183" lon="6.9193">
        <ele>778.81</ele>
        <time>2015-09-19T13:36:25Z</time>
      </trkpt>
      <trkpt lat="43.97184" lon="6.91928">
        <ele>778.81</ele>
        <time>2015-09-19T13:36:42Z</time>
      </trkpt>
      <trkpt lat="43.97183" lon="6.91927">
        <ele>778.32</ele>
        <time>2015-09-19T13:36:58Z</time>
      </trkpt>
      <trkpt lat="43.97183" lon="6.91928">
        <ele>778.32</ele>
        <time>2015-09-19T13:36:59Z</time>
      </trkpt>
      <trkpt lat="43.97185" lon="6.91929">
        <ele>778.32</ele>
        <time>2015-09-19T13:37:07Z</time>
      </trkpt>
      <trkpt lat="43.97184" lon="6.9193">
        <ele>778.32</ele>
        <time>2015-09-19T13:37:16Z</time>
      </trkpt>
      <trkpt lat="43.97183" lon="6.91929">
        <ele>777.84</ele>
        <time>2015-09-19T13:37:23Z</time>
      </trkpt>
      <trkpt lat="43.97183" lon="6.9193">
        <ele>777.36</ele>
        <time>2015-09-19T13:37:39Z</time>
      </trkpt>
      <trkpt lat="43.97184" lon="6.91931">
        <ele>777.36</ele>
        <time>2015-09-19T13:37:52Z</time>
      </trkpt>
      <trkpt lat="43.97185" lon="6.91931">
        <ele>777.36</ele>
        <time>2015-09-19T13:38:08Z</time>
      </trkpt>
      <trkpt lat="43.97184" lon="6.91931">
        <ele>777.36</ele>
        <time>2015-09-19T13:38:24Z</time>
      </trkpt>
      <trkpt lat="43.97184" lon="6.91931">
        <ele>777.36</ele>
        <time>2015-09-19T13:38:41Z</time>
      </trkpt>
      <trkpt lat="43.97184" lon="6.91931">
        <ele>776.88</ele>
        <time>2015-09-19T13:38:58Z</time>
      </trkpt>
      <trkpt lat="43.97184" lon="6.91931">
        <ele>776.88</ele>
        <time>2015-09-19T13:39:15Z</time>
      </trkpt>
      <trkpt lat="43.97183" lon="6.91931">
        <ele>776.88</ele>
        <time>2015-09-19T13:39:33Z</time>
      </trkpt>
      <trkpt lat="43.97184" lon="6.91933">
        <ele>777.36</ele>
        <time>2015-09-19T13:39:41Z</time>
      </trkpt>
      <trkpt lat="43.97185" lon="6.91936">
        <ele>777.84</ele>
        <time>2015-09-19T13:39:47Z</time>
      </trkpt>
      <trkpt lat="43.97184" lon="6.91941">
        <ele>778.81</ele>
        <time>2015-09-19T13:39:55Z</time>
      </trkpt>
      <trkpt lat="43.97186" lon="6.91942">
        <ele>778.32</ele>
        <time>2015-09-19T13:40:02Z</time>
      </trkpt>
      <trkpt lat="43.97189" lon="6.91942">
        <ele>777.36</ele>
        <time>2015-09-19T13:40:09Z</time>
      </trkpt>
      <trkpt lat="43.97191" lon="6.91945">
        <ele>776.88</ele>
        <time>2015-09-19T13:40:16Z</time>
      </trkpt>
      <trkpt lat="43.97194" lon="6.91946">
        <ele>776.4</ele>
        <time>2015-09-19T13:40:24Z</time>
      </trkpt>
      <trkpt lat="43.97198" lon="6.91946">
        <ele>775.44</ele>
        <time>2015-09-19T13:40:30Z</time>
      </trkpt>
      <trkpt lat="43.97203" lon="6.91949">
        <ele>774.48</ele>
        <time>2015-09-19T13:40:37Z</time>
      </trkpt>
      <trkpt lat="43.97204" lon="6.91955">
        <ele>773.52</ele>
        <time>2015-09-19T13:40:43Z</time>
      </trkpt>
      <trkpt lat="43.97206" lon="6.91961">
        <ele>772.56</ele>
        <time>2015-09-19T13:40:49Z</time>
      </trkpt>
      <trkpt lat="43.97208" lon="6.91964">
        <ele>772.08</ele>
        <time>2015-09-19T13:40:52Z</time>
      </trkpt>
      <trkpt lat="43.9721" lon="6.91965">
        <ele>771.6</ele>
        <time>2015-09-19T13:40:54Z</time>
      </trkpt>
      <trkpt lat="43.97214" lon="6.9197">
        <ele>770.63</ele>
        <time>2015-09-19T13:40:59Z</time>
      </trkpt>
      <trkpt lat="43.97218" lon="6.91972">
        <ele>770.15</ele>
        <time>2015-09-19T13:41:03Z</time>
      </trkpt>
      <trkpt lat="43.97223" lon="6.9197">
        <ele>768.71</ele>
        <time>2015-09-19T13:41:10Z</time>
      </trkpt>
      <trkpt lat="43.97225" lon="6.91969">
        <ele>768.23</ele>
        <time>2015-09-19T13:41:13Z</time>
      </trkpt>
      <trkpt lat="43.97228" lon="6.9197">
        <ele>767.75</ele>
        <time>2015-09-19T13:41:16Z</time>
      </trkpt>
      <trkpt lat="43.97234" lon="6.91967">
        <ele>766.79</ele>
        <time>2015-09-19T13:41:23Z</time>
      </trkpt>
      <trkpt lat="43.97236" lon="6.91969">
        <ele>766.31</ele>
        <time>2015-09-19T13:41:25Z</time>
      </trkpt>
      <trkpt lat="43.97241" lon="6.91976">
        <ele>765.83</ele>
        <time>2015-09-19T13:41:31Z</time>
      </trkpt>
      <trkpt lat="43.97244" lon="6.91978">
        <ele>764.87</ele>
        <time>2015-09-19T13:41:36Z</time>
      </trkpt>
      <trkpt lat="43.97249" lon="6.91981">
        <ele>764.39</ele>
        <time>2015-09-19T13:41:43Z</time>
      </trkpt>
      <trkpt lat="43.97253" lon="6.91982">
        <ele>761.98</ele>
        <time>2015-09-19T13:41:50Z</time>
      </trkpt>
      <trkpt lat="43.97258" lon="6.91986">
        <ele>760.54</ele>
        <time>2015-09-19T13:41:58Z</time>
      </trkpt>
      <trkpt lat="43.97263" lon="6.91989">
        <ele>758.62</ele>
        <time>2015-09-19T13:42:06Z</time>
      </trkpt>
      <trkpt lat="43.97266" lon="6.9199">
        <ele>758.14</ele>
        <time>2015-09-19T13:42:12Z</time>
      </trkpt>
      <trkpt lat="43.9727" lon="6.91992">
        <ele>756.69</ele>
        <time>2015-09-19T13:42:18Z</time>
      </trkpt>
      <trkpt lat="43.97278" lon="6.91994">
        <ele>755.73</ele>
        <time>2015-09-19T13:42:26Z</time>
      </trkpt>
      <trkpt lat="43.97279" lon="6.91994">
        <ele>755.73</ele>
        <time>2015-09-19T13:42:27Z</time>
      </trkpt>
      <trkpt lat="43.97284" lon="6.92">
        <ele>754.29</ele>
        <time>2015-09-19T13:42:34Z</time>
      </trkpt>
      <trkpt lat="43.9729" lon="6.92002">
        <ele>753.33</ele>
        <time>2015-09-19T13:42:42Z</time>
      </trkpt>
      <trkpt lat="43.97291" lon="6.92">
        <ele>752.37</ele>
        <time>2015-09-19T13:42:48Z</time>
      </trkpt>
      <trkpt lat="43.97291" lon="6.91999">
        <ele>751.41</ele>
        <time>2015-09-19T13:42:55Z</time>
      </trkpt>
      <trkpt lat="43.97288" lon="6.91992">
        <ele>749.97</ele>
        <time>2015-09-19T13:43:03Z</time>
      </trkpt>
      <trkpt lat="43.97287" lon="6.91991">
        <ele>749.49</ele>
        <time>2015-09-19T13:43:04Z</time>
      </trkpt>
      <trkpt lat="43.97285" lon="6.91989">
        <ele>749</ele>
        <time>2015-09-19T13:43:07Z</time>
      </trkpt>
      <trkpt lat="43.97281" lon="6.91982">
        <ele>748.04</ele>
        <time>2015-09-19T13:43:15Z</time>
      </trkpt>
      <trkpt lat="43.97278" lon="6.91978">
        <ele>747.56</ele>
        <time>2015-09-19T13:43:22Z</time>
      </trkpt>
      <trkpt lat="43.97277" lon="6.91976">
        <ele>747.08</ele>
        <time>2015-09-19T13:43:24Z</time>
      </trkpt>
      <trkpt lat="43.97274" lon="6.91966">
        <ele>746.12</ele>
        <time>2015-09-19T13:43:33Z</time>
      </trkpt>
      <trkpt lat="43.97271" lon="6.9196">
        <ele>745.16</ele>
        <time>2015-09-19T13:43:40Z</time>
      </trkpt>
      <trkpt lat="43.97268" lon="6.91952">
        <ele>744.2</ele>
        <time>2015-09-19T13:43:47Z</time>
      </trkpt>
      <trkpt lat="43.97262" lon="6.91945">
        <ele>743.24</ele>
        <time>2015-09-19T13:43:54Z</time>
      </trkpt>
      <trkpt lat="43.97259" lon="6.9194">
        <ele>741.79</ele>
        <time>2015-09-19T13:44:00Z</time>
      </trkpt>
      <trkpt lat="43.97257" lon="6.91937">
        <ele>741.31</ele>
        <time>2015-09-19T13:44:02Z</time>
      </trkpt>
      <trkpt lat="43.97256" lon="6.91929">
        <ele>740.35</ele>
        <time>2015-09-19T13:44:10Z</time>
      </trkpt>
      <trkpt lat="43.97256" lon="6.91927">
        <ele>740.35</ele>
        <time>2015-09-19T13:44:17Z</time>
      </trkpt>
      <trkpt lat="43.97259" lon="6.91927">
        <ele>740.35</ele>
        <time>2015-09-19T13:44:22Z</time>
      </trkpt>
      <trkpt lat="43.97261" lon="6.91928">
        <ele>740.35</ele>
        <time>2015-09-19T13:44:26Z</time>
      </trkpt>
      <trkpt lat="43.97263" lon="6.91928">
        <ele>739.87</ele>
        <time>2015-09-19T13:44:29Z</time>
      </trkpt>
      <trkpt lat="43.97268" lon="6.9193">
        <ele>738.91</ele>
        <time>2015-09-19T13:44:36Z</time>
      </trkpt>
      <trkpt lat="43.97274" lon="6.91931">
        <ele>737.47</ele>
        <time>2015-09-19T13:44:43Z</time>
      </trkpt>
      <trkpt lat="43.97276" lon="6.91933">
        <ele>736.51</ele>
        <time>2015-09-19T13:44:50Z</time>
      </trkpt>
      <trkpt lat="43.97282" lon="6.91934">
        <ele>735.55</ele>
        <time>2015-09-19T13:44:57Z</time>
      </trkpt>
      <trkpt lat="43.97284" lon="6.91935">
        <ele>735.07</ele>
        <time>2015-09-19T13:44:59Z</time>
      </trkpt>
      <trkpt lat="43.97289" lon="6.91945">
        <ele>734.1</ele>
        <time>2015-09-19T13:45:07Z</time>
      </trkpt>
      <trkpt lat="43.97295" lon="6.91953">
        <ele>734.58</ele>
        <time>2015-09-19T13:45:15Z</time>
      </trkpt>
      <trkpt lat="43.97301" lon="6.9196">
        <ele>734.1</ele>
        <time>2015-09-19T13:45:24Z</time>
      </trkpt>
      <trkpt lat="43.97309" lon="6.91963">
        <ele>733.62</ele>
        <time>2015-09-19T13:45:32Z</time>
      </trkpt>
      <trkpt lat="43.97312" lon="6.91964">
        <ele>733.62</ele>
        <time>2015-09-19T13:45:36Z</time>
      </trkpt>
      <trkpt lat="43.97319" lon="6.9197">
        <ele>733.62</ele>
        <time>2015-09-19T13:45:44Z</time>
      </trkpt>
      <trkpt lat="43.9732" lon="6.91972">
        <ele>733.62</ele>
        <time>2015-09-19T13:45:45Z</time>
      </trkpt>
      <trkpt lat="43.97326" lon="6.91983">
        <ele>733.62</ele>
        <time>2015-09-19T13:45:53Z</time>
      </trkpt>
      <trkpt lat="43.97328" lon="6.91987">
        <ele>733.62</ele>
        <time>2015-09-19T13:45:59Z</time>
      </trkpt>
      <trkpt lat="43.97328" lon="6.9199">
        <ele>733.62</ele>
        <time>2015-09-19T13:46:12Z</time>
      </trkpt>
      <trkpt lat="43.97329" lon="6.9199">
        <ele>733.14</ele>
        <time>2015-09-19T13:46:24Z</time>
      </trkpt>
      <trkpt lat="43.97331" lon="6.91991">
        <ele>733.14</ele>
        <time>2015-09-19T13:46:36Z</time>
      </trkpt>
      <trkpt lat="43.97332" lon="6.91996">
        <ele>733.14</ele>
        <time>2015-09-19T13:46:42Z</time>
      </trkpt>
      <trkpt lat="43.97334" lon="6.92002">
        <ele>732.66</ele>
        <time>2015-09-19T13:46:49Z</time>
      </trkpt>
      <trkpt lat="43.97335" lon="6.92006">
        <ele>732.66</ele>
        <time>2015-09-19T13:46:52Z</time>
      </trkpt>
      <trkpt lat="43.97341" lon="6.92017">
        <ele>732.18</ele>
        <time>2015-09-19T13:47:02Z</time>
      </trkpt>
      <trkpt lat="43.97346" lon="6.92021">
        <ele>731.22</ele>
        <time>2015-09-19T13:47:08Z</time>
      </trkpt>
      <trkpt lat="43.97347" lon="6.92023">
        <ele>730.74</ele>
        <time>2015-09-19T13:47:12Z</time>
      </trkpt>
      <trkpt lat="43.97353" lon="6.92025">
        <ele>729.3</ele>
        <time>2015-09-19T13:47:19Z</time>
      </trkpt>
      <trkpt lat="43.97353" lon="6.92024">
        <ele>728.82</ele>
        <time>2015-09-19T13:47:24Z</time>
      </trkpt>
      <trkpt lat="43.97352" lon="6.9202">
        <ele>727.86</ele>
        <time>2015-09-19T13:47:30Z</time>
      </trkpt>
      <trkpt lat="43.97354" lon="6.9201">
        <ele>726.89</ele>
        <time>2015-09-19T13:47:38Z</time>
      </trkpt>
      <trkpt lat="43.97356" lon="6.92009">
        <ele>726.41</ele>
        <time>2015-09-19T13:47:40Z</time>
      </trkpt>
      <trkpt lat="43.97361" lon="6.92009">
        <ele>725.45</ele>
        <time>2015-09-19T13:47:48Z</time>
      </trkpt>
      <trkpt lat="43.9736" lon="6.92009">
        <ele>725.45</ele>
        <time>2015-09-19T13:47:56Z</time>
      </trkpt>
      <trkpt lat="43.9736" lon="6.9201">
        <ele>724.97</ele>
        <time>2015-09-19T13:48:15Z</time>
      </trkpt>
      <trkpt lat="43.9736" lon="6.92011">
        <ele>725.45</ele>
        <time>2015-09-19T13:48:34Z</time>
      </trkpt>
      <trkpt lat="43.97362" lon="6.92009">
        <ele>724.97</ele>
        <time>2015-09-19T13:48:49Z</time>
      </trkpt>
      <trkpt lat="43.97365" lon="6.92009">
        <ele>724.49</ele>
        <time>2015-09-19T13:48:52Z</time>
      </trkpt>
      <trkpt lat="43.97368" lon="6.92008">
        <ele>724.49</ele>
        <time>2015-09-19T13:48:59Z</time>
      </trkpt>
      <trkpt lat="43.97369" lon="6.92009">
        <ele>724.49</ele>
        <time>2015-09-19T13:49:15Z</time>
      </trkpt>
      <trkpt lat="43.97372" lon="6.92005">
        <ele>725.45</ele>
        <time>2015-09-19T13:49:22Z</time>
      </trkpt>
      <trkpt lat="43.97373" lon="6.92004">
        <ele>725.93</ele>
        <time>2015-09-19T13:49:26Z</time>
      </trkpt>
      <trkpt lat="43.9738" lon="6.91997">
        <ele>725.93</ele>
        <time>2015-09-19T13:49:34Z</time>
      </trkpt>
      <trkpt lat="43.97384" lon="6.91993">
        <ele>725.93</ele>
        <time>2015-09-19T13:49:40Z</time>
      </trkpt>
      <trkpt lat="43.97387" lon="6.9199">
        <ele>725.93</ele>
        <time>2015-09-19T13:49:43Z</time>
      </trkpt>
      <trkpt lat="43.97392" lon="6.91987">
        <ele>725.93</ele>
        <time>2015-09-19T13:49:51Z</time>
      </trkpt>
      <trkpt lat="43.97392" lon="6.91986">
        <ele>724.01</ele>
        <time>2015-09-19T13:49:56Z</time>
      </trkpt>
      <trkpt lat="43.97392" lon="6.91986">
        <ele>728.34</ele>
        <time>2015-09-19T13:49:57Z</time>
      </trkpt>
      <trkpt lat="43.97392" lon="6.91986">
        <ele>725.93</ele>
        <time>2015-09-19T13:49:58Z</time>
      </trkpt>
      <trkpt lat="43.97392" lon="6.91986">
        <ele>725.45</ele>
        <time>2015-09-19T13:50:05Z</time>
      </trkpt>
      <trkpt lat="43.97391" lon="6.91985">
        <ele>724.97</ele>
        <time>2015-09-19T13:50:15Z</time>
      </trkpt>
      <trkpt lat="43.97391" lon="6.91985">
        <ele>725.45</ele>
        <time>2015-09-19T13:50:22Z</time>
      </trkpt>
      <trkpt lat="43.97391" lon="6.91985">
        <ele>724.49</ele>
        <time>2015-09-19T13:50:32Z</time>
      </trkpt>
      <trkpt lat="43.97392" lon="6.91986">
        <ele>724.97</ele>
        <time>2015-09-19T13:50:46Z</time>
      </trkpt>
      <trkpt lat="43.97392" lon="6.91986">
        <ele>725.93</ele>
        <time>2015-09-19T13:50:56Z</time>
      </trkpt>
      <trkpt lat="43.97392" lon="6.91986">
        <ele>725.45</ele>
        <time>2015-09-19T13:51:00Z</time>
      </trkpt>
    </trkseg>
  </trk>
</gpx>